<?xml version='1.0' encoding='UTF-8'?><gpx version="1.1" creator="JPX - https://github.com/jenetics/jpx" xmlns="http://www.topografix.com/GPX/1/1"><trk><trkseg><trkpt lat="37.6495863" lon="12.5998255"><ele>16.0</ele><time>2026-03-29T13:23:05.832Z</time></trkpt><trkpt lat="37.6495336" lon="12.599687"><ele>16.0</ele><time>2026-03-29T13:23:11.879Z</time></trkpt><trkpt lat="37.6494437" lon="12.5996473"><ele>16.0</ele><time>2026-03-29T13:23:28.878Z</time></trkpt><trkpt lat="37.649378" lon="12.599639"><ele>16.0</ele><time>2026-03-29T13:23:29.878Z</time></trkpt><trkpt lat="37.6492516" lon="12.599595"><ele>16.0</ele><time>2026-03-29T13:23:31.877Z</time></trkpt><trkpt lat="37.6491838" lon="12.5995618"><ele>15.666666666666666</ele><time>2026-03-29T13:23:32.878Z</time></trkpt><trkpt lat="37.6491146" lon="12.5995397"><ele>15.333333333333332</ele><time>2026-03-29T13:23:33.877Z</time></trkpt><trkpt lat="37.6490415" lon="12.5995214"><ele>15.0</ele><time>2026-03-29T13:23:34.877Z</time></trkpt><trkpt lat="37.6489746" lon="12.5994982"><ele>14.666666666666668</ele><time>2026-03-29T13:23:35.878Z</time></trkpt><trkpt lat="37.6488524" lon="12.5995343"><ele>14.333333333333334</ele><time>2026-03-29T13:23:37.877Z</time></trkpt><trkpt lat="37.648806" lon="12.5996011"><ele>14.0</ele><time>2026-03-29T13:23:38.877Z</time></trkpt><trkpt lat="37.6487726" lon="12.5996866"><ele>13.833333333333334</ele><time>2026-03-29T13:23:39.878Z</time></trkpt><trkpt lat="37.64874" lon="12.5997739"><ele>13.666666666666668</ele><time>2026-03-29T13:23:40.877Z</time></trkpt><trkpt lat="37.6487076" lon="12.5998454"><ele>13.5</ele><time>2026-03-29T13:23:41.879Z</time></trkpt><trkpt lat="37.6487049" lon="12.5999971"><ele>13.333333333333332</ele><time>2026-03-29T13:23:43.878Z</time></trkpt><trkpt lat="37.6487483" lon="12.6000551"><ele>13.166666666666666</ele><time>2026-03-29T13:23:44.877Z</time></trkpt><trkpt lat="37.6488077" lon="12.6001025"><ele>13.0</ele><time>2026-03-29T13:23:45.878Z</time></trkpt><trkpt lat="37.6488714" lon="12.6001466"><ele>12.999999999999998</ele><time>2026-03-29T13:23:46.879Z</time></trkpt><trkpt lat="37.6489401" lon="12.6001873"><ele>13.0</ele><time>2026-03-29T13:23:47.879Z</time></trkpt><trkpt lat="37.6490118" lon="12.6002318"><ele>13.0</ele><time>2026-03-29T13:23:48.878Z</time></trkpt><trkpt lat="37.6490855" lon="12.6002715"><ele>13.0</ele><time>2026-03-29T13:23:49.879Z</time></trkpt><trkpt lat="37.6491555" lon="12.6003213"><ele>12.999999999999998</ele><time>2026-03-29T13:23:50.878Z</time></trkpt><trkpt lat="37.6492284" lon="12.6003649"><ele>13.0</ele><time>2026-03-29T13:23:51.878Z</time></trkpt><trkpt lat="37.6492988" lon="12.6004078"><ele>13.166666666666666</ele><time>2026-03-29T13:23:52.877Z</time></trkpt><trkpt lat="37.6493576" lon="12.6004503"><ele>13.333333333333332</ele><time>2026-03-29T13:23:53.878Z</time></trkpt><trkpt lat="37.649431" lon="12.6005351"><ele>13.5</ele><time>2026-03-29T13:23:55.878Z</time></trkpt><trkpt lat="37.6494998" lon="12.6005833"><ele>13.666666666666668</ele><time>2026-03-29T13:23:57.878Z</time></trkpt><trkpt lat="37.6495226" lon="12.6006653"><ele>13.833333333333334</ele><time>2026-03-29T13:24:28.878Z</time></trkpt><trkpt lat="37.6494789" lon="12.6007986"><ele>14.0</ele><time>2026-03-29T13:24:30.878Z</time></trkpt><trkpt lat="37.6494545" lon="12.6008776"><ele>14.0</ele><time>2026-03-29T13:24:31.877Z</time></trkpt><trkpt lat="37.6494266" lon="12.6009705"><ele>13.999999999999998</ele><time>2026-03-29T13:24:32.878Z</time></trkpt><trkpt lat="37.6493977" lon="12.6010695"><ele>13.999999999999998</ele><time>2026-03-29T13:24:33.877Z</time></trkpt><trkpt lat="37.6493593" lon="12.6011819"><ele>14.0</ele><time>2026-03-29T13:24:34.879Z</time></trkpt><trkpt lat="37.6493235" lon="12.6012967"><ele>14.0</ele><time>2026-03-29T13:24:35.879Z</time></trkpt><trkpt lat="37.6492797" lon="12.6014142"><ele>14.399999999999999</ele><time>2026-03-29T13:24:36.879Z</time></trkpt><trkpt lat="37.6492358" lon="12.6015374"><ele>14.799999999999999</ele><time>2026-03-29T13:24:37.878Z</time></trkpt><trkpt lat="37.6491905" lon="12.6016557"><ele>15.200000000000001</ele><time>2026-03-29T13:24:38.878Z</time></trkpt><trkpt lat="37.6491446" lon="12.6017869"><ele>15.600000000000001</ele><time>2026-03-29T13:24:39.879Z</time></trkpt><trkpt lat="37.6490973" lon="12.6019078"><ele>16.0</ele><time>2026-03-29T13:24:40.877Z</time></trkpt><trkpt lat="37.6490516" lon="12.6020332"><ele>16.0</ele><time>2026-03-29T13:24:41.878Z</time></trkpt><trkpt lat="37.649005" lon="12.6021419"><ele>16.0</ele><time>2026-03-29T13:24:42.878Z</time></trkpt><trkpt lat="37.6489668" lon="12.6022674"><ele>16.0</ele><time>2026-03-29T13:24:43.878Z</time></trkpt><trkpt lat="37.6489275" lon="12.6023914"><ele>16.0</ele><time>2026-03-29T13:24:44.878Z</time></trkpt><trkpt lat="37.6488837" lon="12.6025181"><ele>16.0</ele><time>2026-03-29T13:24:45.877Z</time></trkpt><trkpt lat="37.6488377" lon="12.6026399"><ele>16.0</ele><time>2026-03-29T13:24:46.878Z</time></trkpt><trkpt lat="37.6487979" lon="12.6027732"><ele>16.0</ele><time>2026-03-29T13:24:47.878Z</time></trkpt><trkpt lat="37.648752" lon="12.6028997"><ele>16.0</ele><time>2026-03-29T13:24:48.879Z</time></trkpt><trkpt lat="37.6487051" lon="12.6030193"><ele>16.0</ele><time>2026-03-29T13:24:49.879Z</time></trkpt><trkpt lat="37.6486666" lon="12.6031314"><ele>16.0</ele><time>2026-03-29T13:24:50.878Z</time></trkpt><trkpt lat="37.6486291" lon="12.6032365"><ele>15.833333333333332</ele><time>2026-03-29T13:24:51.879Z</time></trkpt><trkpt lat="37.6485973" lon="12.6033287"><ele>15.666666666666666</ele><time>2026-03-29T13:24:52.878Z</time></trkpt><trkpt lat="37.6485642" lon="12.6034065"><ele>15.5</ele><time>2026-03-29T13:24:53.877Z</time></trkpt><trkpt lat="37.6485116" lon="12.6035307"><ele>15.333333333333332</ele><time>2026-03-29T13:24:55.877Z</time></trkpt><trkpt lat="37.6484602" lon="12.6036187"><ele>15.166666666666666</ele><time>2026-03-29T13:24:57.878Z</time></trkpt><trkpt lat="37.6483668" lon="12.603631"><ele>15.0</ele><time>2026-03-29T13:24:59.879Z</time></trkpt><trkpt lat="37.6482923" lon="12.6035709"><ele>15.0</ele><time>2026-03-29T13:25:01.878Z</time></trkpt><trkpt lat="37.6482776" lon="12.6034318"><ele>15.0</ele><time>2026-03-29T13:25:03.878Z</time></trkpt><trkpt lat="37.6483242" lon="12.6033163"><ele>15.0</ele><time>2026-03-29T13:25:05.878Z</time></trkpt><trkpt lat="37.6483646" lon="12.6032509"><ele>15.0</ele><time>2026-03-29T13:25:08.878Z</time></trkpt><trkpt lat="37.6484351" lon="12.6032574"><ele>15.0</ele><time>2026-03-29T13:26:06.878Z</time></trkpt><trkpt lat="37.6485239" lon="12.6032962"><ele>15.0</ele><time>2026-03-29T13:26:08.879Z</time></trkpt><trkpt lat="37.6485762" lon="12.6033421"><ele>15.0</ele><time>2026-03-29T13:26:10.878Z</time></trkpt><trkpt lat="37.6485872" lon="12.6034244"><ele>15.0</ele><time>2026-03-29T13:26:12.878Z</time></trkpt><trkpt lat="37.6485345" lon="12.6035773"><ele>15.0</ele><time>2026-03-29T13:26:14.878Z</time></trkpt><trkpt lat="37.6484901" lon="12.6036375"><ele>15.0</ele><time>2026-03-29T13:26:15.878Z</time></trkpt><trkpt lat="37.6484535" lon="12.60375"><ele>15.0</ele><time>2026-03-29T13:26:16.879Z</time></trkpt><trkpt lat="37.6484134" lon="12.6038653"><ele>14.8</ele><time>2026-03-29T13:26:17.878Z</time></trkpt><trkpt lat="37.6483789" lon="12.6039722"><ele>14.6</ele><time>2026-03-29T13:26:18.877Z</time></trkpt><trkpt lat="37.6483333" lon="12.6040969"><ele>14.399999999999999</ele><time>2026-03-29T13:26:19.878Z</time></trkpt><trkpt lat="37.6482895" lon="12.6042238"><ele>14.2</ele><time>2026-03-29T13:26:20.879Z</time></trkpt><trkpt lat="37.6482439" lon="12.6043572"><ele>14.0</ele><time>2026-03-29T13:26:21.879Z</time></trkpt><trkpt lat="37.6482085" lon="12.6044663"><ele>14.2</ele><time>2026-03-29T13:26:22.877Z</time></trkpt><trkpt lat="37.6481707" lon="12.6045802"><ele>14.399999999999999</ele><time>2026-03-29T13:26:23.878Z</time></trkpt><trkpt lat="37.6481247" lon="12.6046991"><ele>14.6</ele><time>2026-03-29T13:26:24.878Z</time></trkpt><trkpt lat="37.6480802" lon="12.6048175"><ele>14.8</ele><time>2026-03-29T13:26:25.878Z</time></trkpt><trkpt lat="37.6480338" lon="12.6049472"><ele>15.0</ele><time>2026-03-29T13:26:26.878Z</time></trkpt><trkpt lat="37.6479842" lon="12.6050839"><ele>15.0</ele><time>2026-03-29T13:26:27.878Z</time></trkpt><trkpt lat="37.6479403" lon="12.6052225"><ele>15.0</ele><time>2026-03-29T13:26:28.879Z</time></trkpt><trkpt lat="37.647889" lon="12.6053611"><ele>15.0</ele><time>2026-03-29T13:26:29.878Z</time></trkpt><trkpt lat="37.6478507" lon="12.6055039"><ele>15.0</ele><time>2026-03-29T13:26:30.879Z</time></trkpt><trkpt lat="37.6478043" lon="12.6056373"><ele>14.25</ele><time>2026-03-29T13:26:31.879Z</time></trkpt><trkpt lat="37.6477527" lon="12.6057827"><ele>13.5</ele><time>2026-03-29T13:26:32.879Z</time></trkpt><trkpt lat="37.6477038" lon="12.605914"><ele>12.75</ele><time>2026-03-29T13:26:33.878Z</time></trkpt><trkpt lat="37.6476596" lon="12.6060447"><ele>12.0</ele><time>2026-03-29T13:26:34.877Z</time></trkpt><trkpt lat="37.6476105" lon="12.6061801"><ele>12.0</ele><time>2026-03-29T13:26:35.877Z</time></trkpt><trkpt lat="37.6475608" lon="12.6063179"><ele>12.0</ele><time>2026-03-29T13:26:36.877Z</time></trkpt><trkpt lat="37.6475071" lon="12.6064658"><ele>12.0</ele><time>2026-03-29T13:26:37.878Z</time></trkpt><trkpt lat="37.6474551" lon="12.606618"><ele>12.0</ele><time>2026-03-29T13:26:38.878Z</time></trkpt><trkpt lat="37.6474047" lon="12.6067626"><ele>12.0</ele><time>2026-03-29T13:26:39.878Z</time></trkpt><trkpt lat="37.6473533" lon="12.6069128"><ele>12.0</ele><time>2026-03-29T13:26:40.877Z</time></trkpt><trkpt lat="37.6473084" lon="12.6070514"><ele>12.0</ele><time>2026-03-29T13:26:41.879Z</time></trkpt><trkpt lat="37.6472681" lon="12.6071633"><ele>12.0</ele><time>2026-03-29T13:26:42.878Z</time></trkpt><trkpt lat="37.6472195" lon="12.6072814"><ele>12.0</ele><time>2026-03-29T13:26:43.879Z</time></trkpt><trkpt lat="37.6471793" lon="12.607394"><ele>12.0</ele><time>2026-03-29T13:26:44.879Z</time></trkpt><trkpt lat="37.6471393" lon="12.6075029"><ele>12.0</ele><time>2026-03-29T13:26:45.879Z</time></trkpt><trkpt lat="37.6471052" lon="12.6075986"><ele>12.0</ele><time>2026-03-29T13:26:46.877Z</time></trkpt><trkpt lat="37.647071" lon="12.6076796"><ele>12.0</ele><time>2026-03-29T13:26:47.879Z</time></trkpt><trkpt lat="37.6470373" lon="12.6077556"><ele>12.0</ele><time>2026-03-29T13:26:48.879Z</time></trkpt><trkpt lat="37.6469406" lon="12.6078613"><ele>12.0</ele><time>2026-03-29T13:26:50.877Z</time></trkpt><trkpt lat="37.6468414" lon="12.6078904"><ele>12.0</ele><time>2026-03-29T13:26:52.878Z</time></trkpt><trkpt lat="37.6467883" lon="12.6079372"><ele>12.0</ele><time>2026-03-29T13:26:55.877Z</time></trkpt><trkpt lat="37.646803" lon="12.6080195"><ele>12.0</ele><time>2026-03-29T13:28:00.879Z</time></trkpt><trkpt lat="37.6468041" lon="12.608132"><ele>12.0</ele><time>2026-03-29T13:30:39.879Z</time></trkpt><trkpt lat="37.6468493" lon="12.6082168"><ele>12.0</ele><time>2026-03-29T13:30:42.878Z</time></trkpt><trkpt lat="37.6469329" lon="12.6081945"><ele>11.833333333333334</ele><time>2026-03-29T13:30:46.878Z</time></trkpt><trkpt lat="37.6469878" lon="12.6080657"><ele>11.666666666666666</ele><time>2026-03-29T13:30:48.878Z</time></trkpt><trkpt lat="37.647021" lon="12.6079952"><ele>11.5</ele><time>2026-03-29T13:30:49.879Z</time></trkpt><trkpt lat="37.647047" lon="12.6079127"><ele>11.333333333333332</ele><time>2026-03-29T13:30:50.878Z</time></trkpt><trkpt lat="37.6470773" lon="12.607829"><ele>11.166666666666666</ele><time>2026-03-29T13:30:51.877Z</time></trkpt><trkpt lat="37.6471114" lon="12.6077506"><ele>11.0</ele><time>2026-03-29T13:30:52.878Z</time></trkpt><trkpt lat="37.6471436" lon="12.6076773"><ele>11.0</ele><time>2026-03-29T13:30:53.879Z</time></trkpt><trkpt lat="37.6471947" lon="12.6075565"><ele>11.0</ele><time>2026-03-29T13:30:55.879Z</time></trkpt><trkpt lat="37.6472802" lon="12.6075187"><ele>11.0</ele><time>2026-03-29T13:30:57.878Z</time></trkpt><trkpt lat="37.6473998" lon="12.6075808"><ele>11.0</ele><time>2026-03-29T13:30:59.878Z</time></trkpt><trkpt lat="37.6474696" lon="12.6076235"><ele>11.0</ele><time>2026-03-29T13:31:00.877Z</time></trkpt><trkpt lat="37.6475466" lon="12.6076612"><ele>11.0</ele><time>2026-03-29T13:31:01.878Z</time></trkpt><trkpt lat="37.6476278" lon="12.6077066"><ele>11.0</ele><time>2026-03-29T13:31:02.877Z</time></trkpt><trkpt lat="37.6477205" lon="12.6077522"><ele>11.0</ele><time>2026-03-29T13:31:03.878Z</time></trkpt><trkpt lat="37.6478103" lon="12.6077907"><ele>11.0</ele><time>2026-03-29T13:31:04.878Z</time></trkpt><trkpt lat="37.64791" lon="12.6078322"><ele>11.0</ele><time>2026-03-29T13:31:05.877Z</time></trkpt><trkpt lat="37.6480039" lon="12.6078767"><ele>11.600000000000001</ele><time>2026-03-29T13:31:06.877Z</time></trkpt><trkpt lat="37.6481011" lon="12.6079199"><ele>12.2</ele><time>2026-03-29T13:31:07.878Z</time></trkpt><trkpt lat="37.6482028" lon="12.6079648"><ele>12.799999999999999</ele><time>2026-03-29T13:31:08.877Z</time></trkpt><trkpt lat="37.6483044" lon="12.6080087"><ele>13.399999999999999</ele><time>2026-03-29T13:31:09.879Z</time></trkpt><trkpt lat="37.6484088" lon="12.6080472"><ele>14.0</ele><time>2026-03-29T13:31:10.877Z</time></trkpt><trkpt lat="37.648517" lon="12.6080925"><ele>14.0</ele><time>2026-03-29T13:31:11.877Z</time></trkpt><trkpt lat="37.648634" lon="12.6081328"><ele>14.0</ele><time>2026-03-29T13:31:12.878Z</time></trkpt><trkpt lat="37.64875" lon="12.6081739"><ele>14.0</ele><time>2026-03-29T13:31:13.877Z</time></trkpt><trkpt lat="37.648867" lon="12.6082163"><ele>14.0</ele><time>2026-03-29T13:31:14.879Z</time></trkpt><trkpt lat="37.6489874" lon="12.6082545"><ele>14.0</ele><time>2026-03-29T13:31:15.878Z</time></trkpt><trkpt lat="37.6491101" lon="12.6082965"><ele>14.0</ele><time>2026-03-29T13:31:16.879Z</time></trkpt><trkpt lat="37.6492305" lon="12.6083427"><ele>14.0</ele><time>2026-03-29T13:31:17.878Z</time></trkpt><trkpt lat="37.6493451" lon="12.6083787"><ele>14.0</ele><time>2026-03-29T13:31:18.878Z</time></trkpt><trkpt lat="37.649458" lon="12.6084165"><ele>14.000000000000002</ele><time>2026-03-29T13:31:19.879Z</time></trkpt><trkpt lat="37.6495527" lon="12.6084466"><ele>14.0</ele><time>2026-03-29T13:31:20.879Z</time></trkpt><trkpt lat="37.6496323" lon="12.6084738"><ele>14.0</ele><time>2026-03-29T13:31:21.878Z</time></trkpt><trkpt lat="37.6496933" lon="12.6084987"><ele>14.0</ele><time>2026-03-29T13:31:22.878Z</time></trkpt><trkpt lat="37.6497814" lon="12.6085389"><ele>14.000000000000002</ele><time>2026-03-29T13:31:24.878Z</time></trkpt><trkpt lat="37.6498383" lon="12.608627"><ele>14.0</ele><time>2026-03-29T13:31:28.878Z</time></trkpt><trkpt lat="37.649829" lon="12.6087805"><ele>14.000000000000002</ele><time>2026-03-29T13:31:30.877Z</time></trkpt><trkpt lat="37.6498232" lon="12.6088739"><ele>14.0</ele><time>2026-03-29T13:31:31.879Z</time></trkpt><trkpt lat="37.6498121" lon="12.6089647"><ele>14.0</ele><time>2026-03-29T13:31:32.876Z</time></trkpt><trkpt lat="37.6498052" lon="12.6090587"><ele>14.0</ele><time>2026-03-29T13:31:33.878Z</time></trkpt><trkpt lat="37.649798" lon="12.6091558"><ele>14.000000000000002</ele><time>2026-03-29T13:31:34.878Z</time></trkpt><trkpt lat="37.6497916" lon="12.609263"><ele>14.0</ele><time>2026-03-29T13:31:35.879Z</time></trkpt><trkpt lat="37.6497832" lon="12.6093766"><ele>14.000000000000002</ele><time>2026-03-29T13:31:36.877Z</time></trkpt><trkpt lat="37.6497783" lon="12.6094928"><ele>14.0</ele><time>2026-03-29T13:31:37.879Z</time></trkpt><trkpt lat="37.6497717" lon="12.6096142"><ele>14.0</ele><time>2026-03-29T13:31:38.878Z</time></trkpt><trkpt lat="37.6497664" lon="12.6097304"><ele>14.0</ele><time>2026-03-29T13:31:39.878Z</time></trkpt><trkpt lat="37.6497645" lon="12.6098396"><ele>14.000000000000002</ele><time>2026-03-29T13:31:40.878Z</time></trkpt><trkpt lat="37.6497647" lon="12.6099436"><ele>14.0</ele><time>2026-03-29T13:31:41.878Z</time></trkpt><trkpt lat="37.6497626" lon="12.6100422"><ele>14.0</ele><time>2026-03-29T13:31:42.879Z</time></trkpt><trkpt lat="37.6497657" lon="12.6101277"><ele>13.999999999999998</ele><time>2026-03-29T13:31:43.877Z</time></trkpt><trkpt lat="37.6497656" lon="12.6102112"><ele>13.999999999999998</ele><time>2026-03-29T13:31:44.878Z</time></trkpt><trkpt lat="37.6497608" lon="12.6103532"><ele>14.0</ele><time>2026-03-29T13:31:46.878Z</time></trkpt><trkpt lat="37.6497721" lon="12.6104817"><ele>14.0</ele><time>2026-03-29T13:31:48.878Z</time></trkpt><trkpt lat="37.6497704" lon="12.610622"><ele>14.0</ele><time>2026-03-29T13:31:50.878Z</time></trkpt><trkpt lat="37.6497654" lon="12.6107892"><ele>13.999999999999998</ele><time>2026-03-29T13:31:52.878Z</time></trkpt><trkpt lat="37.6497616" lon="12.6108848"><ele>13.999999999999998</ele><time>2026-03-29T13:31:53.878Z</time></trkpt><trkpt lat="37.6497554" lon="12.6109862"><ele>14.0</ele><time>2026-03-29T13:31:54.877Z</time></trkpt><trkpt lat="37.6497538" lon="12.6110994"><ele>14.0</ele><time>2026-03-29T13:31:55.878Z</time></trkpt><trkpt lat="37.6497477" lon="12.6112159"><ele>14.399999999999999</ele><time>2026-03-29T13:31:56.878Z</time></trkpt><trkpt lat="37.6497405" lon="12.6113359"><ele>14.799999999999999</ele><time>2026-03-29T13:31:57.878Z</time></trkpt><trkpt lat="37.6497336" lon="12.6114577"><ele>15.200000000000001</ele><time>2026-03-29T13:31:58.878Z</time></trkpt><trkpt lat="37.6497314" lon="12.6115765"><ele>15.600000000000001</ele><time>2026-03-29T13:31:59.879Z</time></trkpt><trkpt lat="37.6497236" lon="12.611692"><ele>16.0</ele><time>2026-03-29T13:32:00.878Z</time></trkpt><trkpt lat="37.6497163" lon="12.6118119"><ele>15.999999999999998</ele><time>2026-03-29T13:32:01.878Z</time></trkpt><trkpt lat="37.6497064" lon="12.6119245"><ele>16.0</ele><time>2026-03-29T13:32:02.877Z</time></trkpt><trkpt lat="37.6496972" lon="12.612029"><ele>16.0</ele><time>2026-03-29T13:32:03.879Z</time></trkpt><trkpt lat="37.6496895" lon="12.6121241"><ele>16.0</ele><time>2026-03-29T13:32:04.878Z</time></trkpt><trkpt lat="37.6496911" lon="12.6122108"><ele>15.999999999999998</ele><time>2026-03-29T13:32:05.878Z</time></trkpt><trkpt lat="37.6496826" lon="12.6123361"><ele>16.0</ele><time>2026-03-29T13:32:07.878Z</time></trkpt><trkpt lat="37.6496855" lon="12.6124184"><ele>16.5</ele><time>2026-03-29T13:32:11.879Z</time></trkpt><trkpt lat="37.6496608" lon="12.6125266"><ele>17.0</ele><time>2026-03-29T13:32:15.877Z</time></trkpt><trkpt lat="37.64965" lon="12.6126094"><ele>17.5</ele><time>2026-03-29T13:32:16.877Z</time></trkpt><trkpt lat="37.6496342" lon="12.6127059"><ele>18.0</ele><time>2026-03-29T13:32:17.878Z</time></trkpt><trkpt lat="37.6496175" lon="12.6128107"><ele>18.5</ele><time>2026-03-29T13:32:18.879Z</time></trkpt><trkpt lat="37.6496013" lon="12.6129229"><ele>19.0</ele><time>2026-03-29T13:32:19.879Z</time></trkpt><trkpt lat="37.6495804" lon="12.6130431"><ele>20.0</ele><time>2026-03-29T13:32:20.879Z</time></trkpt><trkpt lat="37.6495577" lon="12.6131708"><ele>21.0</ele><time>2026-03-29T13:32:21.879Z</time></trkpt><trkpt lat="37.649536" lon="12.6132901"><ele>22.0</ele><time>2026-03-29T13:32:22.879Z</time></trkpt><trkpt lat="37.6495165" lon="12.6134204"><ele>23.0</ele><time>2026-03-29T13:32:23.877Z</time></trkpt><trkpt lat="37.6494881" lon="12.61354"><ele>24.0</ele><time>2026-03-29T13:32:24.879Z</time></trkpt><trkpt lat="37.6494682" lon="12.6136695"><ele>24.6</ele><time>2026-03-29T13:32:25.879Z</time></trkpt><trkpt lat="37.6494632" lon="12.613803"><ele>25.2</ele><time>2026-03-29T13:32:26.877Z</time></trkpt><trkpt lat="37.6494868" lon="12.6139277"><ele>25.800000000000004</ele><time>2026-03-29T13:32:27.878Z</time></trkpt><trkpt lat="37.6495182" lon="12.6140502"><ele>26.400000000000002</ele><time>2026-03-29T13:32:28.878Z</time></trkpt><trkpt lat="37.6495997" lon="12.6141671"><ele>27.0</ele><time>2026-03-29T13:32:29.878Z</time></trkpt><trkpt lat="37.6496777" lon="12.6142937"><ele>27.0</ele><time>2026-03-29T13:32:30.878Z</time></trkpt><trkpt lat="37.6497782" lon="12.6144307"><ele>27.0</ele><time>2026-03-29T13:32:31.878Z</time></trkpt><trkpt lat="37.649882" lon="12.6145815"><ele>27.0</ele><time>2026-03-29T13:32:32.878Z</time></trkpt><trkpt lat="37.6499733" lon="12.6147113"><ele>27.0</ele><time>2026-03-29T13:32:33.879Z</time></trkpt><trkpt lat="37.6500453" lon="12.6148402"><ele>26.75</ele><time>2026-03-29T13:32:34.879Z</time></trkpt><trkpt lat="37.6501084" lon="12.6149672"><ele>26.5</ele><time>2026-03-29T13:32:35.878Z</time></trkpt><trkpt lat="37.6501252" lon="12.6151309"><ele>26.25</ele><time>2026-03-29T13:32:36.877Z</time></trkpt><trkpt lat="37.6501611" lon="12.6152978"><ele>26.0</ele><time>2026-03-29T13:32:37.877Z</time></trkpt><trkpt lat="37.6501868" lon="12.615462"><ele>26.75</ele><time>2026-03-29T13:32:38.878Z</time></trkpt><trkpt lat="37.6502053" lon="12.6156297"><ele>27.5</ele><time>2026-03-29T13:32:39.878Z</time></trkpt><trkpt lat="37.6502136" lon="12.6158017"><ele>28.25</ele><time>2026-03-29T13:32:40.878Z</time></trkpt><trkpt lat="37.6502216" lon="12.6159696"><ele>29.0</ele><time>2026-03-29T13:32:41.878Z</time></trkpt><trkpt lat="37.6502249" lon="12.6161369"><ele>29.5</ele><time>2026-03-29T13:32:42.879Z</time></trkpt><trkpt lat="37.6502322" lon="12.6163166"><ele>30.0</ele><time>2026-03-29T13:32:43.879Z</time></trkpt><trkpt lat="37.6502364" lon="12.6164912"><ele>30.5</ele><time>2026-03-29T13:32:44.877Z</time></trkpt><trkpt lat="37.6502459" lon="12.6166667"><ele>31.0</ele><time>2026-03-29T13:32:45.879Z</time></trkpt><trkpt lat="37.6502551" lon="12.6168364"><ele>31.25</ele><time>2026-03-29T13:32:46.879Z</time></trkpt><trkpt lat="37.6502702" lon="12.617009"><ele>31.5</ele><time>2026-03-29T13:32:47.877Z</time></trkpt><trkpt lat="37.6502812" lon="12.617175"><ele>31.75</ele><time>2026-03-29T13:32:48.877Z</time></trkpt><trkpt lat="37.6502939" lon="12.6173241"><ele>32.0</ele><time>2026-03-29T13:32:49.878Z</time></trkpt><trkpt lat="37.6502989" lon="12.6174609"><ele>32.5</ele><time>2026-03-29T13:32:50.877Z</time></trkpt><trkpt lat="37.6503094" lon="12.6175786"><ele>33.0</ele><time>2026-03-29T13:32:51.878Z</time></trkpt><trkpt lat="37.6503345" lon="12.6176756"><ele>33.5</ele><time>2026-03-29T13:32:52.878Z</time></trkpt><trkpt lat="37.6503813" lon="12.6177456"><ele>34.0</ele><time>2026-03-29T13:32:53.878Z</time></trkpt><trkpt lat="37.6504526" lon="12.6177919"><ele>34.5</ele><time>2026-03-29T13:32:54.878Z</time></trkpt><trkpt lat="37.650539" lon="12.6178016"><ele>35.0</ele><time>2026-03-29T13:32:55.877Z</time></trkpt><trkpt lat="37.6506491" lon="12.617803"><ele>35.0</ele><time>2026-03-29T13:32:56.878Z</time></trkpt><trkpt lat="37.6507695" lon="12.61781"><ele>35.0</ele><time>2026-03-29T13:32:57.878Z</time></trkpt><trkpt lat="37.6508997" lon="12.6178479"><ele>35.0</ele><time>2026-03-29T13:32:58.879Z</time></trkpt><trkpt lat="37.6510311" lon="12.6179143"><ele>35.0</ele><time>2026-03-29T13:32:59.879Z</time></trkpt><trkpt lat="37.6511601" lon="12.6180194"><ele>36.33333333333333</ele><time>2026-03-29T13:33:00.879Z</time></trkpt><trkpt lat="37.6512762" lon="12.618161"><ele>37.666666666666664</ele><time>2026-03-29T13:33:01.878Z</time></trkpt><trkpt lat="37.6513905" lon="12.618303"><ele>39.0</ele><time>2026-03-29T13:33:02.878Z</time></trkpt><trkpt lat="37.6514963" lon="12.6184503"><ele>39.0</ele><time>2026-03-29T13:33:03.878Z</time></trkpt><trkpt lat="37.6516043" lon="12.6185982"><ele>39.0</ele><time>2026-03-29T13:33:04.877Z</time></trkpt><trkpt lat="37.6517168" lon="12.6187477"><ele>39.0</ele><time>2026-03-29T13:33:05.878Z</time></trkpt><trkpt lat="37.6518289" lon="12.6188937"><ele>39.25</ele><time>2026-03-29T13:33:06.878Z</time></trkpt><trkpt lat="37.6519356" lon="12.6190355"><ele>39.5</ele><time>2026-03-29T13:33:07.879Z</time></trkpt><trkpt lat="37.6520335" lon="12.6191729"><ele>39.75</ele><time>2026-03-29T13:33:08.878Z</time></trkpt><trkpt lat="37.6521204" lon="12.619321"><ele>40.0</ele><time>2026-03-29T13:33:09.879Z</time></trkpt><trkpt lat="37.6522027" lon="12.6194714"><ele>41.333333333333336</ele><time>2026-03-29T13:33:10.879Z</time></trkpt><trkpt lat="37.6522744" lon="12.6196279"><ele>42.666666666666664</ele><time>2026-03-29T13:33:11.879Z</time></trkpt><trkpt lat="37.6523466" lon="12.6198009"><ele>44.0</ele><time>2026-03-29T13:33:12.878Z</time></trkpt><trkpt lat="37.6524139" lon="12.6199801"><ele>44.0</ele><time>2026-03-29T13:33:13.878Z</time></trkpt><trkpt lat="37.6524695" lon="12.6201441"><ele>44.0</ele><time>2026-03-29T13:33:14.878Z</time></trkpt><trkpt lat="37.6525235" lon="12.620288"><ele>44.0</ele><time>2026-03-29T13:33:15.879Z</time></trkpt><trkpt lat="37.6525794" lon="12.6204227"><ele>44.0</ele><time>2026-03-29T13:33:16.879Z</time></trkpt><trkpt lat="37.6526243" lon="12.6205445"><ele>44.0</ele><time>2026-03-29T13:33:17.878Z</time></trkpt><trkpt lat="37.6526687" lon="12.6206623"><ele>44.0</ele><time>2026-03-29T13:33:18.878Z</time></trkpt><trkpt lat="37.6527176" lon="12.6207545"><ele>44.0</ele><time>2026-03-29T13:33:19.878Z</time></trkpt><trkpt lat="37.6527732" lon="12.6208235"><ele>44.0</ele><time>2026-03-29T13:33:20.878Z</time></trkpt><trkpt lat="37.6528505" lon="12.6208766"><ele>44.0</ele><time>2026-03-29T13:33:21.877Z</time></trkpt><trkpt lat="37.6529414" lon="12.6208876"><ele>44.0</ele><time>2026-03-29T13:33:22.879Z</time></trkpt><trkpt lat="37.6530361" lon="12.6208844"><ele>44.25</ele><time>2026-03-29T13:33:23.879Z</time></trkpt><trkpt lat="37.6531491" lon="12.6208595"><ele>44.5</ele><time>2026-03-29T13:33:24.877Z</time></trkpt><trkpt lat="37.6532655" lon="12.6208415"><ele>44.75</ele><time>2026-03-29T13:33:25.878Z</time></trkpt><trkpt lat="37.6533964" lon="12.6208166"><ele>45.0</ele><time>2026-03-29T13:33:26.878Z</time></trkpt><trkpt lat="37.6535815" lon="12.6207861"><ele>45.5</ele><time>2026-03-29T13:33:27.878Z</time></trkpt><trkpt lat="37.653751" lon="12.6207558"><ele>46.0</ele><time>2026-03-29T13:33:28.879Z</time></trkpt><trkpt lat="37.65389" lon="12.6207293"><ele>46.5</ele><time>2026-03-29T13:33:29.878Z</time></trkpt><trkpt lat="37.6540038" lon="12.6207105"><ele>47.0</ele><time>2026-03-29T13:33:30.879Z</time></trkpt><trkpt lat="37.6541032" lon="12.6206955"><ele>47.0</ele><time>2026-03-29T13:33:31.878Z</time></trkpt><trkpt lat="37.6541795" lon="12.6206859"><ele>47.0</ele><time>2026-03-29T13:33:32.878Z</time></trkpt><trkpt lat="37.6542844" lon="12.6206757"><ele>47.0</ele><time>2026-03-29T13:33:34.879Z</time></trkpt><trkpt lat="37.6543494" lon="12.6207494"><ele>47.0</ele><time>2026-03-29T13:33:36.879Z</time></trkpt><trkpt lat="37.6543667" lon="12.6208303"><ele>47.0</ele><time>2026-03-29T13:33:37.878Z</time></trkpt><trkpt lat="37.6543771" lon="12.6209375"><ele>47.0</ele><time>2026-03-29T13:33:38.879Z</time></trkpt><trkpt lat="37.6543925" lon="12.6210611"><ele>47.25</ele><time>2026-03-29T13:33:39.877Z</time></trkpt><trkpt lat="37.6544102" lon="12.6212137"><ele>47.5</ele><time>2026-03-29T13:33:40.878Z</time></trkpt><trkpt lat="37.6544301" lon="12.6213878"><ele>47.75</ele><time>2026-03-29T13:33:41.878Z</time></trkpt><trkpt lat="37.6544513" lon="12.6215855"><ele>48.0</ele><time>2026-03-29T13:33:42.878Z</time></trkpt><trkpt lat="37.6544801" lon="12.6217793"><ele>48.0</ele><time>2026-03-29T13:33:43.878Z</time></trkpt><trkpt lat="37.6545029" lon="12.6219685"><ele>48.0</ele><time>2026-03-29T13:33:44.878Z</time></trkpt><trkpt lat="37.6545259" lon="12.6221541"><ele>48.0</ele><time>2026-03-29T13:33:45.878Z</time></trkpt><trkpt lat="37.6545492" lon="12.6223423"><ele>48.0</ele><time>2026-03-29T13:33:46.878Z</time></trkpt><trkpt lat="37.6545737" lon="12.6225424"><ele>48.0</ele><time>2026-03-29T13:33:47.878Z</time></trkpt><trkpt lat="37.6546009" lon="12.6227382"><ele>48.0</ele><time>2026-03-29T13:33:48.878Z</time></trkpt><trkpt lat="37.6546264" lon="12.6229372"><ele>49.0</ele><time>2026-03-29T13:33:49.878Z</time></trkpt><trkpt lat="37.6546547" lon="12.6231262"><ele>50.0</ele><time>2026-03-29T13:33:50.878Z</time></trkpt><trkpt lat="37.6546779" lon="12.6233199"><ele>51.0</ele><time>2026-03-29T13:33:51.877Z</time></trkpt><trkpt lat="37.6547005" lon="12.6235153"><ele>51.25</ele><time>2026-03-29T13:33:52.877Z</time></trkpt><trkpt lat="37.6547268" lon="12.6237044"><ele>51.5</ele><time>2026-03-29T13:33:53.878Z</time></trkpt><trkpt lat="37.6547488" lon="12.6238938"><ele>51.75</ele><time>2026-03-29T13:33:54.877Z</time></trkpt><trkpt lat="37.6547732" lon="12.6240702"><ele>52.0</ele><time>2026-03-29T13:33:55.878Z</time></trkpt><trkpt lat="37.6548002" lon="12.6242451"><ele>52.0</ele><time>2026-03-29T13:33:56.877Z</time></trkpt><trkpt lat="37.6548284" lon="12.6244204"><ele>52.0</ele><time>2026-03-29T13:33:57.879Z</time></trkpt><trkpt lat="37.6548689" lon="12.6245906"><ele>52.0</ele><time>2026-03-29T13:33:58.879Z</time></trkpt><trkpt lat="37.6549158" lon="12.6247638"><ele>52.0</ele><time>2026-03-29T13:33:59.879Z</time></trkpt><trkpt lat="37.6549578" lon="12.6249144"><ele>52.0</ele><time>2026-03-29T13:34:00.878Z</time></trkpt><trkpt lat="37.6550041" lon="12.6250523"><ele>52.0</ele><time>2026-03-29T13:34:01.877Z</time></trkpt><trkpt lat="37.6550411" lon="12.6251685"><ele>52.0</ele><time>2026-03-29T13:34:02.879Z</time></trkpt><trkpt lat="37.6550694" lon="12.625275"><ele>52.0</ele><time>2026-03-29T13:34:03.879Z</time></trkpt><trkpt lat="37.6551011" lon="12.6253669"><ele>52.0</ele><time>2026-03-29T13:34:04.878Z</time></trkpt><trkpt lat="37.6551407" lon="12.6254415"><ele>51.99999999999999</ele><time>2026-03-29T13:34:05.878Z</time></trkpt><trkpt lat="37.6552053" lon="12.6254854"><ele>52.0</ele><time>2026-03-29T13:34:06.879Z</time></trkpt><trkpt lat="37.655282" lon="12.6255073"><ele>52.0</ele><time>2026-03-29T13:34:07.878Z</time></trkpt><trkpt lat="37.6553664" lon="12.6254947"><ele>52.0</ele><time>2026-03-29T13:34:08.878Z</time></trkpt><trkpt lat="37.6554577" lon="12.6254609"><ele>51.99999999999999</ele><time>2026-03-29T13:34:09.878Z</time></trkpt><trkpt lat="37.6555577" lon="12.6254149"><ele>52.0</ele><time>2026-03-29T13:34:10.879Z</time></trkpt><trkpt lat="37.655659" lon="12.6253606"><ele>51.75</ele><time>2026-03-29T13:34:11.877Z</time></trkpt><trkpt lat="37.6557688" lon="12.6253007"><ele>51.5</ele><time>2026-03-29T13:34:12.877Z</time></trkpt><trkpt lat="37.6558828" lon="12.6252453"><ele>51.25</ele><time>2026-03-29T13:34:13.878Z</time></trkpt><trkpt lat="37.6559989" lon="12.6251915"><ele>51.0</ele><time>2026-03-29T13:34:14.878Z</time></trkpt><trkpt lat="37.6561077" lon="12.6251374"><ele>51.5</ele><time>2026-03-29T13:34:15.878Z</time></trkpt><trkpt lat="37.6562178" lon="12.6250826"><ele>52.0</ele><time>2026-03-29T13:34:16.878Z</time></trkpt><trkpt lat="37.656338" lon="12.6250283"><ele>52.5</ele><time>2026-03-29T13:34:17.879Z</time></trkpt><trkpt lat="37.6564473" lon="12.6249813"><ele>53.0</ele><time>2026-03-29T13:34:18.879Z</time></trkpt><trkpt lat="37.6565697" lon="12.6249362"><ele>53.0</ele><time>2026-03-29T13:34:19.878Z</time></trkpt><trkpt lat="37.6566906" lon="12.6248966"><ele>53.0</ele><time>2026-03-29T13:34:20.879Z</time></trkpt><trkpt lat="37.6568081" lon="12.6248507"><ele>53.0</ele><time>2026-03-29T13:34:21.879Z</time></trkpt><trkpt lat="37.6569246" lon="12.624817"><ele>53.0</ele><time>2026-03-29T13:34:22.877Z</time></trkpt><trkpt lat="37.657046" lon="12.6248045"><ele>53.25</ele><time>2026-03-29T13:34:23.878Z</time></trkpt><trkpt lat="37.6571711" lon="12.6247963"><ele>53.5</ele><time>2026-03-29T13:34:24.877Z</time></trkpt><trkpt lat="37.6572949" lon="12.6248085"><ele>53.75</ele><time>2026-03-29T13:34:25.877Z</time></trkpt><trkpt lat="37.6574219" lon="12.6248055"><ele>54.0</ele><time>2026-03-29T13:34:26.879Z</time></trkpt><trkpt lat="37.6575401" lon="12.6247965"><ele>54.0</ele><time>2026-03-29T13:34:27.877Z</time></trkpt><trkpt lat="37.6576433" lon="12.6247853"><ele>54.0</ele><time>2026-03-29T13:34:28.879Z</time></trkpt><trkpt lat="37.6577367" lon="12.6247723"><ele>54.0</ele><time>2026-03-29T13:34:29.878Z</time></trkpt><trkpt lat="37.6578117" lon="12.6247577"><ele>54.0</ele><time>2026-03-29T13:34:30.878Z</time></trkpt><trkpt lat="37.6579013" lon="12.6247456"><ele>54.0</ele><time>2026-03-29T13:34:32.878Z</time></trkpt><trkpt lat="37.6579683" lon="12.6247832"><ele>54.0</ele><time>2026-03-29T13:34:36.878Z</time></trkpt><trkpt lat="37.6580078" lon="12.6249313"><ele>53.666666666666664</ele><time>2026-03-29T13:34:38.879Z</time></trkpt><trkpt lat="37.6580299" lon="12.6250236"><ele>53.33333333333333</ele><time>2026-03-29T13:34:39.878Z</time></trkpt><trkpt lat="37.6580597" lon="12.6251055"><ele>53.0</ele><time>2026-03-29T13:34:40.878Z</time></trkpt><trkpt lat="37.658095" lon="12.6251838"><ele>52.666666666666664</ele><time>2026-03-29T13:34:41.879Z</time></trkpt><trkpt lat="37.6581322" lon="12.6252716"><ele>52.33333333333333</ele><time>2026-03-29T13:34:42.879Z</time></trkpt><trkpt lat="37.6581693" lon="12.6253721"><ele>52.0</ele><time>2026-03-29T13:34:43.878Z</time></trkpt><trkpt lat="37.6582208" lon="12.6254727"><ele>52.0</ele><time>2026-03-29T13:34:44.879Z</time></trkpt><trkpt lat="37.6582694" lon="12.6255767"><ele>52.0</ele><time>2026-03-29T13:34:45.877Z</time></trkpt><trkpt lat="37.6583194" lon="12.6256874"><ele>52.0</ele><time>2026-03-29T13:34:46.878Z</time></trkpt><trkpt lat="37.6583795" lon="12.6257893"><ele>52.0</ele><time>2026-03-29T13:34:47.877Z</time></trkpt><trkpt lat="37.658431" lon="12.625903"><ele>52.0</ele><time>2026-03-29T13:34:48.878Z</time></trkpt><trkpt lat="37.6584795" lon="12.6260159"><ele>52.0</ele><time>2026-03-29T13:34:49.879Z</time></trkpt><trkpt lat="37.6585399" lon="12.626137"><ele>52.0</ele><time>2026-03-29T13:34:50.877Z</time></trkpt><trkpt lat="37.6585971" lon="12.6262573"><ele>52.0</ele><time>2026-03-29T13:34:51.877Z</time></trkpt><trkpt lat="37.6586588" lon="12.6263797"><ele>52.0</ele><time>2026-03-29T13:34:52.877Z</time></trkpt><trkpt lat="37.6587151" lon="12.6265061"><ele>52.25</ele><time>2026-03-29T13:34:53.878Z</time></trkpt><trkpt lat="37.6587738" lon="12.6266334"><ele>52.5</ele><time>2026-03-29T13:34:54.877Z</time></trkpt><trkpt lat="37.6588337" lon="12.6267622"><ele>52.75</ele><time>2026-03-29T13:34:55.878Z</time></trkpt><trkpt lat="37.658895" lon="12.6268921"><ele>53.0</ele><time>2026-03-29T13:34:56.878Z</time></trkpt><trkpt lat="37.6589564" lon="12.6270256"><ele>53.25</ele><time>2026-03-29T13:34:57.878Z</time></trkpt><trkpt lat="37.6590195" lon="12.6271647"><ele>53.5</ele><time>2026-03-29T13:34:58.877Z</time></trkpt><trkpt lat="37.6590832" lon="12.6273032"><ele>53.75</ele><time>2026-03-29T13:34:59.879Z</time></trkpt><trkpt lat="37.659154" lon="12.627454"><ele>54.0</ele><time>2026-03-29T13:35:00.878Z</time></trkpt><trkpt lat="37.6592268" lon="12.6276036"><ele>54.0</ele><time>2026-03-29T13:35:01.877Z</time></trkpt><trkpt lat="37.6592954" lon="12.627735"><ele>54.00000000000001</ele><time>2026-03-29T13:35:02.878Z</time></trkpt><trkpt lat="37.6593475" lon="12.6278538"><ele>54.00000000000001</ele><time>2026-03-29T13:35:03.878Z</time></trkpt><trkpt lat="37.659397" lon="12.6279596"><ele>54.0</ele><time>2026-03-29T13:35:04.879Z</time></trkpt><trkpt lat="37.659443" lon="12.6280487"><ele>54.0</ele><time>2026-03-29T13:35:05.879Z</time></trkpt><trkpt lat="37.6594687" lon="12.6281228"><ele>54.0</ele><time>2026-03-29T13:35:06.878Z</time></trkpt><trkpt lat="37.659503" lon="12.6282325"><ele>54.0</ele><time>2026-03-29T13:35:08.878Z</time></trkpt><trkpt lat="37.659538" lon="12.6282992"><ele>54.0</ele><time>2026-03-29T13:35:11.879Z</time></trkpt><trkpt lat="37.6596064" lon="12.628306"><ele>54.0</ele><time>2026-03-29T13:35:14.878Z</time></trkpt><trkpt lat="37.6597182" lon="12.6282397"><ele>54.0</ele><time>2026-03-29T13:35:16.878Z</time></trkpt><trkpt lat="37.6597856" lon="12.6281744"><ele>54.0</ele><time>2026-03-29T13:35:17.878Z</time></trkpt><trkpt lat="37.6598449" lon="12.6281094"><ele>54.0</ele><time>2026-03-29T13:35:18.877Z</time></trkpt><trkpt lat="37.6599055" lon="12.6280495"><ele>54.00000000000001</ele><time>2026-03-29T13:35:19.878Z</time></trkpt><trkpt lat="37.6599736" lon="12.6279847"><ele>54.00000000000001</ele><time>2026-03-29T13:35:20.878Z</time></trkpt><trkpt lat="37.6600526" lon="12.6279131"><ele>54.0</ele><time>2026-03-29T13:35:21.878Z</time></trkpt><trkpt lat="37.6601398" lon="12.6278357"><ele>54.0</ele><time>2026-03-29T13:35:22.878Z</time></trkpt><trkpt lat="37.6602357" lon="12.6277553"><ele>54.0</ele><time>2026-03-29T13:35:23.877Z</time></trkpt><trkpt lat="37.6603305" lon="12.6276723"><ele>54.0</ele><time>2026-03-29T13:35:24.878Z</time></trkpt><trkpt lat="37.6604254" lon="12.6275803"><ele>54.0</ele><time>2026-03-29T13:35:25.879Z</time></trkpt><trkpt lat="37.6605237" lon="12.6274869"><ele>54.0</ele><time>2026-03-29T13:35:26.877Z</time></trkpt><trkpt lat="37.6606278" lon="12.627385"><ele>54.0</ele><time>2026-03-29T13:35:27.878Z</time></trkpt><trkpt lat="37.6607423" lon="12.6272744"><ele>54.0</ele><time>2026-03-29T13:35:28.878Z</time></trkpt><trkpt lat="37.6608712" lon="12.6271525"><ele>54.0</ele><time>2026-03-29T13:35:29.878Z</time></trkpt><trkpt lat="37.6610112" lon="12.6270141"><ele>53.33333333333333</ele><time>2026-03-29T13:35:30.879Z</time></trkpt><trkpt lat="37.661169" lon="12.6268651"><ele>52.666666666666664</ele><time>2026-03-29T13:35:31.878Z</time></trkpt><trkpt lat="37.6613208" lon="12.6267165"><ele>52.0</ele><time>2026-03-29T13:35:32.879Z</time></trkpt><trkpt lat="37.6614745" lon="12.6265671"><ele>52.0</ele><time>2026-03-29T13:35:33.879Z</time></trkpt><trkpt lat="37.6616285" lon="12.6264235"><ele>52.0</ele><time>2026-03-29T13:35:34.879Z</time></trkpt><trkpt lat="37.661794" lon="12.626273"><ele>52.0</ele><time>2026-03-29T13:35:35.879Z</time></trkpt><trkpt lat="37.661992" lon="12.6260898"><ele>52.0</ele><time>2026-03-29T13:35:36.878Z</time></trkpt><trkpt lat="37.6621676" lon="12.6259329"><ele>52.0</ele><time>2026-03-29T13:35:37.879Z</time></trkpt><trkpt lat="37.6623269" lon="12.6257907"><ele>52.0</ele><time>2026-03-29T13:35:38.879Z</time></trkpt><trkpt lat="37.6624784" lon="12.6256537"><ele>52.0</ele><time>2026-03-29T13:35:39.877Z</time></trkpt><trkpt lat="37.6626107" lon="12.625544"><ele>52.0</ele><time>2026-03-29T13:35:40.877Z</time></trkpt><trkpt lat="37.6627418" lon="12.6254296"><ele>52.0</ele><time>2026-03-29T13:35:41.877Z</time></trkpt><trkpt lat="37.6628687" lon="12.6253192"><ele>52.0</ele><time>2026-03-29T13:35:42.878Z</time></trkpt><trkpt lat="37.6629879" lon="12.6252048"><ele>52.0</ele><time>2026-03-29T13:35:43.879Z</time></trkpt><trkpt lat="37.6631017" lon="12.625075"><ele>52.0</ele><time>2026-03-29T13:35:44.878Z</time></trkpt><trkpt lat="37.6632064" lon="12.6249283"><ele>52.0</ele><time>2026-03-29T13:35:45.879Z</time></trkpt><trkpt lat="37.6633067" lon="12.6247758"><ele>52.0</ele><time>2026-03-29T13:35:46.877Z</time></trkpt><trkpt lat="37.6633961" lon="12.6246154"><ele>52.0</ele><time>2026-03-29T13:35:47.878Z</time></trkpt><trkpt lat="37.6634731" lon="12.6244466"><ele>52.0</ele><time>2026-03-29T13:35:48.879Z</time></trkpt><trkpt lat="37.6635489" lon="12.6242754"><ele>52.0</ele><time>2026-03-29T13:35:49.877Z</time></trkpt><trkpt lat="37.6636279" lon="12.6241026"><ele>52.0</ele><time>2026-03-29T13:35:50.878Z</time></trkpt><trkpt lat="37.663709" lon="12.6239334"><ele>52.33333333333333</ele><time>2026-03-29T13:35:51.878Z</time></trkpt><trkpt lat="37.6637852" lon="12.623763"><ele>52.66666666666667</ele><time>2026-03-29T13:35:52.878Z</time></trkpt><trkpt lat="37.6638574" lon="12.6235964"><ele>53.0</ele><time>2026-03-29T13:35:53.879Z</time></trkpt><trkpt lat="37.6639306" lon="12.6234329"><ele>53.0</ele><time>2026-03-29T13:35:54.878Z</time></trkpt><trkpt lat="37.6640006" lon="12.6232589"><ele>53.0</ele><time>2026-03-29T13:35:55.877Z</time></trkpt><trkpt lat="37.6640572" lon="12.6230773"><ele>53.0</ele><time>2026-03-29T13:35:56.877Z</time></trkpt><trkpt lat="37.6641113" lon="12.6228918"><ele>52.66666666666667</ele><time>2026-03-29T13:35:57.879Z</time></trkpt><trkpt lat="37.664165" lon="12.6227029"><ele>52.33333333333333</ele><time>2026-03-29T13:35:58.878Z</time></trkpt><trkpt lat="37.6642174" lon="12.6225035"><ele>52.0</ele><time>2026-03-29T13:35:59.878Z</time></trkpt><trkpt lat="37.6642708" lon="12.622284"><ele>52.0</ele><time>2026-03-29T13:36:00.877Z</time></trkpt><trkpt lat="37.6643185" lon="12.6220951"><ele>52.0</ele><time>2026-03-29T13:36:01.878Z</time></trkpt><trkpt lat="37.6643637" lon="12.6219337"><ele>52.0</ele><time>2026-03-29T13:36:02.879Z</time></trkpt><trkpt lat="37.6643947" lon="12.6218054"><ele>52.0</ele><time>2026-03-29T13:36:03.878Z</time></trkpt><trkpt lat="37.6644234" lon="12.621694"><ele>52.166666666666664</ele><time>2026-03-29T13:36:04.878Z</time></trkpt><trkpt lat="37.6644491" lon="12.6216018"><ele>52.33333333333333</ele><time>2026-03-29T13:36:05.878Z</time></trkpt><trkpt lat="37.6644644" lon="12.621524"><ele>52.5</ele><time>2026-03-29T13:36:06.878Z</time></trkpt><trkpt lat="37.6645331" lon="12.6214204"><ele>52.66666666666667</ele><time>2026-03-29T13:36:08.877Z</time></trkpt><trkpt lat="37.6646218" lon="12.6214301"><ele>52.833333333333336</ele><time>2026-03-29T13:36:10.879Z</time></trkpt><trkpt lat="37.6646761" lon="12.6214714"><ele>53.0</ele><time>2026-03-29T13:36:11.877Z</time></trkpt><trkpt lat="37.6647301" lon="12.6215375"><ele>53.0</ele><time>2026-03-29T13:36:12.877Z</time></trkpt><trkpt lat="37.6647975" lon="12.6216038"><ele>53.0</ele><time>2026-03-29T13:36:13.878Z</time></trkpt><trkpt lat="37.6648789" lon="12.6216912"><ele>53.0</ele><time>2026-03-29T13:36:14.879Z</time></trkpt><trkpt lat="37.6649744" lon="12.6217859"><ele>53.0</ele><time>2026-03-29T13:36:15.879Z</time></trkpt><trkpt lat="37.6650725" lon="12.6218877"><ele>53.0</ele><time>2026-03-29T13:36:16.878Z</time></trkpt><trkpt lat="37.6651755" lon="12.6219933"><ele>53.66666666666667</ele><time>2026-03-29T13:36:17.877Z</time></trkpt><trkpt lat="37.6653112" lon="12.6221374"><ele>54.33333333333333</ele><time>2026-03-29T13:36:18.877Z</time></trkpt><trkpt lat="37.6654183" lon="12.6222764"><ele>55.0</ele><time>2026-03-29T13:36:19.879Z</time></trkpt><trkpt lat="37.6655166" lon="12.6224272"><ele>55.0</ele><time>2026-03-29T13:36:20.877Z</time></trkpt><trkpt lat="37.6656069" lon="12.622588"><ele>55.0</ele><time>2026-03-29T13:36:21.878Z</time></trkpt><trkpt lat="37.6656874" lon="12.6227549"><ele>55.0</ele><time>2026-03-29T13:36:22.877Z</time></trkpt><trkpt lat="37.6657548" lon="12.6229426"><ele>54.666666666666664</ele><time>2026-03-29T13:36:23.878Z</time></trkpt><trkpt lat="37.6658205" lon="12.6231342"><ele>54.33333333333333</ele><time>2026-03-29T13:36:24.879Z</time></trkpt><trkpt lat="37.6658819" lon="12.6233186"><ele>54.0</ele><time>2026-03-29T13:36:25.878Z</time></trkpt><trkpt lat="37.6659493" lon="12.6235056"><ele>53.66666666666667</ele><time>2026-03-29T13:36:26.879Z</time></trkpt><trkpt lat="37.6660126" lon="12.6236915"><ele>53.333333333333336</ele><time>2026-03-29T13:36:27.879Z</time></trkpt><trkpt lat="37.6660802" lon="12.6238746"><ele>53.0</ele><time>2026-03-29T13:36:28.878Z</time></trkpt><trkpt lat="37.6661386" lon="12.6240495"><ele>53.0</ele><time>2026-03-29T13:36:29.879Z</time></trkpt><trkpt lat="37.6661935" lon="12.6242119"><ele>53.0</ele><time>2026-03-29T13:36:30.878Z</time></trkpt><trkpt lat="37.6662487" lon="12.6243696"><ele>53.0</ele><time>2026-03-29T13:36:31.878Z</time></trkpt><trkpt lat="37.6662985" lon="12.6245292"><ele>53.0</ele><time>2026-03-29T13:36:32.878Z</time></trkpt><trkpt lat="37.6663534" lon="12.6246954"><ele>53.0</ele><time>2026-03-29T13:36:33.879Z</time></trkpt><trkpt lat="37.6664208" lon="12.6248827"><ele>53.0</ele><time>2026-03-29T13:36:34.879Z</time></trkpt><trkpt lat="37.6664979" lon="12.6251012"><ele>53.0</ele><time>2026-03-29T13:36:35.878Z</time></trkpt><trkpt lat="37.6665803" lon="12.6253311"><ele>53.0</ele><time>2026-03-29T13:36:36.877Z</time></trkpt><trkpt lat="37.6666503" lon="12.6255421"><ele>53.0</ele><time>2026-03-29T13:36:37.879Z</time></trkpt><trkpt lat="37.6667117" lon="12.6257429"><ele>53.0</ele><time>2026-03-29T13:36:38.879Z</time></trkpt><trkpt lat="37.6667706" lon="12.6259247"><ele>53.0</ele><time>2026-03-29T13:36:39.877Z</time></trkpt><trkpt lat="37.6668257" lon="12.6261005"><ele>53.0</ele><time>2026-03-29T13:36:40.877Z</time></trkpt><trkpt lat="37.6668737" lon="12.6262613"><ele>53.0</ele><time>2026-03-29T13:36:41.878Z</time></trkpt><trkpt lat="37.6669206" lon="12.6264164"><ele>53.0</ele><time>2026-03-29T13:36:42.879Z</time></trkpt><trkpt lat="37.6669674" lon="12.6265681"><ele>53.25</ele><time>2026-03-29T13:36:43.878Z</time></trkpt><trkpt lat="37.6670166" lon="12.6267287"><ele>53.5</ele><time>2026-03-29T13:36:44.877Z</time></trkpt><trkpt lat="37.667067" lon="12.6268848"><ele>53.75</ele><time>2026-03-29T13:36:45.878Z</time></trkpt><trkpt lat="37.6671177" lon="12.6270483"><ele>54.0</ele><time>2026-03-29T13:36:46.878Z</time></trkpt><trkpt lat="37.6671673" lon="12.6272168"><ele>54.25</ele><time>2026-03-29T13:36:47.877Z</time></trkpt><trkpt lat="37.6672191" lon="12.6273788"><ele>54.5</ele><time>2026-03-29T13:36:48.879Z</time></trkpt><trkpt lat="37.6672769" lon="12.6275561"><ele>54.75</ele><time>2026-03-29T13:36:49.879Z</time></trkpt><trkpt lat="37.6673288" lon="12.6277384"><ele>55.0</ele><time>2026-03-29T13:36:50.877Z</time></trkpt><trkpt lat="37.6673751" lon="12.6279131"><ele>55.25</ele><time>2026-03-29T13:36:51.877Z</time></trkpt><trkpt lat="37.6674178" lon="12.6280839"><ele>55.5</ele><time>2026-03-29T13:36:52.878Z</time></trkpt><trkpt lat="37.6674684" lon="12.6282531"><ele>55.75</ele><time>2026-03-29T13:36:53.879Z</time></trkpt><trkpt lat="37.6675164" lon="12.6284063"><ele>56.0</ele><time>2026-03-29T13:36:54.879Z</time></trkpt><trkpt lat="37.6675677" lon="12.6285593"><ele>56.0</ele><time>2026-03-29T13:36:55.878Z</time></trkpt><trkpt lat="37.6676175" lon="12.6287115"><ele>56.0</ele><time>2026-03-29T13:36:56.877Z</time></trkpt><trkpt lat="37.6676687" lon="12.6288708"><ele>56.0</ele><time>2026-03-29T13:36:57.877Z</time></trkpt><trkpt lat="37.6677243" lon="12.6290229"><ele>56.0</ele><time>2026-03-29T13:36:58.878Z</time></trkpt><trkpt lat="37.667777" lon="12.6291739"><ele>56.0</ele><time>2026-03-29T13:36:59.879Z</time></trkpt><trkpt lat="37.6678324" lon="12.6293222"><ele>56.0</ele><time>2026-03-29T13:37:00.877Z</time></trkpt><trkpt lat="37.6678833" lon="12.6294746"><ele>56.0</ele><time>2026-03-29T13:37:01.879Z</time></trkpt><trkpt lat="37.6679341" lon="12.6296274"><ele>56.0</ele><time>2026-03-29T13:37:02.879Z</time></trkpt><trkpt lat="37.6679869" lon="12.6297815"><ele>55.75</ele><time>2026-03-29T13:37:03.877Z</time></trkpt><trkpt lat="37.6680444" lon="12.6299351"><ele>55.5</ele><time>2026-03-29T13:37:04.878Z</time></trkpt><trkpt lat="37.6681038" lon="12.6300831"><ele>55.25</ele><time>2026-03-29T13:37:05.878Z</time></trkpt><trkpt lat="37.6681594" lon="12.6302367"><ele>55.0</ele><time>2026-03-29T13:37:06.878Z</time></trkpt><trkpt lat="37.6682158" lon="12.6303914"><ele>54.5</ele><time>2026-03-29T13:37:07.878Z</time></trkpt><trkpt lat="37.6682801" lon="12.6305522"><ele>54.0</ele><time>2026-03-29T13:37:08.878Z</time></trkpt><trkpt lat="37.668339" lon="12.6307103"><ele>53.5</ele><time>2026-03-29T13:37:09.877Z</time></trkpt><trkpt lat="37.6683965" lon="12.6308728"><ele>53.0</ele><time>2026-03-29T13:37:10.877Z</time></trkpt><trkpt lat="37.6684509" lon="12.6310323"><ele>53.5</ele><time>2026-03-29T13:37:11.879Z</time></trkpt><trkpt lat="37.6685071" lon="12.6311914"><ele>54.0</ele><time>2026-03-29T13:37:12.877Z</time></trkpt><trkpt lat="37.6685586" lon="12.6313546"><ele>54.5</ele><time>2026-03-29T13:37:13.878Z</time></trkpt><trkpt lat="37.6686088" lon="12.631524"><ele>55.0</ele><time>2026-03-29T13:37:14.877Z</time></trkpt><trkpt lat="37.6686573" lon="12.6316885"><ele>55.5</ele><time>2026-03-29T13:37:15.877Z</time></trkpt><trkpt lat="37.6687053" lon="12.6318493"><ele>56.0</ele><time>2026-03-29T13:37:16.878Z</time></trkpt><trkpt lat="37.6687522" lon="12.6320128"><ele>56.5</ele><time>2026-03-29T13:37:17.878Z</time></trkpt><trkpt lat="37.6687925" lon="12.6321708"><ele>57.0</ele><time>2026-03-29T13:37:18.879Z</time></trkpt><trkpt lat="37.6688376" lon="12.6323352"><ele>57.0</ele><time>2026-03-29T13:37:19.879Z</time></trkpt><trkpt lat="37.6688854" lon="12.6325015"><ele>57.0</ele><time>2026-03-29T13:37:20.878Z</time></trkpt><trkpt lat="37.6689329" lon="12.6326678"><ele>57.0</ele><time>2026-03-29T13:37:21.877Z</time></trkpt><trkpt lat="37.6689761" lon="12.6328373"><ele>57.0</ele><time>2026-03-29T13:37:22.879Z</time></trkpt><trkpt lat="37.6690247" lon="12.6330067"><ele>57.0</ele><time>2026-03-29T13:37:23.878Z</time></trkpt><trkpt lat="37.6690766" lon="12.6331856"><ele>57.0</ele><time>2026-03-29T13:37:24.879Z</time></trkpt><trkpt lat="37.6691312" lon="12.6333686"><ele>57.0</ele><time>2026-03-29T13:37:25.877Z</time></trkpt><trkpt lat="37.6691828" lon="12.6335481"><ele>57.25</ele><time>2026-03-29T13:37:26.879Z</time></trkpt><trkpt lat="37.6692356" lon="12.6337256"><ele>57.5</ele><time>2026-03-29T13:37:27.878Z</time></trkpt><trkpt lat="37.6692814" lon="12.6339001"><ele>57.75</ele><time>2026-03-29T13:37:28.877Z</time></trkpt><trkpt lat="37.6693269" lon="12.6340598"><ele>58.0</ele><time>2026-03-29T13:37:29.878Z</time></trkpt><trkpt lat="37.669377" lon="12.6342107"><ele>58.0</ele><time>2026-03-29T13:37:30.879Z</time></trkpt><trkpt lat="37.6694406" lon="12.6343505"><ele>58.0</ele><time>2026-03-29T13:37:31.878Z</time></trkpt><trkpt lat="37.6695254" lon="12.6344896"><ele>58.0</ele><time>2026-03-29T13:37:32.878Z</time></trkpt><trkpt lat="37.6696237" lon="12.6346122"><ele>58.0</ele><time>2026-03-29T13:37:33.878Z</time></trkpt><trkpt lat="37.669735" lon="12.6347236"><ele>57.75</ele><time>2026-03-29T13:37:34.879Z</time></trkpt><trkpt lat="37.6698384" lon="12.6348309"><ele>57.5</ele><time>2026-03-29T13:37:35.878Z</time></trkpt><trkpt lat="37.6699335" lon="12.6349318"><ele>57.25</ele><time>2026-03-29T13:37:36.879Z</time></trkpt><trkpt lat="37.670024" lon="12.6350295"><ele>57.0</ele><time>2026-03-29T13:37:37.878Z</time></trkpt><trkpt lat="37.6701111" lon="12.6351246"><ele>57.0</ele><time>2026-03-29T13:37:38.878Z</time></trkpt><trkpt lat="37.6702054" lon="12.635223"><ele>57.0</ele><time>2026-03-29T13:37:39.878Z</time></trkpt><trkpt lat="37.6703037" lon="12.6353276"><ele>57.0</ele><time>2026-03-29T13:37:40.879Z</time></trkpt><trkpt lat="37.6704051" lon="12.6354322"><ele>57.0</ele><time>2026-03-29T13:37:41.878Z</time></trkpt><trkpt lat="37.6705088" lon="12.6355364"><ele>57.0</ele><time>2026-03-29T13:37:42.877Z</time></trkpt><trkpt lat="37.6706091" lon="12.635641"><ele>57.0</ele><time>2026-03-29T13:37:43.878Z</time></trkpt><trkpt lat="37.6707124" lon="12.6357407"><ele>57.0</ele><time>2026-03-29T13:37:44.879Z</time></trkpt><trkpt lat="37.6708134" lon="12.6358419"><ele>57.0</ele><time>2026-03-29T13:37:45.878Z</time></trkpt><trkpt lat="37.6709118" lon="12.6359421"><ele>57.0</ele><time>2026-03-29T13:37:46.879Z</time></trkpt><trkpt lat="37.6710158" lon="12.6360417"><ele>57.0</ele><time>2026-03-29T13:37:47.879Z</time></trkpt><trkpt lat="37.6711159" lon="12.636145"><ele>57.0</ele><time>2026-03-29T13:37:48.877Z</time></trkpt><trkpt lat="37.6712229" lon="12.6362556"><ele>57.0</ele><time>2026-03-29T13:37:49.879Z</time></trkpt><trkpt lat="37.6713416" lon="12.6363715"><ele>57.66666666666667</ele><time>2026-03-29T13:37:50.878Z</time></trkpt><trkpt lat="37.6714567" lon="12.6364903"><ele>58.333333333333336</ele><time>2026-03-29T13:37:51.879Z</time></trkpt><trkpt lat="37.6715783" lon="12.6366101"><ele>59.0</ele><time>2026-03-29T13:37:52.879Z</time></trkpt><trkpt lat="37.6716976" lon="12.6367244"><ele>59.0</ele><time>2026-03-29T13:37:53.877Z</time></trkpt><trkpt lat="37.6718191" lon="12.6368395"><ele>59.0</ele><time>2026-03-29T13:37:54.878Z</time></trkpt><trkpt lat="37.6719436" lon="12.6369584"><ele>59.0</ele><time>2026-03-29T13:37:55.878Z</time></trkpt><trkpt lat="37.6720914" lon="12.6370906"><ele>59.333333333333336</ele><time>2026-03-29T13:37:56.878Z</time></trkpt><trkpt lat="37.6722248" lon="12.6372127"><ele>59.66666666666667</ele><time>2026-03-29T13:37:57.878Z</time></trkpt><trkpt lat="37.6723819" lon="12.6373555"><ele>60.0</ele><time>2026-03-29T13:37:58.879Z</time></trkpt><trkpt lat="37.6725197" lon="12.6374839"><ele>60.0</ele><time>2026-03-29T13:37:59.878Z</time></trkpt><trkpt lat="37.6726837" lon="12.637631"><ele>60.0</ele><time>2026-03-29T13:38:00.878Z</time></trkpt><trkpt lat="37.6728316" lon="12.6377633"><ele>60.0</ele><time>2026-03-29T13:38:01.878Z</time></trkpt><trkpt lat="37.6729704" lon="12.6378848"><ele>60.0</ele><time>2026-03-29T13:38:02.878Z</time></trkpt><trkpt lat="37.6731" lon="12.6379991"><ele>60.0</ele><time>2026-03-29T13:38:03.878Z</time></trkpt><trkpt lat="37.6732256" lon="12.6381062"><ele>60.0</ele><time>2026-03-29T13:38:04.878Z</time></trkpt><trkpt lat="37.6733728" lon="12.6382416"><ele>60.0</ele><time>2026-03-29T13:38:05.878Z</time></trkpt><trkpt lat="37.6735079" lon="12.6383612"><ele>60.0</ele><time>2026-03-29T13:38:06.878Z</time></trkpt><trkpt lat="37.6736376" lon="12.6384824"><ele>60.0</ele><time>2026-03-29T13:38:07.879Z</time></trkpt><trkpt lat="37.6737603" lon="12.638604"><ele>60.25</ele><time>2026-03-29T13:38:08.878Z</time></trkpt><trkpt lat="37.6738793" lon="12.6387187"><ele>60.5</ele><time>2026-03-29T13:38:09.879Z</time></trkpt><trkpt lat="37.6739981" lon="12.6388321"><ele>60.75</ele><time>2026-03-29T13:38:10.878Z</time></trkpt><trkpt lat="37.6741164" lon="12.6389448"><ele>61.0</ele><time>2026-03-29T13:38:11.879Z</time></trkpt><trkpt lat="37.6742339" lon="12.639057"><ele>61.0</ele><time>2026-03-29T13:38:12.878Z</time></trkpt><trkpt lat="37.6743535" lon="12.6391681"><ele>61.0</ele><time>2026-03-29T13:38:13.879Z</time></trkpt><trkpt lat="37.6744678" lon="12.6392779"><ele>61.0</ele><time>2026-03-29T13:38:14.878Z</time></trkpt><trkpt lat="37.6745827" lon="12.6393888"><ele>61.0</ele><time>2026-03-29T13:38:15.878Z</time></trkpt><trkpt lat="37.6746985" lon="12.6395018"><ele>60.5</ele><time>2026-03-29T13:38:16.879Z</time></trkpt><trkpt lat="37.6748146" lon="12.6396101"><ele>60.0</ele><time>2026-03-29T13:38:17.878Z</time></trkpt><trkpt lat="37.6749369" lon="12.6397155"><ele>59.5</ele><time>2026-03-29T13:38:18.878Z</time></trkpt><trkpt lat="37.6750574" lon="12.6398135"><ele>59.0</ele><time>2026-03-29T13:38:19.877Z</time></trkpt><trkpt lat="37.6751841" lon="12.6399117"><ele>59.0</ele><time>2026-03-29T13:38:20.879Z</time></trkpt><trkpt lat="37.6753149" lon="12.6400145"><ele>59.0</ele><time>2026-03-29T13:38:21.877Z</time></trkpt><trkpt lat="37.6754441" lon="12.6401123"><ele>59.0</ele><time>2026-03-29T13:38:22.877Z</time></trkpt><trkpt lat="37.6755779" lon="12.64022"><ele>59.66666666666667</ele><time>2026-03-29T13:38:23.878Z</time></trkpt><trkpt lat="37.6757163" lon="12.6403211"><ele>60.33333333333333</ele><time>2026-03-29T13:38:24.879Z</time></trkpt><trkpt lat="37.675848" lon="12.6404371"><ele>61.0</ele><time>2026-03-29T13:38:25.878Z</time></trkpt><trkpt lat="37.675968" lon="12.6405587"><ele>61.0</ele><time>2026-03-29T13:38:26.877Z</time></trkpt><trkpt lat="37.6760808" lon="12.6406799"><ele>61.0</ele><time>2026-03-29T13:38:27.877Z</time></trkpt><trkpt lat="37.6761824" lon="12.6407955"><ele>61.0</ele><time>2026-03-29T13:38:28.877Z</time></trkpt><trkpt lat="37.6762847" lon="12.6409138"><ele>61.0</ele><time>2026-03-29T13:38:29.878Z</time></trkpt><trkpt lat="37.6763848" lon="12.6410249"><ele>59.75</ele><time>2026-03-29T13:38:30.878Z</time></trkpt><trkpt lat="37.6764783" lon="12.641135"><ele>58.5</ele><time>2026-03-29T13:38:31.877Z</time></trkpt><trkpt lat="37.6765548" lon="12.6412521"><ele>57.25</ele><time>2026-03-29T13:38:32.878Z</time></trkpt><trkpt lat="37.676626" lon="12.6413739"><ele>56.0</ele><time>2026-03-29T13:38:33.878Z</time></trkpt><trkpt lat="37.6766867" lon="12.6415109"><ele>56.0</ele><time>2026-03-29T13:38:34.878Z</time></trkpt><trkpt lat="37.6767376" lon="12.6416607"><ele>56.0</ele><time>2026-03-29T13:38:35.878Z</time></trkpt><trkpt lat="37.6767825" lon="12.6418106"><ele>56.0</ele><time>2026-03-29T13:38:36.878Z</time></trkpt><trkpt lat="37.6768296" lon="12.6419625"><ele>56.0</ele><time>2026-03-29T13:38:37.879Z</time></trkpt><trkpt lat="37.6768848" lon="12.6421214"><ele>53.5</ele><time>2026-03-29T13:38:38.878Z</time></trkpt><trkpt lat="37.6769364" lon="12.64228"><ele>51.0</ele><time>2026-03-29T13:38:39.878Z</time></trkpt><trkpt lat="37.6769907" lon="12.6424349"><ele>48.5</ele><time>2026-03-29T13:38:40.879Z</time></trkpt><trkpt lat="37.6770405" lon="12.6425853"><ele>46.0</ele><time>2026-03-29T13:38:41.878Z</time></trkpt><trkpt lat="37.677103" lon="12.6427624"><ele>44.75</ele><time>2026-03-29T13:38:42.878Z</time></trkpt><trkpt lat="37.6771566" lon="12.6429318"><ele>43.5</ele><time>2026-03-29T13:38:43.878Z</time></trkpt><trkpt lat="37.6772125" lon="12.6431114"><ele>42.25</ele><time>2026-03-29T13:38:44.879Z</time></trkpt><trkpt lat="37.6772743" lon="12.6432823"><ele>41.0</ele><time>2026-03-29T13:38:45.879Z</time></trkpt><trkpt lat="37.6773269" lon="12.6434537"><ele>41.0</ele><time>2026-03-29T13:38:46.879Z</time></trkpt><trkpt lat="37.6773807" lon="12.6436226"><ele>41.0</ele><time>2026-03-29T13:38:47.877Z</time></trkpt><trkpt lat="37.6774344" lon="12.6437933"><ele>41.0</ele><time>2026-03-29T13:38:48.879Z</time></trkpt><trkpt lat="37.6774865" lon="12.6439609"><ele>41.0</ele><time>2026-03-29T13:38:49.878Z</time></trkpt><trkpt lat="37.6775391" lon="12.644129"><ele>39.75</ele><time>2026-03-29T13:38:50.878Z</time></trkpt><trkpt lat="37.6775906" lon="12.6442968"><ele>38.5</ele><time>2026-03-29T13:38:51.877Z</time></trkpt><trkpt lat="37.6776462" lon="12.6444647"><ele>37.25</ele><time>2026-03-29T13:38:52.879Z</time></trkpt><trkpt lat="37.6776963" lon="12.644624"><ele>36.0</ele><time>2026-03-29T13:38:53.878Z</time></trkpt><trkpt lat="37.6777507" lon="12.644796"><ele>35.25</ele><time>2026-03-29T13:38:54.877Z</time></trkpt><trkpt lat="37.6778066" lon="12.6449585"><ele>34.5</ele><time>2026-03-29T13:38:55.879Z</time></trkpt><trkpt lat="37.6778625" lon="12.6451181"><ele>33.75</ele><time>2026-03-29T13:38:56.879Z</time></trkpt><trkpt lat="37.6779166" lon="12.6452764"><ele>33.0</ele><time>2026-03-29T13:38:57.879Z</time></trkpt><trkpt lat="37.6779774" lon="12.6454319"><ele>32.25</ele><time>2026-03-29T13:38:58.878Z</time></trkpt><trkpt lat="37.6780422" lon="12.6455857"><ele>31.5</ele><time>2026-03-29T13:38:59.878Z</time></trkpt><trkpt lat="37.6781025" lon="12.6457346"><ele>30.75</ele><time>2026-03-29T13:39:00.878Z</time></trkpt><trkpt lat="37.678159" lon="12.6458868"><ele>30.0</ele><time>2026-03-29T13:39:01.878Z</time></trkpt><trkpt lat="37.6782276" lon="12.6460355"><ele>28.5</ele><time>2026-03-29T13:39:02.877Z</time></trkpt><trkpt lat="37.6782922" lon="12.6461848"><ele>27.0</ele><time>2026-03-29T13:39:03.879Z</time></trkpt><trkpt lat="37.6783521" lon="12.6463315"><ele>25.5</ele><time>2026-03-29T13:39:04.878Z</time></trkpt><trkpt lat="37.6784114" lon="12.646483"><ele>24.0</ele><time>2026-03-29T13:39:05.878Z</time></trkpt><trkpt lat="37.6784737" lon="12.646637"><ele>24.0</ele><time>2026-03-29T13:39:06.878Z</time></trkpt><trkpt lat="37.6785316" lon="12.6467806"><ele>24.0</ele><time>2026-03-29T13:39:07.878Z</time></trkpt><trkpt lat="37.6785993" lon="12.6469367"><ele>24.0</ele><time>2026-03-29T13:39:08.878Z</time></trkpt><trkpt lat="37.6786725" lon="12.6471019"><ele>24.0</ele><time>2026-03-29T13:39:09.878Z</time></trkpt><trkpt lat="37.6787432" lon="12.6472502"><ele>23.75</ele><time>2026-03-29T13:39:10.879Z</time></trkpt><trkpt lat="37.6788107" lon="12.6474063"><ele>23.5</ele><time>2026-03-29T13:39:11.878Z</time></trkpt><trkpt lat="37.6788777" lon="12.6475545"><ele>23.25</ele><time>2026-03-29T13:39:12.878Z</time></trkpt><trkpt lat="37.6789462" lon="12.6476969"><ele>23.0</ele><time>2026-03-29T13:39:13.878Z</time></trkpt><trkpt lat="37.6790205" lon="12.6478376"><ele>23.0</ele><time>2026-03-29T13:39:14.878Z</time></trkpt><trkpt lat="37.6790949" lon="12.647981"><ele>23.0</ele><time>2026-03-29T13:39:15.878Z</time></trkpt><trkpt lat="37.6791666" lon="12.648116"><ele>23.0</ele><time>2026-03-29T13:39:16.878Z</time></trkpt><trkpt lat="37.6792341" lon="12.6482566"><ele>23.0</ele><time>2026-03-29T13:39:17.878Z</time></trkpt><trkpt lat="37.6792956" lon="12.6484074"><ele>23.0</ele><time>2026-03-29T13:39:18.878Z</time></trkpt><trkpt lat="37.6793557" lon="12.6485589"><ele>23.0</ele><time>2026-03-29T13:39:19.879Z</time></trkpt><trkpt lat="37.6794209" lon="12.6487093"><ele>23.0</ele><time>2026-03-29T13:39:20.877Z</time></trkpt><trkpt lat="37.6794877" lon="12.6488573"><ele>23.0</ele><time>2026-03-29T13:39:21.878Z</time></trkpt><trkpt lat="37.6795546" lon="12.6490026"><ele>22.75</ele><time>2026-03-29T13:39:22.878Z</time></trkpt><trkpt lat="37.6796219" lon="12.649144"><ele>22.5</ele><time>2026-03-29T13:39:23.878Z</time></trkpt><trkpt lat="37.6796905" lon="12.6492815"><ele>22.25</ele><time>2026-03-29T13:39:24.878Z</time></trkpt><trkpt lat="37.6797592" lon="12.6494153"><ele>22.0</ele><time>2026-03-29T13:39:25.878Z</time></trkpt><trkpt lat="37.6798442" lon="12.6495442"><ele>22.0</ele><time>2026-03-29T13:39:26.878Z</time></trkpt><trkpt lat="37.6799315" lon="12.6496704"><ele>22.0</ele><time>2026-03-29T13:39:27.877Z</time></trkpt><trkpt lat="37.6800237" lon="12.6497898"><ele>22.0</ele><time>2026-03-29T13:39:28.878Z</time></trkpt><trkpt lat="37.6801167" lon="12.6499164"><ele>22.0</ele><time>2026-03-29T13:39:29.878Z</time></trkpt><trkpt lat="37.6802056" lon="12.6500346"><ele>22.0</ele><time>2026-03-29T13:39:30.879Z</time></trkpt><trkpt lat="37.6803085" lon="12.650152"><ele>22.0</ele><time>2026-03-29T13:39:31.878Z</time></trkpt><trkpt lat="37.6804143" lon="12.6502718"><ele>22.0</ele><time>2026-03-29T13:39:32.879Z</time></trkpt><trkpt lat="37.6805139" lon="12.6503901"><ele>22.0</ele><time>2026-03-29T13:39:33.879Z</time></trkpt><trkpt lat="37.680612" lon="12.6505067"><ele>22.0</ele><time>2026-03-29T13:39:34.879Z</time></trkpt><trkpt lat="37.6807126" lon="12.6506241"><ele>22.0</ele><time>2026-03-29T13:39:35.878Z</time></trkpt><trkpt lat="37.6808116" lon="12.6507386"><ele>22.0</ele><time>2026-03-29T13:39:36.879Z</time></trkpt><trkpt lat="37.6809096" lon="12.6508531"><ele>22.0</ele><time>2026-03-29T13:39:37.878Z</time></trkpt><trkpt lat="37.6810023" lon="12.6509636"><ele>22.0</ele><time>2026-03-29T13:39:38.878Z</time></trkpt><trkpt lat="37.6810971" lon="12.6510753"><ele>22.0</ele><time>2026-03-29T13:39:39.877Z</time></trkpt><trkpt lat="37.681189" lon="12.6511912"><ele>22.0</ele><time>2026-03-29T13:39:40.879Z</time></trkpt><trkpt lat="37.6812692" lon="12.6513195"><ele>22.0</ele><time>2026-03-29T13:39:41.878Z</time></trkpt><trkpt lat="37.6813356" lon="12.6514556"><ele>22.5</ele><time>2026-03-29T13:39:42.879Z</time></trkpt><trkpt lat="37.6813927" lon="12.6516033"><ele>23.0</ele><time>2026-03-29T13:39:43.878Z</time></trkpt><trkpt lat="37.6814404" lon="12.6517538"><ele>23.5</ele><time>2026-03-29T13:39:44.878Z</time></trkpt><trkpt lat="37.6814837" lon="12.6519132"><ele>24.0</ele><time>2026-03-29T13:39:45.878Z</time></trkpt><trkpt lat="37.6815173" lon="12.6520766"><ele>24.0</ele><time>2026-03-29T13:39:46.879Z</time></trkpt><trkpt lat="37.6815544" lon="12.652243"><ele>24.0</ele><time>2026-03-29T13:39:47.879Z</time></trkpt><trkpt lat="37.681593" lon="12.6524071"><ele>24.0</ele><time>2026-03-29T13:39:48.879Z</time></trkpt><trkpt lat="37.6816277" lon="12.6525649"><ele>24.0</ele><time>2026-03-29T13:39:49.878Z</time></trkpt><trkpt lat="37.6816678" lon="12.6527261"><ele>24.0</ele><time>2026-03-29T13:39:50.879Z</time></trkpt><trkpt lat="37.6817064" lon="12.652888"><ele>24.0</ele><time>2026-03-29T13:39:51.878Z</time></trkpt><trkpt lat="37.6817431" lon="12.6530489"><ele>24.0</ele><time>2026-03-29T13:39:52.878Z</time></trkpt><trkpt lat="37.6817839" lon="12.6532114"><ele>24.0</ele><time>2026-03-29T13:39:53.879Z</time></trkpt><trkpt lat="37.6818206" lon="12.6533725"><ele>24.0</ele><time>2026-03-29T13:39:54.877Z</time></trkpt><trkpt lat="37.6818609" lon="12.6535338"><ele>24.0</ele><time>2026-03-29T13:39:55.877Z</time></trkpt><trkpt lat="37.68189" lon="12.6536965"><ele>24.0</ele><time>2026-03-29T13:39:56.877Z</time></trkpt><trkpt lat="37.6819263" lon="12.6538581"><ele>24.0</ele><time>2026-03-29T13:39:57.877Z</time></trkpt><trkpt lat="37.6819609" lon="12.6540175"><ele>23.25</ele><time>2026-03-29T13:39:58.879Z</time></trkpt><trkpt lat="37.6820002" lon="12.6541745"><ele>22.5</ele><time>2026-03-29T13:39:59.877Z</time></trkpt><trkpt lat="37.6820364" lon="12.6543343"><ele>21.75</ele><time>2026-03-29T13:40:00.878Z</time></trkpt><trkpt lat="37.682077" lon="12.6544968"><ele>21.0</ele><time>2026-03-29T13:40:01.878Z</time></trkpt><trkpt lat="37.6821153" lon="12.654659"><ele>21.0</ele><time>2026-03-29T13:40:02.878Z</time></trkpt><trkpt lat="37.6821501" lon="12.6548233"><ele>21.0</ele><time>2026-03-29T13:40:03.877Z</time></trkpt><trkpt lat="37.6821857" lon="12.654994"><ele>21.0</ele><time>2026-03-29T13:40:04.878Z</time></trkpt><trkpt lat="37.6822242" lon="12.655161"><ele>21.0</ele><time>2026-03-29T13:40:05.878Z</time></trkpt><trkpt lat="37.6822683" lon="12.6553315"><ele>21.5</ele><time>2026-03-29T13:40:06.877Z</time></trkpt><trkpt lat="37.6822953" lon="12.6554788"><ele>22.0</ele><time>2026-03-29T13:40:07.878Z</time></trkpt><trkpt lat="37.6823245" lon="12.6556243"><ele>22.5</ele><time>2026-03-29T13:40:08.878Z</time></trkpt><trkpt lat="37.6823521" lon="12.6557746"><ele>23.0</ele><time>2026-03-29T13:40:09.878Z</time></trkpt><trkpt lat="37.6823643" lon="12.655909"><ele>23.0</ele><time>2026-03-29T13:40:10.877Z</time></trkpt><trkpt lat="37.6823591" lon="12.6560549"><ele>23.0</ele><time>2026-03-29T13:40:11.877Z</time></trkpt><trkpt lat="37.6823677" lon="12.6562014"><ele>23.0</ele><time>2026-03-29T13:40:12.877Z</time></trkpt><trkpt lat="37.6823713" lon="12.6563503"><ele>23.0</ele><time>2026-03-29T13:40:13.878Z</time></trkpt><trkpt lat="37.6823844" lon="12.6565101"><ele>23.0</ele><time>2026-03-29T13:40:14.878Z</time></trkpt><trkpt lat="37.682395" lon="12.6566717"><ele>23.0</ele><time>2026-03-29T13:40:15.879Z</time></trkpt><trkpt lat="37.6824088" lon="12.6568392"><ele>23.0</ele><time>2026-03-29T13:40:16.878Z</time></trkpt><trkpt lat="37.6824232" lon="12.6570373"><ele>23.0</ele><time>2026-03-29T13:40:17.879Z</time></trkpt><trkpt lat="37.6824339" lon="12.6572837"><ele>23.0</ele><time>2026-03-29T13:40:18.878Z</time></trkpt><trkpt lat="37.6824559" lon="12.6575857"><ele>23.0</ele><time>2026-03-29T13:40:19.878Z</time></trkpt><trkpt lat="37.6824633" lon="12.6578629"><ele>22.333333333333336</ele><time>2026-03-29T13:40:20.879Z</time></trkpt><trkpt lat="37.6824651" lon="12.6581087"><ele>21.666666666666668</ele><time>2026-03-29T13:40:21.877Z</time></trkpt><trkpt lat="37.682472" lon="12.6583463"><ele>21.0</ele><time>2026-03-29T13:40:22.878Z</time></trkpt><trkpt lat="37.6824797" lon="12.6585782"><ele>20.666666666666668</ele><time>2026-03-29T13:40:23.878Z</time></trkpt><trkpt lat="37.6824843" lon="12.6588057"><ele>20.333333333333336</ele><time>2026-03-29T13:40:24.877Z</time></trkpt><trkpt lat="37.68249" lon="12.6590315"><ele>20.0</ele><time>2026-03-29T13:40:25.879Z</time></trkpt><trkpt lat="37.6824974" lon="12.6592582"><ele>20.333333333333336</ele><time>2026-03-29T13:40:26.878Z</time></trkpt><trkpt lat="37.6825019" lon="12.6594695"><ele>20.666666666666668</ele><time>2026-03-29T13:40:27.879Z</time></trkpt><trkpt lat="37.6825056" lon="12.6596768"><ele>21.0</ele><time>2026-03-29T13:40:28.878Z</time></trkpt><trkpt lat="37.6825085" lon="12.6598814"><ele>21.0</ele><time>2026-03-29T13:40:29.879Z</time></trkpt><trkpt lat="37.682517" lon="12.660083"><ele>21.0</ele><time>2026-03-29T13:40:30.877Z</time></trkpt><trkpt lat="37.6825192" lon="12.6602837"><ele>21.0</ele><time>2026-03-29T13:40:31.877Z</time></trkpt><trkpt lat="37.6825251" lon="12.6604826"><ele>21.0</ele><time>2026-03-29T13:40:32.879Z</time></trkpt><trkpt lat="37.6825281" lon="12.660677"><ele>21.0</ele><time>2026-03-29T13:40:33.879Z</time></trkpt><trkpt lat="37.6825305" lon="12.6608626"><ele>21.0</ele><time>2026-03-29T13:40:34.877Z</time></trkpt><trkpt lat="37.6825349" lon="12.6610382"><ele>21.0</ele><time>2026-03-29T13:40:35.878Z</time></trkpt><trkpt lat="37.6825441" lon="12.6612187"><ele>21.0</ele><time>2026-03-29T13:40:36.878Z</time></trkpt><trkpt lat="37.6825777" lon="12.6613838"><ele>21.0</ele><time>2026-03-29T13:40:37.878Z</time></trkpt><trkpt lat="37.6826222" lon="12.6615436"><ele>21.0</ele><time>2026-03-29T13:40:38.878Z</time></trkpt><trkpt lat="37.682686" lon="12.6616854"><ele>21.0</ele><time>2026-03-29T13:40:39.878Z</time></trkpt><trkpt lat="37.6827684" lon="12.6618193"><ele>21.75</ele><time>2026-03-29T13:40:40.878Z</time></trkpt><trkpt lat="37.6828747" lon="12.6619327"><ele>22.5</ele><time>2026-03-29T13:40:41.878Z</time></trkpt><trkpt lat="37.6829904" lon="12.6620345"><ele>23.25</ele><time>2026-03-29T13:40:42.877Z</time></trkpt><trkpt lat="37.683112" lon="12.6621339"><ele>24.0</ele><time>2026-03-29T13:40:43.878Z</time></trkpt><trkpt lat="37.6832355" lon="12.6622412"><ele>24.0</ele><time>2026-03-29T13:40:44.878Z</time></trkpt><trkpt lat="37.683361" lon="12.6623531"><ele>24.0</ele><time>2026-03-29T13:40:45.878Z</time></trkpt><trkpt lat="37.683478" lon="12.662456"><ele>24.0</ele><time>2026-03-29T13:40:46.879Z</time></trkpt><trkpt lat="37.6835878" lon="12.6625678"><ele>24.0</ele><time>2026-03-29T13:40:47.877Z</time></trkpt><trkpt lat="37.6837159" lon="12.662676"><ele>25.0</ele><time>2026-03-29T13:40:48.879Z</time></trkpt><trkpt lat="37.6838699" lon="12.6628059"><ele>26.0</ele><time>2026-03-29T13:40:49.878Z</time></trkpt><trkpt lat="37.6840227" lon="12.6629352"><ele>27.0</ele><time>2026-03-29T13:40:50.877Z</time></trkpt><trkpt lat="37.6841625" lon="12.6630578"><ele>27.0</ele><time>2026-03-29T13:40:51.878Z</time></trkpt><trkpt lat="37.6842981" lon="12.6631808"><ele>27.0</ele><time>2026-03-29T13:40:52.877Z</time></trkpt><trkpt lat="37.684425" lon="12.6633004"><ele>27.0</ele><time>2026-03-29T13:40:53.878Z</time></trkpt><trkpt lat="37.6845547" lon="12.6634134"><ele>26.666666666666664</ele><time>2026-03-29T13:40:54.878Z</time></trkpt><trkpt lat="37.6846803" lon="12.6635292"><ele>26.333333333333332</ele><time>2026-03-29T13:40:55.878Z</time></trkpt><trkpt lat="37.6848037" lon="12.663639"><ele>26.0</ele><time>2026-03-29T13:40:56.878Z</time></trkpt><trkpt lat="37.6849289" lon="12.6637504"><ele>26.0</ele><time>2026-03-29T13:40:57.879Z</time></trkpt><trkpt lat="37.6850565" lon="12.6638542"><ele>26.0</ele><time>2026-03-29T13:40:58.879Z</time></trkpt><trkpt lat="37.6851797" lon="12.6639605"><ele>26.0</ele><time>2026-03-29T13:40:59.879Z</time></trkpt><trkpt lat="37.6853069" lon="12.6640636"><ele>26.25</ele><time>2026-03-29T13:41:00.878Z</time></trkpt><trkpt lat="37.6854302" lon="12.6641715"><ele>26.5</ele><time>2026-03-29T13:41:01.878Z</time></trkpt><trkpt lat="37.6855454" lon="12.6642917"><ele>26.75</ele><time>2026-03-29T13:41:02.879Z</time></trkpt><trkpt lat="37.6856471" lon="12.6644304"><ele>27.0</ele><time>2026-03-29T13:41:03.878Z</time></trkpt><trkpt lat="37.6857353" lon="12.6645805"><ele>27.0</ele><time>2026-03-29T13:41:04.878Z</time></trkpt><trkpt lat="37.6858057" lon="12.6647439"><ele>27.0</ele><time>2026-03-29T13:41:05.876Z</time></trkpt><trkpt lat="37.6858637" lon="12.6649083"><ele>27.0</ele><time>2026-03-29T13:41:06.878Z</time></trkpt><trkpt lat="37.6859311" lon="12.6650676"><ele>27.0</ele><time>2026-03-29T13:41:07.878Z</time></trkpt><trkpt lat="37.6860037" lon="12.6652284"><ele>27.25</ele><time>2026-03-29T13:41:08.878Z</time></trkpt><trkpt lat="37.6860681" lon="12.665395"><ele>27.5</ele><time>2026-03-29T13:41:09.878Z</time></trkpt><trkpt lat="37.6861333" lon="12.6655622"><ele>27.75</ele><time>2026-03-29T13:41:10.877Z</time></trkpt><trkpt lat="37.6861993" lon="12.6657323"><ele>28.0</ele><time>2026-03-29T13:41:11.879Z</time></trkpt><trkpt lat="37.6862631" lon="12.6659033"><ele>28.0</ele><time>2026-03-29T13:41:12.878Z</time></trkpt><trkpt lat="37.6863322" lon="12.6660745"><ele>28.0</ele><time>2026-03-29T13:41:13.878Z</time></trkpt><trkpt lat="37.6863951" lon="12.6662493"><ele>28.0</ele><time>2026-03-29T13:41:14.878Z</time></trkpt><trkpt lat="37.6864637" lon="12.6664255"><ele>28.333333333333336</ele><time>2026-03-29T13:41:15.879Z</time></trkpt><trkpt lat="37.6865311" lon="12.6666019"><ele>28.666666666666664</ele><time>2026-03-29T13:41:16.877Z</time></trkpt><trkpt lat="37.6865998" lon="12.6667802"><ele>29.0</ele><time>2026-03-29T13:41:17.878Z</time></trkpt><trkpt lat="37.6866694" lon="12.6669637"><ele>29.666666666666664</ele><time>2026-03-29T13:41:18.878Z</time></trkpt><trkpt lat="37.6867299" lon="12.6671355"><ele>30.333333333333336</ele><time>2026-03-29T13:41:19.878Z</time></trkpt><trkpt lat="37.6867994" lon="12.6673103"><ele>31.0</ele><time>2026-03-29T13:41:20.879Z</time></trkpt><trkpt lat="37.6868717" lon="12.667482"><ele>30.666666666666668</ele><time>2026-03-29T13:41:21.879Z</time></trkpt><trkpt lat="37.6869413" lon="12.6676529"><ele>30.333333333333336</ele><time>2026-03-29T13:41:22.877Z</time></trkpt><trkpt lat="37.6870136" lon="12.6678317"><ele>30.0</ele><time>2026-03-29T13:41:23.878Z</time></trkpt><trkpt lat="37.6870833" lon="12.6680064"><ele>30.666666666666664</ele><time>2026-03-29T13:41:24.879Z</time></trkpt><trkpt lat="37.6871562" lon="12.668177"><ele>31.333333333333332</ele><time>2026-03-29T13:41:25.878Z</time></trkpt><trkpt lat="37.6872312" lon="12.6683461"><ele>32.0</ele><time>2026-03-29T13:41:26.877Z</time></trkpt><trkpt lat="37.6872979" lon="12.6685106"><ele>32.75</ele><time>2026-03-29T13:41:27.878Z</time></trkpt><trkpt lat="37.6873699" lon="12.6686838"><ele>33.5</ele><time>2026-03-29T13:41:28.878Z</time></trkpt><trkpt lat="37.6874386" lon="12.6688515"><ele>34.25</ele><time>2026-03-29T13:41:29.878Z</time></trkpt><trkpt lat="37.6875045" lon="12.6690076"><ele>35.0</ele><time>2026-03-29T13:41:30.879Z</time></trkpt><trkpt lat="37.6875617" lon="12.6691508"><ele>35.0</ele><time>2026-03-29T13:41:31.879Z</time></trkpt><trkpt lat="37.6876158" lon="12.6692892"><ele>35.0</ele><time>2026-03-29T13:41:32.879Z</time></trkpt><trkpt lat="37.6876712" lon="12.6694207"><ele>35.0</ele><time>2026-03-29T13:41:33.878Z</time></trkpt><trkpt lat="37.6877093" lon="12.669562"><ele>35.0</ele><time>2026-03-29T13:41:34.878Z</time></trkpt><trkpt lat="37.6877371" lon="12.6697052"><ele>36.25</ele><time>2026-03-29T13:41:35.879Z</time></trkpt><trkpt lat="37.6877726" lon="12.6698373"><ele>37.5</ele><time>2026-03-29T13:41:36.877Z</time></trkpt><trkpt lat="37.6878073" lon="12.6699812"><ele>38.75</ele><time>2026-03-29T13:41:37.879Z</time></trkpt><trkpt lat="37.6878283" lon="12.6701553"><ele>40.0</ele><time>2026-03-29T13:41:38.877Z</time></trkpt><trkpt lat="37.6878483" lon="12.6703246"><ele>40.0</ele><time>2026-03-29T13:41:39.877Z</time></trkpt><trkpt lat="37.6878638" lon="12.6704938"><ele>40.0</ele><time>2026-03-29T13:41:40.879Z</time></trkpt><trkpt lat="37.6878723" lon="12.6706489"><ele>40.0</ele><time>2026-03-29T13:41:41.877Z</time></trkpt><trkpt lat="37.6878726" lon="12.6708042"><ele>40.0</ele><time>2026-03-29T13:41:42.879Z</time></trkpt><trkpt lat="37.6878736" lon="12.6709565"><ele>39.0</ele><time>2026-03-29T13:41:43.878Z</time></trkpt><trkpt lat="37.6878756" lon="12.6711148"><ele>38.0</ele><time>2026-03-29T13:41:44.879Z</time></trkpt><trkpt lat="37.6878742" lon="12.6712783"><ele>37.0</ele><time>2026-03-29T13:41:45.879Z</time></trkpt><trkpt lat="37.6878759" lon="12.6714445"><ele>36.0</ele><time>2026-03-29T13:41:46.877Z</time></trkpt><trkpt lat="37.6878774" lon="12.6716183"><ele>36.0</ele><time>2026-03-29T13:41:47.878Z</time></trkpt><trkpt lat="37.6878799" lon="12.6717942"><ele>36.0</ele><time>2026-03-29T13:41:48.878Z</time></trkpt><trkpt lat="37.6878848" lon="12.6719668"><ele>36.0</ele><time>2026-03-29T13:41:49.879Z</time></trkpt><trkpt lat="37.6878829" lon="12.6721393"><ele>36.0</ele><time>2026-03-29T13:41:50.878Z</time></trkpt><trkpt lat="37.6878863" lon="12.6723063"><ele>35.75</ele><time>2026-03-29T13:41:51.879Z</time></trkpt><trkpt lat="37.6878903" lon="12.6724553"><ele>35.5</ele><time>2026-03-29T13:41:52.878Z</time></trkpt><trkpt lat="37.6878927" lon="12.672596"><ele>35.25</ele><time>2026-03-29T13:41:53.878Z</time></trkpt><trkpt lat="37.6878926" lon="12.6727457"><ele>35.0</ele><time>2026-03-29T13:41:54.878Z</time></trkpt><trkpt lat="37.6878938" lon="12.672898"><ele>35.0</ele><time>2026-03-29T13:41:55.876Z</time></trkpt><trkpt lat="37.6878929" lon="12.6730521"><ele>35.0</ele><time>2026-03-29T13:41:56.879Z</time></trkpt><trkpt lat="37.6878963" lon="12.6732145"><ele>35.0</ele><time>2026-03-29T13:41:57.877Z</time></trkpt><trkpt lat="37.6878973" lon="12.6733761"><ele>35.0</ele><time>2026-03-29T13:41:58.879Z</time></trkpt><trkpt lat="37.6879035" lon="12.6735296"><ele>35.5</ele><time>2026-03-29T13:41:59.877Z</time></trkpt><trkpt lat="37.6879026" lon="12.6736846"><ele>36.0</ele><time>2026-03-29T13:42:00.879Z</time></trkpt><trkpt lat="37.6878964" lon="12.6738381"><ele>36.5</ele><time>2026-03-29T13:42:01.877Z</time></trkpt><trkpt lat="37.687902" lon="12.6739986"><ele>37.0</ele><time>2026-03-29T13:42:02.879Z</time></trkpt><trkpt lat="37.6879101" lon="12.6741597"><ele>37.0</ele><time>2026-03-29T13:42:03.879Z</time></trkpt><trkpt lat="37.687914" lon="12.6743445"><ele>37.0</ele><time>2026-03-29T13:42:04.878Z</time></trkpt><trkpt lat="37.6879191" lon="12.6745768"><ele>37.0</ele><time>2026-03-29T13:42:05.879Z</time></trkpt><trkpt lat="37.6879239" lon="12.6747681"><ele>39.0</ele><time>2026-03-29T13:42:06.878Z</time></trkpt><trkpt lat="37.687927" lon="12.674998"><ele>41.0</ele><time>2026-03-29T13:42:07.878Z</time></trkpt><trkpt lat="37.6879296" lon="12.6751896"><ele>43.0</ele><time>2026-03-29T13:42:08.879Z</time></trkpt><trkpt lat="37.6879295" lon="12.6753553"><ele>43.4</ele><time>2026-03-29T13:42:09.878Z</time></trkpt><trkpt lat="37.6879316" lon="12.6755098"><ele>43.8</ele><time>2026-03-29T13:42:10.878Z</time></trkpt><trkpt lat="37.6879266" lon="12.6756472"><ele>44.2</ele><time>2026-03-29T13:42:11.878Z</time></trkpt><trkpt lat="37.687929" lon="12.6757734"><ele>44.6</ele><time>2026-03-29T13:42:12.878Z</time></trkpt><trkpt lat="37.6879305" lon="12.6758941"><ele>45.0</ele><time>2026-03-29T13:42:13.879Z</time></trkpt><trkpt lat="37.687932" lon="12.6760122"><ele>43.6</ele><time>2026-03-29T13:42:14.879Z</time></trkpt><trkpt lat="37.6879317" lon="12.6761314"><ele>42.2</ele><time>2026-03-29T13:42:15.879Z</time></trkpt><trkpt lat="37.6879327" lon="12.6762596"><ele>40.8</ele><time>2026-03-29T13:42:16.878Z</time></trkpt><trkpt lat="37.6879335" lon="12.6763895"><ele>39.4</ele><time>2026-03-29T13:42:17.877Z</time></trkpt><trkpt lat="37.6879356" lon="12.6765218"><ele>38.0</ele><time>2026-03-29T13:42:18.879Z</time></trkpt><trkpt lat="37.687936" lon="12.6766574"><ele>38.0</ele><time>2026-03-29T13:42:19.877Z</time></trkpt><trkpt lat="37.6879364" lon="12.676789"><ele>38.0</ele><time>2026-03-29T13:42:20.878Z</time></trkpt><trkpt lat="37.6879362" lon="12.6769181"><ele>38.0</ele><time>2026-03-29T13:42:21.879Z</time></trkpt><trkpt lat="37.6879361" lon="12.677041"><ele>38.0</ele><time>2026-03-29T13:42:22.877Z</time></trkpt><trkpt lat="37.6879424" lon="12.6771579"><ele>38.0</ele><time>2026-03-29T13:42:23.877Z</time></trkpt><trkpt lat="37.6879397" lon="12.677261"><ele>36.83333333333333</ele><time>2026-03-29T13:42:24.877Z</time></trkpt><trkpt lat="37.687937" lon="12.6773577"><ele>35.666666666666664</ele><time>2026-03-29T13:42:25.878Z</time></trkpt><trkpt lat="37.6879403" lon="12.677445"><ele>34.5</ele><time>2026-03-29T13:42:26.877Z</time></trkpt><trkpt lat="37.6879439" lon="12.6775832"><ele>33.333333333333336</ele><time>2026-03-29T13:42:28.878Z</time></trkpt><trkpt lat="37.6879483" lon="12.6776635"><ele>32.16666666666667</ele><time>2026-03-29T13:42:30.878Z</time></trkpt><trkpt lat="37.6879699" lon="12.6777508"><ele>31.0</ele><time>2026-03-29T13:48:38.877Z</time></trkpt><trkpt lat="37.6879679" lon="12.6778837"><ele>30.4</ele><time>2026-03-29T13:48:40.879Z</time></trkpt><trkpt lat="37.6879645" lon="12.6780149"><ele>29.8</ele><time>2026-03-29T13:48:41.878Z</time></trkpt><trkpt lat="37.6879687" lon="12.6781179"><ele>29.199999999999996</ele><time>2026-03-29T13:48:42.878Z</time></trkpt><trkpt lat="37.687971" lon="12.678214"><ele>28.599999999999998</ele><time>2026-03-29T13:48:43.878Z</time></trkpt><trkpt lat="37.687972" lon="12.6782971"><ele>28.0</ele><time>2026-03-29T13:48:44.877Z</time></trkpt><trkpt lat="37.687977" lon="12.6784551"><ele>28.000000000000004</ele><time>2026-03-29T13:48:46.878Z</time></trkpt><trkpt lat="37.6879751" lon="12.6785417"><ele>28.0</ele><time>2026-03-29T13:48:47.879Z</time></trkpt><trkpt lat="37.6879785" lon="12.6786296"><ele>28.0</ele><time>2026-03-29T13:48:48.877Z</time></trkpt><trkpt lat="37.6879831" lon="12.6787281"><ele>28.0</ele><time>2026-03-29T13:48:49.877Z</time></trkpt><trkpt lat="37.6879837" lon="12.6788319"><ele>28.000000000000004</ele><time>2026-03-29T13:48:50.877Z</time></trkpt><trkpt lat="37.6879812" lon="12.678935"><ele>28.0</ele><time>2026-03-29T13:48:51.878Z</time></trkpt><trkpt lat="37.6879803" lon="12.6790348"><ele>27.799999999999997</ele><time>2026-03-29T13:48:52.879Z</time></trkpt><trkpt lat="37.6879852" lon="12.6791422"><ele>27.599999999999998</ele><time>2026-03-29T13:48:53.877Z</time></trkpt><trkpt lat="37.6879859" lon="12.6792894"><ele>27.400000000000002</ele><time>2026-03-29T13:48:54.878Z</time></trkpt><trkpt lat="37.6879844" lon="12.6794286"><ele>27.200000000000003</ele><time>2026-03-29T13:48:55.878Z</time></trkpt><trkpt lat="37.6879855" lon="12.6795523"><ele>27.0</ele><time>2026-03-29T13:48:56.877Z</time></trkpt><trkpt lat="37.6879831" lon="12.6796624"><ele>27.0</ele><time>2026-03-29T13:48:57.879Z</time></trkpt><trkpt lat="37.6879852" lon="12.6797728"><ele>27.0</ele><time>2026-03-29T13:48:58.878Z</time></trkpt><trkpt lat="37.6879893" lon="12.6799267"><ele>27.0</ele><time>2026-03-29T13:48:59.877Z</time></trkpt><trkpt lat="37.6879935" lon="12.6801199"><ele>27.0</ele><time>2026-03-29T13:49:00.878Z</time></trkpt><trkpt lat="37.6879989" lon="12.6802904"><ele>26.75</ele><time>2026-03-29T13:49:01.879Z</time></trkpt><trkpt lat="37.687999" lon="12.6804329"><ele>26.5</ele><time>2026-03-29T13:49:02.877Z</time></trkpt><trkpt lat="37.6879981" lon="12.6805754"><ele>26.25</ele><time>2026-03-29T13:49:03.877Z</time></trkpt><trkpt lat="37.6879987" lon="12.6807182"><ele>26.0</ele><time>2026-03-29T13:49:04.878Z</time></trkpt><trkpt lat="37.6879959" lon="12.680863"><ele>26.0</ele><time>2026-03-29T13:49:05.879Z</time></trkpt><trkpt lat="37.6879935" lon="12.6810063"><ele>26.0</ele><time>2026-03-29T13:49:06.878Z</time></trkpt><trkpt lat="37.687994" lon="12.6811385"><ele>26.0</ele><time>2026-03-29T13:49:07.878Z</time></trkpt><trkpt lat="37.687998" lon="12.6812601"><ele>26.0</ele><time>2026-03-29T13:49:08.879Z</time></trkpt><trkpt lat="37.6880049" lon="12.6813753"><ele>26.0</ele><time>2026-03-29T13:49:09.877Z</time></trkpt><trkpt lat="37.6880073" lon="12.6814961"><ele>26.4</ele><time>2026-03-29T13:49:10.878Z</time></trkpt><trkpt lat="37.6880086" lon="12.6816467"><ele>26.8</ele><time>2026-03-29T13:49:11.877Z</time></trkpt><trkpt lat="37.6880097" lon="12.6817725"><ele>27.199999999999996</ele><time>2026-03-29T13:49:12.878Z</time></trkpt><trkpt lat="37.6880105" lon="12.6818963"><ele>27.599999999999998</ele><time>2026-03-29T13:49:13.876Z</time></trkpt><trkpt lat="37.6880095" lon="12.6820139"><ele>28.0</ele><time>2026-03-29T13:49:14.878Z</time></trkpt><trkpt lat="37.6880093" lon="12.6821358"><ele>28.599999999999998</ele><time>2026-03-29T13:49:15.878Z</time></trkpt><trkpt lat="37.6880071" lon="12.6822563"><ele>29.199999999999996</ele><time>2026-03-29T13:49:16.878Z</time></trkpt><trkpt lat="37.688006" lon="12.6823792"><ele>29.8</ele><time>2026-03-29T13:49:17.879Z</time></trkpt><trkpt lat="37.6880033" lon="12.6825025"><ele>30.4</ele><time>2026-03-29T13:49:18.878Z</time></trkpt><trkpt lat="37.6880072" lon="12.6826179"><ele>31.0</ele><time>2026-03-29T13:49:19.877Z</time></trkpt><trkpt lat="37.6880093" lon="12.6827313"><ele>31.200000000000003</ele><time>2026-03-29T13:49:20.879Z</time></trkpt><trkpt lat="37.6880096" lon="12.6828449"><ele>31.400000000000002</ele><time>2026-03-29T13:49:21.878Z</time></trkpt><trkpt lat="37.6880082" lon="12.6829661"><ele>31.6</ele><time>2026-03-29T13:49:22.877Z</time></trkpt><trkpt lat="37.6880059" lon="12.6830908"><ele>31.8</ele><time>2026-03-29T13:49:23.878Z</time></trkpt><trkpt lat="37.6880043" lon="12.6832107"><ele>32.0</ele><time>2026-03-29T13:49:24.878Z</time></trkpt><trkpt lat="37.6880077" lon="12.6833351"><ele>32.0</ele><time>2026-03-29T13:49:25.878Z</time></trkpt><trkpt lat="37.6880027" lon="12.6834587"><ele>32.0</ele><time>2026-03-29T13:49:26.878Z</time></trkpt><trkpt lat="37.688001" lon="12.6835882"><ele>32.0</ele><time>2026-03-29T13:49:27.878Z</time></trkpt><trkpt lat="37.6880091" lon="12.6837001"><ele>32.0</ele><time>2026-03-29T13:49:28.878Z</time></trkpt><trkpt lat="37.6880173" lon="12.6838506"><ele>32.0</ele><time>2026-03-29T13:49:29.878Z</time></trkpt><trkpt lat="37.6880136" lon="12.6839767"><ele>32.0</ele><time>2026-03-29T13:49:30.878Z</time></trkpt><trkpt lat="37.6880205" lon="12.6841061"><ele>32.0</ele><time>2026-03-29T13:49:31.878Z</time></trkpt><trkpt lat="37.6880259" lon="12.6842406"><ele>32.0</ele><time>2026-03-29T13:49:32.879Z</time></trkpt><trkpt lat="37.6880325" lon="12.6843763"><ele>32.0</ele><time>2026-03-29T13:49:33.879Z</time></trkpt><trkpt lat="37.6880314" lon="12.6845088"><ele>32.0</ele><time>2026-03-29T13:49:34.878Z</time></trkpt><trkpt lat="37.6880353" lon="12.6846404"><ele>32.0</ele><time>2026-03-29T13:49:35.877Z</time></trkpt><trkpt lat="37.6880367" lon="12.6847865"><ele>32.0</ele><time>2026-03-29T13:49:36.878Z</time></trkpt><trkpt lat="37.6880388" lon="12.6849317"><ele>32.0</ele><time>2026-03-29T13:49:37.877Z</time></trkpt><trkpt lat="37.6880431" lon="12.6850746"><ele>32.0</ele><time>2026-03-29T13:49:38.879Z</time></trkpt><trkpt lat="37.6880425" lon="12.6852247"><ele>31.0</ele><time>2026-03-29T13:49:39.877Z</time></trkpt><trkpt lat="37.6880415" lon="12.6853855"><ele>30.0</ele><time>2026-03-29T13:49:40.879Z</time></trkpt><trkpt lat="37.6880393" lon="12.6855473"><ele>29.0</ele><time>2026-03-29T13:49:41.878Z</time></trkpt><trkpt lat="37.6880428" lon="12.6857143"><ele>28.0</ele><time>2026-03-29T13:49:42.878Z</time></trkpt><trkpt lat="37.6880517" lon="12.6858827"><ele>28.0</ele><time>2026-03-29T13:49:43.878Z</time></trkpt><trkpt lat="37.6880596" lon="12.6860381"><ele>27.999999999999996</ele><time>2026-03-29T13:49:44.877Z</time></trkpt><trkpt lat="37.688063" lon="12.6861723"><ele>27.999999999999996</ele><time>2026-03-29T13:49:45.879Z</time></trkpt><trkpt lat="37.6880645" lon="12.68627"><ele>28.0</ele><time>2026-03-29T13:49:46.879Z</time></trkpt><trkpt lat="37.6880624" lon="12.6863743"><ele>28.0</ele><time>2026-03-29T13:49:47.878Z</time></trkpt><trkpt lat="37.6880639" lon="12.6864709"><ele>28.166666666666668</ele><time>2026-03-29T13:49:48.879Z</time></trkpt><trkpt lat="37.688065" lon="12.6865724"><ele>28.333333333333336</ele><time>2026-03-29T13:49:49.878Z</time></trkpt><trkpt lat="37.6880627" lon="12.6866947"><ele>28.5</ele><time>2026-03-29T13:49:50.878Z</time></trkpt><trkpt lat="37.6880626" lon="12.686799"><ele>28.666666666666664</ele><time>2026-03-29T13:49:51.878Z</time></trkpt><trkpt lat="37.6880607" lon="12.6869038"><ele>28.833333333333332</ele><time>2026-03-29T13:49:52.877Z</time></trkpt><trkpt lat="37.6880585" lon="12.6870234"><ele>29.0</ele><time>2026-03-29T13:49:53.878Z</time></trkpt><trkpt lat="37.6880607" lon="12.6871486"><ele>29.0</ele><time>2026-03-29T13:49:54.879Z</time></trkpt><trkpt lat="37.6880627" lon="12.6872868"><ele>29.0</ele><time>2026-03-29T13:49:55.877Z</time></trkpt><trkpt lat="37.6880632" lon="12.6874218"><ele>29.0</ele><time>2026-03-29T13:49:56.878Z</time></trkpt><trkpt lat="37.6880655" lon="12.6875539"><ele>29.0</ele><time>2026-03-29T13:49:57.878Z</time></trkpt><trkpt lat="37.6880661" lon="12.6876962"><ele>29.0</ele><time>2026-03-29T13:49:58.877Z</time></trkpt><trkpt lat="37.6880683" lon="12.6878581"><ele>29.25</ele><time>2026-03-29T13:49:59.878Z</time></trkpt><trkpt lat="37.6880734" lon="12.6880054"><ele>29.5</ele><time>2026-03-29T13:50:00.879Z</time></trkpt><trkpt lat="37.6880731" lon="12.6881539"><ele>29.75</ele><time>2026-03-29T13:50:01.878Z</time></trkpt><trkpt lat="37.6880734" lon="12.6882993"><ele>30.0</ele><time>2026-03-29T13:50:02.878Z</time></trkpt><trkpt lat="37.68807" lon="12.6884386"><ele>30.5</ele><time>2026-03-29T13:50:03.877Z</time></trkpt><trkpt lat="37.6880719" lon="12.6885968"><ele>31.0</ele><time>2026-03-29T13:50:04.877Z</time></trkpt><trkpt lat="37.6880708" lon="12.6887606"><ele>31.5</ele><time>2026-03-29T13:50:05.877Z</time></trkpt><trkpt lat="37.6880733" lon="12.6889165"><ele>32.0</ele><time>2026-03-29T13:50:06.877Z</time></trkpt><trkpt lat="37.6880726" lon="12.6890677"><ele>32.0</ele><time>2026-03-29T13:50:07.877Z</time></trkpt><trkpt lat="37.6880756" lon="12.689214"><ele>32.0</ele><time>2026-03-29T13:50:08.878Z</time></trkpt><trkpt lat="37.6880747" lon="12.6893544"><ele>32.0</ele><time>2026-03-29T13:50:09.877Z</time></trkpt><trkpt lat="37.6880812" lon="12.6894907"><ele>32.0</ele><time>2026-03-29T13:50:10.878Z</time></trkpt><trkpt lat="37.6880845" lon="12.6896373"><ele>33.0</ele><time>2026-03-29T13:50:11.877Z</time></trkpt><trkpt lat="37.6880878" lon="12.6897855"><ele>34.0</ele><time>2026-03-29T13:50:12.877Z</time></trkpt><trkpt lat="37.6880878" lon="12.6899408"><ele>35.0</ele><time>2026-03-29T13:50:13.877Z</time></trkpt><trkpt lat="37.6880838" lon="12.6900925"><ele>36.0</ele><time>2026-03-29T13:50:14.878Z</time></trkpt><trkpt lat="37.6880815" lon="12.690249"><ele>36.75</ele><time>2026-03-29T13:50:15.879Z</time></trkpt><trkpt lat="37.6880794" lon="12.6904017"><ele>37.5</ele><time>2026-03-29T13:50:16.878Z</time></trkpt><trkpt lat="37.6880767" lon="12.6905594"><ele>38.25</ele><time>2026-03-29T13:50:17.877Z</time></trkpt><trkpt lat="37.6880745" lon="12.6907614"><ele>39.0</ele><time>2026-03-29T13:50:18.876Z</time></trkpt><trkpt lat="37.688071" lon="12.6909349"><ele>38.75</ele><time>2026-03-29T13:50:19.877Z</time></trkpt><trkpt lat="37.6880741" lon="12.6910992"><ele>38.5</ele><time>2026-03-29T13:50:20.879Z</time></trkpt><trkpt lat="37.6880757" lon="12.6912636"><ele>38.25</ele><time>2026-03-29T13:50:21.878Z</time></trkpt><trkpt lat="37.688078" lon="12.6914207"><ele>38.0</ele><time>2026-03-29T13:50:22.878Z</time></trkpt><trkpt lat="37.6880787" lon="12.6915799"><ele>38.0</ele><time>2026-03-29T13:50:23.877Z</time></trkpt><trkpt lat="37.6880797" lon="12.6917536"><ele>38.0</ele><time>2026-03-29T13:50:24.877Z</time></trkpt><trkpt lat="37.6880824" lon="12.6919334"><ele>38.0</ele><time>2026-03-29T13:50:25.878Z</time></trkpt><trkpt lat="37.6880826" lon="12.6921064"><ele>38.0</ele><time>2026-03-29T13:50:26.877Z</time></trkpt><trkpt lat="37.6880847" lon="12.6922836"><ele>37.25</ele><time>2026-03-29T13:50:27.878Z</time></trkpt><trkpt lat="37.688085" lon="12.692459"><ele>36.5</ele><time>2026-03-29T13:50:28.878Z</time></trkpt><trkpt lat="37.6880898" lon="12.6926392"><ele>35.75</ele><time>2026-03-29T13:50:29.877Z</time></trkpt><trkpt lat="37.688088" lon="12.692813"><ele>35.0</ele><time>2026-03-29T13:50:30.876Z</time></trkpt><trkpt lat="37.6880868" lon="12.6929885"><ele>34.5</ele><time>2026-03-29T13:50:31.879Z</time></trkpt><trkpt lat="37.6880941" lon="12.6931638"><ele>34.0</ele><time>2026-03-29T13:50:32.878Z</time></trkpt><trkpt lat="37.6880914" lon="12.6933345"><ele>33.5</ele><time>2026-03-29T13:50:33.879Z</time></trkpt><trkpt lat="37.6880893" lon="12.693489"><ele>33.0</ele><time>2026-03-29T13:50:34.877Z</time></trkpt><trkpt lat="37.6880955" lon="12.6936316"><ele>32.8</ele><time>2026-03-29T13:50:35.879Z</time></trkpt><trkpt lat="37.6881005" lon="12.6937817"><ele>32.599999999999994</ele><time>2026-03-29T13:50:36.878Z</time></trkpt><trkpt lat="37.6881036" lon="12.6939184"><ele>32.400000000000006</ele><time>2026-03-29T13:50:37.879Z</time></trkpt><trkpt lat="37.6881023" lon="12.6940546"><ele>32.2</ele><time>2026-03-29T13:50:38.877Z</time></trkpt><trkpt lat="37.6880902" lon="12.694177"><ele>32.0</ele><time>2026-03-29T13:50:39.879Z</time></trkpt><trkpt lat="37.6880931" lon="12.6942938"><ele>32.0</ele><time>2026-03-29T13:50:40.877Z</time></trkpt><trkpt lat="37.6881001" lon="12.6944227"><ele>32.0</ele><time>2026-03-29T13:50:41.878Z</time></trkpt><trkpt lat="37.6881048" lon="12.6945635"><ele>32.0</ele><time>2026-03-29T13:50:42.876Z</time></trkpt><trkpt lat="37.6881058" lon="12.6947019"><ele>32.0</ele><time>2026-03-29T13:50:43.878Z</time></trkpt><trkpt lat="37.6881044" lon="12.6948435"><ele>32.0</ele><time>2026-03-29T13:50:44.877Z</time></trkpt><trkpt lat="37.6881027" lon="12.6949869"><ele>32.0</ele><time>2026-03-29T13:50:45.877Z</time></trkpt><trkpt lat="37.6881029" lon="12.6951318"><ele>32.0</ele><time>2026-03-29T13:50:46.877Z</time></trkpt><trkpt lat="37.6881041" lon="12.6952849"><ele>32.0</ele><time>2026-03-29T13:50:47.877Z</time></trkpt><trkpt lat="37.688111" lon="12.6954393"><ele>32.0</ele><time>2026-03-29T13:50:48.877Z</time></trkpt><trkpt lat="37.6881174" lon="12.6955954"><ele>32.0</ele><time>2026-03-29T13:50:49.879Z</time></trkpt><trkpt lat="37.6881175" lon="12.695747"><ele>32.0</ele><time>2026-03-29T13:50:50.877Z</time></trkpt><trkpt lat="37.6881167" lon="12.6959061"><ele>32.0</ele><time>2026-03-29T13:50:51.877Z</time></trkpt><trkpt lat="37.6881188" lon="12.6960629"><ele>32.0</ele><time>2026-03-29T13:50:52.877Z</time></trkpt><trkpt lat="37.6881178" lon="12.6962194"><ele>31.75</ele><time>2026-03-29T13:50:53.878Z</time></trkpt><trkpt lat="37.6881132" lon="12.6963759"><ele>31.5</ele><time>2026-03-29T13:50:54.879Z</time></trkpt><trkpt lat="37.6881155" lon="12.6965333"><ele>31.25</ele><time>2026-03-29T13:50:55.879Z</time></trkpt><trkpt lat="37.6881163" lon="12.6966885"><ele>31.0</ele><time>2026-03-29T13:50:56.878Z</time></trkpt><trkpt lat="37.6881175" lon="12.6968429"><ele>31.0</ele><time>2026-03-29T13:50:57.879Z</time></trkpt><trkpt lat="37.6881202" lon="12.6969948"><ele>31.0</ele><time>2026-03-29T13:50:58.879Z</time></trkpt><trkpt lat="37.6881229" lon="12.6971551"><ele>31.0</ele><time>2026-03-29T13:50:59.878Z</time></trkpt><trkpt lat="37.6881263" lon="12.6973151"><ele>31.0</ele><time>2026-03-29T13:51:00.878Z</time></trkpt><trkpt lat="37.6881283" lon="12.6974754"><ele>31.0</ele><time>2026-03-29T13:51:01.877Z</time></trkpt><trkpt lat="37.6881292" lon="12.6976407"><ele>31.0</ele><time>2026-03-29T13:51:02.878Z</time></trkpt><trkpt lat="37.6881291" lon="12.6978088"><ele>31.0</ele><time>2026-03-29T13:51:03.878Z</time></trkpt><trkpt lat="37.6881344" lon="12.6979756"><ele>31.0</ele><time>2026-03-29T13:51:04.877Z</time></trkpt><trkpt lat="37.688137" lon="12.6981441"><ele>31.0</ele><time>2026-03-29T13:51:05.878Z</time></trkpt><trkpt lat="37.6881384" lon="12.6983075"><ele>31.0</ele><time>2026-03-29T13:51:06.878Z</time></trkpt><trkpt lat="37.6881413" lon="12.69847"><ele>31.0</ele><time>2026-03-29T13:51:07.878Z</time></trkpt><trkpt lat="37.6881436" lon="12.69863"><ele>31.0</ele><time>2026-03-29T13:51:08.877Z</time></trkpt><trkpt lat="37.6881448" lon="12.69879"><ele>31.5</ele><time>2026-03-29T13:51:09.877Z</time></trkpt><trkpt lat="37.688147" lon="12.6989485"><ele>32.0</ele><time>2026-03-29T13:51:10.877Z</time></trkpt><trkpt lat="37.6881504" lon="12.6991073"><ele>32.5</ele><time>2026-03-29T13:51:11.877Z</time></trkpt><trkpt lat="37.6881546" lon="12.6992663"><ele>33.0</ele><time>2026-03-29T13:51:12.877Z</time></trkpt><trkpt lat="37.6881557" lon="12.699423"><ele>33.0</ele><time>2026-03-29T13:51:13.878Z</time></trkpt><trkpt lat="37.688157" lon="12.6995753"><ele>33.0</ele><time>2026-03-29T13:51:14.878Z</time></trkpt><trkpt lat="37.6881594" lon="12.6997262"><ele>33.0</ele><time>2026-03-29T13:51:15.877Z</time></trkpt><trkpt lat="37.6881628" lon="12.6998815"><ele>33.0</ele><time>2026-03-29T13:51:16.877Z</time></trkpt><trkpt lat="37.6881664" lon="12.7000377"><ele>33.0</ele><time>2026-03-29T13:51:17.878Z</time></trkpt><trkpt lat="37.6881708" lon="12.7001922"><ele>33.0</ele><time>2026-03-29T13:51:18.876Z</time></trkpt><trkpt lat="37.688176" lon="12.7003446"><ele>33.0</ele><time>2026-03-29T13:51:19.877Z</time></trkpt><trkpt lat="37.6881782" lon="12.7005053"><ele>33.0</ele><time>2026-03-29T13:51:20.879Z</time></trkpt><trkpt lat="37.6881756" lon="12.7006766"><ele>33.25</ele><time>2026-03-29T13:51:21.877Z</time></trkpt><trkpt lat="37.6881755" lon="12.700845"><ele>33.5</ele><time>2026-03-29T13:51:22.879Z</time></trkpt><trkpt lat="37.6881783" lon="12.7010112"><ele>33.75</ele><time>2026-03-29T13:51:23.878Z</time></trkpt><trkpt lat="37.6881787" lon="12.7011818"><ele>34.0</ele><time>2026-03-29T13:51:24.879Z</time></trkpt><trkpt lat="37.6881799" lon="12.7013517"><ele>34.0</ele><time>2026-03-29T13:51:25.879Z</time></trkpt><trkpt lat="37.688183" lon="12.7015121"><ele>34.0</ele><time>2026-03-29T13:51:26.878Z</time></trkpt><trkpt lat="37.6881822" lon="12.7016718"><ele>34.0</ele><time>2026-03-29T13:51:27.877Z</time></trkpt><trkpt lat="37.6881829" lon="12.7018261"><ele>34.0</ele><time>2026-03-29T13:51:28.878Z</time></trkpt><trkpt lat="37.6881864" lon="12.7019777"><ele>33.75</ele><time>2026-03-29T13:51:29.877Z</time></trkpt><trkpt lat="37.6881889" lon="12.7021301"><ele>33.5</ele><time>2026-03-29T13:51:30.879Z</time></trkpt><trkpt lat="37.6881864" lon="12.7022894"><ele>33.25</ele><time>2026-03-29T13:51:31.877Z</time></trkpt><trkpt lat="37.688187" lon="12.7024422"><ele>33.0</ele><time>2026-03-29T13:51:32.878Z</time></trkpt><trkpt lat="37.6881913" lon="12.7025987"><ele>33.0</ele><time>2026-03-29T13:51:33.879Z</time></trkpt><trkpt lat="37.688194" lon="12.702751"><ele>33.0</ele><time>2026-03-29T13:51:34.878Z</time></trkpt><trkpt lat="37.6881956" lon="12.702909"><ele>33.0</ele><time>2026-03-29T13:51:35.877Z</time></trkpt><trkpt lat="37.6881977" lon="12.7030714"><ele>33.0</ele><time>2026-03-29T13:51:36.879Z</time></trkpt><trkpt lat="37.688202" lon="12.7032307"><ele>33.0</ele><time>2026-03-29T13:51:37.878Z</time></trkpt><trkpt lat="37.6882004" lon="12.7033882"><ele>33.0</ele><time>2026-03-29T13:51:38.879Z</time></trkpt><trkpt lat="37.6882006" lon="12.703536"><ele>33.0</ele><time>2026-03-29T13:51:39.878Z</time></trkpt><trkpt lat="37.6882025" lon="12.7036761"><ele>33.0</ele><time>2026-03-29T13:51:40.877Z</time></trkpt><trkpt lat="37.6882049" lon="12.7037995"><ele>32.833333333333336</ele><time>2026-03-29T13:51:41.878Z</time></trkpt><trkpt lat="37.6882089" lon="12.7038916"><ele>32.666666666666664</ele><time>2026-03-29T13:51:42.879Z</time></trkpt><trkpt lat="37.6882064" lon="12.7039711"><ele>32.5</ele><time>2026-03-29T13:51:43.877Z</time></trkpt><trkpt lat="37.6881707" lon="12.7040782"><ele>32.33333333333333</ele><time>2026-03-29T13:51:45.877Z</time></trkpt><trkpt lat="37.6881411" lon="12.7041505"><ele>32.166666666666664</ele><time>2026-03-29T13:51:47.878Z</time></trkpt><trkpt lat="37.6881232" lon="12.7042598"><ele>32.0</ele><time>2026-03-29T13:51:49.878Z</time></trkpt><trkpt lat="37.6881035" lon="12.7043913"><ele>31.999999999999996</ele><time>2026-03-29T13:51:51.879Z</time></trkpt><trkpt lat="37.6881095" lon="12.7044894"><ele>32.0</ele><time>2026-03-29T13:51:53.877Z</time></trkpt><trkpt lat="37.6881409" lon="12.7045815"><ele>32.0</ele><time>2026-03-29T13:51:56.878Z</time></trkpt><trkpt lat="37.688095" lon="12.7044951"><ele>32.0</ele><time>2026-03-29T13:53:07.878Z</time></trkpt><trkpt lat="37.6880893" lon="12.7043715"><ele>31.999999999999996</ele><time>2026-03-29T13:53:10.878Z</time></trkpt><trkpt lat="37.688124" lon="12.7042444"><ele>32.0</ele><time>2026-03-29T13:53:12.878Z</time></trkpt><trkpt lat="37.6881411" lon="12.7041175"><ele>32.0</ele><time>2026-03-29T13:53:14.877Z</time></trkpt><trkpt lat="37.6881956" lon="12.7040166"><ele>32.0</ele><time>2026-03-29T13:53:16.877Z</time></trkpt><trkpt lat="37.6882112" lon="12.7038457"><ele>32.0</ele><time>2026-03-29T13:53:18.876Z</time></trkpt><trkpt lat="37.6882053" lon="12.7037374"><ele>32.0</ele><time>2026-03-29T13:53:19.879Z</time></trkpt><trkpt lat="37.6882016" lon="12.7036116"><ele>32.0</ele><time>2026-03-29T13:53:20.879Z</time></trkpt><trkpt lat="37.6882004" lon="12.7034662"><ele>32.25</ele><time>2026-03-29T13:53:21.879Z</time></trkpt><trkpt lat="37.6882001" lon="12.7033174"><ele>32.5</ele><time>2026-03-29T13:53:22.878Z</time></trkpt><trkpt lat="37.6881979" lon="12.7031672"><ele>32.75</ele><time>2026-03-29T13:53:23.879Z</time></trkpt><trkpt lat="37.6881923" lon="12.7030126"><ele>33.0</ele><time>2026-03-29T13:53:24.878Z</time></trkpt><trkpt lat="37.6881875" lon="12.7028459"><ele>33.0</ele><time>2026-03-29T13:53:25.877Z</time></trkpt><trkpt lat="37.6881843" lon="12.7026828"><ele>33.0</ele><time>2026-03-29T13:53:26.877Z</time></trkpt><trkpt lat="37.6881809" lon="12.7025172"><ele>33.0</ele><time>2026-03-29T13:53:27.878Z</time></trkpt><trkpt lat="37.6881811" lon="12.7023421"><ele>33.0</ele><time>2026-03-29T13:53:28.878Z</time></trkpt><trkpt lat="37.6881804" lon="12.7021643"><ele>33.0</ele><time>2026-03-29T13:53:29.878Z</time></trkpt><trkpt lat="37.6881759" lon="12.7019862"><ele>33.0</ele><time>2026-03-29T13:53:30.877Z</time></trkpt><trkpt lat="37.6881753" lon="12.7018042"><ele>33.0</ele><time>2026-03-29T13:53:31.877Z</time></trkpt><trkpt lat="37.6881762" lon="12.7016226"><ele>33.0</ele><time>2026-03-29T13:53:32.877Z</time></trkpt><trkpt lat="37.6881756" lon="12.7014385"><ele>33.25</ele><time>2026-03-29T13:53:33.878Z</time></trkpt><trkpt lat="37.6881717" lon="12.7012523"><ele>33.5</ele><time>2026-03-29T13:53:34.876Z</time></trkpt><trkpt lat="37.6881682" lon="12.7010665"><ele>33.75</ele><time>2026-03-29T13:53:35.876Z</time></trkpt><trkpt lat="37.6881653" lon="12.7008791"><ele>34.0</ele><time>2026-03-29T13:53:36.878Z</time></trkpt><trkpt lat="37.6881646" lon="12.7006956"><ele>34.0</ele><time>2026-03-29T13:53:37.877Z</time></trkpt><trkpt lat="37.6881636" lon="12.700507"><ele>34.0</ele><time>2026-03-29T13:53:38.879Z</time></trkpt><trkpt lat="37.6881602" lon="12.7003136"><ele>34.0</ele><time>2026-03-29T13:53:39.877Z</time></trkpt><trkpt lat="37.6881609" lon="12.7001078"><ele>33.66666666666667</ele><time>2026-03-29T13:53:40.877Z</time></trkpt><trkpt lat="37.6881614" lon="12.6999136"><ele>33.333333333333336</ele><time>2026-03-29T13:53:41.877Z</time></trkpt><trkpt lat="37.6881535" lon="12.6997246"><ele>33.0</ele><time>2026-03-29T13:53:42.878Z</time></trkpt><trkpt lat="37.6881467" lon="12.6995294"><ele>33.0</ele><time>2026-03-29T13:53:43.879Z</time></trkpt><trkpt lat="37.6881472" lon="12.6993262"><ele>33.0</ele><time>2026-03-29T13:53:44.878Z</time></trkpt><trkpt lat="37.6881492" lon="12.6991227"><ele>33.0</ele><time>2026-03-29T13:53:45.876Z</time></trkpt><trkpt lat="37.6881502" lon="12.6989132"><ele>33.0</ele><time>2026-03-29T13:53:46.879Z</time></trkpt><trkpt lat="37.6881497" lon="12.6987113"><ele>33.0</ele><time>2026-03-29T13:53:47.877Z</time></trkpt><trkpt lat="37.6881473" lon="12.6985063"><ele>33.0</ele><time>2026-03-29T13:53:48.878Z</time></trkpt><trkpt lat="37.6881477" lon="12.6983148"><ele>32.333333333333336</ele><time>2026-03-29T13:53:49.876Z</time></trkpt><trkpt lat="37.6881461" lon="12.6981213"><ele>31.666666666666668</ele><time>2026-03-29T13:53:50.878Z</time></trkpt><trkpt lat="37.6881464" lon="12.6979223"><ele>31.0</ele><time>2026-03-29T13:53:51.876Z</time></trkpt><trkpt lat="37.688144" lon="12.6977305"><ele>31.0</ele><time>2026-03-29T13:53:52.878Z</time></trkpt><trkpt lat="37.6881376" lon="12.6975404"><ele>31.0</ele><time>2026-03-29T13:53:53.879Z</time></trkpt><trkpt lat="37.6881342" lon="12.6973441"><ele>31.0</ele><time>2026-03-29T13:53:54.877Z</time></trkpt><trkpt lat="37.6881293" lon="12.6971358"><ele>31.0</ele><time>2026-03-29T13:53:55.877Z</time></trkpt><trkpt lat="37.6881286" lon="12.6969327"><ele>31.0</ele><time>2026-03-29T13:53:56.877Z</time></trkpt><trkpt lat="37.6881241" lon="12.6967523"><ele>31.0</ele><time>2026-03-29T13:53:57.878Z</time></trkpt><trkpt lat="37.6881196" lon="12.6965914"><ele>31.0</ele><time>2026-03-29T13:53:58.879Z</time></trkpt><trkpt lat="37.6881157" lon="12.6964529"><ele>31.000000000000004</ele><time>2026-03-29T13:53:59.879Z</time></trkpt><trkpt lat="37.688117" lon="12.6963311"><ele>31.0</ele><time>2026-03-29T13:54:00.879Z</time></trkpt><trkpt lat="37.6881161" lon="12.696233"><ele>31.0</ele><time>2026-03-29T13:54:01.878Z</time></trkpt><trkpt lat="37.6881144" lon="12.6961513"><ele>31.0</ele><time>2026-03-29T13:54:02.876Z</time></trkpt><trkpt lat="37.6881269" lon="12.6960427"><ele>31.000000000000004</ele><time>2026-03-29T13:54:04.878Z</time></trkpt><trkpt lat="37.6881092" lon="12.6961348"><ele>31.0</ele><time>2026-03-29T13:59:41.877Z</time></trkpt><trkpt lat="37.6881062" lon="12.6962684"><ele>31.000000000000004</ele><time>2026-03-29T13:59:43.877Z</time></trkpt><trkpt lat="37.6881075" lon="12.6963562"><ele>31.0</ele><time>2026-03-29T13:59:44.878Z</time></trkpt><trkpt lat="37.6881085" lon="12.6964529"><ele>31.0</ele><time>2026-03-29T13:59:45.877Z</time></trkpt><trkpt lat="37.6881083" lon="12.6965571"><ele>31.0</ele><time>2026-03-29T13:59:46.877Z</time></trkpt><trkpt lat="37.6881118" lon="12.6966628"><ele>31.000000000000004</ele><time>2026-03-29T13:59:47.878Z</time></trkpt><trkpt lat="37.6881156" lon="12.6967826"><ele>31.0</ele><time>2026-03-29T13:59:48.877Z</time></trkpt><trkpt lat="37.6881192" lon="12.696906"><ele>31.0</ele><time>2026-03-29T13:59:49.879Z</time></trkpt><trkpt lat="37.6881236" lon="12.6970252"><ele>31.0</ele><time>2026-03-29T13:59:50.878Z</time></trkpt><trkpt lat="37.6881296" lon="12.6971411"><ele>31.0</ele><time>2026-03-29T13:59:51.878Z</time></trkpt><trkpt lat="37.6881328" lon="12.6972525"><ele>31.0</ele><time>2026-03-29T13:59:52.877Z</time></trkpt><trkpt lat="37.6881354" lon="12.6973754"><ele>31.0</ele><time>2026-03-29T13:59:53.876Z</time></trkpt><trkpt lat="37.6881375" lon="12.6974978"><ele>31.0</ele><time>2026-03-29T13:59:54.878Z</time></trkpt><trkpt lat="37.6881404" lon="12.6976106"><ele>31.0</ele><time>2026-03-29T13:59:55.877Z</time></trkpt><trkpt lat="37.6881413" lon="12.6977063"><ele>31.0</ele><time>2026-03-29T13:59:56.877Z</time></trkpt><trkpt lat="37.6881419" lon="12.6977987"><ele>31.0</ele><time>2026-03-29T13:59:57.876Z</time></trkpt><trkpt lat="37.6881422" lon="12.6979488"><ele>31.0</ele><time>2026-03-29T13:59:59.877Z</time></trkpt><trkpt lat="37.6881472" lon="12.6981167"><ele>31.000000000000004</ele><time>2026-03-29T14:00:01.877Z</time></trkpt><trkpt lat="37.6881542" lon="12.6982003"><ele>31.0</ele><time>2026-03-29T14:00:02.878Z</time></trkpt><trkpt lat="37.68815" lon="12.6982802"><ele>31.0</ele><time>2026-03-29T14:00:03.878Z</time></trkpt><trkpt lat="37.6881543" lon="12.6983768"><ele>31.0</ele><time>2026-03-29T14:00:04.877Z</time></trkpt><trkpt lat="37.688155" lon="12.6984803"><ele>31.000000000000004</ele><time>2026-03-29T14:00:05.877Z</time></trkpt><trkpt lat="37.688155" lon="12.698589"><ele>31.0</ele><time>2026-03-29T14:00:06.878Z</time></trkpt><trkpt lat="37.6881515" lon="12.6987143"><ele>31.4</ele><time>2026-03-29T14:00:07.876Z</time></trkpt><trkpt lat="37.6881524" lon="12.6988429"><ele>31.8</ele><time>2026-03-29T14:00:08.877Z</time></trkpt><trkpt lat="37.6881507" lon="12.6989778"><ele>32.199999999999996</ele><time>2026-03-29T14:00:09.878Z</time></trkpt><trkpt lat="37.6881512" lon="12.6991114"><ele>32.6</ele><time>2026-03-29T14:00:10.877Z</time></trkpt><trkpt lat="37.6881519" lon="12.6992555"><ele>33.0</ele><time>2026-03-29T14:00:11.876Z</time></trkpt><trkpt lat="37.6881502" lon="12.6993932"><ele>33.0</ele><time>2026-03-29T14:00:12.877Z</time></trkpt><trkpt lat="37.6881521" lon="12.6995362"><ele>33.0</ele><time>2026-03-29T14:00:13.877Z</time></trkpt><trkpt lat="37.6881581" lon="12.6996861"><ele>33.0</ele><time>2026-03-29T14:00:14.876Z</time></trkpt><trkpt lat="37.688163" lon="12.6998436"><ele>33.0</ele><time>2026-03-29T14:00:15.876Z</time></trkpt><trkpt lat="37.688169" lon="12.7000002"><ele>33.0</ele><time>2026-03-29T14:00:16.876Z</time></trkpt><trkpt lat="37.688172" lon="12.7001582"><ele>33.0</ele><time>2026-03-29T14:00:17.878Z</time></trkpt><trkpt lat="37.6881757" lon="12.7003168"><ele>33.0</ele><time>2026-03-29T14:00:18.877Z</time></trkpt><trkpt lat="37.6881766" lon="12.700478"><ele>33.0</ele><time>2026-03-29T14:00:19.878Z</time></trkpt><trkpt lat="37.6881727" lon="12.7006464"><ele>33.25</ele><time>2026-03-29T14:00:20.877Z</time></trkpt><trkpt lat="37.6881729" lon="12.7008122"><ele>33.5</ele><time>2026-03-29T14:00:21.876Z</time></trkpt><trkpt lat="37.6881769" lon="12.7009825"><ele>33.75</ele><time>2026-03-29T14:00:22.879Z</time></trkpt><trkpt lat="37.6881805" lon="12.7011517"><ele>34.0</ele><time>2026-03-29T14:00:23.878Z</time></trkpt><trkpt lat="37.688182" lon="12.7013237"><ele>34.0</ele><time>2026-03-29T14:00:24.878Z</time></trkpt><trkpt lat="37.6881815" lon="12.7014896"><ele>34.0</ele><time>2026-03-29T14:00:25.876Z</time></trkpt><trkpt lat="37.6881794" lon="12.701655"><ele>34.0</ele><time>2026-03-29T14:00:26.877Z</time></trkpt><trkpt lat="37.6881783" lon="12.7018238"><ele>34.0</ele><time>2026-03-29T14:00:27.877Z</time></trkpt><trkpt lat="37.6881784" lon="12.7019892"><ele>33.75</ele><time>2026-03-29T14:00:28.876Z</time></trkpt><trkpt lat="37.6881825" lon="12.7021593"><ele>33.5</ele><time>2026-03-29T14:00:29.876Z</time></trkpt><trkpt lat="37.688184" lon="12.7023262"><ele>33.25</ele><time>2026-03-29T14:00:30.877Z</time></trkpt><trkpt lat="37.688187" lon="12.702505"><ele>33.0</ele><time>2026-03-29T14:00:31.879Z</time></trkpt><trkpt lat="37.6881892" lon="12.7026799"><ele>33.0</ele><time>2026-03-29T14:00:32.877Z</time></trkpt><trkpt lat="37.6881889" lon="12.7028587"><ele>33.0</ele><time>2026-03-29T14:00:33.877Z</time></trkpt><trkpt lat="37.6881909" lon="12.7030358"><ele>33.0</ele><time>2026-03-29T14:00:34.877Z</time></trkpt><trkpt lat="37.6881911" lon="12.703215"><ele>33.0</ele><time>2026-03-29T14:00:35.878Z</time></trkpt><trkpt lat="37.6881943" lon="12.703386"><ele>33.0</ele><time>2026-03-29T14:00:36.878Z</time></trkpt><trkpt lat="37.6881955" lon="12.7035385"><ele>33.0</ele><time>2026-03-29T14:00:37.878Z</time></trkpt><trkpt lat="37.688196" lon="12.7036689"><ele>33.0</ele><time>2026-03-29T14:00:38.877Z</time></trkpt><trkpt lat="37.6881985" lon="12.7037719"><ele>33.0</ele><time>2026-03-29T14:00:39.876Z</time></trkpt><trkpt lat="37.6881989" lon="12.7038667"><ele>33.0</ele><time>2026-03-29T14:00:40.876Z</time></trkpt><trkpt lat="37.6881951" lon="12.7040047"><ele>33.0</ele><time>2026-03-29T14:00:42.877Z</time></trkpt><trkpt lat="37.6881485" lon="12.704086"><ele>33.0</ele><time>2026-03-29T14:00:44.878Z</time></trkpt><trkpt lat="37.6881191" lon="12.7041644"><ele>33.0</ele><time>2026-03-29T14:00:46.876Z</time></trkpt><trkpt lat="37.6881042" lon="12.7042939"><ele>33.0</ele><time>2026-03-29T14:00:48.877Z</time></trkpt><trkpt lat="37.6880924" lon="12.7043982"><ele>33.0</ele><time>2026-03-29T14:00:50.876Z</time></trkpt><trkpt lat="37.6880951" lon="12.7044859"><ele>33.0</ele><time>2026-03-29T14:00:52.876Z</time></trkpt><trkpt lat="37.6881276" lon="12.7045579"><ele>33.0</ele><time>2026-03-29T14:00:54.878Z</time></trkpt><trkpt lat="37.6881813" lon="12.7046521"><ele>33.0</ele><time>2026-03-29T14:00:56.879Z</time></trkpt><trkpt lat="37.6881945" lon="12.70473"><ele>33.0</ele><time>2026-03-29T14:00:57.878Z</time></trkpt><trkpt lat="37.6882085" lon="12.7048287"><ele>33.0</ele><time>2026-03-29T14:00:58.878Z</time></trkpt><trkpt lat="37.6882074" lon="12.7049574"><ele>33.0</ele><time>2026-03-29T14:00:59.877Z</time></trkpt><trkpt lat="37.6882042" lon="12.7050739"><ele>33.0</ele><time>2026-03-29T14:01:00.877Z</time></trkpt><trkpt lat="37.6882062" lon="12.7051923"><ele>33.6</ele><time>2026-03-29T14:01:01.877Z</time></trkpt><trkpt lat="37.6882051" lon="12.7053164"><ele>34.199999999999996</ele><time>2026-03-29T14:01:02.879Z</time></trkpt><trkpt lat="37.6882061" lon="12.7054542"><ele>34.8</ele><time>2026-03-29T14:01:03.878Z</time></trkpt><trkpt lat="37.6882086" lon="12.70558"><ele>35.4</ele><time>2026-03-29T14:01:04.876Z</time></trkpt><trkpt lat="37.688211" lon="12.7057156"><ele>36.0</ele><time>2026-03-29T14:01:05.877Z</time></trkpt><trkpt lat="37.6882115" lon="12.7058415"><ele>36.0</ele><time>2026-03-29T14:01:06.876Z</time></trkpt><trkpt lat="37.6882125" lon="12.7059631"><ele>36.0</ele><time>2026-03-29T14:01:07.878Z</time></trkpt><trkpt lat="37.6882098" lon="12.7060844"><ele>36.0</ele><time>2026-03-29T14:01:08.876Z</time></trkpt><trkpt lat="37.6882088" lon="12.7061929"><ele>36.0</ele><time>2026-03-29T14:01:09.876Z</time></trkpt><trkpt lat="37.6882067" lon="12.7062817"><ele>36.0</ele><time>2026-03-29T14:01:10.878Z</time></trkpt><trkpt lat="37.6882019" lon="12.7063913"><ele>36.0</ele><time>2026-03-29T14:01:12.877Z</time></trkpt><trkpt lat="37.6882085" lon="12.7064986"><ele>36.0</ele><time>2026-03-29T14:01:15.877Z</time></trkpt><trkpt lat="37.6882079" lon="12.7066397"><ele>36.0</ele><time>2026-03-29T14:01:18.877Z</time></trkpt><trkpt lat="37.6882041" lon="12.7067676"><ele>36.0</ele><time>2026-03-29T14:01:19.877Z</time></trkpt><trkpt lat="37.6881989" lon="12.7069164"><ele>36.0</ele><time>2026-03-29T14:01:20.878Z</time></trkpt><trkpt lat="37.6881983" lon="12.7070783"><ele>36.0</ele><time>2026-03-29T14:01:21.876Z</time></trkpt><trkpt lat="37.6882006" lon="12.7072297"><ele>36.0</ele><time>2026-03-29T14:01:22.878Z</time></trkpt><trkpt lat="37.6882023" lon="12.7073873"><ele>36.0</ele><time>2026-03-29T14:01:23.877Z</time></trkpt><trkpt lat="37.688194" lon="12.7075507"><ele>36.0</ele><time>2026-03-29T14:01:24.877Z</time></trkpt><trkpt lat="37.6881831" lon="12.7077135"><ele>35.75</ele><time>2026-03-29T14:01:25.877Z</time></trkpt><trkpt lat="37.688177" lon="12.7078796"><ele>35.5</ele><time>2026-03-29T14:01:26.876Z</time></trkpt><trkpt lat="37.6881688" lon="12.7080475"><ele>35.25</ele><time>2026-03-29T14:01:27.878Z</time></trkpt><trkpt lat="37.6881577" lon="12.7082196"><ele>35.0</ele><time>2026-03-29T14:01:28.876Z</time></trkpt><trkpt lat="37.6881483" lon="12.7083983"><ele>35.0</ele><time>2026-03-29T14:01:29.877Z</time></trkpt><trkpt lat="37.688137" lon="12.7085642"><ele>35.0</ele><time>2026-03-29T14:01:30.877Z</time></trkpt><trkpt lat="37.6881288" lon="12.70872"><ele>35.0</ele><time>2026-03-29T14:01:31.877Z</time></trkpt><trkpt lat="37.6881274" lon="12.7088729"><ele>35.0</ele><time>2026-03-29T14:01:32.877Z</time></trkpt><trkpt lat="37.688125" lon="12.7090217"><ele>35.0</ele><time>2026-03-29T14:01:33.877Z</time></trkpt><trkpt lat="37.6881174" lon="12.7091534"><ele>35.0</ele><time>2026-03-29T14:01:34.877Z</time></trkpt><trkpt lat="37.6881111" lon="12.7092705"><ele>35.0</ele><time>2026-03-29T14:01:35.878Z</time></trkpt><trkpt lat="37.6880942" lon="12.7093937"><ele>35.0</ele><time>2026-03-29T14:01:36.878Z</time></trkpt><trkpt lat="37.688085" lon="12.7095415"><ele>35.0</ele><time>2026-03-29T14:01:37.877Z</time></trkpt><trkpt lat="37.6880723" lon="12.7097107"><ele>35.25</ele><time>2026-03-29T14:01:38.878Z</time></trkpt><trkpt lat="37.6880604" lon="12.7099107"><ele>35.5</ele><time>2026-03-29T14:01:39.878Z</time></trkpt><trkpt lat="37.6880501" lon="12.7101043"><ele>35.75</ele><time>2026-03-29T14:01:40.876Z</time></trkpt><trkpt lat="37.6880414" lon="12.7102773"><ele>36.0</ele><time>2026-03-29T14:01:41.876Z</time></trkpt><trkpt lat="37.688029" lon="12.7104391"><ele>36.0</ele><time>2026-03-29T14:01:42.877Z</time></trkpt><trkpt lat="37.6880202" lon="12.7105834"><ele>36.0</ele><time>2026-03-29T14:01:43.878Z</time></trkpt><trkpt lat="37.6880128" lon="12.7107357"><ele>36.0</ele><time>2026-03-29T14:01:44.877Z</time></trkpt><trkpt lat="37.6880043" lon="12.7108786"><ele>36.0</ele><time>2026-03-29T14:01:45.876Z</time></trkpt><trkpt lat="37.6880052" lon="12.7110141"><ele>36.0</ele><time>2026-03-29T14:01:46.877Z</time></trkpt><trkpt lat="37.6880064" lon="12.711154"><ele>36.0</ele><time>2026-03-29T14:01:47.876Z</time></trkpt><trkpt lat="37.6879985" lon="12.711283"><ele>36.0</ele><time>2026-03-29T14:01:48.876Z</time></trkpt><trkpt lat="37.6879964" lon="12.7114042"><ele>36.0</ele><time>2026-03-29T14:01:49.877Z</time></trkpt><trkpt lat="37.6879857" lon="12.7115188"><ele>36.0</ele><time>2026-03-29T14:01:50.876Z</time></trkpt><trkpt lat="37.6879827" lon="12.7116315"><ele>36.0</ele><time>2026-03-29T14:01:51.877Z</time></trkpt><trkpt lat="37.6879807" lon="12.7117568"><ele>36.0</ele><time>2026-03-29T14:01:52.878Z</time></trkpt><trkpt lat="37.6879771" lon="12.711877"><ele>36.0</ele><time>2026-03-29T14:01:53.877Z</time></trkpt><trkpt lat="37.6879706" lon="12.7120041"><ele>36.0</ele><time>2026-03-29T14:01:54.876Z</time></trkpt><trkpt lat="37.6879606" lon="12.7121332"><ele>36.0</ele><time>2026-03-29T14:01:55.878Z</time></trkpt><trkpt lat="37.6879531" lon="12.7122733"><ele>36.0</ele><time>2026-03-29T14:01:56.878Z</time></trkpt><trkpt lat="37.6879549" lon="12.7123958"><ele>36.0</ele><time>2026-03-29T14:01:57.877Z</time></trkpt><trkpt lat="37.6879455" lon="12.7125253"><ele>36.0</ele><time>2026-03-29T14:01:58.877Z</time></trkpt><trkpt lat="37.687924" lon="12.7126442"><ele>36.0</ele><time>2026-03-29T14:01:59.877Z</time></trkpt><trkpt lat="37.6879096" lon="12.7127722"><ele>36.0</ele><time>2026-03-29T14:02:00.876Z</time></trkpt><trkpt lat="37.6878991" lon="12.7128983"><ele>36.0</ele><time>2026-03-29T14:02:01.878Z</time></trkpt><trkpt lat="37.6878899" lon="12.7130457"><ele>36.0</ele><time>2026-03-29T14:02:02.878Z</time></trkpt><trkpt lat="37.6878845" lon="12.7131897"><ele>36.0</ele><time>2026-03-29T14:02:03.876Z</time></trkpt><trkpt lat="37.6878804" lon="12.7133326"><ele>36.0</ele><time>2026-03-29T14:02:04.876Z</time></trkpt><trkpt lat="37.687873" lon="12.7134708"><ele>36.25</ele><time>2026-03-29T14:02:05.877Z</time></trkpt><trkpt lat="37.6878683" lon="12.7136085"><ele>36.5</ele><time>2026-03-29T14:02:06.876Z</time></trkpt><trkpt lat="37.6878625" lon="12.7137427"><ele>36.75</ele><time>2026-03-29T14:02:07.878Z</time></trkpt><trkpt lat="37.6878619" lon="12.7139033"><ele>37.0</ele><time>2026-03-29T14:02:08.876Z</time></trkpt><trkpt lat="37.6878582" lon="12.7140564"><ele>37.0</ele><time>2026-03-29T14:02:09.877Z</time></trkpt><trkpt lat="37.687852" lon="12.7142022"><ele>37.0</ele><time>2026-03-29T14:02:10.877Z</time></trkpt><trkpt lat="37.687839" lon="12.7143471"><ele>37.0</ele><time>2026-03-29T14:02:11.876Z</time></trkpt><trkpt lat="37.6878287" lon="12.7144861"><ele>37.0</ele><time>2026-03-29T14:02:12.877Z</time></trkpt><trkpt lat="37.6878184" lon="12.7146458"><ele>37.0</ele><time>2026-03-29T14:02:13.876Z</time></trkpt><trkpt lat="37.6878063" lon="12.7148"><ele>37.0</ele><time>2026-03-29T14:02:14.877Z</time></trkpt><trkpt lat="37.6878027" lon="12.7149372"><ele>37.0</ele><time>2026-03-29T14:02:15.878Z</time></trkpt><trkpt lat="37.6877961" lon="12.7150765"><ele>37.0</ele><time>2026-03-29T14:02:16.878Z</time></trkpt><trkpt lat="37.687791" lon="12.7152166"><ele>37.0</ele><time>2026-03-29T14:02:17.876Z</time></trkpt><trkpt lat="37.6877777" lon="12.7153569"><ele>37.0</ele><time>2026-03-29T14:02:18.877Z</time></trkpt><trkpt lat="37.6877596" lon="12.715502"><ele>37.0</ele><time>2026-03-29T14:02:19.877Z</time></trkpt><trkpt lat="37.6877461" lon="12.7156703"><ele>37.0</ele><time>2026-03-29T14:02:20.878Z</time></trkpt><trkpt lat="37.6877388" lon="12.7158427"><ele>37.25</ele><time>2026-03-29T14:02:21.876Z</time></trkpt><trkpt lat="37.6877278" lon="12.7159951"><ele>37.5</ele><time>2026-03-29T14:02:22.877Z</time></trkpt><trkpt lat="37.6877229" lon="12.7161441"><ele>37.75</ele><time>2026-03-29T14:02:23.877Z</time></trkpt><trkpt lat="37.6877158" lon="12.7162858"><ele>38.0</ele><time>2026-03-29T14:02:24.877Z</time></trkpt><trkpt lat="37.6877126" lon="12.7164252"><ele>38.0</ele><time>2026-03-29T14:02:25.878Z</time></trkpt><trkpt lat="37.6877051" lon="12.7165608"><ele>38.0</ele><time>2026-03-29T14:02:26.877Z</time></trkpt><trkpt lat="37.6876946" lon="12.7167132"><ele>38.0</ele><time>2026-03-29T14:02:27.877Z</time></trkpt><trkpt lat="37.6876879" lon="12.7168627"><ele>38.0</ele><time>2026-03-29T14:02:28.877Z</time></trkpt><trkpt lat="37.6876826" lon="12.7170134"><ele>38.25</ele><time>2026-03-29T14:02:29.877Z</time></trkpt><trkpt lat="37.687673" lon="12.717163"><ele>38.5</ele><time>2026-03-29T14:02:30.877Z</time></trkpt><trkpt lat="37.6876668" lon="12.717313"><ele>38.75</ele><time>2026-03-29T14:02:31.876Z</time></trkpt><trkpt lat="37.6876608" lon="12.7174506"><ele>39.0</ele><time>2026-03-29T14:02:32.877Z</time></trkpt><trkpt lat="37.68765" lon="12.717586"><ele>39.0</ele><time>2026-03-29T14:02:33.877Z</time></trkpt><trkpt lat="37.687632" lon="12.7177218"><ele>39.0</ele><time>2026-03-29T14:02:34.878Z</time></trkpt><trkpt lat="37.6876159" lon="12.7178582"><ele>39.0</ele><time>2026-03-29T14:02:35.878Z</time></trkpt><trkpt lat="37.6876131" lon="12.7179786"><ele>39.0</ele><time>2026-03-29T14:02:36.876Z</time></trkpt><trkpt lat="37.6876055" lon="12.7180965"><ele>39.0</ele><time>2026-03-29T14:02:37.877Z</time></trkpt><trkpt lat="37.687601" lon="12.7182192"><ele>39.0</ele><time>2026-03-29T14:02:38.877Z</time></trkpt><trkpt lat="37.6875926" lon="12.7183441"><ele>39.0</ele><time>2026-03-29T14:02:39.877Z</time></trkpt><trkpt lat="37.6875843" lon="12.7184676"><ele>39.0</ele><time>2026-03-29T14:02:40.877Z</time></trkpt><trkpt lat="37.6875807" lon="12.7185991"><ele>39.0</ele><time>2026-03-29T14:02:41.878Z</time></trkpt><trkpt lat="37.6875714" lon="12.718731"><ele>39.0</ele><time>2026-03-29T14:02:42.876Z</time></trkpt><trkpt lat="37.6875621" lon="12.7188575"><ele>39.0</ele><time>2026-03-29T14:02:43.878Z</time></trkpt><trkpt lat="37.6875517" lon="12.7189936"><ele>39.0</ele><time>2026-03-29T14:02:44.877Z</time></trkpt><trkpt lat="37.6875378" lon="12.719123"><ele>39.0</ele><time>2026-03-29T14:02:45.877Z</time></trkpt><trkpt lat="37.6875336" lon="12.7192567"><ele>39.0</ele><time>2026-03-29T14:02:46.877Z</time></trkpt><trkpt lat="37.6875302" lon="12.7194016"><ele>39.0</ele><time>2026-03-29T14:02:47.877Z</time></trkpt><trkpt lat="37.6875234" lon="12.7195398"><ele>39.0</ele><time>2026-03-29T14:02:48.877Z</time></trkpt><trkpt lat="37.6875123" lon="12.7196809"><ele>39.0</ele><time>2026-03-29T14:02:49.877Z</time></trkpt><trkpt lat="37.6875043" lon="12.7198168"><ele>39.0</ele><time>2026-03-29T14:02:50.878Z</time></trkpt><trkpt lat="37.6874927" lon="12.7199531"><ele>39.0</ele><time>2026-03-29T14:02:51.876Z</time></trkpt><trkpt lat="37.6874905" lon="12.7200835"><ele>39.0</ele><time>2026-03-29T14:02:52.877Z</time></trkpt><trkpt lat="37.6874846" lon="12.720217"><ele>38.75</ele><time>2026-03-29T14:02:53.876Z</time></trkpt><trkpt lat="37.6874746" lon="12.7203575"><ele>38.5</ele><time>2026-03-29T14:02:54.877Z</time></trkpt><trkpt lat="37.6874676" lon="12.7205006"><ele>38.25</ele><time>2026-03-29T14:02:55.876Z</time></trkpt><trkpt lat="37.6874622" lon="12.7206407"><ele>38.0</ele><time>2026-03-29T14:02:56.877Z</time></trkpt><trkpt lat="37.687456" lon="12.7207899"><ele>38.0</ele><time>2026-03-29T14:02:57.877Z</time></trkpt><trkpt lat="37.6874462" lon="12.7209352"><ele>38.0</ele><time>2026-03-29T14:02:58.878Z</time></trkpt><trkpt lat="37.6874377" lon="12.7210779"><ele>38.0</ele><time>2026-03-29T14:02:59.878Z</time></trkpt><trkpt lat="37.6874324" lon="12.7212244"><ele>38.0</ele><time>2026-03-29T14:03:00.878Z</time></trkpt><trkpt lat="37.6874309" lon="12.7213706"><ele>38.0</ele><time>2026-03-29T14:03:01.876Z</time></trkpt><trkpt lat="37.6874287" lon="12.7215131"><ele>38.0</ele><time>2026-03-29T14:03:02.876Z</time></trkpt><trkpt lat="37.6874145" lon="12.7216831"><ele>38.0</ele><time>2026-03-29T14:03:03.876Z</time></trkpt><trkpt lat="37.6874001" lon="12.7218439"><ele>38.0</ele><time>2026-03-29T14:03:04.877Z</time></trkpt><trkpt lat="37.6873919" lon="12.7220057"><ele>38.25</ele><time>2026-03-29T14:03:05.877Z</time></trkpt><trkpt lat="37.6873846" lon="12.7221614"><ele>38.5</ele><time>2026-03-29T14:03:06.877Z</time></trkpt><trkpt lat="37.6873786" lon="12.722354"><ele>38.75</ele><time>2026-03-29T14:03:07.877Z</time></trkpt><trkpt lat="37.6873698" lon="12.7225369"><ele>39.0</ele><time>2026-03-29T14:03:08.877Z</time></trkpt><trkpt lat="37.6873593" lon="12.722706"><ele>39.0</ele><time>2026-03-29T14:03:09.876Z</time></trkpt><trkpt lat="37.6873469" lon="12.722856"><ele>39.0</ele><time>2026-03-29T14:03:10.877Z</time></trkpt><trkpt lat="37.6873385" lon="12.7230157"><ele>39.0</ele><time>2026-03-29T14:03:11.877Z</time></trkpt><trkpt lat="37.6873381" lon="12.7231812"><ele>39.0</ele><time>2026-03-29T14:03:12.876Z</time></trkpt><trkpt lat="37.6873329" lon="12.723327"><ele>39.0</ele><time>2026-03-29T14:03:13.877Z</time></trkpt><trkpt lat="37.6873241" lon="12.7235053"><ele>39.0</ele><time>2026-03-29T14:03:14.876Z</time></trkpt><trkpt lat="37.6873105" lon="12.723669"><ele>39.0</ele><time>2026-03-29T14:03:15.878Z</time></trkpt><trkpt lat="37.687301" lon="12.7238448"><ele>39.0</ele><time>2026-03-29T14:03:16.876Z</time></trkpt><trkpt lat="37.6872923" lon="12.7240092"><ele>39.0</ele><time>2026-03-29T14:03:17.877Z</time></trkpt><trkpt lat="37.6872799" lon="12.7241662"><ele>39.0</ele><time>2026-03-29T14:03:18.876Z</time></trkpt><trkpt lat="37.6872632" lon="12.724314"><ele>39.0</ele><time>2026-03-29T14:03:19.878Z</time></trkpt><trkpt lat="37.6872564" lon="12.7244892"><ele>39.0</ele><time>2026-03-29T14:03:20.876Z</time></trkpt><trkpt lat="37.6872512" lon="12.7246462"><ele>39.0</ele><time>2026-03-29T14:03:21.877Z</time></trkpt><trkpt lat="37.6872393" lon="12.7248052"><ele>39.0</ele><time>2026-03-29T14:03:22.877Z</time></trkpt><trkpt lat="37.6872305" lon="12.7249541"><ele>39.0</ele><time>2026-03-29T14:03:23.878Z</time></trkpt><trkpt lat="37.6872231" lon="12.7250967"><ele>39.0</ele><time>2026-03-29T14:03:24.878Z</time></trkpt><trkpt lat="37.6872159" lon="12.7252412"><ele>39.2</ele><time>2026-03-29T14:03:25.877Z</time></trkpt><trkpt lat="37.687208" lon="12.7253808"><ele>39.4</ele><time>2026-03-29T14:03:26.876Z</time></trkpt><trkpt lat="37.6872028" lon="12.7255212"><ele>39.6</ele><time>2026-03-29T14:03:27.877Z</time></trkpt><trkpt lat="37.687198" lon="12.7256465"><ele>39.8</ele><time>2026-03-29T14:03:28.877Z</time></trkpt><trkpt lat="37.6871809" lon="12.7257642"><ele>40.0</ele><time>2026-03-29T14:03:29.878Z</time></trkpt><trkpt lat="37.6871706" lon="12.7258818"><ele>40.0</ele><time>2026-03-29T14:03:30.876Z</time></trkpt><trkpt lat="37.6871741" lon="12.7260234"><ele>40.0</ele><time>2026-03-29T14:03:31.876Z</time></trkpt><trkpt lat="37.6871642" lon="12.7261697"><ele>40.0</ele><time>2026-03-29T14:03:32.877Z</time></trkpt><trkpt lat="37.6871558" lon="12.7263194"><ele>40.0</ele><time>2026-03-29T14:03:33.878Z</time></trkpt><trkpt lat="37.6871457" lon="12.7264641"><ele>39.75</ele><time>2026-03-29T14:03:34.878Z</time></trkpt><trkpt lat="37.6871328" lon="12.7266007"><ele>39.5</ele><time>2026-03-29T14:03:35.877Z</time></trkpt><trkpt lat="37.6871235" lon="12.7267448"><ele>39.25</ele><time>2026-03-29T14:03:36.877Z</time></trkpt><trkpt lat="37.6871212" lon="12.7268888"><ele>39.0</ele><time>2026-03-29T14:03:37.877Z</time></trkpt><trkpt lat="37.6871114" lon="12.7270332"><ele>39.4</ele><time>2026-03-29T14:03:38.878Z</time></trkpt><trkpt lat="37.6871076" lon="12.7271742"><ele>39.8</ele><time>2026-03-29T14:03:39.877Z</time></trkpt><trkpt lat="37.6870992" lon="12.7273105"><ele>40.199999999999996</ele><time>2026-03-29T14:03:40.876Z</time></trkpt><trkpt lat="37.6870887" lon="12.7274446"><ele>40.599999999999994</ele><time>2026-03-29T14:03:41.878Z</time></trkpt><trkpt lat="37.6870806" lon="12.7275834"><ele>41.0</ele><time>2026-03-29T14:03:42.877Z</time></trkpt><trkpt lat="37.6870794" lon="12.7277192"><ele>41.4</ele><time>2026-03-29T14:03:43.877Z</time></trkpt><trkpt lat="37.6870716" lon="12.7278602"><ele>41.8</ele><time>2026-03-29T14:03:44.876Z</time></trkpt><trkpt lat="37.6870587" lon="12.7279949"><ele>42.199999999999996</ele><time>2026-03-29T14:03:45.878Z</time></trkpt><trkpt lat="37.6870525" lon="12.7281231"><ele>42.599999999999994</ele><time>2026-03-29T14:03:46.876Z</time></trkpt><trkpt lat="37.6870509" lon="12.7282554"><ele>43.0</ele><time>2026-03-29T14:03:47.877Z</time></trkpt><trkpt lat="37.687052" lon="12.7283916"><ele>43.0</ele><time>2026-03-29T14:03:48.878Z</time></trkpt><trkpt lat="37.6870577" lon="12.7285265"><ele>43.0</ele><time>2026-03-29T14:03:49.877Z</time></trkpt><trkpt lat="37.6870607" lon="12.7286675"><ele>43.0</ele><time>2026-03-29T14:03:50.877Z</time></trkpt><trkpt lat="37.6870614" lon="12.7288062"><ele>43.0</ele><time>2026-03-29T14:03:51.876Z</time></trkpt><trkpt lat="37.687062" lon="12.7289454"><ele>43.0</ele><time>2026-03-29T14:03:52.878Z</time></trkpt><trkpt lat="37.6870692" lon="12.7290869"><ele>42.8</ele><time>2026-03-29T14:03:53.877Z</time></trkpt><trkpt lat="37.6870731" lon="12.7292238"><ele>42.599999999999994</ele><time>2026-03-29T14:03:54.877Z</time></trkpt><trkpt lat="37.6870759" lon="12.7293562"><ele>42.400000000000006</ele><time>2026-03-29T14:03:55.877Z</time></trkpt><trkpt lat="37.6870702" lon="12.7294908"><ele>42.2</ele><time>2026-03-29T14:03:56.877Z</time></trkpt><trkpt lat="37.687069" lon="12.7296298"><ele>42.0</ele><time>2026-03-29T14:03:57.876Z</time></trkpt><trkpt lat="37.687072" lon="12.7297698"><ele>42.25</ele><time>2026-03-29T14:03:58.877Z</time></trkpt><trkpt lat="37.6870743" lon="12.7299096"><ele>42.5</ele><time>2026-03-29T14:03:59.875Z</time></trkpt><trkpt lat="37.6870804" lon="12.730049"><ele>42.75</ele><time>2026-03-29T14:04:00.876Z</time></trkpt><trkpt lat="37.6870828" lon="12.7301893"><ele>43.0</ele><time>2026-03-29T14:04:01.878Z</time></trkpt><trkpt lat="37.687081" lon="12.7303465"><ele>43.0</ele><time>2026-03-29T14:04:02.876Z</time></trkpt><trkpt lat="37.6870789" lon="12.7304873"><ele>43.0</ele><time>2026-03-29T14:04:03.877Z</time></trkpt><trkpt lat="37.6870794" lon="12.7306178"><ele>43.0</ele><time>2026-03-29T14:04:04.876Z</time></trkpt><trkpt lat="37.6870823" lon="12.7307504"><ele>43.0</ele><time>2026-03-29T14:04:05.877Z</time></trkpt><trkpt lat="37.6870873" lon="12.7308812"><ele>43.0</ele><time>2026-03-29T14:04:06.877Z</time></trkpt><trkpt lat="37.6870835" lon="12.7310154"><ele>43.25</ele><time>2026-03-29T14:04:07.877Z</time></trkpt><trkpt lat="37.687085" lon="12.7311469"><ele>43.5</ele><time>2026-03-29T14:04:08.877Z</time></trkpt><trkpt lat="37.6870925" lon="12.731315"><ele>43.75</ele><time>2026-03-29T14:04:09.878Z</time></trkpt><trkpt lat="37.6870931" lon="12.7314677"><ele>44.0</ele><time>2026-03-29T14:04:10.876Z</time></trkpt><trkpt lat="37.6870949" lon="12.7315996"><ele>44.0</ele><time>2026-03-29T14:04:11.878Z</time></trkpt><trkpt lat="37.6870994" lon="12.7317276"><ele>44.0</ele><time>2026-03-29T14:04:12.877Z</time></trkpt><trkpt lat="37.6870991" lon="12.7318445"><ele>44.0</ele><time>2026-03-29T14:04:13.876Z</time></trkpt><trkpt lat="37.6870936" lon="12.731972"><ele>44.0</ele><time>2026-03-29T14:04:14.877Z</time></trkpt><trkpt lat="37.6870896" lon="12.7320974"><ele>44.0</ele><time>2026-03-29T14:04:15.877Z</time></trkpt><trkpt lat="37.6870888" lon="12.7322215"><ele>44.400000000000006</ele><time>2026-03-29T14:04:16.876Z</time></trkpt><trkpt lat="37.6870889" lon="12.7323494"><ele>44.8</ele><time>2026-03-29T14:04:17.876Z</time></trkpt><trkpt lat="37.687089" lon="12.7324736"><ele>45.2</ele><time>2026-03-29T14:04:18.876Z</time></trkpt><trkpt lat="37.6870912" lon="12.7326017"><ele>45.599999999999994</ele><time>2026-03-29T14:04:19.877Z</time></trkpt><trkpt lat="37.6870991" lon="12.7327299"><ele>46.0</ele><time>2026-03-29T14:04:20.878Z</time></trkpt><trkpt lat="37.6871033" lon="12.7328643"><ele>46.199999999999996</ele><time>2026-03-29T14:04:21.877Z</time></trkpt><trkpt lat="37.6871039" lon="12.7329973"><ele>46.4</ele><time>2026-03-29T14:04:22.876Z</time></trkpt><trkpt lat="37.6871082" lon="12.7331282"><ele>46.6</ele><time>2026-03-29T14:04:23.876Z</time></trkpt><trkpt lat="37.687105" lon="12.7332629"><ele>46.8</ele><time>2026-03-29T14:04:24.877Z</time></trkpt><trkpt lat="37.6871098" lon="12.7333957"><ele>47.0</ele><time>2026-03-29T14:04:25.877Z</time></trkpt><trkpt lat="37.6871136" lon="12.7335242"><ele>46.8</ele><time>2026-03-29T14:04:26.876Z</time></trkpt><trkpt lat="37.6871125" lon="12.7336534"><ele>46.6</ele><time>2026-03-29T14:04:27.876Z</time></trkpt><trkpt lat="37.6871148" lon="12.7337782"><ele>46.4</ele><time>2026-03-29T14:04:28.876Z</time></trkpt><trkpt lat="37.6871179" lon="12.7338919"><ele>46.199999999999996</ele><time>2026-03-29T14:04:29.878Z</time></trkpt><trkpt lat="37.6871195" lon="12.733995"><ele>46.0</ele><time>2026-03-29T14:04:30.877Z</time></trkpt><trkpt lat="37.6871198" lon="12.7341013"><ele>46.0</ele><time>2026-03-29T14:04:31.877Z</time></trkpt><trkpt lat="37.6871219" lon="12.734209"><ele>46.0</ele><time>2026-03-29T14:04:32.877Z</time></trkpt><trkpt lat="37.6871235" lon="12.7343181"><ele>46.0</ele><time>2026-03-29T14:04:33.877Z</time></trkpt><trkpt lat="37.6871222" lon="12.7344295"><ele>46.0</ele><time>2026-03-29T14:04:34.878Z</time></trkpt><trkpt lat="37.687122" lon="12.7345324"><ele>46.0</ele><time>2026-03-29T14:04:35.877Z</time></trkpt><trkpt lat="37.6871244" lon="12.7346273"><ele>46.0</ele><time>2026-03-29T14:04:36.877Z</time></trkpt><trkpt lat="37.6871233" lon="12.7347192"><ele>46.333333333333336</ele><time>2026-03-29T14:04:37.877Z</time></trkpt><trkpt lat="37.6871256" lon="12.7348064"><ele>46.66666666666667</ele><time>2026-03-29T14:04:38.876Z</time></trkpt><trkpt lat="37.6871242" lon="12.7348883"><ele>47.0</ele><time>2026-03-29T14:04:39.876Z</time></trkpt><trkpt lat="37.6871238" lon="12.7350481"><ele>47.333333333333336</ele><time>2026-03-29T14:04:41.877Z</time></trkpt><trkpt lat="37.6871278" lon="12.7351296"><ele>47.666666666666664</ele><time>2026-03-29T14:04:42.878Z</time></trkpt><trkpt lat="37.6871289" lon="12.7352605"><ele>48.0</ele><time>2026-03-29T14:04:44.878Z</time></trkpt><trkpt lat="37.6871242" lon="12.7353518"><ele>48.666666666666664</ele><time>2026-03-29T14:04:46.877Z</time></trkpt><trkpt lat="37.6871267" lon="12.7354388"><ele>49.33333333333333</ele><time>2026-03-29T14:04:49.876Z</time></trkpt><trkpt lat="37.6871319" lon="12.7355454"><ele>50.0</ele><time>2026-03-29T14:04:53.875Z</time></trkpt><trkpt lat="37.6871604" lon="12.735617"><ele>50.666666666666664</ele><time>2026-03-29T14:04:56.876Z</time></trkpt><trkpt lat="37.6872428" lon="12.735612"><ele>51.33333333333333</ele><time>2026-03-29T14:04:58.876Z</time></trkpt><trkpt lat="37.6873149" lon="12.735595"><ele>52.0</ele><time>2026-03-29T14:05:00.876Z</time></trkpt><trkpt lat="37.6874156" lon="12.7355712"><ele>51.99999999999999</ele><time>2026-03-29T14:05:02.878Z</time></trkpt><trkpt lat="37.6875351" lon="12.7355893"><ele>52.0</ele><time>2026-03-29T14:05:04.876Z</time></trkpt><trkpt lat="37.6875965" lon="12.735635"><ele>52.0</ele><time>2026-03-29T14:05:05.877Z</time></trkpt><trkpt lat="37.6876577" lon="12.7356907"><ele>52.0</ele><time>2026-03-29T14:05:06.875Z</time></trkpt><trkpt lat="37.6877097" lon="12.7357428"><ele>51.99999999999999</ele><time>2026-03-29T14:05:07.877Z</time></trkpt><trkpt lat="37.6877615" lon="12.7357958"><ele>52.0</ele><time>2026-03-29T14:05:08.876Z</time></trkpt><trkpt lat="37.6878147" lon="12.7358553"><ele>52.99999999999999</ele><time>2026-03-29T14:05:09.877Z</time></trkpt><trkpt lat="37.6878557" lon="12.7359231"><ele>54.0</ele><time>2026-03-29T14:05:10.876Z</time></trkpt><trkpt lat="37.6878997" lon="12.7359868"><ele>55.0</ele><time>2026-03-29T14:05:11.876Z</time></trkpt><trkpt lat="37.6879407" lon="12.7360548"><ele>56.0</ele><time>2026-03-29T14:05:12.876Z</time></trkpt><trkpt lat="37.687986" lon="12.7361188"><ele>56.99999999999999</ele><time>2026-03-29T14:05:13.876Z</time></trkpt><trkpt lat="37.6880676" lon="12.736175"><ele>58.0</ele><time>2026-03-29T14:05:15.878Z</time></trkpt><trkpt lat="37.6881766" lon="12.7361463"><ele>57.99999999999999</ele><time>2026-03-29T14:05:17.877Z</time></trkpt><trkpt lat="37.6882577" lon="12.7361478"><ele>58.0</ele><time>2026-03-29T14:05:18.876Z</time></trkpt><trkpt lat="37.6883451" lon="12.7361585"><ele>58.0</ele><time>2026-03-29T14:05:19.877Z</time></trkpt><trkpt lat="37.6884251" lon="12.7361776"><ele>58.0</ele><time>2026-03-29T14:05:20.877Z</time></trkpt><trkpt lat="37.6885026" lon="12.7361991"><ele>57.99999999999999</ele><time>2026-03-29T14:05:21.878Z</time></trkpt><trkpt lat="37.6885743" lon="12.736218"><ele>58.0</ele><time>2026-03-29T14:05:22.877Z</time></trkpt><trkpt lat="37.6886391" lon="12.736221"><ele>58.33333333333333</ele><time>2026-03-29T14:05:23.877Z</time></trkpt><trkpt lat="37.6887552" lon="12.7361937"><ele>58.666666666666664</ele><time>2026-03-29T14:05:25.876Z</time></trkpt><trkpt lat="37.6888336" lon="12.7361742"><ele>59.0</ele><time>2026-03-29T14:05:27.878Z</time></trkpt><trkpt lat="37.6888972" lon="12.7361703"><ele>59.33333333333333</ele><time>2026-03-29T14:05:29.876Z</time></trkpt><trkpt lat="37.6889546" lon="12.7362032"><ele>59.666666666666664</ele><time>2026-03-29T14:05:32.877Z</time></trkpt><trkpt lat="37.6889695" lon="12.7363371"><ele>60.0</ele><time>2026-03-29T14:05:34.878Z</time></trkpt><trkpt lat="37.6889738" lon="12.7364301"><ele>60.0</ele><time>2026-03-29T14:05:35.877Z</time></trkpt><trkpt lat="37.6889774" lon="12.7365235"><ele>60.0</ele><time>2026-03-29T14:05:36.877Z</time></trkpt><trkpt lat="37.6889866" lon="12.7366305"><ele>60.0</ele><time>2026-03-29T14:05:37.876Z</time></trkpt><trkpt lat="37.6889907" lon="12.7367388"><ele>60.0</ele><time>2026-03-29T14:05:38.876Z</time></trkpt><trkpt lat="37.6889953" lon="12.7368436"><ele>60.0</ele><time>2026-03-29T14:05:39.877Z</time></trkpt><trkpt lat="37.6890028" lon="12.7369479"><ele>60.0</ele><time>2026-03-29T14:05:40.875Z</time></trkpt><trkpt lat="37.6890152" lon="12.7370641"><ele>59.4</ele><time>2026-03-29T14:05:41.878Z</time></trkpt><trkpt lat="37.689029" lon="12.7371814"><ele>58.8</ele><time>2026-03-29T14:05:42.876Z</time></trkpt><trkpt lat="37.6890338" lon="12.7373049"><ele>58.2</ele><time>2026-03-29T14:05:43.877Z</time></trkpt><trkpt lat="37.6890445" lon="12.7374262"><ele>57.6</ele><time>2026-03-29T14:05:44.876Z</time></trkpt><trkpt lat="37.6890474" lon="12.737545"><ele>57.0</ele><time>2026-03-29T14:05:45.877Z</time></trkpt><trkpt lat="37.6890524" lon="12.7376638"><ele>56.8</ele><time>2026-03-29T14:05:46.877Z</time></trkpt><trkpt lat="37.6890578" lon="12.7377825"><ele>56.6</ele><time>2026-03-29T14:05:47.875Z</time></trkpt><trkpt lat="37.6890625" lon="12.7379006"><ele>56.39999999999999</ele><time>2026-03-29T14:05:48.877Z</time></trkpt><trkpt lat="37.68907" lon="12.7380204"><ele>56.199999999999996</ele><time>2026-03-29T14:05:49.877Z</time></trkpt><trkpt lat="37.6890728" lon="12.7381414"><ele>56.0</ele><time>2026-03-29T14:05:50.877Z</time></trkpt><trkpt lat="37.6890749" lon="12.7382562"><ele>56.0</ele><time>2026-03-29T14:05:51.878Z</time></trkpt><trkpt lat="37.6890879" lon="12.7383746"><ele>55.99999999999999</ele><time>2026-03-29T14:05:52.877Z</time></trkpt><trkpt lat="37.6890994" lon="12.7384853"><ele>55.99999999999999</ele><time>2026-03-29T14:05:53.876Z</time></trkpt><trkpt lat="37.6891051" lon="12.7386004"><ele>56.0</ele><time>2026-03-29T14:05:54.877Z</time></trkpt><trkpt lat="37.6891145" lon="12.7387146"><ele>56.0</ele><time>2026-03-29T14:05:55.878Z</time></trkpt><trkpt lat="37.6891212" lon="12.7388274"><ele>55.8</ele><time>2026-03-29T14:05:56.877Z</time></trkpt><trkpt lat="37.6891273" lon="12.7389434"><ele>55.599999999999994</ele><time>2026-03-29T14:05:57.876Z</time></trkpt><trkpt lat="37.6891277" lon="12.739055"><ele>55.4</ele><time>2026-03-29T14:05:58.877Z</time></trkpt><trkpt lat="37.6891295" lon="12.7391713"><ele>55.2</ele><time>2026-03-29T14:05:59.878Z</time></trkpt><trkpt lat="37.6891297" lon="12.7392848"><ele>55.0</ele><time>2026-03-29T14:06:00.876Z</time></trkpt><trkpt lat="37.6891335" lon="12.7393985"><ele>55.0</ele><time>2026-03-29T14:06:01.877Z</time></trkpt><trkpt lat="37.6891416" lon="12.7395109"><ele>55.0</ele><time>2026-03-29T14:06:02.878Z</time></trkpt><trkpt lat="37.6891546" lon="12.7396334"><ele>55.0</ele><time>2026-03-29T14:06:03.876Z</time></trkpt><trkpt lat="37.6891599" lon="12.7397448"><ele>55.0</ele><time>2026-03-29T14:06:04.877Z</time></trkpt><trkpt lat="37.6891699" lon="12.73986"><ele>55.0</ele><time>2026-03-29T14:06:05.877Z</time></trkpt><trkpt lat="37.6891749" lon="12.7399767"><ele>54.99999999999999</ele><time>2026-03-29T14:06:06.875Z</time></trkpt><trkpt lat="37.6891743" lon="12.7400915"><ele>55.0</ele><time>2026-03-29T14:06:07.876Z</time></trkpt><trkpt lat="37.6891796" lon="12.7401998"><ele>55.0</ele><time>2026-03-29T14:06:08.877Z</time></trkpt><trkpt lat="37.6891876" lon="12.7403103"><ele>55.0</ele><time>2026-03-29T14:06:09.878Z</time></trkpt><trkpt lat="37.6891975" lon="12.7404208"><ele>54.99999999999999</ele><time>2026-03-29T14:06:10.876Z</time></trkpt><trkpt lat="37.6892077" lon="12.7405362"><ele>55.0</ele><time>2026-03-29T14:06:11.876Z</time></trkpt><trkpt lat="37.6892175" lon="12.7406436"><ele>54.49999999999999</ele><time>2026-03-29T14:06:12.876Z</time></trkpt><trkpt lat="37.6892251" lon="12.7407355"><ele>54.0</ele><time>2026-03-29T14:06:13.878Z</time></trkpt><trkpt lat="37.6892325" lon="12.7408172"><ele>53.5</ele><time>2026-03-29T14:06:14.878Z</time></trkpt><trkpt lat="37.6892375" lon="12.7409028"><ele>53.0</ele><time>2026-03-29T14:06:15.876Z</time></trkpt><trkpt lat="37.689247" lon="12.7409903"><ele>52.49999999999999</ele><time>2026-03-29T14:06:16.877Z</time></trkpt><trkpt lat="37.6892585" lon="12.7410703"><ele>52.0</ele><time>2026-03-29T14:06:17.876Z</time></trkpt><trkpt lat="37.6892703" lon="12.7412318"><ele>52.0</ele><time>2026-03-29T14:06:19.877Z</time></trkpt><trkpt lat="37.6892694" lon="12.7413715"><ele>52.0</ele><time>2026-03-29T14:06:21.877Z</time></trkpt><trkpt lat="37.6892726" lon="12.7415057"><ele>52.0</ele><time>2026-03-29T14:06:23.877Z</time></trkpt><trkpt lat="37.6892752" lon="12.7416563"><ele>52.0</ele><time>2026-03-29T14:06:25.877Z</time></trkpt><trkpt lat="37.6892754" lon="12.7417407"><ele>52.0</ele><time>2026-03-29T14:06:26.877Z</time></trkpt><trkpt lat="37.6892691" lon="12.7418985"><ele>51.99999999999999</ele><time>2026-03-29T14:06:28.878Z</time></trkpt><trkpt lat="37.6892709" lon="12.741979"><ele>52.0</ele><time>2026-03-29T14:06:29.877Z</time></trkpt><trkpt lat="37.6892731" lon="12.7420818"><ele>52.0</ele><time>2026-03-29T14:06:30.877Z</time></trkpt><trkpt lat="37.6892714" lon="12.7421756"><ele>52.0</ele><time>2026-03-29T14:06:31.877Z</time></trkpt><trkpt lat="37.689264" lon="12.7422734"><ele>51.99999999999999</ele><time>2026-03-29T14:06:32.877Z</time></trkpt><trkpt lat="37.6892598" lon="12.7423813"><ele>52.0</ele><time>2026-03-29T14:06:33.877Z</time></trkpt><trkpt lat="37.6892515" lon="12.7424889"><ele>51.99999999999999</ele><time>2026-03-29T14:06:34.877Z</time></trkpt><trkpt lat="37.6892459" lon="12.7425982"><ele>52.0</ele><time>2026-03-29T14:06:35.876Z</time></trkpt><trkpt lat="37.6892413" lon="12.7427107"><ele>52.0</ele><time>2026-03-29T14:06:36.878Z</time></trkpt><trkpt lat="37.6892328" lon="12.7428231"><ele>52.0</ele><time>2026-03-29T14:06:37.877Z</time></trkpt><trkpt lat="37.6892242" lon="12.742934"><ele>51.99999999999999</ele><time>2026-03-29T14:06:38.877Z</time></trkpt><trkpt lat="37.6892091" lon="12.743045"><ele>52.0</ele><time>2026-03-29T14:06:39.877Z</time></trkpt><trkpt lat="37.6891899" lon="12.7431543"><ele>52.2</ele><time>2026-03-29T14:06:40.876Z</time></trkpt><trkpt lat="37.6891569" lon="12.7432639"><ele>52.400000000000006</ele><time>2026-03-29T14:06:41.875Z</time></trkpt><trkpt lat="37.6891225" lon="12.7433748"><ele>52.599999999999994</ele><time>2026-03-29T14:06:42.877Z</time></trkpt><trkpt lat="37.6890858" lon="12.743478"><ele>52.8</ele><time>2026-03-29T14:06:43.876Z</time></trkpt><trkpt lat="37.6890498" lon="12.7435822"><ele>53.0</ele><time>2026-03-29T14:06:44.876Z</time></trkpt><trkpt lat="37.6890133" lon="12.7436895"><ele>54.25</ele><time>2026-03-29T14:06:45.876Z</time></trkpt><trkpt lat="37.6889732" lon="12.7438204"><ele>55.5</ele><time>2026-03-29T14:06:46.876Z</time></trkpt><trkpt lat="37.6889084" lon="12.7440172"><ele>56.75</ele><time>2026-03-29T14:06:47.878Z</time></trkpt><trkpt lat="37.6888566" lon="12.7441802"><ele>58.0</ele><time>2026-03-29T14:06:48.876Z</time></trkpt><trkpt lat="37.6888173" lon="12.7443178"><ele>59.0</ele><time>2026-03-29T14:06:49.877Z</time></trkpt><trkpt lat="37.6887767" lon="12.7444608"><ele>60.0</ele><time>2026-03-29T14:06:50.875Z</time></trkpt><trkpt lat="37.6887382" lon="12.744593"><ele>61.0</ele><time>2026-03-29T14:06:51.876Z</time></trkpt><trkpt lat="37.6887032" lon="12.7447113"><ele>62.0</ele><time>2026-03-29T14:06:52.877Z</time></trkpt><trkpt lat="37.6886686" lon="12.7448197"><ele>63.0</ele><time>2026-03-29T14:06:53.876Z</time></trkpt><trkpt lat="37.6886375" lon="12.7449144"><ele>63.0</ele><time>2026-03-29T14:06:54.876Z</time></trkpt><trkpt lat="37.6886074" lon="12.7449925"><ele>63.0</ele><time>2026-03-29T14:06:55.877Z</time></trkpt><trkpt lat="37.6885658" lon="12.7450821"><ele>63.0</ele><time>2026-03-29T14:06:57.877Z</time></trkpt><trkpt lat="37.6885269" lon="12.7452064"><ele>63.0</ele><time>2026-03-29T14:07:01.876Z</time></trkpt><trkpt lat="37.6885341" lon="12.745347"><ele>63.0</ele><time>2026-03-29T14:07:03.877Z</time></trkpt><trkpt lat="37.6885531" lon="12.7454401"><ele>63.0</ele><time>2026-03-29T14:07:04.877Z</time></trkpt><trkpt lat="37.688566" lon="12.7455253"><ele>62.666666666666664</ele><time>2026-03-29T14:07:05.877Z</time></trkpt><trkpt lat="37.6885822" lon="12.7456269"><ele>62.33333333333333</ele><time>2026-03-29T14:07:06.878Z</time></trkpt><trkpt lat="37.6885972" lon="12.7457345"><ele>62.0</ele><time>2026-03-29T14:07:07.876Z</time></trkpt><trkpt lat="37.6886092" lon="12.7458393"><ele>61.666666666666664</ele><time>2026-03-29T14:07:08.878Z</time></trkpt><trkpt lat="37.6886243" lon="12.7459224"><ele>61.33333333333333</ele><time>2026-03-29T14:07:09.878Z</time></trkpt><trkpt lat="37.6886389" lon="12.746013"><ele>61.0</ele><time>2026-03-29T14:07:10.878Z</time></trkpt><trkpt lat="37.6886508" lon="12.7461114"><ele>60.14285714285713</ele><time>2026-03-29T14:07:11.877Z</time></trkpt><trkpt lat="37.6886638" lon="12.7462043"><ele>59.285714285714285</ele><time>2026-03-29T14:07:12.876Z</time></trkpt><trkpt lat="37.6886784" lon="12.7462968"><ele>58.42857142857142</ele><time>2026-03-29T14:07:13.876Z</time></trkpt><trkpt lat="37.6887012" lon="12.7463838"><ele>57.57142857142857</ele><time>2026-03-29T14:07:14.877Z</time></trkpt><trkpt lat="37.6887376" lon="12.7464693"><ele>56.71428571428571</ele><time>2026-03-29T14:07:15.877Z</time></trkpt><trkpt lat="37.6887799" lon="12.7465496"><ele>55.857142857142854</ele><time>2026-03-29T14:07:16.877Z</time></trkpt><trkpt lat="37.6888315" lon="12.7466171"><ele>55.0</ele><time>2026-03-29T14:07:17.876Z</time></trkpt><trkpt lat="37.6888884" lon="12.7466756"><ele>54.99999999999999</ele><time>2026-03-29T14:07:18.877Z</time></trkpt><trkpt lat="37.6889576" lon="12.7467223"><ele>55.0</ele><time>2026-03-29T14:07:19.877Z</time></trkpt><trkpt lat="37.6890274" lon="12.746765"><ele>55.0</ele><time>2026-03-29T14:07:20.876Z</time></trkpt><trkpt lat="37.6890974" lon="12.746816"><ele>55.0</ele><time>2026-03-29T14:07:21.877Z</time></trkpt><trkpt lat="37.689163" lon="12.7468817"><ele>54.99999999999999</ele><time>2026-03-29T14:07:22.877Z</time></trkpt><trkpt lat="37.6892114" lon="12.746942"><ele>55.0</ele><time>2026-03-29T14:07:23.876Z</time></trkpt><trkpt lat="37.6892983" lon="12.7470505"><ele>54.0</ele><time>2026-03-29T14:07:25.878Z</time></trkpt><trkpt lat="37.6893706" lon="12.7471669"><ele>53.0</ele><time>2026-03-29T14:07:27.876Z</time></trkpt><trkpt lat="37.689416" lon="12.7472384"><ele>52.0</ele><time>2026-03-29T14:07:29.877Z</time></trkpt><trkpt lat="37.6894786" lon="12.7472744"><ele>51.0</ele><time>2026-03-29T14:07:32.878Z</time></trkpt><trkpt lat="37.6895472" lon="12.7472297"><ele>50.0</ele><time>2026-03-29T14:07:34.876Z</time></trkpt><trkpt lat="37.6896783" lon="12.7471927"><ele>52.00000000000001</ele><time>2026-03-29T14:07:36.878Z</time></trkpt><trkpt lat="37.6897561" lon="12.7472111"><ele>54.0</ele><time>2026-03-29T14:07:37.877Z</time></trkpt><trkpt lat="37.6898378" lon="12.7472539"><ele>56.0</ele><time>2026-03-29T14:07:38.876Z</time></trkpt><trkpt lat="37.6899377" lon="12.7473334"><ele>58.0</ele><time>2026-03-29T14:07:39.877Z</time></trkpt><trkpt lat="37.6900117" lon="12.7473973"><ele>60.00000000000001</ele><time>2026-03-29T14:07:40.876Z</time></trkpt><trkpt lat="37.6900707" lon="12.7474542"><ele>62.0</ele><time>2026-03-29T14:07:41.878Z</time></trkpt><trkpt lat="37.690139" lon="12.7474927"><ele>62.0</ele><time>2026-03-29T14:07:42.876Z</time></trkpt><trkpt lat="37.6902137" lon="12.7475191"><ele>62.0</ele><time>2026-03-29T14:07:43.877Z</time></trkpt><trkpt lat="37.6902957" lon="12.7475194"><ele>62.0</ele><time>2026-03-29T14:07:44.877Z</time></trkpt><trkpt lat="37.6904073" lon="12.7475088"><ele>62.0</ele><time>2026-03-29T14:07:45.878Z</time></trkpt><trkpt lat="37.6904904" lon="12.7474929"><ele>62.0</ele><time>2026-03-29T14:07:46.876Z</time></trkpt><trkpt lat="37.6906065" lon="12.7474683"><ele>65.0</ele><time>2026-03-29T14:07:47.878Z</time></trkpt><trkpt lat="37.6907053" lon="12.7474505"><ele>68.0</ele><time>2026-03-29T14:07:48.878Z</time></trkpt><trkpt lat="37.6908036" lon="12.7474525"><ele>71.0</ele><time>2026-03-29T14:07:49.877Z</time></trkpt><trkpt lat="37.6909276" lon="12.7474723"><ele>74.0</ele><time>2026-03-29T14:07:50.878Z</time></trkpt><trkpt lat="37.6910295" lon="12.7474906"><ele>77.0</ele><time>2026-03-29T14:07:51.878Z</time></trkpt><trkpt lat="37.6911191" lon="12.7474969"><ele>78.83333333333334</ele><time>2026-03-29T14:07:52.877Z</time></trkpt><trkpt lat="37.6912055" lon="12.7474933"><ele>80.66666666666667</ele><time>2026-03-29T14:07:53.876Z</time></trkpt><trkpt lat="37.6912895" lon="12.7474822"><ele>82.5</ele><time>2026-03-29T14:07:54.877Z</time></trkpt><trkpt lat="37.6913731" lon="12.7474773"><ele>84.33333333333333</ele><time>2026-03-29T14:07:55.878Z</time></trkpt><trkpt lat="37.691457" lon="12.7474745"><ele>86.16666666666666</ele><time>2026-03-29T14:07:56.877Z</time></trkpt><trkpt lat="37.6915427" lon="12.7474708"><ele>88.0</ele><time>2026-03-29T14:07:57.877Z</time></trkpt><trkpt lat="37.691632" lon="12.7474627"><ele>88.0</ele><time>2026-03-29T14:07:58.876Z</time></trkpt><trkpt lat="37.691749" lon="12.7474509"><ele>88.0</ele><time>2026-03-29T14:07:59.876Z</time></trkpt><trkpt lat="37.6918306" lon="12.747434"><ele>88.0</ele><time>2026-03-29T14:08:00.877Z</time></trkpt><trkpt lat="37.6918962" lon="12.7474335"><ele>88.0</ele><time>2026-03-29T14:08:01.877Z</time></trkpt><trkpt lat="37.6919927" lon="12.7474742"><ele>88.0</ele><time>2026-03-29T14:08:03.877Z</time></trkpt><trkpt lat="37.6920941" lon="12.7475502"><ele>90.0</ele><time>2026-03-29T14:08:05.878Z</time></trkpt><trkpt lat="37.6921843" lon="12.7475901"><ele>92.0</ele><time>2026-03-29T14:08:07.877Z</time></trkpt><trkpt lat="37.6922547" lon="12.7476263"><ele>94.0</ele><time>2026-03-29T14:08:10.876Z</time></trkpt><trkpt lat="37.6923184" lon="12.747633"><ele>96.0</ele><time>2026-03-29T14:08:16.876Z</time></trkpt><trkpt lat="37.6923524" lon="12.747555"><ele>98.00000000000001</ele><time>2026-03-29T14:08:18.878Z</time></trkpt><trkpt lat="37.6923984" lon="12.747459"><ele>100.0</ele><time>2026-03-29T14:08:20.875Z</time></trkpt><trkpt lat="37.6924845" lon="12.7473657"><ele>100.00000000000001</ele><time>2026-03-29T14:08:22.877Z</time></trkpt><trkpt lat="37.6925311" lon="12.7473117"><ele>100.0</ele><time>2026-03-29T14:08:23.877Z</time></trkpt><trkpt lat="37.692586" lon="12.7472623"><ele>100.0</ele><time>2026-03-29T14:08:24.876Z</time></trkpt><trkpt lat="37.6926384" lon="12.7472103"><ele>100.0</ele><time>2026-03-29T14:08:25.876Z</time></trkpt><trkpt lat="37.6926854" lon="12.747156"><ele>100.0</ele><time>2026-03-29T14:08:26.877Z</time></trkpt><trkpt lat="37.6927301" lon="12.7470955"><ele>100.00000000000001</ele><time>2026-03-29T14:08:27.876Z</time></trkpt><trkpt lat="37.6927776" lon="12.7470432"><ele>100.0</ele><time>2026-03-29T14:08:28.877Z</time></trkpt><trkpt lat="37.6928565" lon="12.74695"><ele>103.6</ele><time>2026-03-29T14:08:30.876Z</time></trkpt><trkpt lat="37.6929346" lon="12.7468703"><ele>107.2</ele><time>2026-03-29T14:08:32.877Z</time></trkpt><trkpt lat="37.6929979" lon="12.7468058"><ele>110.80000000000001</ele><time>2026-03-29T14:08:34.877Z</time></trkpt><trkpt lat="37.6930882" lon="12.7467455"><ele>114.4</ele><time>2026-03-29T14:08:37.875Z</time></trkpt><trkpt lat="37.693227" lon="12.7467802"><ele>118.0</ele><time>2026-03-29T14:08:39.877Z</time></trkpt><trkpt lat="37.6933581" lon="12.7468555"><ele>116.0</ele><time>2026-03-29T14:08:40.877Z</time></trkpt><trkpt lat="37.6934977" lon="12.7469344"><ele>114.0</ele><time>2026-03-29T14:08:41.878Z</time></trkpt><trkpt lat="37.6936376" lon="12.7470046"><ele>112.0</ele><time>2026-03-29T14:08:42.877Z</time></trkpt><trkpt lat="37.6937636" lon="12.7470732"><ele>110.0</ele><time>2026-03-29T14:08:43.877Z</time></trkpt><trkpt lat="37.6938996" lon="12.7471412"><ele>110.0</ele><time>2026-03-29T14:08:44.876Z</time></trkpt><trkpt lat="37.694024" lon="12.7471941"><ele>110.0</ele><time>2026-03-29T14:08:45.875Z</time></trkpt><trkpt lat="37.694138" lon="12.7472538"><ele>110.0</ele><time>2026-03-29T14:08:46.875Z</time></trkpt><trkpt lat="37.6942388" lon="12.7473109"><ele>110.0</ele><time>2026-03-29T14:08:47.877Z</time></trkpt><trkpt lat="37.6943343" lon="12.7473641"><ele>111.0</ele><time>2026-03-29T14:08:48.876Z</time></trkpt><trkpt lat="37.6944242" lon="12.7474083"><ele>112.0</ele><time>2026-03-29T14:08:49.878Z</time></trkpt><trkpt lat="37.6945172" lon="12.7474583"><ele>113.0</ele><time>2026-03-29T14:08:50.876Z</time></trkpt><trkpt lat="37.6946122" lon="12.7475044"><ele>114.0</ele><time>2026-03-29T14:08:51.877Z</time></trkpt><trkpt lat="37.6947006" lon="12.7475482"><ele>115.0</ele><time>2026-03-29T14:08:52.878Z</time></trkpt><trkpt lat="37.6947802" lon="12.7475807"><ele>115.0</ele><time>2026-03-29T14:08:53.877Z</time></trkpt><trkpt lat="37.694867" lon="12.7476126"><ele>115.0</ele><time>2026-03-29T14:08:54.877Z</time></trkpt><trkpt lat="37.694955" lon="12.7476417"><ele>115.0</ele><time>2026-03-29T14:08:55.877Z</time></trkpt><trkpt lat="37.6950559" lon="12.7476532"><ele>115.0</ele><time>2026-03-29T14:08:56.876Z</time></trkpt><trkpt lat="37.6951555" lon="12.7476422"><ele>115.0</ele><time>2026-03-29T14:08:57.878Z</time></trkpt><trkpt lat="37.6952636" lon="12.7476083"><ele>113.25</ele><time>2026-03-29T14:08:58.877Z</time></trkpt><trkpt lat="37.6953693" lon="12.7475473"><ele>111.5</ele><time>2026-03-29T14:08:59.876Z</time></trkpt><trkpt lat="37.6954737" lon="12.7474641"><ele>109.75</ele><time>2026-03-29T14:09:00.876Z</time></trkpt><trkpt lat="37.6955754" lon="12.747379"><ele>108.0</ele><time>2026-03-29T14:09:01.877Z</time></trkpt><trkpt lat="37.6956683" lon="12.7473025"><ele>108.0</ele><time>2026-03-29T14:09:02.876Z</time></trkpt><trkpt lat="37.6957513" lon="12.7472353"><ele>108.00000000000001</ele><time>2026-03-29T14:09:03.877Z</time></trkpt><trkpt lat="37.6958313" lon="12.7471713"><ele>108.00000000000001</ele><time>2026-03-29T14:09:04.877Z</time></trkpt><trkpt lat="37.6959107" lon="12.7471096"><ele>108.0</ele><time>2026-03-29T14:09:05.877Z</time></trkpt><trkpt lat="37.6959815" lon="12.7470475"><ele>108.0</ele><time>2026-03-29T14:09:06.877Z</time></trkpt><trkpt lat="37.6960502" lon="12.7469811"><ele>108.5</ele><time>2026-03-29T14:09:07.877Z</time></trkpt><trkpt lat="37.6961051" lon="12.7469117"><ele>109.0</ele><time>2026-03-29T14:09:08.877Z</time></trkpt><trkpt lat="37.6961539" lon="12.7468559"><ele>109.5</ele><time>2026-03-29T14:09:09.878Z</time></trkpt><trkpt lat="37.696227" lon="12.7467641"><ele>110.0</ele><time>2026-03-29T14:09:11.876Z</time></trkpt><trkpt lat="37.6962727" lon="12.7467021"><ele>110.5</ele><time>2026-03-29T14:09:13.878Z</time></trkpt><trkpt lat="37.6962087" lon="12.7466992"><ele>111.0</ele><time>2026-03-29T14:09:21.877Z</time></trkpt><trkpt lat="37.696163" lon="12.7467719"><ele>111.0</ele><time>2026-03-29T14:09:24.875Z</time></trkpt><trkpt lat="37.6961045" lon="12.7468581"><ele>111.0</ele><time>2026-03-29T14:09:27.877Z</time></trkpt><trkpt lat="37.6960573" lon="12.7469174"><ele>111.0</ele><time>2026-03-29T14:09:30.876Z</time></trkpt><trkpt lat="37.6959749" lon="12.7469902"><ele>111.0</ele><time>2026-03-29T14:09:33.876Z</time></trkpt><trkpt lat="37.6958885" lon="12.747069"><ele>111.0</ele><time>2026-03-29T14:09:35.876Z</time></trkpt><trkpt lat="37.6957987" lon="12.7471536"><ele>110.5</ele><time>2026-03-29T14:09:37.877Z</time></trkpt><trkpt lat="37.695694" lon="12.7472298"><ele>110.0</ele><time>2026-03-29T14:09:39.876Z</time></trkpt><trkpt lat="37.6956402" lon="12.7472821"><ele>109.5</ele><time>2026-03-29T14:09:40.878Z</time></trkpt><trkpt lat="37.6955859" lon="12.747326"><ele>109.0</ele><time>2026-03-29T14:09:41.877Z</time></trkpt><trkpt lat="37.6955277" lon="12.7473709"><ele>108.5</ele><time>2026-03-29T14:09:42.878Z</time></trkpt><trkpt lat="37.6954711" lon="12.7474135"><ele>108.0</ele><time>2026-03-29T14:09:43.877Z</time></trkpt><trkpt lat="37.6954089" lon="12.7474561"><ele>108.0</ele><time>2026-03-29T14:09:44.876Z</time></trkpt><trkpt lat="37.6953466" lon="12.7474957"><ele>108.0</ele><time>2026-03-29T14:09:45.876Z</time></trkpt><trkpt lat="37.6952841" lon="12.7475338"><ele>108.0</ele><time>2026-03-29T14:09:46.876Z</time></trkpt><trkpt lat="37.6952182" lon="12.7475645"><ele>108.0</ele><time>2026-03-29T14:09:47.876Z</time></trkpt><trkpt lat="37.6951034" lon="12.7475997"><ele>108.0</ele><time>2026-03-29T14:09:49.876Z</time></trkpt><trkpt lat="37.6949879" lon="12.7476032"><ele>108.0</ele><time>2026-03-29T14:09:51.877Z</time></trkpt><trkpt lat="37.6948839" lon="12.7475851"><ele>108.33333333333333</ele><time>2026-03-29T14:09:53.876Z</time></trkpt><trkpt lat="37.694799" lon="12.7475661"><ele>108.66666666666666</ele><time>2026-03-29T14:09:55.876Z</time></trkpt><trkpt lat="37.694701" lon="12.7475364"><ele>109.0</ele><time>2026-03-29T14:09:58.875Z</time></trkpt><trkpt lat="37.6946382" lon="12.7475203"><ele>109.33333333333333</ele><time>2026-03-29T14:10:00.875Z</time></trkpt><trkpt lat="37.6945661" lon="12.7474884"><ele>109.66666666666666</ele><time>2026-03-29T14:10:02.877Z</time></trkpt><trkpt lat="37.6944938" lon="12.7474505"><ele>110.0</ele><time>2026-03-29T14:10:04.877Z</time></trkpt><trkpt lat="37.6944182" lon="12.7474096"><ele>109.99999999999999</ele><time>2026-03-29T14:10:06.877Z</time></trkpt><trkpt lat="37.6943492" lon="12.7473803"><ele>110.0</ele><time>2026-03-29T14:10:08.877Z</time></trkpt><trkpt lat="37.6942755" lon="12.7473464"><ele>110.0</ele><time>2026-03-29T14:10:11.876Z</time></trkpt><trkpt lat="37.6941908" lon="12.7473013"><ele>110.0</ele><time>2026-03-29T14:10:14.876Z</time></trkpt><trkpt lat="37.6941311" lon="12.7472629"><ele>109.99999999999999</ele><time>2026-03-29T14:10:16.876Z</time></trkpt><trkpt lat="37.6940543" lon="12.7472053"><ele>110.0</ele><time>2026-03-29T14:10:18.876Z</time></trkpt><trkpt lat="37.6939968" lon="12.7471661"><ele>109.99999999999999</ele><time>2026-03-29T14:10:20.877Z</time></trkpt><trkpt lat="37.6939318" lon="12.7471391"><ele>110.0</ele><time>2026-03-29T14:10:25.877Z</time></trkpt><trkpt lat="37.6938721" lon="12.7471011"><ele>110.0</ele><time>2026-03-29T14:10:28.876Z</time></trkpt><trkpt lat="37.6938902" lon="12.7471793"><ele>110.0</ele><time>2026-03-29T14:10:32.876Z</time></trkpt><trkpt lat="37.6939494" lon="12.747209"><ele>110.0</ele><time>2026-03-29T14:10:36.876Z</time></trkpt><trkpt lat="37.694029" lon="12.7472146"><ele>109.99999999999999</ele><time>2026-03-29T14:10:40.878Z</time></trkpt><trkpt lat="37.694089" lon="12.7472569"><ele>110.0</ele><time>2026-03-29T14:10:43.877Z</time></trkpt><trkpt lat="37.6941586" lon="12.7472967"><ele>110.0</ele><time>2026-03-29T14:10:46.877Z</time></trkpt><trkpt lat="37.6942277" lon="12.7473236"><ele>110.0</ele><time>2026-03-29T14:10:48.877Z</time></trkpt><trkpt lat="37.6943299" lon="12.7473688"><ele>110.0</ele><time>2026-03-29T14:10:50.878Z</time></trkpt><trkpt lat="37.6944541" lon="12.7474394"><ele>110.0</ele><time>2026-03-29T14:10:52.876Z</time></trkpt><trkpt lat="37.6945299" lon="12.7474807"><ele>110.0</ele><time>2026-03-29T14:10:53.877Z</time></trkpt><trkpt lat="37.6946071" lon="12.7475199"><ele>110.83333333333333</ele><time>2026-03-29T14:10:54.878Z</time></trkpt><trkpt lat="37.6946819" lon="12.7475557"><ele>111.66666666666666</ele><time>2026-03-29T14:10:55.876Z</time></trkpt><trkpt lat="37.6947517" lon="12.7475857"><ele>112.5</ele><time>2026-03-29T14:10:56.876Z</time></trkpt><trkpt lat="37.6948173" lon="12.7476136"><ele>113.33333333333334</ele><time>2026-03-29T14:10:57.877Z</time></trkpt><trkpt lat="37.6948817" lon="12.7476373"><ele>114.16666666666667</ele><time>2026-03-29T14:10:58.876Z</time></trkpt><trkpt lat="37.6949737" lon="12.7476696"><ele>115.0</ele><time>2026-03-29T14:11:00.876Z</time></trkpt><trkpt lat="37.6950573" lon="12.7476844"><ele>115.00000000000001</ele><time>2026-03-29T14:11:02.875Z</time></trkpt><trkpt lat="37.6951454" lon="12.7476717"><ele>115.0</ele><time>2026-03-29T14:11:04.876Z</time></trkpt><trkpt lat="37.6952144" lon="12.7476454"><ele>115.0</ele><time>2026-03-29T14:11:06.876Z</time></trkpt><trkpt lat="37.6952759" lon="12.7476169"><ele>115.0</ele><time>2026-03-29T14:11:09.876Z</time></trkpt><trkpt lat="37.6953209" lon="12.747544"><ele>115.00000000000001</ele><time>2026-03-29T14:11:13.876Z</time></trkpt><trkpt lat="37.6952353" lon="12.7475577"><ele>115.0</ele><time>2026-03-29T14:11:15.877Z</time></trkpt><trkpt lat="37.6950846" lon="12.7476035"><ele>115.0</ele><time>2026-03-29T14:11:17.876Z</time></trkpt><trkpt lat="37.6949899" lon="12.7476028"><ele>115.0</ele><time>2026-03-29T14:11:18.876Z</time></trkpt><trkpt lat="37.6948995" lon="12.7475882"><ele>115.0</ele><time>2026-03-29T14:11:19.876Z</time></trkpt><trkpt lat="37.6948087" lon="12.7475588"><ele>115.0</ele><time>2026-03-29T14:11:20.876Z</time></trkpt><trkpt lat="37.6947195" lon="12.7475231"><ele>115.0</ele><time>2026-03-29T14:11:21.877Z</time></trkpt><trkpt lat="37.694626" lon="12.7474801"><ele>115.0</ele><time>2026-03-29T14:11:22.878Z</time></trkpt><trkpt lat="37.6945299" lon="12.747434"><ele>115.0</ele><time>2026-03-29T14:11:23.878Z</time></trkpt><trkpt lat="37.6944335" lon="12.7473913"><ele>115.0</ele><time>2026-03-29T14:11:24.876Z</time></trkpt><trkpt lat="37.6943358" lon="12.7473446"><ele>115.0</ele><time>2026-03-29T14:11:25.877Z</time></trkpt><trkpt lat="37.6942395" lon="12.7472979"><ele>115.0</ele><time>2026-03-29T14:11:26.877Z</time></trkpt><trkpt lat="37.6941419" lon="12.7472465"><ele>114.16666666666667</ele><time>2026-03-29T14:11:27.877Z</time></trkpt><trkpt lat="37.6940516" lon="12.7472015"><ele>113.33333333333334</ele><time>2026-03-29T14:11:28.876Z</time></trkpt><trkpt lat="37.6939797" lon="12.7471649"><ele>112.5</ele><time>2026-03-29T14:11:29.876Z</time></trkpt><trkpt lat="37.6939172" lon="12.7471311"><ele>111.66666666666666</ele><time>2026-03-29T14:11:30.876Z</time></trkpt><trkpt lat="37.6938131" lon="12.7470665"><ele>110.83333333333333</ele><time>2026-03-29T14:11:32.878Z</time></trkpt><trkpt lat="37.6937481" lon="12.7470245"><ele>110.0</ele><time>2026-03-29T14:11:35.876Z</time></trkpt><trkpt lat="37.6936779" lon="12.7470094"><ele>109.99999999999999</ele><time>2026-03-29T14:11:39.876Z</time></trkpt><trkpt lat="37.6936295" lon="12.7470739"><ele>110.0</ele><time>2026-03-29T14:11:44.876Z</time></trkpt><trkpt lat="37.6936508" lon="12.7471551"><ele>110.0</ele><time>2026-03-29T14:11:48.875Z</time></trkpt><trkpt lat="37.6937349" lon="12.7471742"><ele>110.0</ele><time>2026-03-29T14:11:51.877Z</time></trkpt><trkpt lat="37.693819" lon="12.7472294"><ele>109.99999999999999</ele><time>2026-03-29T14:11:54.878Z</time></trkpt><trkpt lat="37.6938701" lon="12.7472863"><ele>110.0</ele><time>2026-03-29T14:11:56.877Z</time></trkpt><trkpt lat="37.6939274" lon="12.7473278"><ele>109.99999999999999</ele><time>2026-03-29T14:11:58.877Z</time></trkpt><trkpt lat="37.6939929" lon="12.74737"><ele>110.0</ele><time>2026-03-29T14:12:00.876Z</time></trkpt><trkpt lat="37.6940694" lon="12.7474077"><ele>110.0</ele><time>2026-03-29T14:12:02.876Z</time></trkpt><trkpt lat="37.6941407" lon="12.7474485"><ele>110.0</ele><time>2026-03-29T14:12:04.878Z</time></trkpt><trkpt lat="37.6942007" lon="12.7475117"><ele>109.99999999999999</ele><time>2026-03-29T14:12:07.877Z</time></trkpt><trkpt lat="37.694215" lon="12.7476155"><ele>110.0</ele><time>2026-03-29T14:12:11.878Z</time></trkpt><trkpt lat="37.6942019" lon="12.7477041"><ele>108.14285714285714</ele><time>2026-03-29T14:12:14.876Z</time></trkpt><trkpt lat="37.6941943" lon="12.7477967"><ele>106.28571428571428</ele><time>2026-03-29T14:12:17.875Z</time></trkpt><trkpt lat="37.6941785" lon="12.7478776"><ele>104.42857142857142</ele><time>2026-03-29T14:12:20.877Z</time></trkpt><trkpt lat="37.6941661" lon="12.7479577"><ele>102.57142857142857</ele><time>2026-03-29T14:12:23.877Z</time></trkpt><trkpt lat="37.6941469" lon="12.7480389"><ele>100.71428571428572</ele><time>2026-03-29T14:12:26.876Z</time></trkpt><trkpt lat="37.6941301" lon="12.748116"><ele>98.85714285714285</ele><time>2026-03-29T14:12:29.877Z</time></trkpt><trkpt lat="37.6941129" lon="12.7481999"><ele>97.0</ele><time>2026-03-29T14:12:32.877Z</time></trkpt><trkpt lat="37.694095" lon="12.7482927"><ele>97.00000000000001</ele><time>2026-03-29T14:12:35.876Z</time></trkpt><trkpt lat="37.6941026" lon="12.7483728"><ele>97.0</ele><time>2026-03-29T14:14:16.877Z</time></trkpt><trkpt lat="37.6940946" lon="12.7484528"><ele>97.0</ele><time>2026-03-29T14:14:21.876Z</time></trkpt><trkpt lat="37.6941495" lon="12.7485105"><ele>97.0</ele><time>2026-03-29T14:14:26.876Z</time></trkpt><trkpt lat="37.6942088" lon="12.7484348"><ele>97.00000000000001</ele><time>2026-03-29T14:14:30.876Z</time></trkpt><trkpt lat="37.6942644" lon="12.7483405"><ele>97.0</ele><time>2026-03-29T14:14:32.876Z</time></trkpt><trkpt lat="37.6942893" lon="12.7482257"><ele>97.0</ele><time>2026-03-29T14:14:34.876Z</time></trkpt><trkpt lat="37.6942842" lon="12.7480893"><ele>97.0</ele><time>2026-03-29T14:14:36.877Z</time></trkpt><trkpt lat="37.6942666" lon="12.7479839"><ele>97.0</ele><time>2026-03-29T14:14:38.876Z</time></trkpt><trkpt lat="37.6942367" lon="12.7478975"><ele>97.0</ele><time>2026-03-29T14:14:40.876Z</time></trkpt><trkpt lat="37.6942152" lon="12.7478003"><ele>97.0</ele><time>2026-03-29T14:14:42.877Z</time></trkpt><trkpt lat="37.6942067" lon="12.7476632"><ele>99.6</ele><time>2026-03-29T14:14:44.876Z</time></trkpt><trkpt lat="37.6942112" lon="12.7475566"><ele>102.19999999999999</ele><time>2026-03-29T14:14:46.877Z</time></trkpt><trkpt lat="37.6941636" lon="12.7474494"><ele>104.8</ele><time>2026-03-29T14:14:49.876Z</time></trkpt><trkpt lat="37.6940725" lon="12.7473914"><ele>107.4</ele><time>2026-03-29T14:14:51.876Z</time></trkpt><trkpt lat="37.6939747" lon="12.7473381"><ele>110.0</ele><time>2026-03-29T14:14:53.877Z</time></trkpt><trkpt lat="37.6939095" lon="12.7472821"><ele>109.99999999999999</ele><time>2026-03-29T14:14:55.876Z</time></trkpt><trkpt lat="37.693845" lon="12.747216"><ele>110.0</ele><time>2026-03-29T14:14:58.875Z</time></trkpt><trkpt lat="37.6937753" lon="12.7472074"><ele>110.0</ele><time>2026-03-29T14:15:00.876Z</time></trkpt><trkpt lat="37.6937063" lon="12.7471623"><ele>110.0</ele><time>2026-03-29T14:15:03.876Z</time></trkpt><trkpt lat="37.6936984" lon="12.747064"><ele>109.99999999999999</ele><time>2026-03-29T14:15:05.877Z</time></trkpt><trkpt lat="37.6936447" lon="12.7469992"><ele>110.0</ele><time>2026-03-29T14:15:07.875Z</time></trkpt><trkpt lat="37.6935529" lon="12.7469521"><ele>109.6</ele><time>2026-03-29T14:15:09.877Z</time></trkpt><trkpt lat="37.6934285" lon="12.7469028"><ele>109.2</ele><time>2026-03-29T14:15:11.876Z</time></trkpt><trkpt lat="37.6933461" lon="12.7468633"><ele>108.80000000000001</ele><time>2026-03-29T14:15:12.877Z</time></trkpt><trkpt lat="37.6932691" lon="12.7468283"><ele>108.4</ele><time>2026-03-29T14:15:13.877Z</time></trkpt><trkpt lat="37.693186" lon="12.7467873"><ele>108.0</ele><time>2026-03-29T14:15:14.877Z</time></trkpt><trkpt lat="37.6930932" lon="12.7467381"><ele>108.25</ele><time>2026-03-29T14:15:15.876Z</time></trkpt><trkpt lat="37.6929593" lon="12.7466815"><ele>108.5</ele><time>2026-03-29T14:15:16.876Z</time></trkpt><trkpt lat="37.6928152" lon="12.7466132"><ele>108.75</ele><time>2026-03-29T14:15:17.877Z</time></trkpt><trkpt lat="37.6926799" lon="12.7465452"><ele>109.0</ele><time>2026-03-29T14:15:18.875Z</time></trkpt><trkpt lat="37.6925706" lon="12.7464762"><ele>109.0</ele><time>2026-03-29T14:15:19.877Z</time></trkpt><trkpt lat="37.6924614" lon="12.7464147"><ele>109.0</ele><time>2026-03-29T14:15:20.876Z</time></trkpt><trkpt lat="37.692356" lon="12.7463576"><ele>109.0</ele><time>2026-03-29T14:15:21.876Z</time></trkpt><trkpt lat="37.6922626" lon="12.7463027"><ele>109.0</ele><time>2026-03-29T14:15:22.875Z</time></trkpt><trkpt lat="37.6921823" lon="12.7462458"><ele>109.0</ele><time>2026-03-29T14:15:23.877Z</time></trkpt><trkpt lat="37.6921139" lon="12.7461889"><ele>109.00000000000001</ele><time>2026-03-29T14:15:24.876Z</time></trkpt><trkpt lat="37.6920522" lon="12.7461208"><ele>109.0</ele><time>2026-03-29T14:15:25.877Z</time></trkpt><trkpt lat="37.6919901" lon="12.746048"><ele>109.0</ele><time>2026-03-29T14:15:26.876Z</time></trkpt><trkpt lat="37.6919321" lon="12.7459696"><ele>109.0</ele><time>2026-03-29T14:15:27.876Z</time></trkpt><trkpt lat="37.6918725" lon="12.7458946"><ele>109.00000000000001</ele><time>2026-03-29T14:15:28.876Z</time></trkpt><trkpt lat="37.6918147" lon="12.7458061"><ele>109.0</ele><time>2026-03-29T14:15:29.876Z</time></trkpt><trkpt lat="37.6917592" lon="12.7457118"><ele>107.80000000000001</ele><time>2026-03-29T14:15:30.877Z</time></trkpt><trkpt lat="37.6917152" lon="12.7456056"><ele>106.60000000000001</ele><time>2026-03-29T14:15:31.875Z</time></trkpt><trkpt lat="37.6916847" lon="12.7454917"><ele>105.4</ele><time>2026-03-29T14:15:32.877Z</time></trkpt><trkpt lat="37.6916637" lon="12.7453771"><ele>104.2</ele><time>2026-03-29T14:15:33.876Z</time></trkpt><trkpt lat="37.6916742" lon="12.7452614"><ele>103.0</ele><time>2026-03-29T14:15:34.876Z</time></trkpt><trkpt lat="37.6916759" lon="12.7451466"><ele>103.00000000000001</ele><time>2026-03-29T14:15:35.875Z</time></trkpt><trkpt lat="37.6916632" lon="12.7450438"><ele>103.0</ele><time>2026-03-29T14:15:36.876Z</time></trkpt><trkpt lat="37.6916377" lon="12.7449358"><ele>103.0</ele><time>2026-03-29T14:15:37.877Z</time></trkpt><trkpt lat="37.6915908" lon="12.7448419"><ele>103.0</ele><time>2026-03-29T14:15:38.876Z</time></trkpt><trkpt lat="37.6915242" lon="12.7447647"><ele>103.00000000000001</ele><time>2026-03-29T14:15:39.876Z</time></trkpt><trkpt lat="37.6914467" lon="12.7447079"><ele>103.0</ele><time>2026-03-29T14:15:40.877Z</time></trkpt><trkpt lat="37.6913584" lon="12.7446822"><ele>103.0</ele><time>2026-03-29T14:15:41.876Z</time></trkpt><trkpt lat="37.6912633" lon="12.7446865"><ele>103.0</ele><time>2026-03-29T14:15:42.876Z</time></trkpt><trkpt lat="37.6911726" lon="12.7447198"><ele>103.0</ele><time>2026-03-29T14:15:43.876Z</time></trkpt><trkpt lat="37.6910902" lon="12.7447779"><ele>103.0</ele><time>2026-03-29T14:15:44.876Z</time></trkpt><trkpt lat="37.6910214" lon="12.7448592"><ele>103.0</ele><time>2026-03-29T14:15:45.876Z</time></trkpt><trkpt lat="37.6909723" lon="12.7449619"><ele>99.75</ele><time>2026-03-29T14:15:46.877Z</time></trkpt><trkpt lat="37.6909482" lon="12.7450824"><ele>96.5</ele><time>2026-03-29T14:15:47.876Z</time></trkpt><trkpt lat="37.6909565" lon="12.745212"><ele>93.25</ele><time>2026-03-29T14:15:48.877Z</time></trkpt><trkpt lat="37.6909904" lon="12.7453451"><ele>90.0</ele><time>2026-03-29T14:15:49.877Z</time></trkpt><trkpt lat="37.6910519" lon="12.7455014"><ele>91.5</ele><time>2026-03-29T14:15:50.876Z</time></trkpt><trkpt lat="37.6911088" lon="12.7456546"><ele>93.0</ele><time>2026-03-29T14:15:51.877Z</time></trkpt><trkpt lat="37.6911415" lon="12.7458024"><ele>94.5</ele><time>2026-03-29T14:15:52.876Z</time></trkpt><trkpt lat="37.6911474" lon="12.7459481"><ele>96.0</ele><time>2026-03-29T14:15:53.877Z</time></trkpt><trkpt lat="37.6911411" lon="12.7460838"><ele>96.0</ele><time>2026-03-29T14:15:54.876Z</time></trkpt><trkpt lat="37.6911535" lon="12.7462182"><ele>96.0</ele><time>2026-03-29T14:15:55.876Z</time></trkpt><trkpt lat="37.6911782" lon="12.7463439"><ele>96.0</ele><time>2026-03-29T14:15:56.877Z</time></trkpt><trkpt lat="37.6912258" lon="12.7464594"><ele>96.0</ele><time>2026-03-29T14:15:57.876Z</time></trkpt><trkpt lat="37.6912788" lon="12.7465743"><ele>96.0</ele><time>2026-03-29T14:15:58.875Z</time></trkpt><trkpt lat="37.6913217" lon="12.7466895"><ele>96.0</ele><time>2026-03-29T14:15:59.876Z</time></trkpt><trkpt lat="37.6913528" lon="12.7467991"><ele>96.0</ele><time>2026-03-29T14:16:00.875Z</time></trkpt><trkpt lat="37.691365" lon="12.7469"><ele>96.0</ele><time>2026-03-29T14:16:01.876Z</time></trkpt><trkpt lat="37.691361" lon="12.7469886"><ele>96.0</ele><time>2026-03-29T14:16:02.876Z</time></trkpt><trkpt lat="37.691347" lon="12.7470748"><ele>96.0</ele><time>2026-03-29T14:16:03.875Z</time></trkpt><trkpt lat="37.6913263" lon="12.7471603"><ele>96.0</ele><time>2026-03-29T14:16:04.876Z</time></trkpt><trkpt lat="37.6912886" lon="12.7472976"><ele>94.4</ele><time>2026-03-29T14:16:06.876Z</time></trkpt><trkpt lat="37.6912387" lon="12.7474089"><ele>92.8</ele><time>2026-03-29T14:16:08.877Z</time></trkpt><trkpt lat="37.6911412" lon="12.7474764"><ele>91.2</ele><time>2026-03-29T14:16:10.877Z</time></trkpt><trkpt lat="37.691016" lon="12.7474775"><ele>89.60000000000001</ele><time>2026-03-29T14:16:12.877Z</time></trkpt><trkpt lat="37.6909534" lon="12.7474645"><ele>88.0</ele><time>2026-03-29T14:16:13.875Z</time></trkpt><trkpt lat="37.6908362" lon="12.7474428"><ele>85.25</ele><time>2026-03-29T14:16:15.876Z</time></trkpt><trkpt lat="37.690718" lon="12.7474302"><ele>82.5</ele><time>2026-03-29T14:16:17.877Z</time></trkpt><trkpt lat="37.690594" lon="12.7474433"><ele>79.75</ele><time>2026-03-29T14:16:19.877Z</time></trkpt><trkpt lat="37.6904757" lon="12.747466"><ele>77.0</ele><time>2026-03-29T14:16:21.877Z</time></trkpt><trkpt lat="37.6903564" lon="12.7474908"><ele>77.0</ele><time>2026-03-29T14:16:23.877Z</time></trkpt><trkpt lat="37.6902915" lon="12.7474946"><ele>77.0</ele><time>2026-03-29T14:16:24.875Z</time></trkpt><trkpt lat="37.6902259" lon="12.7474945"><ele>77.0</ele><time>2026-03-29T14:16:25.876Z</time></trkpt><trkpt lat="37.6901622" lon="12.747485"><ele>77.0</ele><time>2026-03-29T14:16:26.877Z</time></trkpt><trkpt lat="37.6900971" lon="12.7474571"><ele>77.0</ele><time>2026-03-29T14:16:27.876Z</time></trkpt><trkpt lat="37.6900368" lon="12.7474189"><ele>77.0</ele><time>2026-03-29T14:16:28.875Z</time></trkpt><trkpt lat="37.6899817" lon="12.7473673"><ele>77.0</ele><time>2026-03-29T14:16:29.877Z</time></trkpt><trkpt lat="37.6899221" lon="12.7473123"><ele>74.5</ele><time>2026-03-29T14:16:30.876Z</time></trkpt><trkpt lat="37.6898662" lon="12.7472583"><ele>72.0</ele><time>2026-03-29T14:16:31.876Z</time></trkpt><trkpt lat="37.6898078" lon="12.7472209"><ele>69.5</ele><time>2026-03-29T14:16:32.876Z</time></trkpt><trkpt lat="37.6897464" lon="12.7471964"><ele>67.0</ele><time>2026-03-29T14:16:33.877Z</time></trkpt><trkpt lat="37.6896298" lon="12.7471825"><ele>64.5</ele><time>2026-03-29T14:16:35.876Z</time></trkpt><trkpt lat="37.6895435" lon="12.7472103"><ele>62.0</ele><time>2026-03-29T14:16:37.876Z</time></trkpt><trkpt lat="37.6894879" lon="12.7472579"><ele>60.833333333333336</ele><time>2026-03-29T14:16:40.877Z</time></trkpt><trkpt lat="37.689418" lon="12.7472574"><ele>59.66666666666667</ele><time>2026-03-29T14:16:45.875Z</time></trkpt><trkpt lat="37.6893393" lon="12.74713"><ele>58.5</ele><time>2026-03-29T14:16:47.875Z</time></trkpt><trkpt lat="37.6892986" lon="12.7470636"><ele>57.33333333333333</ele><time>2026-03-29T14:16:48.875Z</time></trkpt><trkpt lat="37.6892223" lon="12.7469543"><ele>56.166666666666664</ele><time>2026-03-29T14:16:50.876Z</time></trkpt><trkpt lat="37.6891765" lon="12.7468917"><ele>55.0</ele><time>2026-03-29T14:16:51.876Z</time></trkpt><trkpt lat="37.689125" lon="12.7468291"><ele>54.99999999999999</ele><time>2026-03-29T14:16:52.876Z</time></trkpt><trkpt lat="37.689066" lon="12.7467742"><ele>55.0</ele><time>2026-03-29T14:16:53.874Z</time></trkpt><trkpt lat="37.6890008" lon="12.7467267"><ele>55.0</ele><time>2026-03-29T14:16:54.876Z</time></trkpt><trkpt lat="37.6889345" lon="12.7466802"><ele>55.0</ele><time>2026-03-29T14:16:55.877Z</time></trkpt><trkpt lat="37.6888733" lon="12.7466248"><ele>55.0</ele><time>2026-03-29T14:16:56.877Z</time></trkpt><trkpt lat="37.6888192" lon="12.7465677"><ele>54.99999999999999</ele><time>2026-03-29T14:16:57.875Z</time></trkpt><trkpt lat="37.6887697" lon="12.7465023"><ele>55.0</ele><time>2026-03-29T14:16:58.877Z</time></trkpt><trkpt lat="37.6887124" lon="12.746378"><ele>55.0</ele><time>2026-03-29T14:17:00.875Z</time></trkpt><trkpt lat="37.6886246" lon="12.7463114"><ele>55.0</ele><time>2026-03-29T14:17:02.877Z</time></trkpt><trkpt lat="37.688533" lon="12.7463382"><ele>55.0</ele><time>2026-03-29T14:17:04.876Z</time></trkpt><trkpt lat="37.6884481" lon="12.746457"><ele>55.0</ele><time>2026-03-29T14:17:06.877Z</time></trkpt><trkpt lat="37.688403" lon="12.7465204"><ele>55.0</ele><time>2026-03-29T14:17:07.875Z</time></trkpt><trkpt lat="37.6883531" lon="12.7465871"><ele>54.166666666666664</ele><time>2026-03-29T14:17:08.876Z</time></trkpt><trkpt lat="37.6883029" lon="12.7466537"><ele>53.33333333333333</ele><time>2026-03-29T14:17:09.876Z</time></trkpt><trkpt lat="37.6882503" lon="12.746729"><ele>52.5</ele><time>2026-03-29T14:17:10.876Z</time></trkpt><trkpt lat="37.6882005" lon="12.7468028"><ele>51.66666666666667</ele><time>2026-03-29T14:17:11.877Z</time></trkpt><trkpt lat="37.6881413" lon="12.7468868"><ele>50.833333333333336</ele><time>2026-03-29T14:17:12.877Z</time></trkpt><trkpt lat="37.6880871" lon="12.7469665"><ele>50.0</ele><time>2026-03-29T14:17:13.875Z</time></trkpt><trkpt lat="37.6880347" lon="12.7470443"><ele>50.00000000000001</ele><time>2026-03-29T14:17:14.876Z</time></trkpt><trkpt lat="37.6879822" lon="12.7471211"><ele>50.0</ele><time>2026-03-29T14:17:15.875Z</time></trkpt><trkpt lat="37.6879323" lon="12.7471941"><ele>50.0</ele><time>2026-03-29T14:17:16.876Z</time></trkpt><trkpt lat="37.6878849" lon="12.747269"><ele>50.0</ele><time>2026-03-29T14:17:17.876Z</time></trkpt><trkpt lat="37.6878285" lon="12.747344"><ele>50.00000000000001</ele><time>2026-03-29T14:17:18.875Z</time></trkpt><trkpt lat="37.6877781" lon="12.7474159"><ele>50.0</ele><time>2026-03-29T14:17:19.877Z</time></trkpt><trkpt lat="37.687728" lon="12.7474942"><ele>50.00000000000001</ele><time>2026-03-29T14:17:20.876Z</time></trkpt><trkpt lat="37.6876725" lon="12.7475673"><ele>50.0</ele><time>2026-03-29T14:17:21.876Z</time></trkpt><trkpt lat="37.6876191" lon="12.7476374"><ele>50.0</ele><time>2026-03-29T14:17:22.876Z</time></trkpt><trkpt lat="37.6875693" lon="12.7477056"><ele>50.0</ele><time>2026-03-29T14:17:23.876Z</time></trkpt><trkpt lat="37.687521" lon="12.7477799"><ele>50.00000000000001</ele><time>2026-03-29T14:17:24.876Z</time></trkpt><trkpt lat="37.6874719" lon="12.7478539"><ele>50.0</ele><time>2026-03-29T14:17:25.877Z</time></trkpt><trkpt lat="37.6874231" lon="12.74792"><ele>50.142857142857146</ele><time>2026-03-29T14:17:26.876Z</time></trkpt><trkpt lat="37.6873747" lon="12.7479954"><ele>50.285714285714285</ele><time>2026-03-29T14:17:27.876Z</time></trkpt><trkpt lat="37.6873263" lon="12.7480664"><ele>50.42857142857143</ele><time>2026-03-29T14:17:28.875Z</time></trkpt><trkpt lat="37.6872852" lon="12.7481406"><ele>50.57142857142857</ele><time>2026-03-29T14:17:29.876Z</time></trkpt><trkpt lat="37.6872443" lon="12.7482251"><ele>50.714285714285715</ele><time>2026-03-29T14:17:30.875Z</time></trkpt><trkpt lat="37.6872198" lon="12.748313"><ele>50.85714285714286</ele><time>2026-03-29T14:17:31.877Z</time></trkpt><trkpt lat="37.6872057" lon="12.748405"><ele>51.0</ele><time>2026-03-29T14:17:32.877Z</time></trkpt><trkpt lat="37.6872093" lon="12.7484936"><ele>51.333333333333336</ele><time>2026-03-29T14:17:33.876Z</time></trkpt><trkpt lat="37.6872146" lon="12.748592"><ele>51.66666666666667</ele><time>2026-03-29T14:17:34.877Z</time></trkpt><trkpt lat="37.6872204" lon="12.7486867"><ele>52.0</ele><time>2026-03-29T14:17:35.876Z</time></trkpt><trkpt lat="37.6872311" lon="12.7487882"><ele>52.333333333333336</ele><time>2026-03-29T14:17:36.876Z</time></trkpt><trkpt lat="37.687246" lon="12.7489049"><ele>52.66666666666667</ele><time>2026-03-29T14:17:37.876Z</time></trkpt><trkpt lat="37.6872564" lon="12.7490277"><ele>53.0</ele><time>2026-03-29T14:17:38.877Z</time></trkpt><trkpt lat="37.6872672" lon="12.7491622"><ele>53.0</ele><time>2026-03-29T14:17:39.877Z</time></trkpt><trkpt lat="37.6872822" lon="12.7492875"><ele>53.0</ele><time>2026-03-29T14:17:40.874Z</time></trkpt><trkpt lat="37.6872999" lon="12.7494079"><ele>53.0</ele><time>2026-03-29T14:17:41.877Z</time></trkpt><trkpt lat="37.6873272" lon="12.7495212"><ele>53.0</ele><time>2026-03-29T14:17:42.876Z</time></trkpt><trkpt lat="37.6873613" lon="12.7496306"><ele>53.0</ele><time>2026-03-29T14:17:43.875Z</time></trkpt><trkpt lat="37.687425" lon="12.7497396"><ele>55.2</ele><time>2026-03-29T14:17:44.877Z</time></trkpt><trkpt lat="37.687522" lon="12.749863"><ele>57.4</ele><time>2026-03-29T14:17:45.877Z</time></trkpt><trkpt lat="37.6876048" lon="12.7499653"><ele>59.60000000000001</ele><time>2026-03-29T14:17:46.876Z</time></trkpt><trkpt lat="37.6876823" lon="12.75004"><ele>61.800000000000004</ele><time>2026-03-29T14:17:47.877Z</time></trkpt><trkpt lat="37.6877457" lon="12.7501096"><ele>64.0</ele><time>2026-03-29T14:17:48.875Z</time></trkpt><trkpt lat="37.6878018" lon="12.7501736"><ele>65.5</ele><time>2026-03-29T14:17:49.876Z</time></trkpt><trkpt lat="37.6878607" lon="12.7502323"><ele>67.0</ele><time>2026-03-29T14:17:50.875Z</time></trkpt><trkpt lat="37.6879215" lon="12.7502926"><ele>68.5</ele><time>2026-03-29T14:17:51.876Z</time></trkpt><trkpt lat="37.6879859" lon="12.7503584"><ele>70.0</ele><time>2026-03-29T14:17:52.877Z</time></trkpt><trkpt lat="37.6880611" lon="12.7504301"><ele>71.5</ele><time>2026-03-29T14:17:53.877Z</time></trkpt><trkpt lat="37.6881176" lon="12.75049"><ele>73.0</ele><time>2026-03-29T14:17:54.877Z</time></trkpt><trkpt lat="37.6882073" lon="12.7505791"><ele>73.0</ele><time>2026-03-29T14:17:55.876Z</time></trkpt><trkpt lat="37.6882785" lon="12.7506401"><ele>73.0</ele><time>2026-03-29T14:17:56.877Z</time></trkpt><trkpt lat="37.688343" lon="12.7507054"><ele>73.0</ele><time>2026-03-29T14:17:57.876Z</time></trkpt><trkpt lat="37.6884036" lon="12.7507616"><ele>73.0</ele><time>2026-03-29T14:17:58.877Z</time></trkpt><trkpt lat="37.6884621" lon="12.7508143"><ele>73.0</ele><time>2026-03-29T14:17:59.875Z</time></trkpt><trkpt lat="37.6885148" lon="12.7508689"><ele>73.0</ele><time>2026-03-29T14:18:00.876Z</time></trkpt><trkpt lat="37.6885741" lon="12.7509215"><ele>72.83333333333333</ele><time>2026-03-29T14:18:01.876Z</time></trkpt><trkpt lat="37.6886759" lon="12.7509993"><ele>72.66666666666666</ele><time>2026-03-29T14:18:03.876Z</time></trkpt><trkpt lat="37.6887314" lon="12.7510431"><ele>72.5</ele><time>2026-03-29T14:18:04.877Z</time></trkpt><trkpt lat="37.6887868" lon="12.7510984"><ele>72.33333333333333</ele><time>2026-03-29T14:18:05.877Z</time></trkpt><trkpt lat="37.6888686" lon="12.7511703"><ele>72.16666666666667</ele><time>2026-03-29T14:18:07.876Z</time></trkpt><trkpt lat="37.6889295" lon="12.7512219"><ele>72.0</ele><time>2026-03-29T14:18:09.877Z</time></trkpt><trkpt lat="37.6889902" lon="12.7512628"><ele>73.8</ele><time>2026-03-29T14:18:12.876Z</time></trkpt><trkpt lat="37.6890396" lon="12.7513419"><ele>75.6</ele><time>2026-03-29T14:18:26.876Z</time></trkpt><trkpt lat="37.6891356" lon="12.7514119"><ele>77.39999999999999</ele><time>2026-03-29T14:18:28.876Z</time></trkpt><trkpt lat="37.6892502" lon="12.7515215"><ele>79.2</ele><time>2026-03-29T14:18:30.875Z</time></trkpt><trkpt lat="37.6893137" lon="12.7515781"><ele>81.0</ele><time>2026-03-29T14:18:31.877Z</time></trkpt><trkpt lat="37.6893986" lon="12.7516446"><ele>80.33333333333333</ele><time>2026-03-29T14:18:32.875Z</time></trkpt><trkpt lat="37.6894627" lon="12.7517054"><ele>79.66666666666667</ele><time>2026-03-29T14:18:33.876Z</time></trkpt><trkpt lat="37.6895255" lon="12.7517546"><ele>79.0</ele><time>2026-03-29T14:18:34.877Z</time></trkpt><trkpt lat="37.6895816" lon="12.7518026"><ele>78.33333333333334</ele><time>2026-03-29T14:18:35.876Z</time></trkpt><trkpt lat="37.6896333" lon="12.7518542"><ele>77.66666666666667</ele><time>2026-03-29T14:18:36.876Z</time></trkpt><trkpt lat="37.6897135" lon="12.7519179"><ele>77.0</ele><time>2026-03-29T14:18:38.876Z</time></trkpt><trkpt lat="37.6897791" lon="12.7519724"><ele>79.33333333333334</ele><time>2026-03-29T14:18:41.876Z</time></trkpt><trkpt lat="37.6898271" lon="12.7520275"><ele>81.66666666666667</ele><time>2026-03-29T14:18:44.876Z</time></trkpt><trkpt lat="37.689771" lon="12.7520964"><ele>84.0</ele><time>2026-03-29T14:18:49.876Z</time></trkpt><trkpt lat="37.6896915" lon="12.7520974"><ele>86.33333333333333</ele><time>2026-03-29T14:18:50.875Z</time></trkpt><trkpt lat="37.6895819" lon="12.7521335"><ele>88.66666666666666</ele><time>2026-03-29T14:18:51.876Z</time></trkpt><trkpt lat="37.6894745" lon="12.7521778"><ele>91.0</ele><time>2026-03-29T14:18:52.876Z</time></trkpt><trkpt lat="37.6893708" lon="12.7522345"><ele>91.6</ele><time>2026-03-29T14:18:53.876Z</time></trkpt><trkpt lat="37.6892679" lon="12.752295"><ele>92.19999999999999</ele><time>2026-03-29T14:18:54.876Z</time></trkpt><trkpt lat="37.6891639" lon="12.7523501"><ele>92.80000000000001</ele><time>2026-03-29T14:18:55.876Z</time></trkpt><trkpt lat="37.689067" lon="12.7524157"><ele>93.4</ele><time>2026-03-29T14:18:56.876Z</time></trkpt><trkpt lat="37.6889969" lon="12.7524543"><ele>94.0</ele><time>2026-03-29T14:18:57.876Z</time></trkpt><trkpt lat="37.6889352" lon="12.7524875"><ele>94.0</ele><time>2026-03-29T14:18:58.875Z</time></trkpt><trkpt lat="37.688861" lon="12.7525377"><ele>94.0</ele><time>2026-03-29T14:19:00.876Z</time></trkpt><trkpt lat="37.6887841" lon="12.7525758"><ele>94.0</ele><time>2026-03-29T14:19:11.875Z</time></trkpt><trkpt lat="37.6887149" lon="12.7526281"><ele>94.0</ele><time>2026-03-29T14:19:14.877Z</time></trkpt><trkpt lat="37.6888077" lon="12.7525884"><ele>94.0</ele><time>2026-03-29T14:19:18.875Z</time></trkpt><trkpt lat="37.6888982" lon="12.7525108"><ele>94.0</ele><time>2026-03-29T14:19:20.875Z</time></trkpt><trkpt lat="37.6889714" lon="12.7524742"><ele>94.0</ele><time>2026-03-29T14:19:22.876Z</time></trkpt><trkpt lat="37.6890353" lon="12.7525126"><ele>94.0</ele><time>2026-03-29T14:19:25.876Z</time></trkpt><trkpt lat="37.6890569" lon="12.7526012"><ele>94.0</ele><time>2026-03-29T14:19:27.875Z</time></trkpt><trkpt lat="37.6890907" lon="12.7526892"><ele>94.0</ele><time>2026-03-29T14:19:29.877Z</time></trkpt><trkpt lat="37.6891154" lon="12.7527627"><ele>94.0</ele><time>2026-03-29T14:19:31.876Z</time></trkpt><trkpt lat="37.6891893" lon="12.7528058"><ele>94.0</ele><time>2026-03-29T14:19:34.877Z</time></trkpt><trkpt lat="37.6892638" lon="12.7527634"><ele>95.5</ele><time>2026-03-29T14:19:36.877Z</time></trkpt><trkpt lat="37.689335" lon="12.7527762"><ele>97.0</ele><time>2026-03-29T14:19:38.876Z</time></trkpt><trkpt lat="37.6894038" lon="12.7528418"><ele>98.5</ele><time>2026-03-29T14:19:40.876Z</time></trkpt><trkpt lat="37.6894654" lon="12.7529285"><ele>100.0</ele><time>2026-03-29T14:19:42.876Z</time></trkpt><trkpt lat="37.6895476" lon="12.7529493"><ele>101.50000000000001</ele><time>2026-03-29T14:19:44.877Z</time></trkpt><trkpt lat="37.6896301" lon="12.7529625"><ele>103.0</ele><time>2026-03-29T14:19:46.876Z</time></trkpt><trkpt lat="37.6897256" lon="12.7530082"><ele>103.00000000000001</ele><time>2026-03-29T14:19:48.877Z</time></trkpt><trkpt lat="37.6897819" lon="12.7530645"><ele>103.0</ele><time>2026-03-29T14:19:55.876Z</time></trkpt><trkpt lat="37.6897883" lon="12.7531626"><ele>103.0</ele><time>2026-03-29T14:19:58.877Z</time></trkpt><trkpt lat="37.6898138" lon="12.7532498"><ele>103.0</ele><time>2026-03-29T14:20:01.875Z</time></trkpt><trkpt lat="37.6898331" lon="12.7533362"><ele>103.00000000000001</ele><time>2026-03-29T14:20:04.875Z</time></trkpt><trkpt lat="37.6897906" lon="12.7534406"><ele>103.0</ele><time>2026-03-29T14:20:08.876Z</time></trkpt><trkpt lat="37.6897459" lon="12.7535151"><ele>105.00000000000001</ele><time>2026-03-29T14:20:11.876Z</time></trkpt><trkpt lat="37.6898301" lon="12.7536026"><ele>107.0</ele><time>2026-03-29T14:20:14.876Z</time></trkpt><trkpt lat="37.6899233" lon="12.7536717"><ele>109.0</ele><time>2026-03-29T14:20:16.876Z</time></trkpt><trkpt lat="37.6899832" lon="12.7537174"><ele>111.0</ele><time>2026-03-29T14:20:17.876Z</time></trkpt><trkpt lat="37.6900467" lon="12.7537699"><ele>113.00000000000001</ele><time>2026-03-29T14:20:18.876Z</time></trkpt><trkpt lat="37.6901103" lon="12.7538274"><ele>115.0</ele><time>2026-03-29T14:20:19.874Z</time></trkpt><trkpt lat="37.6901748" lon="12.7538823"><ele>114.99999999999999</ele><time>2026-03-29T14:20:20.876Z</time></trkpt><trkpt lat="37.6902446" lon="12.7539303"><ele>115.0</ele><time>2026-03-29T14:20:21.877Z</time></trkpt><trkpt lat="37.6903053" lon="12.7539607"><ele>114.99999999999999</ele><time>2026-03-29T14:20:22.876Z</time></trkpt><trkpt lat="37.6903774" lon="12.7540101"><ele>114.99999999999999</ele><time>2026-03-29T14:20:23.876Z</time></trkpt><trkpt lat="37.6904359" lon="12.7540443"><ele>115.0</ele><time>2026-03-29T14:20:24.875Z</time></trkpt><trkpt lat="37.6904963" lon="12.754098"><ele>114.99999999999999</ele><time>2026-03-29T14:20:25.877Z</time></trkpt><trkpt lat="37.6905575" lon="12.7541552"><ele>114.99999999999999</ele><time>2026-03-29T14:20:26.876Z</time></trkpt><trkpt lat="37.6906135" lon="12.7542228"><ele>114.00000000000001</ele><time>2026-03-29T14:20:27.875Z</time></trkpt><trkpt lat="37.6906823" lon="12.7543164"><ele>113.0</ele><time>2026-03-29T14:20:29.876Z</time></trkpt><trkpt lat="37.6907215" lon="12.7543849"><ele>112.0</ele><time>2026-03-29T14:20:31.875Z</time></trkpt><trkpt lat="37.6907534" lon="12.7544637"><ele>111.0</ele><time>2026-03-29T14:20:33.877Z</time></trkpt><trkpt lat="37.6907279" lon="12.7543593"><ele>110.00000000000001</ele><time>2026-03-29T14:20:41.877Z</time></trkpt><trkpt lat="37.6906775" lon="12.7543066"><ele>109.0</ele><time>2026-03-29T14:20:43.876Z</time></trkpt><trkpt lat="37.6906361" lon="12.7542238"><ele>109.00000000000001</ele><time>2026-03-29T14:20:46.876Z</time></trkpt><trkpt lat="37.6905689" lon="12.7542757"><ele>109.0</ele><time>2026-03-29T14:20:51.877Z</time></trkpt><trkpt lat="37.6905045" lon="12.7543536"><ele>109.0</ele><time>2026-03-29T14:20:54.876Z</time></trkpt><trkpt lat="37.6904522" lon="12.7544044"><ele>109.0</ele><time>2026-03-29T14:20:56.876Z</time></trkpt><trkpt lat="37.6903846" lon="12.7544645"><ele>109.00000000000001</ele><time>2026-03-29T14:20:58.876Z</time></trkpt><trkpt lat="37.6903119" lon="12.7545181"><ele>109.0</ele><time>2026-03-29T14:21:06.875Z</time></trkpt><trkpt lat="37.6902441" lon="12.7545808"><ele>112.16666666666667</ele><time>2026-03-29T14:21:08.877Z</time></trkpt><trkpt lat="37.6901804" lon="12.754635"><ele>115.33333333333334</ele><time>2026-03-29T14:21:10.877Z</time></trkpt><trkpt lat="37.6901069" lon="12.7546933"><ele>118.5</ele><time>2026-03-29T14:21:12.875Z</time></trkpt><trkpt lat="37.6900241" lon="12.7547738"><ele>121.66666666666666</ele><time>2026-03-29T14:21:14.876Z</time></trkpt><trkpt lat="37.6899565" lon="12.7548317"><ele>124.83333333333333</ele><time>2026-03-29T14:21:16.876Z</time></trkpt><trkpt lat="37.6899115" lon="12.7549073"><ele>128.0</ele><time>2026-03-29T14:21:18.877Z</time></trkpt><trkpt lat="37.689847" lon="12.7549253"><ele>128.0</ele><time>2026-03-29T14:21:20.875Z</time></trkpt><trkpt lat="37.6897719" lon="12.754893"><ele>128.0</ele><time>2026-03-29T14:21:22.877Z</time></trkpt><trkpt lat="37.6896907" lon="12.7548472"><ele>128.0</ele><time>2026-03-29T14:21:24.875Z</time></trkpt><trkpt lat="37.6895985" lon="12.7548452"><ele>128.0</ele><time>2026-03-29T14:21:26.875Z</time></trkpt><trkpt lat="37.6894971" lon="12.7548532"><ele>128.0</ele><time>2026-03-29T14:21:28.875Z</time></trkpt><trkpt lat="37.6893999" lon="12.7548494"><ele>129.0</ele><time>2026-03-29T14:21:30.874Z</time></trkpt><trkpt lat="37.6893154" lon="12.7548365"><ele>130.0</ele><time>2026-03-29T14:21:32.876Z</time></trkpt><trkpt lat="37.6892573" lon="12.7548055"><ele>131.0</ele><time>2026-03-29T14:21:34.876Z</time></trkpt><trkpt lat="37.6891625" lon="12.7547528"><ele>132.0</ele><time>2026-03-29T14:21:36.876Z</time></trkpt><trkpt lat="37.6890653" lon="12.7546793"><ele>133.0</ele><time>2026-03-29T14:21:38.875Z</time></trkpt><trkpt lat="37.6889832" lon="12.7546121"><ele>133.0</ele><time>2026-03-29T14:21:40.877Z</time></trkpt><trkpt lat="37.6889227" lon="12.7545455"><ele>133.0</ele><time>2026-03-29T14:21:42.875Z</time></trkpt><trkpt lat="37.6888777" lon="12.7544728"><ele>133.0</ele><time>2026-03-29T14:21:44.876Z</time></trkpt><trkpt lat="37.6888386" lon="12.7544101"><ele>133.0</ele><time>2026-03-29T14:21:47.877Z</time></trkpt><trkpt lat="37.6888075" lon="12.7543284"><ele>133.0</ele><time>2026-03-29T14:21:50.876Z</time></trkpt><trkpt lat="37.6887663" lon="12.7542409"><ele>133.0</ele><time>2026-03-29T14:21:52.875Z</time></trkpt><trkpt lat="37.6887194" lon="12.7541703"><ele>133.0</ele><time>2026-03-29T14:21:54.876Z</time></trkpt><trkpt lat="37.6886336" lon="12.7541237"><ele>133.0</ele><time>2026-03-29T14:21:57.876Z</time></trkpt><trkpt lat="37.6885595" lon="12.7541152"><ele>133.0</ele><time>2026-03-29T14:21:59.876Z</time></trkpt><trkpt lat="37.6886388" lon="12.7541359"><ele>133.0</ele><time>2026-03-29T14:23:22.875Z</time></trkpt><trkpt lat="37.6886921" lon="12.7541809"><ele>133.0</ele><time>2026-03-29T14:23:24.875Z</time></trkpt><trkpt lat="37.6887487" lon="12.7542541"><ele>133.0</ele><time>2026-03-29T14:23:26.876Z</time></trkpt><trkpt lat="37.6887931" lon="12.7543338"><ele>133.0</ele><time>2026-03-29T14:23:29.877Z</time></trkpt><trkpt lat="37.6888309" lon="12.7544233"><ele>133.0</ele><time>2026-03-29T14:23:32.877Z</time></trkpt><trkpt lat="37.6888727" lon="12.7544951"><ele>133.0</ele><time>2026-03-29T14:23:34.875Z</time></trkpt><trkpt lat="37.6889403" lon="12.7545799"><ele>133.0</ele><time>2026-03-29T14:23:36.875Z</time></trkpt><trkpt lat="37.6890279" lon="12.7546538"><ele>133.0</ele><time>2026-03-29T14:23:38.877Z</time></trkpt><trkpt lat="37.6891218" lon="12.7547267"><ele>133.0</ele><time>2026-03-29T14:23:40.877Z</time></trkpt><trkpt lat="37.6892223" lon="12.7547813"><ele>133.0</ele><time>2026-03-29T14:23:42.876Z</time></trkpt><trkpt lat="37.6892864" lon="12.7548271"><ele>133.0</ele><time>2026-03-29T14:23:44.875Z</time></trkpt><trkpt lat="37.6893553" lon="12.7548551"><ele>133.0</ele><time>2026-03-29T14:23:46.876Z</time></trkpt><trkpt lat="37.6894366" lon="12.7548598"><ele>133.0</ele><time>2026-03-29T14:23:48.874Z</time></trkpt><trkpt lat="37.6895339" lon="12.7548474"><ele>133.0</ele><time>2026-03-29T14:23:50.877Z</time></trkpt><trkpt lat="37.6896217" lon="12.7548371"><ele>133.0</ele><time>2026-03-29T14:23:52.876Z</time></trkpt><trkpt lat="37.6896864" lon="12.7548468"><ele>132.16666666666669</ele><time>2026-03-29T14:23:54.876Z</time></trkpt><trkpt lat="37.6897549" lon="12.7548832"><ele>131.33333333333334</ele><time>2026-03-29T14:23:56.876Z</time></trkpt><trkpt lat="37.6898391" lon="12.754917"><ele>130.5</ele><time>2026-03-29T14:23:59.876Z</time></trkpt><trkpt lat="37.6899068" lon="12.75487"><ele>129.66666666666666</ele><time>2026-03-29T14:24:02.875Z</time></trkpt><trkpt lat="37.6899153" lon="12.7547856"><ele>128.83333333333331</ele><time>2026-03-29T14:24:09.876Z</time></trkpt><trkpt lat="37.6898555" lon="12.7547288"><ele>128.0</ele><time>2026-03-29T14:24:13.876Z</time></trkpt><trkpt lat="37.6898107" lon="12.7546475"><ele>127.99999999999999</ele><time>2026-03-29T14:24:16.874Z</time></trkpt><trkpt lat="37.6898082" lon="12.7545519"><ele>128.0</ele><time>2026-03-29T14:24:18.875Z</time></trkpt><trkpt lat="37.6898038" lon="12.7544511"><ele>128.0</ele><time>2026-03-29T14:24:21.877Z</time></trkpt><trkpt lat="37.6897459" lon="12.7544118"><ele>128.0</ele><time>2026-03-29T14:24:23.877Z</time></trkpt><trkpt lat="37.689661" lon="12.7544461"><ele>127.99999999999999</ele><time>2026-03-29T14:24:27.875Z</time></trkpt><trkpt lat="37.6895826" lon="12.7543862"><ele>128.0</ele><time>2026-03-29T14:24:30.876Z</time></trkpt><trkpt lat="37.6895755" lon="12.7542948"><ele>126.66666666666666</ele><time>2026-03-29T14:24:32.876Z</time></trkpt><trkpt lat="37.6894994" lon="12.7542136"><ele>125.33333333333333</ele><time>2026-03-29T14:24:35.876Z</time></trkpt><trkpt lat="37.6894244" lon="12.7541805"><ele>124.0</ele><time>2026-03-29T14:24:37.875Z</time></trkpt><trkpt lat="37.689394" lon="12.7540964"><ele>122.66666666666666</ele><time>2026-03-29T14:24:39.877Z</time></trkpt><trkpt lat="37.6893669" lon="12.7540172"><ele>121.33333333333333</ele><time>2026-03-29T14:24:41.877Z</time></trkpt><trkpt lat="37.6892966" lon="12.7539468"><ele>120.0</ele><time>2026-03-29T14:24:43.875Z</time></trkpt><trkpt lat="37.6892343" lon="12.7538652"><ele>120.0</ele><time>2026-03-29T14:24:45.876Z</time></trkpt><trkpt lat="37.6891742" lon="12.7538318"><ele>120.0</ele><time>2026-03-29T14:24:46.877Z</time></trkpt><trkpt lat="37.6890877" lon="12.7537543"><ele>120.0</ele><time>2026-03-29T14:24:48.876Z</time></trkpt><trkpt lat="37.6890579" lon="12.753669"><ele>120.0</ele><time>2026-03-29T14:24:51.875Z</time></trkpt><trkpt lat="37.6891303" lon="12.7536244"><ele>120.0</ele><time>2026-03-29T14:24:56.877Z</time></trkpt><trkpt lat="37.6892255" lon="12.7536267"><ele>120.0</ele><time>2026-03-29T14:24:58.874Z</time></trkpt><trkpt lat="37.6893012" lon="12.7536022"><ele>120.0</ele><time>2026-03-29T14:24:59.876Z</time></trkpt><trkpt lat="37.68937" lon="12.7535851"><ele>120.0</ele><time>2026-03-29T14:25:00.874Z</time></trkpt><trkpt lat="37.6894502" lon="12.7535656"><ele>120.0</ele><time>2026-03-29T14:25:01.875Z</time></trkpt><trkpt lat="37.6895207" lon="12.7535421"><ele>120.0</ele><time>2026-03-29T14:25:02.877Z</time></trkpt><trkpt lat="37.6896295" lon="12.7535176"><ele>120.0</ele><time>2026-03-29T14:25:04.876Z</time></trkpt><trkpt lat="37.68971" lon="12.7535106"><ele>120.0</ele><time>2026-03-29T14:25:06.876Z</time></trkpt><trkpt lat="37.6897982" lon="12.7535751"><ele>119.16666666666667</ele><time>2026-03-29T14:25:08.875Z</time></trkpt><trkpt lat="37.689856" lon="12.7536269"><ele>118.33333333333334</ele><time>2026-03-29T14:25:09.874Z</time></trkpt><trkpt lat="37.6899151" lon="12.7536807"><ele>117.5</ele><time>2026-03-29T14:25:10.874Z</time></trkpt><trkpt lat="37.6899824" lon="12.7537471"><ele>116.66666666666667</ele><time>2026-03-29T14:25:11.875Z</time></trkpt><trkpt lat="37.6900582" lon="12.7538158"><ele>115.83333333333334</ele><time>2026-03-29T14:25:12.875Z</time></trkpt><trkpt lat="37.6901351" lon="12.7538814"><ele>115.0</ele><time>2026-03-29T14:25:13.876Z</time></trkpt><trkpt lat="37.690223" lon="12.7539542"><ele>113.8</ele><time>2026-03-29T14:25:14.877Z</time></trkpt><trkpt lat="37.6903211" lon="12.7540178"><ele>112.6</ele><time>2026-03-29T14:25:15.875Z</time></trkpt><trkpt lat="37.690414" lon="12.7540544"><ele>111.4</ele><time>2026-03-29T14:25:16.876Z</time></trkpt><trkpt lat="37.6904992" lon="12.7541121"><ele>110.2</ele><time>2026-03-29T14:25:17.875Z</time></trkpt><trkpt lat="37.6905744" lon="12.7541771"><ele>109.0</ele><time>2026-03-29T14:25:18.877Z</time></trkpt><trkpt lat="37.6906413" lon="12.7542653"><ele>109.0</ele><time>2026-03-29T14:25:19.877Z</time></trkpt><trkpt lat="37.6907042" lon="12.7543412"><ele>109.0</ele><time>2026-03-29T14:25:20.876Z</time></trkpt><trkpt lat="37.690759" lon="12.7544366"><ele>109.0</ele><time>2026-03-29T14:25:21.876Z</time></trkpt><trkpt lat="37.6908152" lon="12.7545449"><ele>109.0</ele><time>2026-03-29T14:25:22.876Z</time></trkpt><trkpt lat="37.6908765" lon="12.7546445"><ele>109.0</ele><time>2026-03-29T14:25:23.876Z</time></trkpt><trkpt lat="37.6909162" lon="12.7547613"><ele>109.80000000000001</ele><time>2026-03-29T14:25:24.876Z</time></trkpt><trkpt lat="37.690966" lon="12.7548653"><ele>110.60000000000001</ele><time>2026-03-29T14:25:25.875Z</time></trkpt><trkpt lat="37.6910161" lon="12.754966"><ele>111.4</ele><time>2026-03-29T14:25:26.875Z</time></trkpt><trkpt lat="37.6910654" lon="12.7550762"><ele>112.2</ele><time>2026-03-29T14:25:27.875Z</time></trkpt><trkpt lat="37.6911137" lon="12.755184"><ele>113.0</ele><time>2026-03-29T14:25:28.874Z</time></trkpt><trkpt lat="37.6911651" lon="12.7552724"><ele>115.33333333333333</ele><time>2026-03-29T14:25:29.875Z</time></trkpt><trkpt lat="37.6912064" lon="12.7553445"><ele>117.66666666666666</ele><time>2026-03-29T14:25:30.875Z</time></trkpt><trkpt lat="37.6912591" lon="12.7554533"><ele>120.0</ele><time>2026-03-29T14:25:32.876Z</time></trkpt><trkpt lat="37.6912936" lon="12.755526"><ele>122.33333333333334</ele><time>2026-03-29T14:27:05.875Z</time></trkpt><trkpt lat="37.6913074" lon="12.7556411"><ele>124.66666666666667</ele><time>2026-03-29T14:27:08.876Z</time></trkpt><trkpt lat="37.6913153" lon="12.7557279"><ele>127.0</ele><time>2026-03-29T14:27:11.875Z</time></trkpt><trkpt lat="37.6913031" lon="12.7558359"><ele>127.0</ele><time>2026-03-29T14:27:14.875Z</time></trkpt><trkpt lat="37.6912854" lon="12.7559227"><ele>127.0</ele><time>2026-03-29T14:27:17.875Z</time></trkpt><trkpt lat="37.6913468" lon="12.7558903"><ele>127.0</ele><time>2026-03-29T14:29:10.875Z</time></trkpt><trkpt lat="37.6914168" lon="12.7558778"><ele>127.0</ele><time>2026-03-29T14:29:21.876Z</time></trkpt><trkpt lat="37.6914875" lon="12.7558791"><ele>127.0</ele><time>2026-03-29T14:29:24.875Z</time></trkpt><trkpt lat="37.6915495" lon="12.7559008"><ele>127.0</ele><time>2026-03-29T14:29:27.875Z</time></trkpt><trkpt lat="37.6915938" lon="12.7559889"><ele>127.0</ele><time>2026-03-29T14:29:31.874Z</time></trkpt><trkpt lat="37.6915663" lon="12.7560963"><ele>128.2</ele><time>2026-03-29T14:29:33.874Z</time></trkpt><trkpt lat="37.6915135" lon="12.7562223"><ele>129.39999999999998</ele><time>2026-03-29T14:29:35.875Z</time></trkpt><trkpt lat="37.6914544" lon="12.7563404"><ele>130.60000000000002</ele><time>2026-03-29T14:29:37.876Z</time></trkpt><trkpt lat="37.6914031" lon="12.7564601"><ele>131.8</ele><time>2026-03-29T14:29:39.876Z</time></trkpt><trkpt lat="37.69135" lon="12.7565611"><ele>133.0</ele><time>2026-03-29T14:29:41.875Z</time></trkpt><trkpt lat="37.6912996" lon="12.7566605"><ele>133.0</ele><time>2026-03-29T14:29:43.876Z</time></trkpt><trkpt lat="37.6912288" lon="12.7567569"><ele>133.0</ele><time>2026-03-29T14:29:45.874Z</time></trkpt><trkpt lat="37.6911852" lon="12.7568282"><ele>133.0</ele><time>2026-03-29T14:29:47.875Z</time></trkpt><trkpt lat="37.691166" lon="12.7569253"><ele>133.0</ele><time>2026-03-29T14:29:51.877Z</time></trkpt><trkpt lat="37.6911369" lon="12.7570101"><ele>133.0</ele><time>2026-03-29T14:29:55.875Z</time></trkpt><trkpt lat="37.6911051" lon="12.7571066"><ele>133.0</ele><time>2026-03-29T14:30:00.876Z</time></trkpt><trkpt lat="37.6910345" lon="12.7571938"><ele>136.0</ele><time>2026-03-29T14:30:03.876Z</time></trkpt><trkpt lat="37.6909408" lon="12.7572367"><ele>139.0</ele><time>2026-03-29T14:30:05.875Z</time></trkpt><trkpt lat="37.6908144" lon="12.7572845"><ele>142.0</ele><time>2026-03-29T14:30:07.876Z</time></trkpt><trkpt lat="37.6907413" lon="12.7573134"><ele>145.0</ele><time>2026-03-29T14:30:08.875Z</time></trkpt><trkpt lat="37.6906641" lon="12.7573356"><ele>148.0</ele><time>2026-03-29T14:30:09.874Z</time></trkpt><trkpt lat="37.6905589" lon="12.7573636"><ele>148.0</ele><time>2026-03-29T14:30:10.875Z</time></trkpt><trkpt lat="37.690442" lon="12.7573928"><ele>148.0</ele><time>2026-03-29T14:30:11.876Z</time></trkpt><trkpt lat="37.6903522" lon="12.7574233"><ele>148.0</ele><time>2026-03-29T14:30:12.874Z</time></trkpt><trkpt lat="37.6902733" lon="12.7574497"><ele>148.0</ele><time>2026-03-29T14:30:13.875Z</time></trkpt><trkpt lat="37.6901959" lon="12.7574822"><ele>148.0</ele><time>2026-03-29T14:30:14.875Z</time></trkpt><trkpt lat="37.6901247" lon="12.757514"><ele>148.42857142857144</ele><time>2026-03-29T14:30:15.875Z</time></trkpt><trkpt lat="37.6900574" lon="12.7575451"><ele>148.85714285714286</ele><time>2026-03-29T14:30:16.875Z</time></trkpt><trkpt lat="37.6899921" lon="12.7575824"><ele>149.28571428571428</ele><time>2026-03-29T14:30:17.875Z</time></trkpt><trkpt lat="37.6899297" lon="12.757622"><ele>149.71428571428572</ele><time>2026-03-29T14:30:18.875Z</time></trkpt><trkpt lat="37.6898662" lon="12.757685"><ele>150.14285714285714</ele><time>2026-03-29T14:30:20.875Z</time></trkpt><trkpt lat="37.6898224" lon="12.757754"><ele>150.57142857142858</ele><time>2026-03-29T14:30:37.875Z</time></trkpt><trkpt lat="37.6897686" lon="12.7577954"><ele>151.0</ele><time>2026-03-29T14:30:41.874Z</time></trkpt><trkpt lat="37.6897209" lon="12.7577375"><ele>152.8</ele><time>2026-03-29T14:30:44.876Z</time></trkpt><trkpt lat="37.6898058" lon="12.757689"><ele>154.6</ele><time>2026-03-29T14:30:47.875Z</time></trkpt><trkpt lat="37.6898848" lon="12.7576712"><ele>156.4</ele><time>2026-03-29T14:30:49.875Z</time></trkpt><trkpt lat="37.6899736" lon="12.7576143"><ele>158.2</ele><time>2026-03-29T14:30:51.874Z</time></trkpt><trkpt lat="37.6900746" lon="12.7575414"><ele>160.0</ele><time>2026-03-29T14:30:53.875Z</time></trkpt><trkpt lat="37.6901348" lon="12.7575151"><ele>160.0</ele><time>2026-03-29T14:30:54.875Z</time></trkpt><trkpt lat="37.6902022" lon="12.7574816"><ele>160.0</ele><time>2026-03-29T14:30:55.875Z</time></trkpt><trkpt lat="37.6902742" lon="12.7574471"><ele>160.0</ele><time>2026-03-29T14:30:56.874Z</time></trkpt><trkpt lat="37.6903492" lon="12.7574138"><ele>160.0</ele><time>2026-03-29T14:30:57.874Z</time></trkpt><trkpt lat="37.6904274" lon="12.7573847"><ele>160.0</ele><time>2026-03-29T14:30:58.875Z</time></trkpt><trkpt lat="37.6905078" lon="12.7573562"><ele>160.0</ele><time>2026-03-29T14:30:59.875Z</time></trkpt><trkpt lat="37.6905946" lon="12.757332"><ele>158.0</ele><time>2026-03-29T14:31:00.874Z</time></trkpt><trkpt lat="37.6906724" lon="12.7573065"><ele>156.0</ele><time>2026-03-29T14:31:01.877Z</time></trkpt><trkpt lat="37.6907468" lon="12.7572796"><ele>154.0</ele><time>2026-03-29T14:31:02.874Z</time></trkpt><trkpt lat="37.6908203" lon="12.7572555"><ele>152.0</ele><time>2026-03-29T14:31:03.875Z</time></trkpt><trkpt lat="37.6908985" lon="12.7572303"><ele>150.0</ele><time>2026-03-29T14:31:04.877Z</time></trkpt><trkpt lat="37.6909768" lon="12.7571974"><ele>148.0</ele><time>2026-03-29T14:31:05.876Z</time></trkpt><trkpt lat="37.6910443" lon="12.7571556"><ele>148.83333333333334</ele><time>2026-03-29T14:31:06.875Z</time></trkpt><trkpt lat="37.6911034" lon="12.7570894"><ele>149.66666666666669</ele><time>2026-03-29T14:31:07.874Z</time></trkpt><trkpt lat="37.6911463" lon="12.7569974"><ele>150.5</ele><time>2026-03-29T14:31:08.876Z</time></trkpt><trkpt lat="37.6911734" lon="12.7569083"><ele>151.33333333333334</ele><time>2026-03-29T14:31:09.875Z</time></trkpt><trkpt lat="37.6911807" lon="12.7567605"><ele>152.16666666666666</ele><time>2026-03-29T14:31:11.874Z</time></trkpt><trkpt lat="37.6911354" lon="12.7566596"><ele>153.0</ele><time>2026-03-29T14:31:13.875Z</time></trkpt><trkpt lat="37.6910705" lon="12.7565869"><ele>153.0</ele><time>2026-03-29T14:31:15.876Z</time></trkpt><trkpt lat="37.691006" lon="12.7565169"><ele>153.0</ele><time>2026-03-29T14:31:17.875Z</time></trkpt><trkpt lat="37.6909059" lon="12.7564716"><ele>153.0</ele><time>2026-03-29T14:31:19.874Z</time></trkpt><trkpt lat="37.6908065" lon="12.7564418"><ele>153.0</ele><time>2026-03-29T14:31:21.876Z</time></trkpt><trkpt lat="37.6907323" lon="12.7564293"><ele>153.0</ele><time>2026-03-29T14:31:23.875Z</time></trkpt><trkpt lat="37.6906689" lon="12.7564285"><ele>153.0</ele><time>2026-03-29T14:31:27.874Z</time></trkpt><trkpt lat="37.6906306" lon="12.7565067"><ele>153.0</ele><time>2026-03-29T14:31:32.874Z</time></trkpt><trkpt lat="37.6906588" lon="12.756618"><ele>153.0</ele><time>2026-03-29T14:31:35.874Z</time></trkpt><trkpt lat="37.6906799" lon="12.7566972"><ele>153.0</ele><time>2026-03-29T14:31:37.876Z</time></trkpt><trkpt lat="37.6907036" lon="12.756773"><ele>153.0</ele><time>2026-03-29T14:31:39.876Z</time></trkpt><trkpt lat="37.6907355" lon="12.7568583"><ele>153.0</ele><time>2026-03-29T14:31:42.874Z</time></trkpt><trkpt lat="37.6907541" lon="12.756938"><ele>148.0</ele><time>2026-03-29T14:31:44.875Z</time></trkpt><trkpt lat="37.6907852" lon="12.7570175"><ele>148.0</ele><time>2026-03-29T14:32:41.875Z</time></trkpt></trkseg><trkseg><trkpt lat="37.6908004" lon="12.757053"><ele>148.0</ele><time>2026-03-29T14:53:39.872Z</time></trkpt><trkpt lat="37.6908674" lon="12.7570951"><ele>148.0</ele><time>2026-03-29T14:53:42.873Z</time></trkpt><trkpt lat="37.6909323" lon="12.7571397"><ele>148.0</ele><time>2026-03-29T14:53:45.873Z</time></trkpt><trkpt lat="37.6910039" lon="12.757187"><ele>148.0</ele><time>2026-03-29T14:53:48.873Z</time></trkpt><trkpt lat="37.6910911" lon="12.7571548"><ele>148.0</ele><time>2026-03-29T14:53:51.873Z</time></trkpt><trkpt lat="37.691139" lon="12.7570659"><ele>148.0</ele><time>2026-03-29T14:53:53.872Z</time></trkpt><trkpt lat="37.6911684" lon="12.7569684"><ele>145.85714285714286</ele><time>2026-03-29T14:53:55.872Z</time></trkpt><trkpt lat="37.6911859" lon="12.7568696"><ele>143.71428571428572</ele><time>2026-03-29T14:53:58.874Z</time></trkpt><trkpt lat="37.6911624" lon="12.7567937"><ele>141.57142857142856</ele><time>2026-03-29T14:56:10.872Z</time></trkpt><trkpt lat="37.6911942" lon="12.7568648"><ele>139.42857142857144</ele><time>2026-03-29T14:56:22.872Z</time></trkpt><trkpt lat="37.6912644" lon="12.7568489"><ele>137.28571428571428</ele><time>2026-03-29T14:56:25.872Z</time></trkpt><trkpt lat="37.6913239" lon="12.7567862"><ele>135.14285714285714</ele><time>2026-03-29T14:56:28.872Z</time></trkpt><trkpt lat="37.6913291" lon="12.756704"><ele>133.0</ele><time>2026-03-29T14:56:32.872Z</time></trkpt><trkpt lat="37.6913012" lon="12.7566179"><ele>133.0</ele><time>2026-03-29T14:56:36.873Z</time></trkpt><trkpt lat="37.6912575" lon="12.7565549"><ele>133.0</ele><time>2026-03-29T14:56:38.871Z</time></trkpt><trkpt lat="37.6911938" lon="12.7564999"><ele>133.0</ele><time>2026-03-29T14:56:40.873Z</time></trkpt><trkpt lat="37.6911222" lon="12.756443"><ele>133.0</ele><time>2026-03-29T14:56:42.872Z</time></trkpt><trkpt lat="37.691057" lon="12.7563751"><ele>133.0</ele><time>2026-03-29T14:56:44.871Z</time></trkpt><trkpt lat="37.6909845" lon="12.7563092"><ele>133.0</ele><time>2026-03-29T14:56:47.872Z</time></trkpt><trkpt lat="37.6909211" lon="12.7562517"><ele>137.0</ele><time>2026-03-29T14:56:49.872Z</time></trkpt><trkpt lat="37.6908528" lon="12.756204"><ele>141.0</ele><time>2026-03-29T14:56:51.873Z</time></trkpt><trkpt lat="37.6907847" lon="12.7561766"><ele>145.0</ele><time>2026-03-29T14:56:53.871Z</time></trkpt><trkpt lat="37.690693" lon="12.7561521"><ele>149.0</ele><time>2026-03-29T14:56:55.872Z</time></trkpt><trkpt lat="37.6905787" lon="12.7561253"><ele>153.0</ele><time>2026-03-29T14:56:57.871Z</time></trkpt><trkpt lat="37.6904855" lon="12.7561029"><ele>153.0</ele><time>2026-03-29T14:56:59.872Z</time></trkpt><trkpt lat="37.6904159" lon="12.7560748"><ele>153.0</ele><time>2026-03-29T14:57:01.873Z</time></trkpt><trkpt lat="37.690377" lon="12.7559885"><ele>153.0</ele><time>2026-03-29T14:57:03.872Z</time></trkpt><trkpt lat="37.690371" lon="12.7558994"><ele>153.0</ele><time>2026-03-29T14:57:05.872Z</time></trkpt><trkpt lat="37.6904083" lon="12.7558103"><ele>153.0</ele><time>2026-03-29T14:57:07.871Z</time></trkpt><trkpt lat="37.6904072" lon="12.7557147"><ele>153.0</ele><time>2026-03-29T14:57:09.872Z</time></trkpt><trkpt lat="37.6903233" lon="12.7556905"><ele>151.6</ele><time>2026-03-29T14:57:13.872Z</time></trkpt><trkpt lat="37.6902418" lon="12.7557007"><ele>150.20000000000002</ele><time>2026-03-29T14:57:15.873Z</time></trkpt><trkpt lat="37.6901451" lon="12.755723"><ele>148.8</ele><time>2026-03-29T14:57:17.873Z</time></trkpt><trkpt lat="37.6900261" lon="12.7557502"><ele>147.4</ele><time>2026-03-29T14:57:19.871Z</time></trkpt><trkpt lat="37.6899603" lon="12.7557614"><ele>146.0</ele><time>2026-03-29T14:57:20.872Z</time></trkpt><trkpt lat="37.6898423" lon="12.7557774"><ele>146.0</ele><time>2026-03-29T14:57:22.871Z</time></trkpt><trkpt lat="37.68974" lon="12.7557671"><ele>146.0</ele><time>2026-03-29T14:57:24.872Z</time></trkpt><trkpt lat="37.6896649" lon="12.7557034"><ele>146.0</ele><time>2026-03-29T14:57:25.872Z</time></trkpt><trkpt lat="37.6896007" lon="12.7556457"><ele>146.0</ele><time>2026-03-29T14:57:26.873Z</time></trkpt><trkpt lat="37.68955" lon="12.7555708"><ele>146.0</ele><time>2026-03-29T14:57:27.873Z</time></trkpt><trkpt lat="37.6894706" lon="12.7555"><ele>146.0</ele><time>2026-03-29T14:57:29.872Z</time></trkpt><trkpt lat="37.6893989" lon="12.7554376"><ele>146.4</ele><time>2026-03-29T14:57:31.872Z</time></trkpt><trkpt lat="37.6893231" lon="12.7553818"><ele>146.8</ele><time>2026-03-29T14:57:33.872Z</time></trkpt><trkpt lat="37.6892405" lon="12.7553503"><ele>147.20000000000002</ele><time>2026-03-29T14:57:35.873Z</time></trkpt><trkpt lat="37.6891514" lon="12.7553304"><ele>147.6</ele><time>2026-03-29T14:57:37.873Z</time></trkpt><trkpt lat="37.6890398" lon="12.7553026"><ele>148.0</ele><time>2026-03-29T14:57:39.872Z</time></trkpt><trkpt lat="37.6889211" lon="12.7552823"><ele>148.0</ele><time>2026-03-29T14:57:41.873Z</time></trkpt><trkpt lat="37.6888589" lon="12.7552694"><ele>148.0</ele><time>2026-03-29T14:57:42.874Z</time></trkpt><trkpt lat="37.6887884" lon="12.7552677"><ele>148.0</ele><time>2026-03-29T14:57:43.873Z</time></trkpt><trkpt lat="37.6886806" lon="12.7552734"><ele>148.0</ele><time>2026-03-29T14:57:45.874Z</time></trkpt><trkpt lat="37.6886056" lon="12.7552921"><ele>148.0</ele><time>2026-03-29T14:57:47.874Z</time></trkpt><trkpt lat="37.6885377" lon="12.7553305"><ele>148.0</ele><time>2026-03-29T14:57:49.874Z</time></trkpt><trkpt lat="37.6884831" lon="12.755403"><ele>148.0</ele><time>2026-03-29T14:57:52.874Z</time></trkpt><trkpt lat="37.688445" lon="12.7554714"><ele>148.0</ele><time>2026-03-29T14:57:57.873Z</time></trkpt><trkpt lat="37.6885033" lon="12.7554274"><ele>148.0</ele><time>2026-03-29T14:58:00.872Z</time></trkpt><trkpt lat="37.6885323" lon="12.7553461"><ele>148.0</ele><time>2026-03-29T14:58:02.873Z</time></trkpt><trkpt lat="37.6886241" lon="12.7552961"><ele>148.0</ele><time>2026-03-29T14:58:04.872Z</time></trkpt><trkpt lat="37.6886868" lon="12.7552808"><ele>148.0</ele><time>2026-03-29T14:58:05.873Z</time></trkpt><trkpt lat="37.6887564" lon="12.7552726"><ele>148.0</ele><time>2026-03-29T14:58:06.872Z</time></trkpt><trkpt lat="37.6888222" lon="12.7552703"><ele>148.0</ele><time>2026-03-29T14:58:07.872Z</time></trkpt><trkpt lat="37.6888895" lon="12.7552836"><ele>148.0</ele><time>2026-03-29T14:58:08.874Z</time></trkpt><trkpt lat="37.6889596" lon="12.7553073"><ele>148.0</ele><time>2026-03-29T14:58:09.872Z</time></trkpt><trkpt lat="37.6890199" lon="12.7553309"><ele>148.0</ele><time>2026-03-29T14:58:10.872Z</time></trkpt><trkpt lat="37.6890896" lon="12.7553522"><ele>148.0</ele><time>2026-03-29T14:58:11.873Z</time></trkpt><trkpt lat="37.689205" lon="12.7553696"><ele>148.0</ele><time>2026-03-29T14:58:13.872Z</time></trkpt><trkpt lat="37.6893133" lon="12.7553969"><ele>148.0</ele><time>2026-03-29T14:58:15.873Z</time></trkpt><trkpt lat="37.6893808" lon="12.7554472"><ele>148.0</ele><time>2026-03-29T14:58:17.872Z</time></trkpt><trkpt lat="37.6894306" lon="12.7555039"><ele>148.0</ele><time>2026-03-29T14:58:19.872Z</time></trkpt><trkpt lat="37.6894963" lon="12.7555164"><ele>148.0</ele><time>2026-03-29T14:58:21.872Z</time></trkpt><trkpt lat="37.6895507" lon="12.7555653"><ele>148.0</ele><time>2026-03-29T14:58:23.872Z</time></trkpt><trkpt lat="37.6896004" lon="12.7556597"><ele>148.0</ele><time>2026-03-29T14:58:25.872Z</time></trkpt><trkpt lat="37.6896654" lon="12.7557363"><ele>147.6</ele><time>2026-03-29T14:58:27.872Z</time></trkpt><trkpt lat="37.6897484" lon="12.7557892"><ele>147.20000000000002</ele><time>2026-03-29T14:58:29.872Z</time></trkpt><trkpt lat="37.6898467" lon="12.7558081"><ele>146.8</ele><time>2026-03-29T14:58:31.873Z</time></trkpt><trkpt lat="37.6899631" lon="12.7557954"><ele>146.4</ele><time>2026-03-29T14:58:33.872Z</time></trkpt><trkpt lat="37.6900951" lon="12.7557624"><ele>146.0</ele><time>2026-03-29T14:58:35.871Z</time></trkpt><trkpt lat="37.6901596" lon="12.7557516"><ele>144.6</ele><time>2026-03-29T14:58:36.871Z</time></trkpt><trkpt lat="37.6902759" lon="12.7557202"><ele>143.2</ele><time>2026-03-29T14:58:38.872Z</time></trkpt><trkpt lat="37.6903462" lon="12.7557036"><ele>141.8</ele><time>2026-03-29T14:58:39.873Z</time></trkpt><trkpt lat="37.690412" lon="12.7556889"><ele>140.4</ele><time>2026-03-29T14:58:40.872Z</time></trkpt><trkpt lat="37.6904755" lon="12.7556683"><ele>139.0</ele><time>2026-03-29T14:58:41.873Z</time></trkpt><trkpt lat="37.6906101" lon="12.7556438"><ele>139.0</ele><time>2026-03-29T14:58:43.872Z</time></trkpt><trkpt lat="37.6906855" lon="12.7556403"><ele>139.0</ele><time>2026-03-29T14:58:44.872Z</time></trkpt><trkpt lat="37.6907653" lon="12.7556223"><ele>139.0</ele><time>2026-03-29T14:58:45.873Z</time></trkpt><trkpt lat="37.6908323" lon="12.7556092"><ele>139.0</ele><time>2026-03-29T14:58:46.873Z</time></trkpt><trkpt lat="37.6908992" lon="12.7556066"><ele>139.0</ele><time>2026-03-29T14:58:47.871Z</time></trkpt><trkpt lat="37.690968" lon="12.7556065"><ele>139.0</ele><time>2026-03-29T14:58:48.871Z</time></trkpt><trkpt lat="37.6910778" lon="12.7556217"><ele>139.0</ele><time>2026-03-29T14:58:50.873Z</time></trkpt><trkpt lat="37.6911619" lon="12.7556032"><ele>139.0</ele><time>2026-03-29T14:58:52.873Z</time></trkpt><trkpt lat="37.6912156" lon="12.7555268"><ele>139.0</ele><time>2026-03-29T14:58:54.874Z</time></trkpt><trkpt lat="37.6912128" lon="12.7554186"><ele>139.0</ele><time>2026-03-29T14:58:56.872Z</time></trkpt><trkpt lat="37.6911107" lon="12.7552932"><ele>139.0</ele><time>2026-03-29T14:58:58.872Z</time></trkpt><trkpt lat="37.6910746" lon="12.7552216"><ele>136.16666666666669</ele><time>2026-03-29T14:58:59.873Z</time></trkpt><trkpt lat="37.6910403" lon="12.7551532"><ele>133.33333333333334</ele><time>2026-03-29T14:59:00.871Z</time></trkpt><trkpt lat="37.6909763" lon="12.7550163"><ele>130.5</ele><time>2026-03-29T14:59:02.871Z</time></trkpt><trkpt lat="37.6909414" lon="12.7549353"><ele>127.66666666666666</ele><time>2026-03-29T14:59:03.872Z</time></trkpt><trkpt lat="37.6909091" lon="12.7548494"><ele>124.83333333333333</ele><time>2026-03-29T14:59:04.872Z</time></trkpt><trkpt lat="37.6908674" lon="12.7547684"><ele>122.0</ele><time>2026-03-29T14:59:05.872Z</time></trkpt><trkpt lat="37.6908378" lon="12.7546922"><ele>121.99999999999999</ele><time>2026-03-29T14:59:06.873Z</time></trkpt><trkpt lat="37.6908043" lon="12.7546099"><ele>122.0</ele><time>2026-03-29T14:59:07.872Z</time></trkpt><trkpt lat="37.690762" lon="12.7545237"><ele>122.0</ele><time>2026-03-29T14:59:08.873Z</time></trkpt><trkpt lat="37.6907195" lon="12.7544381"><ele>122.0</ele><time>2026-03-29T14:59:09.873Z</time></trkpt><trkpt lat="37.6906817" lon="12.7543557"><ele>121.99999999999999</ele><time>2026-03-29T14:59:10.872Z</time></trkpt><trkpt lat="37.6906281" lon="12.7542806"><ele>122.0</ele><time>2026-03-29T14:59:11.873Z</time></trkpt><trkpt lat="37.6905751" lon="12.7542068"><ele>120.6</ele><time>2026-03-29T14:59:12.872Z</time></trkpt><trkpt lat="37.6905087" lon="12.7541416"><ele>119.19999999999999</ele><time>2026-03-29T14:59:13.872Z</time></trkpt><trkpt lat="37.6904279" lon="12.754089"><ele>117.8</ele><time>2026-03-29T14:59:14.874Z</time></trkpt><trkpt lat="37.6903245" lon="12.7540255"><ele>116.4</ele><time>2026-03-29T14:59:15.873Z</time></trkpt><trkpt lat="37.690214" lon="12.7539439"><ele>115.0</ele><time>2026-03-29T14:59:16.872Z</time></trkpt><trkpt lat="37.6901122" lon="12.7538806"><ele>115.0</ele><time>2026-03-29T14:59:17.874Z</time></trkpt><trkpt lat="37.6900434" lon="12.753819"><ele>115.0</ele><time>2026-03-29T14:59:18.872Z</time></trkpt><trkpt lat="37.6899695" lon="12.753763"><ele>115.0</ele><time>2026-03-29T14:59:19.873Z</time></trkpt><trkpt lat="37.6898656" lon="12.7536862"><ele>115.0</ele><time>2026-03-29T14:59:21.872Z</time></trkpt><trkpt lat="37.6897839" lon="12.7536211"><ele>115.0</ele><time>2026-03-29T14:59:23.873Z</time></trkpt><trkpt lat="37.6897298" lon="12.753563"><ele>113.28571428571426</ele><time>2026-03-29T14:59:25.874Z</time></trkpt><trkpt lat="37.689774" lon="12.7534842"><ele>111.57142857142857</ele><time>2026-03-29T14:59:29.874Z</time></trkpt><trkpt lat="37.6898049" lon="12.7534122"><ele>109.85714285714285</ele><time>2026-03-29T14:59:31.872Z</time></trkpt><trkpt lat="37.6898372" lon="12.7533345"><ele>108.14285714285714</ele><time>2026-03-29T14:59:34.872Z</time></trkpt><trkpt lat="37.6898281" lon="12.7532555"><ele>106.42857142857142</ele><time>2026-03-29T14:59:37.871Z</time></trkpt><trkpt lat="37.6897859" lon="12.753174"><ele>104.71428571428571</ele><time>2026-03-29T14:59:40.873Z</time></trkpt><trkpt lat="37.6897721" lon="12.7530932"><ele>103.0</ele><time>2026-03-29T14:59:42.872Z</time></trkpt><trkpt lat="37.6897215" lon="12.7530143"><ele>103.00000000000001</ele><time>2026-03-29T14:59:45.872Z</time></trkpt><trkpt lat="37.6896116" lon="12.7529681"><ele>103.0</ele><time>2026-03-29T14:59:47.872Z</time></trkpt><trkpt lat="37.6895408" lon="12.7529584"><ele>103.0</ele><time>2026-03-29T14:59:49.873Z</time></trkpt><trkpt lat="37.6894543" lon="12.7529577"><ele>103.0</ele><time>2026-03-29T14:59:51.872Z</time></trkpt><trkpt lat="37.6893931" lon="12.7529047"><ele>103.00000000000001</ele><time>2026-03-29T14:59:53.872Z</time></trkpt><trkpt lat="37.6893449" lon="12.7528309"><ele>103.0</ele><time>2026-03-29T14:59:55.873Z</time></trkpt><trkpt lat="37.6892775" lon="12.7528054"><ele>103.33333333333334</ele><time>2026-03-29T14:59:57.872Z</time></trkpt><trkpt lat="37.6891849" lon="12.7528313"><ele>103.66666666666667</ele><time>2026-03-29T14:59:59.873Z</time></trkpt><trkpt lat="37.6891113" lon="12.7527835"><ele>104.0</ele><time>2026-03-29T15:00:01.873Z</time></trkpt><trkpt lat="37.6890596" lon="12.7526831"><ele>104.33333333333334</ele><time>2026-03-29T15:00:04.874Z</time></trkpt><trkpt lat="37.6890211" lon="12.7525866"><ele>104.66666666666667</ele><time>2026-03-29T15:00:06.874Z</time></trkpt><trkpt lat="37.6890006" lon="12.7525072"><ele>105.0</ele><time>2026-03-29T15:00:08.871Z</time></trkpt><trkpt lat="37.6890421" lon="12.7524466"><ele>102.8</ele><time>2026-03-29T15:00:11.873Z</time></trkpt><trkpt lat="37.6891264" lon="12.7524042"><ele>100.6</ele><time>2026-03-29T15:00:14.872Z</time></trkpt><trkpt lat="37.6891885" lon="12.7523659"><ele>98.4</ele><time>2026-03-29T15:00:16.872Z</time></trkpt><trkpt lat="37.6892657" lon="12.7523252"><ele>96.2</ele><time>2026-03-29T15:00:18.872Z</time></trkpt><trkpt lat="37.68936" lon="12.7522706"><ele>94.0</ele><time>2026-03-29T15:00:20.874Z</time></trkpt><trkpt lat="37.689456" lon="12.7522086"><ele>93.4</ele><time>2026-03-29T15:00:22.872Z</time></trkpt><trkpt lat="37.6895516" lon="12.7521736"><ele>92.80000000000001</ele><time>2026-03-29T15:00:24.873Z</time></trkpt><trkpt lat="37.6896586" lon="12.7521445"><ele>92.19999999999999</ele><time>2026-03-29T15:00:26.872Z</time></trkpt><trkpt lat="37.6897475" lon="12.7521182"><ele>91.6</ele><time>2026-03-29T15:00:28.873Z</time></trkpt><trkpt lat="37.6897827" lon="12.752026"><ele>91.0</ele><time>2026-03-29T15:00:32.873Z</time></trkpt><trkpt lat="37.6897095" lon="12.7519268"><ele>89.57142857142857</ele><time>2026-03-29T15:00:35.873Z</time></trkpt><trkpt lat="37.6896636" lon="12.7518655"><ele>88.14285714285714</ele><time>2026-03-29T15:00:36.873Z</time></trkpt><trkpt lat="37.6896093" lon="12.7518173"><ele>86.71428571428572</ele><time>2026-03-29T15:00:37.871Z</time></trkpt><trkpt lat="37.6895531" lon="12.7517633"><ele>85.28571428571428</ele><time>2026-03-29T15:00:38.873Z</time></trkpt><trkpt lat="37.6894924" lon="12.7517142"><ele>83.85714285714286</ele><time>2026-03-29T15:00:39.871Z</time></trkpt><trkpt lat="37.6894283" lon="12.7516656"><ele>82.42857142857143</ele><time>2026-03-29T15:00:40.873Z</time></trkpt><trkpt lat="37.6893654" lon="12.7516002"><ele>81.0</ele><time>2026-03-29T15:00:41.872Z</time></trkpt><trkpt lat="37.6892836" lon="12.7515383"><ele>81.0</ele><time>2026-03-29T15:00:42.873Z</time></trkpt><trkpt lat="37.6891969" lon="12.7514734"><ele>81.0</ele><time>2026-03-29T15:00:43.871Z</time></trkpt><trkpt lat="37.6891063" lon="12.7513909"><ele>81.0</ele><time>2026-03-29T15:00:44.872Z</time></trkpt><trkpt lat="37.6890146" lon="12.7513121"><ele>81.0</ele><time>2026-03-29T15:00:45.872Z</time></trkpt><trkpt lat="37.6889225" lon="12.7512258"><ele>81.0</ele><time>2026-03-29T15:00:46.874Z</time></trkpt><trkpt lat="37.6888265" lon="12.7511404"><ele>81.0</ele><time>2026-03-29T15:00:47.873Z</time></trkpt><trkpt lat="37.6887123" lon="12.7510428"><ele>81.0</ele><time>2026-03-29T15:00:48.873Z</time></trkpt><trkpt lat="37.6886068" lon="12.7509472"><ele>81.0</ele><time>2026-03-29T15:00:49.872Z</time></trkpt><trkpt lat="37.6885125" lon="12.7508689"><ele>81.0</ele><time>2026-03-29T15:00:50.871Z</time></trkpt><trkpt lat="37.688422" lon="12.7507893"><ele>79.0</ele><time>2026-03-29T15:00:51.873Z</time></trkpt><trkpt lat="37.6883211" lon="12.7507009"><ele>77.0</ele><time>2026-03-29T15:00:52.873Z</time></trkpt><trkpt lat="37.6882255" lon="12.7506184"><ele>75.0</ele><time>2026-03-29T15:00:53.873Z</time></trkpt><trkpt lat="37.6881374" lon="12.7505249"><ele>73.0</ele><time>2026-03-29T15:00:54.872Z</time></trkpt><trkpt lat="37.688024" lon="12.7504417"><ele>73.0</ele><time>2026-03-29T15:00:55.871Z</time></trkpt><trkpt lat="37.6879346" lon="12.7503519"><ele>73.0</ele><time>2026-03-29T15:00:56.873Z</time></trkpt><trkpt lat="37.6878191" lon="12.7502445"><ele>73.0</ele><time>2026-03-29T15:00:57.873Z</time></trkpt><trkpt lat="37.6877225" lon="12.750154"><ele>73.0</ele><time>2026-03-29T15:00:58.872Z</time></trkpt><trkpt lat="37.6876331" lon="12.7500649"><ele>71.2</ele><time>2026-03-29T15:00:59.873Z</time></trkpt><trkpt lat="37.6875521" lon="12.7499904"><ele>69.4</ele><time>2026-03-29T15:01:00.873Z</time></trkpt><trkpt lat="37.6874746" lon="12.7499129"><ele>67.60000000000001</ele><time>2026-03-29T15:01:01.873Z</time></trkpt><trkpt lat="37.687412" lon="12.7498215"><ele>65.8</ele><time>2026-03-29T15:01:02.872Z</time></trkpt><trkpt lat="37.6873487" lon="12.7497346"><ele>64.0</ele><time>2026-03-29T15:01:03.871Z</time></trkpt><trkpt lat="37.6873032" lon="12.7496301"><ele>64.0</ele><time>2026-03-29T15:01:04.873Z</time></trkpt><trkpt lat="37.6872761" lon="12.749525"><ele>64.0</ele><time>2026-03-29T15:01:05.872Z</time></trkpt><trkpt lat="37.687251" lon="12.7494092"><ele>64.0</ele><time>2026-03-29T15:01:06.872Z</time></trkpt><trkpt lat="37.6872412" lon="12.7492899"><ele>64.0</ele><time>2026-03-29T15:01:07.872Z</time></trkpt><trkpt lat="37.6872304" lon="12.7491736"><ele>64.0</ele><time>2026-03-29T15:01:08.871Z</time></trkpt><trkpt lat="37.6872205" lon="12.74906"><ele>61.800000000000004</ele><time>2026-03-29T15:01:09.873Z</time></trkpt><trkpt lat="37.6872009" lon="12.748903"><ele>59.60000000000001</ele><time>2026-03-29T15:01:10.872Z</time></trkpt><trkpt lat="37.687189" lon="12.7487547"><ele>57.4</ele><time>2026-03-29T15:01:11.872Z</time></trkpt><trkpt lat="37.6871782" lon="12.7486079"><ele>55.2</ele><time>2026-03-29T15:01:12.871Z</time></trkpt><trkpt lat="37.6871783" lon="12.7484964"><ele>53.0</ele><time>2026-03-29T15:01:13.872Z</time></trkpt><trkpt lat="37.6871951" lon="12.7483761"><ele>52.5</ele><time>2026-03-29T15:01:14.873Z</time></trkpt><trkpt lat="37.6872198" lon="12.7482684"><ele>52.0</ele><time>2026-03-29T15:01:15.872Z</time></trkpt><trkpt lat="37.6872618" lon="12.7481619"><ele>51.5</ele><time>2026-03-29T15:01:16.874Z</time></trkpt><trkpt lat="37.6873403" lon="12.7480485"><ele>51.0</ele><time>2026-03-29T15:01:17.872Z</time></trkpt><trkpt lat="37.6874389" lon="12.7479063"><ele>51.0</ele><time>2026-03-29T15:01:18.872Z</time></trkpt><trkpt lat="37.6875387" lon="12.747775"><ele>51.0</ele><time>2026-03-29T15:01:19.872Z</time></trkpt><trkpt lat="37.6876239" lon="12.7476531"><ele>51.0</ele><time>2026-03-29T15:01:20.872Z</time></trkpt><trkpt lat="37.687715" lon="12.7475292"><ele>51.0</ele><time>2026-03-29T15:01:21.871Z</time></trkpt><trkpt lat="37.687794" lon="12.7474071"><ele>50.75</ele><time>2026-03-29T15:01:22.871Z</time></trkpt><trkpt lat="37.6878747" lon="12.747294"><ele>50.5</ele><time>2026-03-29T15:01:23.872Z</time></trkpt><trkpt lat="37.6879548" lon="12.7471803"><ele>50.25</ele><time>2026-03-29T15:01:24.872Z</time></trkpt><trkpt lat="37.6880339" lon="12.7470655"><ele>50.0</ele><time>2026-03-29T15:01:25.872Z</time></trkpt><trkpt lat="37.688112" lon="12.7469523"><ele>49.75</ele><time>2026-03-29T15:01:26.872Z</time></trkpt><trkpt lat="37.6881868" lon="12.7468375"><ele>49.5</ele><time>2026-03-29T15:01:27.872Z</time></trkpt><trkpt lat="37.6882754" lon="12.7466985"><ele>49.25</ele><time>2026-03-29T15:01:28.873Z</time></trkpt><trkpt lat="37.6883526" lon="12.7465859"><ele>49.0</ele><time>2026-03-29T15:01:29.871Z</time></trkpt><trkpt lat="37.6884189" lon="12.746492"><ele>49.0</ele><time>2026-03-29T15:01:30.874Z</time></trkpt><trkpt lat="37.6884764" lon="12.7464201"><ele>49.0</ele><time>2026-03-29T15:01:31.871Z</time></trkpt><trkpt lat="37.6885264" lon="12.746364"><ele>49.0</ele><time>2026-03-29T15:01:32.872Z</time></trkpt><trkpt lat="37.6885947" lon="12.7462957"><ele>49.0</ele><time>2026-03-29T15:01:34.872Z</time></trkpt><trkpt lat="37.6886788" lon="12.7463607"><ele>49.0</ele><time>2026-03-29T15:01:38.872Z</time></trkpt><trkpt lat="37.6887391" lon="12.7465112"><ele>50.2</ele><time>2026-03-29T15:01:40.873Z</time></trkpt><trkpt lat="37.688785" lon="12.746585"><ele>51.400000000000006</ele><time>2026-03-29T15:01:41.873Z</time></trkpt><trkpt lat="37.6888432" lon="12.7466517"><ele>52.6</ele><time>2026-03-29T15:01:42.873Z</time></trkpt><trkpt lat="37.6889214" lon="12.7467086"><ele>53.8</ele><time>2026-03-29T15:01:43.872Z</time></trkpt><trkpt lat="37.6890325" lon="12.7467775"><ele>55.0</ele><time>2026-03-29T15:01:44.873Z</time></trkpt><trkpt lat="37.6891239" lon="12.74685"><ele>54.166666666666664</ele><time>2026-03-29T15:01:45.872Z</time></trkpt><trkpt lat="37.6891831" lon="12.7469292"><ele>53.33333333333333</ele><time>2026-03-29T15:01:46.873Z</time></trkpt><trkpt lat="37.6892393" lon="12.7469955"><ele>52.5</ele><time>2026-03-29T15:01:47.872Z</time></trkpt><trkpt lat="37.6893076" lon="12.7470911"><ele>51.66666666666667</ele><time>2026-03-29T15:01:48.873Z</time></trkpt><trkpt lat="37.6893603" lon="12.747165"><ele>50.833333333333336</ele><time>2026-03-29T15:01:49.873Z</time></trkpt><trkpt lat="37.689404" lon="12.7472339"><ele>50.0</ele><time>2026-03-29T15:01:50.873Z</time></trkpt><trkpt lat="37.6894586" lon="12.7472848"><ele>52.00000000000001</ele><time>2026-03-29T15:01:52.873Z</time></trkpt><trkpt lat="37.6895429" lon="12.7472488"><ele>54.0</ele><time>2026-03-29T15:01:54.872Z</time></trkpt><trkpt lat="37.6896111" lon="12.7472253"><ele>56.0</ele><time>2026-03-29T15:01:55.873Z</time></trkpt><trkpt lat="37.6896871" lon="12.7472253"><ele>58.0</ele><time>2026-03-29T15:01:56.872Z</time></trkpt><trkpt lat="37.6897664" lon="12.747252"><ele>60.00000000000001</ele><time>2026-03-29T15:01:57.872Z</time></trkpt><trkpt lat="37.6898524" lon="12.7472994"><ele>62.0</ele><time>2026-03-29T15:01:58.873Z</time></trkpt><trkpt lat="37.6899395" lon="12.7473738"><ele>62.00000000000001</ele><time>2026-03-29T15:01:59.872Z</time></trkpt><trkpt lat="37.6900098" lon="12.747429"><ele>62.0</ele><time>2026-03-29T15:02:00.873Z</time></trkpt><trkpt lat="37.690076" lon="12.747476"><ele>62.0</ele><time>2026-03-29T15:02:01.871Z</time></trkpt><trkpt lat="37.6901497" lon="12.7475097"><ele>62.0</ele><time>2026-03-29T15:02:02.874Z</time></trkpt><trkpt lat="37.6902335" lon="12.7475258"><ele>62.00000000000001</ele><time>2026-03-29T15:02:03.873Z</time></trkpt><trkpt lat="37.6903392" lon="12.7475238"><ele>62.0</ele><time>2026-03-29T15:02:04.873Z</time></trkpt><trkpt lat="37.6904495" lon="12.7475081"><ele>65.0</ele><time>2026-03-29T15:02:05.873Z</time></trkpt><trkpt lat="37.690555" lon="12.7474834"><ele>68.0</ele><time>2026-03-29T15:02:06.873Z</time></trkpt><trkpt lat="37.6906507" lon="12.7474706"><ele>71.0</ele><time>2026-03-29T15:02:07.873Z</time></trkpt><trkpt lat="37.6907532" lon="12.7474765"><ele>74.0</ele><time>2026-03-29T15:02:08.873Z</time></trkpt><trkpt lat="37.6908567" lon="12.7474857"><ele>77.0</ele><time>2026-03-29T15:02:09.872Z</time></trkpt><trkpt lat="37.6909563" lon="12.7475049"><ele>77.0</ele><time>2026-03-29T15:02:10.873Z</time></trkpt><trkpt lat="37.6910501" lon="12.7475143"><ele>77.0</ele><time>2026-03-29T15:02:11.872Z</time></trkpt><trkpt lat="37.6911295" lon="12.7475159"><ele>77.0</ele><time>2026-03-29T15:02:12.872Z</time></trkpt><trkpt lat="37.6912086" lon="12.7475067"><ele>77.0</ele><time>2026-03-29T15:02:13.871Z</time></trkpt><trkpt lat="37.6912857" lon="12.7475023"><ele>77.0</ele><time>2026-03-29T15:02:14.873Z</time></trkpt><trkpt lat="37.69136" lon="12.7474962"><ele>77.0</ele><time>2026-03-29T15:02:15.872Z</time></trkpt><trkpt lat="37.6914387" lon="12.7474948"><ele>78.83333333333334</ele><time>2026-03-29T15:02:16.871Z</time></trkpt><trkpt lat="37.691522" lon="12.7474891"><ele>80.66666666666667</ele><time>2026-03-29T15:02:17.872Z</time></trkpt><trkpt lat="37.6916075" lon="12.7474816"><ele>82.5</ele><time>2026-03-29T15:02:18.873Z</time></trkpt><trkpt lat="37.6916916" lon="12.7474759"><ele>84.33333333333333</ele><time>2026-03-29T15:02:19.873Z</time></trkpt><trkpt lat="37.6917741" lon="12.7474729"><ele>86.16666666666666</ele><time>2026-03-29T15:02:20.874Z</time></trkpt><trkpt lat="37.6918463" lon="12.7474687"><ele>88.0</ele><time>2026-03-29T15:02:21.871Z</time></trkpt><trkpt lat="37.6919104" lon="12.7474759"><ele>90.0</ele><time>2026-03-29T15:02:22.874Z</time></trkpt><trkpt lat="37.6920167" lon="12.7475302"><ele>92.0</ele><time>2026-03-29T15:02:24.874Z</time></trkpt><trkpt lat="37.692105" lon="12.7475979"><ele>94.0</ele><time>2026-03-29T15:02:26.873Z</time></trkpt><trkpt lat="37.6921786" lon="12.7476194"><ele>96.0</ele><time>2026-03-29T15:02:28.871Z</time></trkpt><trkpt lat="37.6922387" lon="12.7476478"><ele>98.00000000000001</ele><time>2026-03-29T15:02:30.872Z</time></trkpt><trkpt lat="37.692309" lon="12.7476117"><ele>100.0</ele><time>2026-03-29T15:02:33.873Z</time></trkpt><trkpt lat="37.6923738" lon="12.7475147"><ele>100.0</ele><time>2026-03-29T15:02:35.873Z</time></trkpt><trkpt lat="37.6924572" lon="12.7474318"><ele>100.0</ele><time>2026-03-29T15:02:37.873Z</time></trkpt><trkpt lat="37.6925445" lon="12.7473282"><ele>100.0</ele><time>2026-03-29T15:02:39.871Z</time></trkpt><trkpt lat="37.6926411" lon="12.7472175"><ele>100.0</ele><time>2026-03-29T15:02:41.872Z</time></trkpt><trkpt lat="37.6926941" lon="12.7471504"><ele>100.0</ele><time>2026-03-29T15:02:42.872Z</time></trkpt><trkpt lat="37.6927944" lon="12.7470519"><ele>101.6</ele><time>2026-03-29T15:02:44.872Z</time></trkpt><trkpt lat="37.6928897" lon="12.7469545"><ele>103.2</ele><time>2026-03-29T15:02:46.872Z</time></trkpt><trkpt lat="37.6929371" lon="12.7468911"><ele>104.80000000000001</ele><time>2026-03-29T15:02:47.871Z</time></trkpt><trkpt lat="37.6929971" lon="12.7468077"><ele>106.4</ele><time>2026-03-29T15:02:49.871Z</time></trkpt><trkpt lat="37.6930712" lon="12.7467686"><ele>108.0</ele><time>2026-03-29T15:02:51.872Z</time></trkpt><trkpt lat="37.6931839" lon="12.7468105"><ele>108.0</ele><time>2026-03-29T15:02:53.872Z</time></trkpt><trkpt lat="37.6932614" lon="12.7468585"><ele>108.0</ele><time>2026-03-29T15:02:54.872Z</time></trkpt><trkpt lat="37.6933633" lon="12.7469146"><ele>108.0</ele><time>2026-03-29T15:02:55.872Z</time></trkpt><trkpt lat="37.6935205" lon="12.7469938"><ele>108.0</ele><time>2026-03-29T15:02:56.872Z</time></trkpt><trkpt lat="37.693647" lon="12.7470574"><ele>108.5</ele><time>2026-03-29T15:02:57.873Z</time></trkpt><trkpt lat="37.693787" lon="12.7471216"><ele>109.0</ele><time>2026-03-29T15:02:58.872Z</time></trkpt><trkpt lat="37.6939159" lon="12.7471836"><ele>109.5</ele><time>2026-03-29T15:02:59.874Z</time></trkpt><trkpt lat="37.6940265" lon="12.7472366"><ele>110.0</ele><time>2026-03-29T15:03:00.873Z</time></trkpt><trkpt lat="37.6941338" lon="12.7472914"><ele>110.0</ele><time>2026-03-29T15:03:01.871Z</time></trkpt><trkpt lat="37.6942349" lon="12.7473462"><ele>110.0</ele><time>2026-03-29T15:03:02.872Z</time></trkpt><trkpt lat="37.6943239" lon="12.7473956"><ele>110.0</ele><time>2026-03-29T15:03:03.873Z</time></trkpt><trkpt lat="37.6944103" lon="12.7474529"><ele>110.0</ele><time>2026-03-29T15:03:04.872Z</time></trkpt><trkpt lat="37.6944947" lon="12.7475043"><ele>110.0</ele><time>2026-03-29T15:03:05.873Z</time></trkpt><trkpt lat="37.6945824" lon="12.7475487"><ele>110.83333333333333</ele><time>2026-03-29T15:03:06.872Z</time></trkpt><trkpt lat="37.6946552" lon="12.7475859"><ele>111.66666666666666</ele><time>2026-03-29T15:03:07.874Z</time></trkpt><trkpt lat="37.694734" lon="12.7476208"><ele>112.5</ele><time>2026-03-29T15:03:08.872Z</time></trkpt><trkpt lat="37.6948185" lon="12.7476492"><ele>113.33333333333334</ele><time>2026-03-29T15:03:09.874Z</time></trkpt><trkpt lat="37.6949068" lon="12.747668"><ele>114.16666666666667</ele><time>2026-03-29T15:03:10.872Z</time></trkpt><trkpt lat="37.6950017" lon="12.7476801"><ele>115.0</ele><time>2026-03-29T15:03:11.873Z</time></trkpt><trkpt lat="37.6950941" lon="12.7476788"><ele>115.0</ele><time>2026-03-29T15:03:12.871Z</time></trkpt><trkpt lat="37.6951834" lon="12.7476636"><ele>115.0</ele><time>2026-03-29T15:03:13.873Z</time></trkpt><trkpt lat="37.6952674" lon="12.7476266"><ele>115.0</ele><time>2026-03-29T15:03:14.873Z</time></trkpt><trkpt lat="37.6953497" lon="12.7475756"><ele>115.0</ele><time>2026-03-29T15:03:15.871Z</time></trkpt><trkpt lat="37.6954361" lon="12.7475098"><ele>115.0</ele><time>2026-03-29T15:03:16.872Z</time></trkpt><trkpt lat="37.6955274" lon="12.7474437"><ele>113.25</ele><time>2026-03-29T15:03:17.873Z</time></trkpt><trkpt lat="37.6956181" lon="12.747365"><ele>111.5</ele><time>2026-03-29T15:03:18.873Z</time></trkpt><trkpt lat="37.6957333" lon="12.7472609"><ele>109.75</ele><time>2026-03-29T15:03:19.872Z</time></trkpt><trkpt lat="37.6958492" lon="12.7471572"><ele>108.0</ele><time>2026-03-29T15:03:20.873Z</time></trkpt><trkpt lat="37.6959715" lon="12.747042"><ele>109.0</ele><time>2026-03-29T15:03:21.872Z</time></trkpt><trkpt lat="37.6961033" lon="12.7469044"><ele>110.0</ele><time>2026-03-29T15:03:22.873Z</time></trkpt><trkpt lat="37.6962127" lon="12.7467704"><ele>111.0</ele><time>2026-03-29T15:03:23.874Z</time></trkpt><trkpt lat="37.6963381" lon="12.7466056"><ele>111.0</ele><time>2026-03-29T15:03:24.872Z</time></trkpt><trkpt lat="37.6964911" lon="12.7464051"><ele>111.0</ele><time>2026-03-29T15:03:25.873Z</time></trkpt><trkpt lat="37.6966638" lon="12.746182"><ele>114.5</ele><time>2026-03-29T15:03:26.872Z</time></trkpt><trkpt lat="37.6968614" lon="12.7459344"><ele>118.0</ele><time>2026-03-29T15:03:27.872Z</time></trkpt><trkpt lat="37.6970394" lon="12.7457066"><ele>114.33333333333334</ele><time>2026-03-29T15:03:28.873Z</time></trkpt><trkpt lat="37.6971886" lon="12.745522"><ele>110.66666666666666</ele><time>2026-03-29T15:03:29.873Z</time></trkpt><trkpt lat="37.6973294" lon="12.7453437"><ele>107.0</ele><time>2026-03-29T15:03:30.872Z</time></trkpt><trkpt lat="37.6974511" lon="12.745194"><ele>107.0</ele><time>2026-03-29T15:03:31.872Z</time></trkpt><trkpt lat="37.6975328" lon="12.745084"><ele>106.99999999999999</ele><time>2026-03-29T15:03:32.872Z</time></trkpt><trkpt lat="37.6976064" lon="12.7449918"><ele>106.99999999999999</ele><time>2026-03-29T15:03:33.872Z</time></trkpt><trkpt lat="37.6976564" lon="12.744918"><ele>107.0</ele><time>2026-03-29T15:03:34.872Z</time></trkpt><trkpt lat="37.6977151" lon="12.7448251"><ele>107.0</ele><time>2026-03-29T15:03:36.872Z</time></trkpt><trkpt lat="37.6977489" lon="12.7447572"><ele>107.66666666666666</ele><time>2026-03-29T15:03:39.873Z</time></trkpt><trkpt lat="37.6978057" lon="12.7447065"><ele>108.33333333333333</ele><time>2026-03-29T15:04:47.873Z</time></trkpt><trkpt lat="37.6978251" lon="12.744604"><ele>109.0</ele><time>2026-03-29T15:04:49.872Z</time></trkpt><trkpt lat="37.6978184" lon="12.7444706"><ele>109.66666666666666</ele><time>2026-03-29T15:04:51.871Z</time></trkpt><trkpt lat="37.6978166" lon="12.7443777"><ele>110.33333333333333</ele><time>2026-03-29T15:04:52.873Z</time></trkpt><trkpt lat="37.6978228" lon="12.7442758"><ele>111.0</ele><time>2026-03-29T15:04:53.873Z</time></trkpt><trkpt lat="37.6978343" lon="12.74416"><ele>111.0</ele><time>2026-03-29T15:04:54.873Z</time></trkpt><trkpt lat="37.6978772" lon="12.7440334"><ele>111.0</ele><time>2026-03-29T15:04:55.873Z</time></trkpt><trkpt lat="37.6979262" lon="12.7439068"><ele>111.0</ele><time>2026-03-29T15:04:56.872Z</time></trkpt><trkpt lat="37.6979728" lon="12.7437804"><ele>111.0</ele><time>2026-03-29T15:04:57.873Z</time></trkpt><trkpt lat="37.6980222" lon="12.7436541"><ele>111.0</ele><time>2026-03-29T15:04:58.872Z</time></trkpt><trkpt lat="37.6980735" lon="12.7435166"><ele>113.8</ele><time>2026-03-29T15:04:59.874Z</time></trkpt><trkpt lat="37.6981359" lon="12.7433689"><ele>116.6</ele><time>2026-03-29T15:05:00.873Z</time></trkpt><trkpt lat="37.6981925" lon="12.7432562"><ele>119.4</ele><time>2026-03-29T15:05:01.872Z</time></trkpt><trkpt lat="37.698261" lon="12.7431549"><ele>122.2</ele><time>2026-03-29T15:05:02.874Z</time></trkpt><trkpt lat="37.6983406" lon="12.7430676"><ele>125.0</ele><time>2026-03-29T15:05:03.873Z</time></trkpt><trkpt lat="37.6984321" lon="12.7430023"><ele>125.0</ele><time>2026-03-29T15:05:04.871Z</time></trkpt><trkpt lat="37.6985143" lon="12.7429461"><ele>125.0</ele><time>2026-03-29T15:05:05.872Z</time></trkpt><trkpt lat="37.6986175" lon="12.7428981"><ele>125.0</ele><time>2026-03-29T15:05:06.871Z</time></trkpt><trkpt lat="37.6987129" lon="12.7428824"><ele>125.0</ele><time>2026-03-29T15:05:07.873Z</time></trkpt><trkpt lat="37.6988088" lon="12.7428656"><ele>125.0</ele><time>2026-03-29T15:05:08.872Z</time></trkpt><trkpt lat="37.6989078" lon="12.7428473"><ele>125.49999999999999</ele><time>2026-03-29T15:05:09.872Z</time></trkpt><trkpt lat="37.6989899" lon="12.7428318"><ele>126.0</ele><time>2026-03-29T15:05:10.872Z</time></trkpt><trkpt lat="37.6990535" lon="12.7428104"><ele>126.5</ele><time>2026-03-29T15:05:11.872Z</time></trkpt><trkpt lat="37.6991233" lon="12.7427829"><ele>127.0</ele><time>2026-03-29T15:05:13.873Z</time></trkpt><trkpt lat="37.6991483" lon="12.7426927"><ele>127.49999999999999</ele><time>2026-03-29T15:08:15.873Z</time></trkpt><trkpt lat="37.6991236" lon="12.7425684"><ele>128.0</ele><time>2026-03-29T15:08:17.871Z</time></trkpt><trkpt lat="37.6990794" lon="12.7424819"><ele>129.20000000000002</ele><time>2026-03-29T15:08:19.873Z</time></trkpt><trkpt lat="37.6990328" lon="12.7424144"><ele>130.4</ele><time>2026-03-29T15:08:21.872Z</time></trkpt><trkpt lat="37.6989378" lon="12.7423033"><ele>131.60000000000002</ele><time>2026-03-29T15:08:23.872Z</time></trkpt><trkpt lat="37.6988452" lon="12.7422053"><ele>132.8</ele><time>2026-03-29T15:08:25.873Z</time></trkpt><trkpt lat="37.6987834" lon="12.7421248"><ele>134.0</ele><time>2026-03-29T15:08:27.873Z</time></trkpt><trkpt lat="37.698745" lon="12.7420543"><ele>134.0</ele><time>2026-03-29T15:08:29.873Z</time></trkpt><trkpt lat="37.6986965" lon="12.7419864"><ele>134.0</ele><time>2026-03-29T15:08:31.872Z</time></trkpt><trkpt lat="37.6986586" lon="12.7419194"><ele>134.0</ele><time>2026-03-29T15:08:33.873Z</time></trkpt><trkpt lat="37.6986471" lon="12.7418077"><ele>134.0</ele><time>2026-03-29T15:08:35.872Z</time></trkpt><trkpt lat="37.6986295" lon="12.7416949"><ele>134.0</ele><time>2026-03-29T15:08:37.873Z</time></trkpt><trkpt lat="37.6986145" lon="12.7415813"><ele>134.0</ele><time>2026-03-29T15:08:39.872Z</time></trkpt><trkpt lat="37.6985923" lon="12.7414724"><ele>134.8</ele><time>2026-03-29T15:08:41.873Z</time></trkpt><trkpt lat="37.698582" lon="12.7413647"><ele>135.60000000000002</ele><time>2026-03-29T15:08:43.871Z</time></trkpt><trkpt lat="37.6985753" lon="12.7412418"><ele>136.4</ele><time>2026-03-29T15:08:45.872Z</time></trkpt><trkpt lat="37.6985803" lon="12.7411049"><ele>137.20000000000002</ele><time>2026-03-29T15:08:47.874Z</time></trkpt><trkpt lat="37.6985785" lon="12.7409655"><ele>138.0</ele><time>2026-03-29T15:08:49.873Z</time></trkpt><trkpt lat="37.6985802" lon="12.7408332"><ele>136.20000000000002</ele><time>2026-03-29T15:08:51.873Z</time></trkpt><trkpt lat="37.6985715" lon="12.7407028"><ele>134.4</ele><time>2026-03-29T15:08:53.872Z</time></trkpt><trkpt lat="37.6985666" lon="12.7405616"><ele>132.60000000000002</ele><time>2026-03-29T15:08:55.873Z</time></trkpt><trkpt lat="37.698577" lon="12.7404217"><ele>130.8</ele><time>2026-03-29T15:08:57.872Z</time></trkpt><trkpt lat="37.6985845" lon="12.7402835"><ele>129.0</ele><time>2026-03-29T15:08:59.873Z</time></trkpt><trkpt lat="37.6985835" lon="12.7401641"><ele>128.16666666666666</ele><time>2026-03-29T15:09:01.873Z</time></trkpt><trkpt lat="37.6985704" lon="12.740079"><ele>127.33333333333334</ele><time>2026-03-29T15:09:03.873Z</time></trkpt><trkpt lat="37.6985564" lon="12.7399661"><ele>126.5</ele><time>2026-03-29T15:09:06.872Z</time></trkpt><trkpt lat="37.6985446" lon="12.7398673"><ele>125.66666666666667</ele><time>2026-03-29T15:09:08.871Z</time></trkpt><trkpt lat="37.6985096" lon="12.7397538"><ele>124.83333333333334</ele><time>2026-03-29T15:09:10.871Z</time></trkpt><trkpt lat="37.6984512" lon="12.7396479"><ele>124.0</ele><time>2026-03-29T15:09:12.873Z</time></trkpt><trkpt lat="37.6984006" lon="12.7395265"><ele>124.0</ele><time>2026-03-29T15:09:14.872Z</time></trkpt><trkpt lat="37.6983596" lon="12.739399"><ele>124.0</ele><time>2026-03-29T15:09:16.873Z</time></trkpt><trkpt lat="37.6983248" lon="12.7392769"><ele>124.0</ele><time>2026-03-29T15:09:18.871Z</time></trkpt><trkpt lat="37.6982945" lon="12.7391619"><ele>124.0</ele><time>2026-03-29T15:09:20.871Z</time></trkpt><trkpt lat="37.6982742" lon="12.7390509"><ele>124.0</ele><time>2026-03-29T15:09:22.872Z</time></trkpt><trkpt lat="37.6982518" lon="12.738965"><ele>124.4</ele><time>2026-03-29T15:09:24.872Z</time></trkpt><trkpt lat="37.6982386" lon="12.7388623"><ele>124.80000000000001</ele><time>2026-03-29T15:09:26.871Z</time></trkpt><trkpt lat="37.698185" lon="12.7387052"><ele>125.19999999999999</ele><time>2026-03-29T15:09:28.872Z</time></trkpt><trkpt lat="37.6981225" lon="12.7385741"><ele>125.6</ele><time>2026-03-29T15:09:29.873Z</time></trkpt><trkpt lat="37.6980654" lon="12.7384543"><ele>126.0</ele><time>2026-03-29T15:09:30.871Z</time></trkpt><trkpt lat="37.698019" lon="12.7383321"><ele>126.25</ele><time>2026-03-29T15:09:31.872Z</time></trkpt><trkpt lat="37.6979799" lon="12.7382103"><ele>126.5</ele><time>2026-03-29T15:09:32.872Z</time></trkpt><trkpt lat="37.6979458" lon="12.738072"><ele>126.75</ele><time>2026-03-29T15:09:33.871Z</time></trkpt><trkpt lat="37.69791" lon="12.7379261"><ele>127.0</ele><time>2026-03-29T15:09:34.872Z</time></trkpt><trkpt lat="37.69788" lon="12.7377812"><ele>126.25</ele><time>2026-03-29T15:09:35.872Z</time></trkpt><trkpt lat="37.6978515" lon="12.7376427"><ele>125.5</ele><time>2026-03-29T15:09:36.871Z</time></trkpt><trkpt lat="37.6978206" lon="12.7375071"><ele>124.75</ele><time>2026-03-29T15:09:37.872Z</time></trkpt><trkpt lat="37.6977924" lon="12.7373699"><ele>124.0</ele><time>2026-03-29T15:09:38.873Z</time></trkpt><trkpt lat="37.6977612" lon="12.7372292"><ele>123.6</ele><time>2026-03-29T15:09:39.871Z</time></trkpt><trkpt lat="37.6977302" lon="12.7370913"><ele>123.2</ele><time>2026-03-29T15:09:40.871Z</time></trkpt><trkpt lat="37.6977048" lon="12.7369657"><ele>122.79999999999998</ele><time>2026-03-29T15:09:41.872Z</time></trkpt><trkpt lat="37.6976789" lon="12.7368543"><ele>122.39999999999999</ele><time>2026-03-29T15:09:42.873Z</time></trkpt><trkpt lat="37.6976622" lon="12.7367669"><ele>122.0</ele><time>2026-03-29T15:09:43.872Z</time></trkpt><trkpt lat="37.6976743" lon="12.7366343"><ele>122.0</ele><time>2026-03-29T15:09:45.873Z</time></trkpt><trkpt lat="37.6977467" lon="12.7364923"><ele>122.0</ele><time>2026-03-29T15:09:47.873Z</time></trkpt><trkpt lat="37.6978412" lon="12.7363729"><ele>122.0</ele><time>2026-03-29T15:09:48.872Z</time></trkpt><trkpt lat="37.6979291" lon="12.7362768"><ele>122.0</ele><time>2026-03-29T15:09:49.872Z</time></trkpt><trkpt lat="37.6980232" lon="12.7361955"><ele>122.8</ele><time>2026-03-29T15:09:50.872Z</time></trkpt><trkpt lat="37.6981259" lon="12.7361208"><ele>123.6</ele><time>2026-03-29T15:09:51.873Z</time></trkpt><trkpt lat="37.6982261" lon="12.736052"><ele>124.39999999999999</ele><time>2026-03-29T15:09:52.872Z</time></trkpt><trkpt lat="37.6983176" lon="12.7360013"><ele>125.19999999999999</ele><time>2026-03-29T15:09:53.872Z</time></trkpt><trkpt lat="37.6984106" lon="12.7359539"><ele>126.0</ele><time>2026-03-29T15:09:54.873Z</time></trkpt><trkpt lat="37.6984904" lon="12.7359157"><ele>125.33333333333333</ele><time>2026-03-29T15:09:55.872Z</time></trkpt><trkpt lat="37.6985651" lon="12.7358766"><ele>124.66666666666666</ele><time>2026-03-29T15:09:56.872Z</time></trkpt><trkpt lat="37.6986229" lon="12.7358303"><ele>124.0</ele><time>2026-03-29T15:09:57.873Z</time></trkpt><trkpt lat="37.6986842" lon="12.735786"><ele>123.33333333333333</ele><time>2026-03-29T15:09:58.872Z</time></trkpt><trkpt lat="37.698777" lon="12.7356685"><ele>122.66666666666666</ele><time>2026-03-29T15:10:00.872Z</time></trkpt><trkpt lat="37.6988253" lon="12.7355948"><ele>122.0</ele><time>2026-03-29T15:10:01.872Z</time></trkpt><trkpt lat="37.6988831" lon="12.7355254"><ele>121.99999999999999</ele><time>2026-03-29T15:10:02.873Z</time></trkpt><trkpt lat="37.6989357" lon="12.735452"><ele>122.0</ele><time>2026-03-29T15:10:03.873Z</time></trkpt><trkpt lat="37.6989869" lon="12.7353715"><ele>122.0</ele><time>2026-03-29T15:10:04.873Z</time></trkpt><trkpt lat="37.6990312" lon="12.7352907"><ele>122.0</ele><time>2026-03-29T15:10:05.873Z</time></trkpt><trkpt lat="37.6990708" lon="12.7352064"><ele>121.99999999999999</ele><time>2026-03-29T15:10:06.872Z</time></trkpt><trkpt lat="37.6990985" lon="12.7351045"><ele>122.0</ele><time>2026-03-29T15:10:07.872Z</time></trkpt><trkpt lat="37.699115" lon="12.734996"><ele>120.42857142857142</ele><time>2026-03-29T15:10:08.872Z</time></trkpt><trkpt lat="37.6991248" lon="12.7349002"><ele>118.85714285714286</ele><time>2026-03-29T15:10:09.873Z</time></trkpt><trkpt lat="37.699129" lon="12.7348096"><ele>117.28571428571428</ele><time>2026-03-29T15:10:10.872Z</time></trkpt><trkpt lat="37.6991243" lon="12.7347289"><ele>115.71428571428571</ele><time>2026-03-29T15:10:11.872Z</time></trkpt><trkpt lat="37.6991046" lon="12.7346508"><ele>114.14285714285714</ele><time>2026-03-29T15:10:12.872Z</time></trkpt><trkpt lat="37.6990727" lon="12.7345717"><ele>112.57142857142857</ele><time>2026-03-29T15:10:13.872Z</time></trkpt><trkpt lat="37.6990357" lon="12.7345006"><ele>111.0</ele><time>2026-03-29T15:10:14.873Z</time></trkpt><trkpt lat="37.6989865" lon="12.7344407"><ele>110.66666666666667</ele><time>2026-03-29T15:10:15.872Z</time></trkpt><trkpt lat="37.6989232" lon="12.7343802"><ele>110.33333333333334</ele><time>2026-03-29T15:10:16.872Z</time></trkpt><trkpt lat="37.6988513" lon="12.7343298"><ele>110.0</ele><time>2026-03-29T15:10:17.872Z</time></trkpt><trkpt lat="37.698775" lon="12.7342927"><ele>109.66666666666667</ele><time>2026-03-29T15:10:18.871Z</time></trkpt><trkpt lat="37.6986987" lon="12.7342717"><ele>109.33333333333334</ele><time>2026-03-29T15:10:19.873Z</time></trkpt><trkpt lat="37.6986219" lon="12.7342358"><ele>109.0</ele><time>2026-03-29T15:10:20.872Z</time></trkpt><trkpt lat="37.6985435" lon="12.734199"><ele>107.66666666666667</ele><time>2026-03-29T15:10:21.873Z</time></trkpt><trkpt lat="37.6984672" lon="12.7341719"><ele>106.33333333333334</ele><time>2026-03-29T15:10:22.872Z</time></trkpt><trkpt lat="37.6983991" lon="12.7341564"><ele>105.0</ele><time>2026-03-29T15:10:23.872Z</time></trkpt><trkpt lat="37.6983313" lon="12.7341505"><ele>103.66666666666666</ele><time>2026-03-29T15:10:24.871Z</time></trkpt><trkpt lat="37.6982583" lon="12.7341605"><ele>102.33333333333333</ele><time>2026-03-29T15:10:25.873Z</time></trkpt><trkpt lat="37.698186" lon="12.7341723"><ele>101.0</ele><time>2026-03-29T15:10:26.872Z</time></trkpt><trkpt lat="37.6980986" lon="12.7341842"><ele>100.99999999999999</ele><time>2026-03-29T15:10:27.872Z</time></trkpt><trkpt lat="37.6980143" lon="12.7342049"><ele>101.0</ele><time>2026-03-29T15:10:28.871Z</time></trkpt><trkpt lat="37.6979313" lon="12.7342164"><ele>101.0</ele><time>2026-03-29T15:10:29.874Z</time></trkpt><trkpt lat="37.6978442" lon="12.734234"><ele>101.0</ele><time>2026-03-29T15:10:30.873Z</time></trkpt><trkpt lat="37.6977565" lon="12.7342553"><ele>100.99999999999999</ele><time>2026-03-29T15:10:31.872Z</time></trkpt><trkpt lat="37.6976724" lon="12.7342622"><ele>101.0</ele><time>2026-03-29T15:10:32.872Z</time></trkpt><trkpt lat="37.6975809" lon="12.7342376"><ele>99.6</ele><time>2026-03-29T15:10:33.872Z</time></trkpt><trkpt lat="37.6974941" lon="12.7342097"><ele>98.19999999999999</ele><time>2026-03-29T15:10:34.873Z</time></trkpt><trkpt lat="37.6974105" lon="12.7341598"><ele>96.80000000000001</ele><time>2026-03-29T15:10:35.872Z</time></trkpt><trkpt lat="37.6973227" lon="12.7341026"><ele>95.4</ele><time>2026-03-29T15:10:36.872Z</time></trkpt><trkpt lat="37.6972432" lon="12.7340368"><ele>94.0</ele><time>2026-03-29T15:10:37.871Z</time></trkpt><trkpt lat="37.6971619" lon="12.733972"><ele>94.0</ele><time>2026-03-29T15:10:38.871Z</time></trkpt><trkpt lat="37.6970805" lon="12.7339112"><ele>94.0</ele><time>2026-03-29T15:10:39.871Z</time></trkpt><trkpt lat="37.6970083" lon="12.7338516"><ele>94.0</ele><time>2026-03-29T15:10:40.872Z</time></trkpt><trkpt lat="37.6969454" lon="12.7337886"><ele>94.0</ele><time>2026-03-29T15:10:41.872Z</time></trkpt><trkpt lat="37.6969031" lon="12.733723"><ele>94.0</ele><time>2026-03-29T15:10:42.871Z</time></trkpt><trkpt lat="37.6968523" lon="12.7336666"><ele>94.0</ele><time>2026-03-29T15:10:43.872Z</time></trkpt><trkpt lat="37.6968106" lon="12.7335907"><ele>91.4</ele><time>2026-03-29T15:10:44.872Z</time></trkpt><trkpt lat="37.6967661" lon="12.7335272"><ele>88.80000000000001</ele><time>2026-03-29T15:10:45.872Z</time></trkpt><trkpt lat="37.6967052" lon="12.7334022"><ele>86.19999999999999</ele><time>2026-03-29T15:10:47.872Z</time></trkpt><trkpt lat="37.6966449" lon="12.7332682"><ele>83.6</ele><time>2026-03-29T15:10:49.874Z</time></trkpt><trkpt lat="37.6965996" lon="12.7331508"><ele>81.0</ele><time>2026-03-29T15:10:51.872Z</time></trkpt><trkpt lat="37.6965419" lon="12.7330493"><ele>81.0</ele><time>2026-03-29T15:10:53.872Z</time></trkpt><trkpt lat="37.6964749" lon="12.7329715"><ele>81.0</ele><time>2026-03-29T15:10:55.871Z</time></trkpt><trkpt lat="37.6963927" lon="12.7329276"><ele>81.0</ele><time>2026-03-29T15:10:57.873Z</time></trkpt><trkpt lat="37.6963013" lon="12.7328816"><ele>81.0</ele><time>2026-03-29T15:10:59.871Z</time></trkpt><trkpt lat="37.6962018" lon="12.7328424"><ele>81.0</ele><time>2026-03-29T15:11:01.872Z</time></trkpt><trkpt lat="37.6961295" lon="12.7327975"><ele>80.0</ele><time>2026-03-29T15:11:03.872Z</time></trkpt><trkpt lat="37.6960575" lon="12.7327857"><ele>79.0</ele><time>2026-03-29T15:11:05.872Z</time></trkpt><trkpt lat="37.6959753" lon="12.7327877"><ele>78.0</ele><time>2026-03-29T15:11:07.871Z</time></trkpt><trkpt lat="37.6958821" lon="12.732797"><ele>77.0</ele><time>2026-03-29T15:11:10.871Z</time></trkpt><trkpt lat="37.6958081" lon="12.7328"><ele>76.0</ele><time>2026-03-29T15:11:18.872Z</time></trkpt><trkpt lat="37.6957364" lon="12.7327842"><ele>75.0</ele><time>2026-03-29T15:11:20.871Z</time></trkpt><trkpt lat="37.6956601" lon="12.7327912"><ele>75.0</ele><time>2026-03-29T15:11:22.873Z</time></trkpt><trkpt lat="37.695578" lon="12.7328107"><ele>75.0</ele><time>2026-03-29T15:11:24.873Z</time></trkpt><trkpt lat="37.6954755" lon="12.7328378"><ele>75.0</ele><time>2026-03-29T15:11:26.873Z</time></trkpt><trkpt lat="37.6953706" lon="12.7328524"><ele>75.0</ele><time>2026-03-29T15:11:28.873Z</time></trkpt><trkpt lat="37.6952951" lon="12.7328509"><ele>75.0</ele><time>2026-03-29T15:11:30.872Z</time></trkpt><trkpt lat="37.6951892" lon="12.7328588"><ele>75.2</ele><time>2026-03-29T15:11:32.872Z</time></trkpt><trkpt lat="37.6950811" lon="12.7328727"><ele>75.4</ele><time>2026-03-29T15:11:33.872Z</time></trkpt><trkpt lat="37.6949738" lon="12.7328826"><ele>75.6</ele><time>2026-03-29T15:11:34.873Z</time></trkpt><trkpt lat="37.6948938" lon="12.7328914"><ele>75.8</ele><time>2026-03-29T15:11:35.872Z</time></trkpt><trkpt lat="37.6947937" lon="12.732859"><ele>76.0</ele><time>2026-03-29T15:11:37.872Z</time></trkpt><trkpt lat="37.6947257" lon="12.7327778"><ele>74.8</ele><time>2026-03-29T15:11:39.872Z</time></trkpt><trkpt lat="37.6947008" lon="12.7326375"><ele>73.6</ele><time>2026-03-29T15:11:41.873Z</time></trkpt><trkpt lat="37.6946988" lon="12.732477"><ele>72.4</ele><time>2026-03-29T15:11:43.873Z</time></trkpt><trkpt lat="37.6946986" lon="12.7323893"><ele>71.2</ele><time>2026-03-29T15:11:44.872Z</time></trkpt><trkpt lat="37.6946939" lon="12.7322933"><ele>70.0</ele><time>2026-03-29T15:11:45.873Z</time></trkpt><trkpt lat="37.6946864" lon="12.7321861"><ele>70.0</ele><time>2026-03-29T15:11:46.873Z</time></trkpt><trkpt lat="37.6946782" lon="12.732073"><ele>70.0</ele><time>2026-03-29T15:11:47.871Z</time></trkpt><trkpt lat="37.694653" lon="12.7319048"><ele>70.0</ele><time>2026-03-29T15:11:48.871Z</time></trkpt><trkpt lat="37.6946242" lon="12.7316989"><ele>70.0</ele><time>2026-03-29T15:11:49.873Z</time></trkpt><trkpt lat="37.694602" lon="12.7315165"><ele>68.25</ele><time>2026-03-29T15:11:50.872Z</time></trkpt><trkpt lat="37.6945819" lon="12.7313346"><ele>66.5</ele><time>2026-03-29T15:11:51.871Z</time></trkpt><trkpt lat="37.6945614" lon="12.7311689"><ele>64.75</ele><time>2026-03-29T15:11:52.872Z</time></trkpt><trkpt lat="37.6945415" lon="12.7310048"><ele>63.0</ele><time>2026-03-29T15:11:53.872Z</time></trkpt><trkpt lat="37.6945173" lon="12.7308361"><ele>62.75</ele><time>2026-03-29T15:11:54.873Z</time></trkpt><trkpt lat="37.6944899" lon="12.7306595"><ele>62.5</ele><time>2026-03-29T15:11:55.873Z</time></trkpt><trkpt lat="37.6944659" lon="12.7304741"><ele>62.25</ele><time>2026-03-29T15:11:56.871Z</time></trkpt><trkpt lat="37.6944519" lon="12.7302895"><ele>62.0</ele><time>2026-03-29T15:11:57.872Z</time></trkpt><trkpt lat="37.6944342" lon="12.7301151"><ele>61.0</ele><time>2026-03-29T15:11:58.873Z</time></trkpt><trkpt lat="37.6943998" lon="12.7299381"><ele>60.0</ele><time>2026-03-29T15:11:59.873Z</time></trkpt><trkpt lat="37.6943746" lon="12.7297623"><ele>59.0</ele><time>2026-03-29T15:12:00.872Z</time></trkpt><trkpt lat="37.6943507" lon="12.7295814"><ele>58.0</ele><time>2026-03-29T15:12:01.872Z</time></trkpt><trkpt lat="37.6943293" lon="12.7294142"><ele>57.5</ele><time>2026-03-29T15:12:02.872Z</time></trkpt><trkpt lat="37.694317" lon="12.7292511"><ele>57.0</ele><time>2026-03-29T15:12:03.873Z</time></trkpt><trkpt lat="37.6942912" lon="12.7290845"><ele>56.5</ele><time>2026-03-29T15:12:04.872Z</time></trkpt><trkpt lat="37.694265" lon="12.7289136"><ele>56.0</ele><time>2026-03-29T15:12:05.874Z</time></trkpt><trkpt lat="37.6942382" lon="12.7287402"><ele>56.0</ele><time>2026-03-29T15:12:06.871Z</time></trkpt><trkpt lat="37.6942079" lon="12.7285655"><ele>56.0</ele><time>2026-03-29T15:12:07.871Z</time></trkpt><trkpt lat="37.6941745" lon="12.7283905"><ele>56.0</ele><time>2026-03-29T15:12:08.872Z</time></trkpt><trkpt lat="37.6941321" lon="12.7282213"><ele>56.0</ele><time>2026-03-29T15:12:09.872Z</time></trkpt><trkpt lat="37.6940872" lon="12.7280723"><ele>55.25</ele><time>2026-03-29T15:12:10.871Z</time></trkpt><trkpt lat="37.6940427" lon="12.7279346"><ele>54.5</ele><time>2026-03-29T15:12:11.873Z</time></trkpt><trkpt lat="37.6939985" lon="12.7278001"><ele>53.75</ele><time>2026-03-29T15:12:12.872Z</time></trkpt><trkpt lat="37.6939531" lon="12.7276629"><ele>53.0</ele><time>2026-03-29T15:12:13.872Z</time></trkpt><trkpt lat="37.6939009" lon="12.7275238"><ele>52.75</ele><time>2026-03-29T15:12:14.871Z</time></trkpt><trkpt lat="37.6938473" lon="12.7273785"><ele>52.5</ele><time>2026-03-29T15:12:15.871Z</time></trkpt><trkpt lat="37.6937925" lon="12.7272365"><ele>52.25</ele><time>2026-03-29T15:12:16.872Z</time></trkpt><trkpt lat="37.6937437" lon="12.7270842"><ele>52.0</ele><time>2026-03-29T15:12:17.872Z</time></trkpt><trkpt lat="37.6936774" lon="12.7268928"><ele>52.0</ele><time>2026-03-29T15:12:18.872Z</time></trkpt><trkpt lat="37.6936174" lon="12.7267173"><ele>52.0</ele><time>2026-03-29T15:12:19.871Z</time></trkpt><trkpt lat="37.6935592" lon="12.7265564"><ele>52.0</ele><time>2026-03-29T15:12:20.872Z</time></trkpt><trkpt lat="37.693506" lon="12.7264117"><ele>52.0</ele><time>2026-03-29T15:12:21.872Z</time></trkpt><trkpt lat="37.6934522" lon="12.726274"><ele>51.5</ele><time>2026-03-29T15:12:22.872Z</time></trkpt><trkpt lat="37.6934078" lon="12.7261369"><ele>51.0</ele><time>2026-03-29T15:12:23.871Z</time></trkpt><trkpt lat="37.6933576" lon="12.7260033"><ele>50.5</ele><time>2026-03-29T15:12:24.872Z</time></trkpt><trkpt lat="37.6933114" lon="12.725867"><ele>50.0</ele><time>2026-03-29T15:12:25.872Z</time></trkpt><trkpt lat="37.6932612" lon="12.7257268"><ele>49.25</ele><time>2026-03-29T15:12:26.872Z</time></trkpt><trkpt lat="37.6932097" lon="12.7255829"><ele>48.5</ele><time>2026-03-29T15:12:27.872Z</time></trkpt><trkpt lat="37.6931603" lon="12.7254359"><ele>47.75</ele><time>2026-03-29T15:12:28.872Z</time></trkpt><trkpt lat="37.6931151" lon="12.7252914"><ele>47.0</ele><time>2026-03-29T15:12:29.872Z</time></trkpt><trkpt lat="37.693078" lon="12.7251468"><ele>46.5</ele><time>2026-03-29T15:12:30.873Z</time></trkpt><trkpt lat="37.693055" lon="12.7249964"><ele>46.0</ele><time>2026-03-29T15:12:31.872Z</time></trkpt><trkpt lat="37.6930447" lon="12.724845"><ele>45.5</ele><time>2026-03-29T15:12:32.871Z</time></trkpt><trkpt lat="37.6930438" lon="12.7246849"><ele>45.0</ele><time>2026-03-29T15:12:33.872Z</time></trkpt><trkpt lat="37.6930512" lon="12.7245191"><ele>45.0</ele><time>2026-03-29T15:12:34.873Z</time></trkpt><trkpt lat="37.6930633" lon="12.7243551"><ele>45.0</ele><time>2026-03-29T15:12:35.873Z</time></trkpt><trkpt lat="37.6930775" lon="12.7241866"><ele>45.0</ele><time>2026-03-29T15:12:36.873Z</time></trkpt><trkpt lat="37.6930927" lon="12.7240123"><ele>45.0</ele><time>2026-03-29T15:12:37.873Z</time></trkpt><trkpt lat="37.6931115" lon="12.723799"><ele>45.5</ele><time>2026-03-29T15:12:38.872Z</time></trkpt><trkpt lat="37.6931372" lon="12.7235247"><ele>46.0</ele><time>2026-03-29T15:12:39.873Z</time></trkpt><trkpt lat="37.6931651" lon="12.7232163"><ele>46.0</ele><time>2026-03-29T15:12:40.871Z</time></trkpt><trkpt lat="37.6931987" lon="12.7228662"><ele>46.0</ele><time>2026-03-29T15:12:41.872Z</time></trkpt><trkpt lat="37.69323" lon="12.7224956"><ele>45.5</ele><time>2026-03-29T15:12:42.873Z</time></trkpt><trkpt lat="37.6932669" lon="12.7221013"><ele>45.0</ele><time>2026-03-29T15:12:43.873Z</time></trkpt><trkpt lat="37.6933083" lon="12.7216894"><ele>44.0</ele><time>2026-03-29T15:12:44.871Z</time></trkpt><trkpt lat="37.6933492" lon="12.7212707"><ele>43.0</ele><time>2026-03-29T15:12:45.872Z</time></trkpt><trkpt lat="37.6933868" lon="12.7208652"><ele>42.5</ele><time>2026-03-29T15:12:46.872Z</time></trkpt><trkpt lat="37.6934207" lon="12.720504"><ele>42.0</ele><time>2026-03-29T15:12:47.873Z</time></trkpt><trkpt lat="37.6934507" lon="12.7201665"><ele>42.0</ele><time>2026-03-29T15:12:48.871Z</time></trkpt><trkpt lat="37.6934805" lon="12.7198647"><ele>42.0</ele><time>2026-03-29T15:12:49.872Z</time></trkpt><trkpt lat="37.6935084" lon="12.7195825"><ele>41.333333333333336</ele><time>2026-03-29T15:12:50.872Z</time></trkpt><trkpt lat="37.6935322" lon="12.7193203"><ele>40.66666666666667</ele><time>2026-03-29T15:12:51.871Z</time></trkpt><trkpt lat="37.6935612" lon="12.7190515"><ele>40.0</ele><time>2026-03-29T15:12:52.872Z</time></trkpt><trkpt lat="37.6935804" lon="12.7188027"><ele>39.66666666666667</ele><time>2026-03-29T15:12:53.872Z</time></trkpt><trkpt lat="37.6936073" lon="12.7185529"><ele>39.333333333333336</ele><time>2026-03-29T15:12:54.873Z</time></trkpt><trkpt lat="37.6936322" lon="12.7182992"><ele>39.0</ele><time>2026-03-29T15:12:55.873Z</time></trkpt><trkpt lat="37.6936572" lon="12.7180508"><ele>39.0</ele><time>2026-03-29T15:12:56.872Z</time></trkpt><trkpt lat="37.6936821" lon="12.7178002"><ele>39.0</ele><time>2026-03-29T15:12:57.873Z</time></trkpt><trkpt lat="37.6937054" lon="12.7175511"><ele>39.0</ele><time>2026-03-29T15:12:58.871Z</time></trkpt><trkpt lat="37.693728" lon="12.7173003"><ele>38.5</ele><time>2026-03-29T15:12:59.872Z</time></trkpt><trkpt lat="37.6937553" lon="12.7170032"><ele>38.0</ele><time>2026-03-29T15:13:00.873Z</time></trkpt><trkpt lat="37.6937932" lon="12.7166734"><ele>38.0</ele><time>2026-03-29T15:13:01.872Z</time></trkpt><trkpt lat="37.6938279" lon="12.7163145"><ele>38.0</ele><time>2026-03-29T15:13:02.873Z</time></trkpt><trkpt lat="37.693864" lon="12.7159187"><ele>38.0</ele><time>2026-03-29T15:13:03.873Z</time></trkpt><trkpt lat="37.6938993" lon="12.7155159"><ele>38.0</ele><time>2026-03-29T15:13:04.872Z</time></trkpt><trkpt lat="37.6939379" lon="12.7150982"><ele>38.0</ele><time>2026-03-29T15:13:05.872Z</time></trkpt><trkpt lat="37.6939771" lon="12.714675"><ele>38.0</ele><time>2026-03-29T15:13:06.873Z</time></trkpt><trkpt lat="37.6940162" lon="12.7142744"><ele>37.0</ele><time>2026-03-29T15:13:07.872Z</time></trkpt><trkpt lat="37.6940531" lon="12.713921"><ele>36.0</ele><time>2026-03-29T15:13:08.872Z</time></trkpt><trkpt lat="37.6940841" lon="12.7135959"><ele>35.666666666666664</ele><time>2026-03-29T15:13:09.872Z</time></trkpt><trkpt lat="37.6941077" lon="12.713303"><ele>35.33333333333333</ele><time>2026-03-29T15:13:10.873Z</time></trkpt><trkpt lat="37.6941297" lon="12.713042"><ele>35.0</ele><time>2026-03-29T15:13:11.873Z</time></trkpt><trkpt lat="37.6941452" lon="12.7127996"><ele>35.33333333333333</ele><time>2026-03-29T15:13:12.872Z</time></trkpt><trkpt lat="37.6941701" lon="12.7125697"><ele>35.666666666666664</ele><time>2026-03-29T15:13:13.871Z</time></trkpt><trkpt lat="37.6941915" lon="12.7123579"><ele>36.0</ele><time>2026-03-29T15:13:14.871Z</time></trkpt><trkpt lat="37.6942128" lon="12.7121521"><ele>36.0</ele><time>2026-03-29T15:13:15.873Z</time></trkpt><trkpt lat="37.6942349" lon="12.7119622"><ele>36.0</ele><time>2026-03-29T15:13:16.872Z</time></trkpt><trkpt lat="37.6942543" lon="12.7117925"><ele>36.0</ele><time>2026-03-29T15:13:17.872Z</time></trkpt><trkpt lat="37.6942707" lon="12.7116323"><ele>36.0</ele><time>2026-03-29T15:13:18.873Z</time></trkpt><trkpt lat="37.6942863" lon="12.7114818"><ele>36.0</ele><time>2026-03-29T15:13:19.872Z</time></trkpt><trkpt lat="37.6942982" lon="12.7113462"><ele>36.0</ele><time>2026-03-29T15:13:20.873Z</time></trkpt><trkpt lat="37.6943062" lon="12.7112141"><ele>36.0</ele><time>2026-03-29T15:13:21.871Z</time></trkpt><trkpt lat="37.6943147" lon="12.7110919"><ele>36.0</ele><time>2026-03-29T15:13:22.873Z</time></trkpt><trkpt lat="37.6943232" lon="12.7109759"><ele>36.0</ele><time>2026-03-29T15:13:23.873Z</time></trkpt><trkpt lat="37.6943217" lon="12.7108724"><ele>36.0</ele><time>2026-03-29T15:13:24.872Z</time></trkpt><trkpt lat="37.6943187" lon="12.7107677"><ele>36.0</ele><time>2026-03-29T15:13:25.872Z</time></trkpt><trkpt lat="37.6943151" lon="12.7106702"><ele>36.0</ele><time>2026-03-29T15:13:26.871Z</time></trkpt><trkpt lat="37.6943113" lon="12.7105742"><ele>36.0</ele><time>2026-03-29T15:13:27.873Z</time></trkpt><trkpt lat="37.6943072" lon="12.7104842"><ele>36.0</ele><time>2026-03-29T15:13:28.871Z</time></trkpt><trkpt lat="37.6943037" lon="12.7104026"><ele>36.0</ele><time>2026-03-29T15:13:29.873Z</time></trkpt><trkpt lat="37.6942942" lon="12.7102525"><ele>35.6</ele><time>2026-03-29T15:13:31.872Z</time></trkpt><trkpt lat="37.6942863" lon="12.7101193"><ele>35.2</ele><time>2026-03-29T15:13:33.872Z</time></trkpt><trkpt lat="37.6942835" lon="12.7099387"><ele>34.8</ele><time>2026-03-29T15:13:35.872Z</time></trkpt><trkpt lat="37.694281" lon="12.7098248"><ele>34.4</ele><time>2026-03-29T15:13:36.873Z</time></trkpt><trkpt lat="37.6942777" lon="12.7097026"><ele>34.0</ele><time>2026-03-29T15:13:37.873Z</time></trkpt><trkpt lat="37.6942728" lon="12.7095819"><ele>34.0</ele><time>2026-03-29T15:13:38.872Z</time></trkpt><trkpt lat="37.694269" lon="12.7094535"><ele>34.0</ele><time>2026-03-29T15:13:39.872Z</time></trkpt><trkpt lat="37.6942658" lon="12.7093257"><ele>34.0</ele><time>2026-03-29T15:13:40.872Z</time></trkpt><trkpt lat="37.6942623" lon="12.7091913"><ele>34.0</ele><time>2026-03-29T15:13:41.872Z</time></trkpt><trkpt lat="37.6942597" lon="12.7090522"><ele>34.0</ele><time>2026-03-29T15:13:42.873Z</time></trkpt><trkpt lat="37.6942543" lon="12.7089199"><ele>34.0</ele><time>2026-03-29T15:13:43.873Z</time></trkpt><trkpt lat="37.6942472" lon="12.7087917"><ele>34.0</ele><time>2026-03-29T15:13:44.871Z</time></trkpt><trkpt lat="37.6942409" lon="12.7086544"><ele>34.0</ele><time>2026-03-29T15:13:45.871Z</time></trkpt><trkpt lat="37.6942315" lon="12.7085037"><ele>34.0</ele><time>2026-03-29T15:13:46.873Z</time></trkpt><trkpt lat="37.694229" lon="12.7083681"><ele>34.0</ele><time>2026-03-29T15:13:47.871Z</time></trkpt><trkpt lat="37.6942273" lon="12.7082459"><ele>34.16666666666667</ele><time>2026-03-29T15:13:48.873Z</time></trkpt><trkpt lat="37.694215" lon="12.7081309"><ele>34.333333333333336</ele><time>2026-03-29T15:13:49.872Z</time></trkpt><trkpt lat="37.6942163" lon="12.7080223"><ele>34.5</ele><time>2026-03-29T15:13:50.872Z</time></trkpt><trkpt lat="37.694216" lon="12.7079224"><ele>34.666666666666664</ele><time>2026-03-29T15:13:51.872Z</time></trkpt><trkpt lat="37.6942172" lon="12.7078195"><ele>34.83333333333333</ele><time>2026-03-29T15:13:52.871Z</time></trkpt><trkpt lat="37.6942171" lon="12.7077095"><ele>35.0</ele><time>2026-03-29T15:13:53.872Z</time></trkpt><trkpt lat="37.6942113" lon="12.7076052"><ele>35.0</ele><time>2026-03-29T15:13:54.872Z</time></trkpt><trkpt lat="37.6942053" lon="12.7075076"><ele>35.0</ele><time>2026-03-29T15:13:55.872Z</time></trkpt><trkpt lat="37.6941993" lon="12.7074156"><ele>35.0</ele><time>2026-03-29T15:13:56.873Z</time></trkpt><trkpt lat="37.6941942" lon="12.70733"><ele>35.0</ele><time>2026-03-29T15:13:57.871Z</time></trkpt><trkpt lat="37.6941909" lon="12.7072401"><ele>35.0</ele><time>2026-03-29T15:13:58.872Z</time></trkpt><trkpt lat="37.6941857" lon="12.7071374"><ele>35.0</ele><time>2026-03-29T15:13:59.873Z</time></trkpt><trkpt lat="37.6941803" lon="12.7070407"><ele>35.0</ele><time>2026-03-29T15:14:00.872Z</time></trkpt><trkpt lat="37.6941791" lon="12.7069522"><ele>34.83333333333333</ele><time>2026-03-29T15:14:01.873Z</time></trkpt><trkpt lat="37.6941751" lon="12.7068685"><ele>34.666666666666664</ele><time>2026-03-29T15:14:02.871Z</time></trkpt><trkpt lat="37.6941766" lon="12.7067437"><ele>34.5</ele><time>2026-03-29T15:14:04.872Z</time></trkpt><trkpt lat="37.6941716" lon="12.7066626"><ele>34.333333333333336</ele><time>2026-03-29T15:14:06.872Z</time></trkpt><trkpt lat="37.6941469" lon="12.7065873"><ele>34.16666666666667</ele><time>2026-03-29T15:14:10.872Z</time></trkpt><trkpt lat="37.6940627" lon="12.7065744"><ele>34.0</ele><time>2026-03-29T15:14:13.871Z</time></trkpt><trkpt lat="37.6939594" lon="12.7065691"><ele>34.0</ele><time>2026-03-29T15:14:44.873Z</time></trkpt><trkpt lat="37.6938485" lon="12.7065718"><ele>34.0</ele><time>2026-03-29T15:14:45.873Z</time></trkpt><trkpt lat="37.6936831" lon="12.706569"><ele>34.0</ele><time>2026-03-29T15:14:46.871Z</time></trkpt><trkpt lat="37.6934743" lon="12.7065686"><ele>34.0</ele><time>2026-03-29T15:14:47.871Z</time></trkpt><trkpt lat="37.6932364" lon="12.7065658"><ele>34.0</ele><time>2026-03-29T15:14:48.872Z</time></trkpt><trkpt lat="37.692977" lon="12.7065573"><ele>34.0</ele><time>2026-03-29T15:14:49.871Z</time></trkpt><trkpt lat="37.6927599" lon="12.7065491"><ele>34.0</ele><time>2026-03-29T15:14:50.872Z</time></trkpt><trkpt lat="37.6925388" lon="12.7065465"><ele>34.0</ele><time>2026-03-29T15:14:51.872Z</time></trkpt><trkpt lat="37.6923465" lon="12.7065468"><ele>34.333333333333336</ele><time>2026-03-29T15:14:52.872Z</time></trkpt><trkpt lat="37.6921745" lon="12.7065465"><ele>34.666666666666664</ele><time>2026-03-29T15:14:53.873Z</time></trkpt><trkpt lat="37.6920212" lon="12.7065419"><ele>35.0</ele><time>2026-03-29T15:14:54.872Z</time></trkpt><trkpt lat="37.6918673" lon="12.7065431"><ele>35.0</ele><time>2026-03-29T15:14:55.871Z</time></trkpt><trkpt lat="37.6917161" lon="12.7065429"><ele>35.0</ele><time>2026-03-29T15:14:56.873Z</time></trkpt><trkpt lat="37.6915657" lon="12.7065432"><ele>35.0</ele><time>2026-03-29T15:14:57.871Z</time></trkpt><trkpt lat="37.6914115" lon="12.7065377"><ele>35.0</ele><time>2026-03-29T15:14:58.871Z</time></trkpt><trkpt lat="37.6912612" lon="12.7065298"><ele>35.0</ele><time>2026-03-29T15:14:59.872Z</time></trkpt><trkpt lat="37.6911083" lon="12.7065248"><ele>35.0</ele><time>2026-03-29T15:15:00.872Z</time></trkpt><trkpt lat="37.6909671" lon="12.7065207"><ele>35.0</ele><time>2026-03-29T15:15:01.872Z</time></trkpt><trkpt lat="37.6908415" lon="12.7065182"><ele>35.0</ele><time>2026-03-29T15:15:02.871Z</time></trkpt><trkpt lat="37.690733" lon="12.7065125"><ele>35.0</ele><time>2026-03-29T15:15:03.873Z</time></trkpt><trkpt lat="37.6906564" lon="12.7065087"><ele>35.0</ele><time>2026-03-29T15:15:04.871Z</time></trkpt><trkpt lat="37.6905883" lon="12.7065096"><ele>35.0</ele><time>2026-03-29T15:15:05.872Z</time></trkpt><trkpt lat="37.6905245" lon="12.7065107"><ele>35.0</ele><time>2026-03-29T15:15:06.871Z</time></trkpt><trkpt lat="37.6903991" lon="12.7065167"><ele>35.0</ele><time>2026-03-29T15:15:08.872Z</time></trkpt><trkpt lat="37.6902733" lon="12.7065099"><ele>34.8</ele><time>2026-03-29T15:15:10.873Z</time></trkpt><trkpt lat="37.690208" lon="12.7065128"><ele>34.6</ele><time>2026-03-29T15:15:11.872Z</time></trkpt><trkpt lat="37.6900805" lon="12.7065115"><ele>34.4</ele><time>2026-03-29T15:15:13.872Z</time></trkpt><trkpt lat="37.6899627" lon="12.7065097"><ele>34.2</ele><time>2026-03-29T15:15:15.872Z</time></trkpt><trkpt lat="37.6898674" lon="12.7065142"><ele>34.0</ele><time>2026-03-29T15:15:17.871Z</time></trkpt><trkpt lat="37.6897864" lon="12.7065188"><ele>34.0</ele><time>2026-03-29T15:15:19.873Z</time></trkpt><trkpt lat="37.6897032" lon="12.7065089"><ele>34.0</ele><time>2026-03-29T15:15:22.871Z</time></trkpt><trkpt lat="37.6896131" lon="12.7065013"><ele>34.0</ele><time>2026-03-29T15:15:25.872Z</time></trkpt><trkpt lat="37.6895215" lon="12.7064944"><ele>34.0</ele><time>2026-03-29T15:15:27.871Z</time></trkpt><trkpt lat="37.6894448" lon="12.7064906"><ele>34.0</ele><time>2026-03-29T15:15:28.872Z</time></trkpt><trkpt lat="37.6893459" lon="12.7064928"><ele>34.0</ele><time>2026-03-29T15:15:29.872Z</time></trkpt><trkpt lat="37.6892107" lon="12.7064928"><ele>34.25</ele><time>2026-03-29T15:15:30.872Z</time></trkpt><trkpt lat="37.6890707" lon="12.7064875"><ele>34.5</ele><time>2026-03-29T15:15:31.872Z</time></trkpt><trkpt lat="37.6889427" lon="12.7064781"><ele>34.75</ele><time>2026-03-29T15:15:32.873Z</time></trkpt><trkpt lat="37.6888247" lon="12.7064749"><ele>35.0</ele><time>2026-03-29T15:15:33.872Z</time></trkpt><trkpt lat="37.6887151" lon="12.7064741"><ele>35.0</ele><time>2026-03-29T15:15:34.873Z</time></trkpt><trkpt lat="37.6886074" lon="12.7064681"><ele>35.0</ele><time>2026-03-29T15:15:35.872Z</time></trkpt><trkpt lat="37.6885171" lon="12.7064666"><ele>35.0</ele><time>2026-03-29T15:15:36.871Z</time></trkpt><trkpt lat="37.6884364" lon="12.7064736"><ele>35.0</ele><time>2026-03-29T15:15:37.872Z</time></trkpt><trkpt lat="37.6883663" lon="12.7064724"><ele>35.0</ele><time>2026-03-29T15:15:38.872Z</time></trkpt><trkpt lat="37.6882561" lon="12.706475"><ele>35.25</ele><time>2026-03-29T15:15:40.873Z</time></trkpt><trkpt lat="37.6882004" lon="12.7064315"><ele>35.5</ele><time>2026-03-29T15:15:42.871Z</time></trkpt><trkpt lat="37.6881995" lon="12.7062831"><ele>35.75</ele><time>2026-03-29T15:15:44.872Z</time></trkpt><trkpt lat="37.6881976" lon="12.7061273"><ele>36.0</ele><time>2026-03-29T15:15:45.871Z</time></trkpt><trkpt lat="37.6881987" lon="12.7059395"><ele>36.0</ele><time>2026-03-29T15:15:46.873Z</time></trkpt><trkpt lat="37.688201" lon="12.7057076"><ele>36.0</ele><time>2026-03-29T15:15:47.873Z</time></trkpt><trkpt lat="37.688199" lon="12.7055211"><ele>36.0</ele><time>2026-03-29T15:15:48.872Z</time></trkpt><trkpt lat="37.6882003" lon="12.7053424"><ele>35.4</ele><time>2026-03-29T15:15:49.873Z</time></trkpt><trkpt lat="37.6882016" lon="12.7051896"><ele>34.8</ele><time>2026-03-29T15:15:50.872Z</time></trkpt><trkpt lat="37.688202" lon="12.7050496"><ele>34.199999999999996</ele><time>2026-03-29T15:15:51.873Z</time></trkpt><trkpt lat="37.6882053" lon="12.7049306"><ele>33.6</ele><time>2026-03-29T15:15:52.872Z</time></trkpt><trkpt lat="37.6881995" lon="12.7048262"><ele>33.0</ele><time>2026-03-29T15:15:53.872Z</time></trkpt><trkpt lat="37.6881931" lon="12.7047324"><ele>33.0</ele><time>2026-03-29T15:15:54.873Z</time></trkpt><trkpt lat="37.6881766" lon="12.7046507"><ele>33.0</ele><time>2026-03-29T15:15:55.873Z</time></trkpt><trkpt lat="37.6881366" lon="12.7045645"><ele>33.0</ele><time>2026-03-29T15:15:57.872Z</time></trkpt><trkpt lat="37.688077" lon="12.7044852"><ele>33.0</ele><time>2026-03-29T15:16:00.872Z</time></trkpt><trkpt lat="37.6880759" lon="12.7043855"><ele>33.0</ele><time>2026-03-29T15:16:02.872Z</time></trkpt><trkpt lat="37.6880936" lon="12.7042578"><ele>33.0</ele><time>2026-03-29T15:16:04.873Z</time></trkpt><trkpt lat="37.6881141" lon="12.7041521"><ele>33.0</ele><time>2026-03-29T15:16:06.872Z</time></trkpt><trkpt lat="37.6881691" lon="12.7040726"><ele>33.0</ele><time>2026-03-29T15:16:08.872Z</time></trkpt><trkpt lat="37.6881912" lon="12.7039128"><ele>33.0</ele><time>2026-03-29T15:16:10.872Z</time></trkpt><trkpt lat="37.6881965" lon="12.7038146"><ele>33.0</ele><time>2026-03-29T15:16:11.872Z</time></trkpt><trkpt lat="37.6881884" lon="12.7036909"><ele>33.0</ele><time>2026-03-29T15:16:12.871Z</time></trkpt><trkpt lat="37.6881894" lon="12.7035589"><ele>33.0</ele><time>2026-03-29T15:16:13.872Z</time></trkpt><trkpt lat="37.688188" lon="12.7034199"><ele>33.0</ele><time>2026-03-29T15:16:14.871Z</time></trkpt><trkpt lat="37.6881924" lon="12.7032815"><ele>33.0</ele><time>2026-03-29T15:16:15.872Z</time></trkpt><trkpt lat="37.6881917" lon="12.7031414"><ele>33.0</ele><time>2026-03-29T15:16:16.872Z</time></trkpt><trkpt lat="37.6881897" lon="12.703003"><ele>33.0</ele><time>2026-03-29T15:16:17.872Z</time></trkpt><trkpt lat="37.6881867" lon="12.7028644"><ele>33.0</ele><time>2026-03-29T15:16:18.873Z</time></trkpt><trkpt lat="37.6881822" lon="12.7027218"><ele>33.0</ele><time>2026-03-29T15:16:19.872Z</time></trkpt><trkpt lat="37.6881807" lon="12.7025768"><ele>33.0</ele><time>2026-03-29T15:16:20.872Z</time></trkpt><trkpt lat="37.6881801" lon="12.7024406"><ele>33.0</ele><time>2026-03-29T15:16:21.871Z</time></trkpt><trkpt lat="37.6881813" lon="12.7023027"><ele>33.0</ele><time>2026-03-29T15:16:22.872Z</time></trkpt><trkpt lat="37.6881806" lon="12.7021663"><ele>33.0</ele><time>2026-03-29T15:16:23.872Z</time></trkpt><trkpt lat="37.688175" lon="12.702032"><ele>33.0</ele><time>2026-03-29T15:16:24.872Z</time></trkpt><trkpt lat="37.688171" lon="12.7018998"><ele>33.0</ele><time>2026-03-29T15:16:25.873Z</time></trkpt><trkpt lat="37.6881688" lon="12.7017643"><ele>33.0</ele><time>2026-03-29T15:16:26.873Z</time></trkpt><trkpt lat="37.6881698" lon="12.7016326"><ele>33.0</ele><time>2026-03-29T15:16:27.872Z</time></trkpt><trkpt lat="37.6881687" lon="12.7015023"><ele>33.199999999999996</ele><time>2026-03-29T15:16:28.872Z</time></trkpt><trkpt lat="37.6881683" lon="12.7013691"><ele>33.4</ele><time>2026-03-29T15:16:29.871Z</time></trkpt><trkpt lat="37.6881643" lon="12.7012334"><ele>33.599999999999994</ele><time>2026-03-29T15:16:30.872Z</time></trkpt><trkpt lat="37.6881634" lon="12.7010975"><ele>33.8</ele><time>2026-03-29T15:16:31.873Z</time></trkpt><trkpt lat="37.6881635" lon="12.7009582"><ele>34.0</ele><time>2026-03-29T15:16:32.872Z</time></trkpt><trkpt lat="37.6881615" lon="12.7008225"><ele>34.0</ele><time>2026-03-29T15:16:33.872Z</time></trkpt><trkpt lat="37.6881691" lon="12.70069"><ele>34.0</ele><time>2026-03-29T15:16:34.872Z</time></trkpt><trkpt lat="37.6881648" lon="12.7005549"><ele>34.0</ele><time>2026-03-29T15:16:35.872Z</time></trkpt><trkpt lat="37.6881665" lon="12.7004246"><ele>34.0</ele><time>2026-03-29T15:16:36.873Z</time></trkpt><trkpt lat="37.6881642" lon="12.7002912"><ele>34.0</ele><time>2026-03-29T15:16:37.871Z</time></trkpt><trkpt lat="37.6881631" lon="12.7001566"><ele>33.8</ele><time>2026-03-29T15:16:38.871Z</time></trkpt><trkpt lat="37.6881615" lon="12.7000191"><ele>33.599999999999994</ele><time>2026-03-29T15:16:39.872Z</time></trkpt><trkpt lat="37.6881594" lon="12.6998821"><ele>33.4</ele><time>2026-03-29T15:16:40.873Z</time></trkpt><trkpt lat="37.6881553" lon="12.6997478"><ele>33.199999999999996</ele><time>2026-03-29T15:16:41.871Z</time></trkpt><trkpt lat="37.6881466" lon="12.6996105"><ele>33.0</ele><time>2026-03-29T15:16:42.871Z</time></trkpt><trkpt lat="37.6881487" lon="12.6994749"><ele>33.0</ele><time>2026-03-29T15:16:43.873Z</time></trkpt><trkpt lat="37.6881497" lon="12.6993397"><ele>33.0</ele><time>2026-03-29T15:16:44.873Z</time></trkpt><trkpt lat="37.688148" lon="12.6992005"><ele>33.0</ele><time>2026-03-29T15:16:45.873Z</time></trkpt><trkpt lat="37.688149" lon="12.6990655"><ele>33.0</ele><time>2026-03-29T15:16:46.871Z</time></trkpt><trkpt lat="37.6881481" lon="12.6989326"><ele>33.0</ele><time>2026-03-29T15:16:47.872Z</time></trkpt><trkpt lat="37.6881522" lon="12.6988001"><ele>33.0</ele><time>2026-03-29T15:16:48.872Z</time></trkpt><trkpt lat="37.6881505" lon="12.6986745"><ele>33.0</ele><time>2026-03-29T15:16:49.872Z</time></trkpt><trkpt lat="37.6881472" lon="12.6985498"><ele>33.0</ele><time>2026-03-29T15:16:50.871Z</time></trkpt><trkpt lat="37.6881442" lon="12.6983905"><ele>33.0</ele><time>2026-03-29T15:16:51.872Z</time></trkpt><trkpt lat="37.6881397" lon="12.698183"><ele>32.5</ele><time>2026-03-29T15:16:52.872Z</time></trkpt><trkpt lat="37.6881443" lon="12.6979916"><ele>32.0</ele><time>2026-03-29T15:16:53.873Z</time></trkpt><trkpt lat="37.6881388" lon="12.6978248"><ele>31.5</ele><time>2026-03-29T15:16:54.871Z</time></trkpt><trkpt lat="37.6881371" lon="12.6976669"><ele>31.0</ele><time>2026-03-29T15:16:55.872Z</time></trkpt><trkpt lat="37.6881332" lon="12.6975068"><ele>31.0</ele><time>2026-03-29T15:16:56.872Z</time></trkpt><trkpt lat="37.6881323" lon="12.6973439"><ele>31.0</ele><time>2026-03-29T15:16:57.872Z</time></trkpt><trkpt lat="37.6881312" lon="12.6971838"><ele>31.0</ele><time>2026-03-29T15:16:58.872Z</time></trkpt><trkpt lat="37.6881303" lon="12.6970247"><ele>31.0</ele><time>2026-03-29T15:16:59.873Z</time></trkpt><trkpt lat="37.6881304" lon="12.6968697"><ele>31.0</ele><time>2026-03-29T15:17:00.873Z</time></trkpt><trkpt lat="37.6881293" lon="12.6967135"><ele>31.0</ele><time>2026-03-29T15:17:01.873Z</time></trkpt><trkpt lat="37.6881309" lon="12.6965695"><ele>31.0</ele><time>2026-03-29T15:17:02.872Z</time></trkpt><trkpt lat="37.688127" lon="12.6964445"><ele>31.0</ele><time>2026-03-29T15:17:03.872Z</time></trkpt><trkpt lat="37.6881303" lon="12.6963088"><ele>31.0</ele><time>2026-03-29T15:17:04.873Z</time></trkpt><trkpt lat="37.688121" lon="12.6961425"><ele>31.333333333333336</ele><time>2026-03-29T15:17:05.872Z</time></trkpt><trkpt lat="37.6881172" lon="12.6959202"><ele>31.666666666666664</ele><time>2026-03-29T15:17:06.871Z</time></trkpt><trkpt lat="37.6881095" lon="12.6957184"><ele>32.0</ele><time>2026-03-29T15:17:07.871Z</time></trkpt><trkpt lat="37.6881065" lon="12.6955276"><ele>32.0</ele><time>2026-03-29T15:17:08.872Z</time></trkpt><trkpt lat="37.6881016" lon="12.695354"><ele>32.0</ele><time>2026-03-29T15:17:09.873Z</time></trkpt><trkpt lat="37.6881027" lon="12.6951797"><ele>32.0</ele><time>2026-03-29T15:17:10.871Z</time></trkpt><trkpt lat="37.6881017" lon="12.6950104"><ele>32.0</ele><time>2026-03-29T15:17:11.872Z</time></trkpt><trkpt lat="37.6881035" lon="12.694843"><ele>32.0</ele><time>2026-03-29T15:17:12.873Z</time></trkpt><trkpt lat="37.6881007" lon="12.6946719"><ele>32.0</ele><time>2026-03-29T15:17:13.872Z</time></trkpt><trkpt lat="37.6880973" lon="12.6945124"><ele>32.0</ele><time>2026-03-29T15:17:14.873Z</time></trkpt><trkpt lat="37.6880923" lon="12.6943725"><ele>32.0</ele><time>2026-03-29T15:17:15.872Z</time></trkpt><trkpt lat="37.6880927" lon="12.6942445"><ele>32.0</ele><time>2026-03-29T15:17:16.873Z</time></trkpt><trkpt lat="37.688096" lon="12.6940785"><ele>32.0</ele><time>2026-03-29T15:17:17.873Z</time></trkpt><trkpt lat="37.6880941" lon="12.6939335"><ele>32.0</ele><time>2026-03-29T15:17:18.872Z</time></trkpt><trkpt lat="37.6880929" lon="12.6937846"><ele>32.0</ele><time>2026-03-29T15:17:19.872Z</time></trkpt><trkpt lat="37.6880898" lon="12.6936371"><ele>32.25</ele><time>2026-03-29T15:17:20.871Z</time></trkpt><trkpt lat="37.6880933" lon="12.6934889"><ele>32.5</ele><time>2026-03-29T15:17:21.872Z</time></trkpt><trkpt lat="37.6880935" lon="12.6933379"><ele>32.75</ele><time>2026-03-29T15:17:22.872Z</time></trkpt><trkpt lat="37.6880933" lon="12.6931641"><ele>33.0</ele><time>2026-03-29T15:17:23.872Z</time></trkpt><trkpt lat="37.6880952" lon="12.6929455"><ele>33.666666666666664</ele><time>2026-03-29T15:17:24.872Z</time></trkpt><trkpt lat="37.6880913" lon="12.6926952"><ele>34.33333333333333</ele><time>2026-03-29T15:17:25.872Z</time></trkpt><trkpt lat="37.6880903" lon="12.6924182"><ele>35.0</ele><time>2026-03-29T15:17:26.871Z</time></trkpt><trkpt lat="37.68809" lon="12.6921132"><ele>36.0</ele><time>2026-03-29T15:17:27.872Z</time></trkpt><trkpt lat="37.6880896" lon="12.6918297"><ele>37.0</ele><time>2026-03-29T15:17:28.873Z</time></trkpt><trkpt lat="37.6880896" lon="12.6915821"><ele>38.0</ele><time>2026-03-29T15:17:29.871Z</time></trkpt><trkpt lat="37.688085" lon="12.6913633"><ele>38.0</ele><time>2026-03-29T15:17:30.872Z</time></trkpt><trkpt lat="37.6880847" lon="12.6911682"><ele>38.0</ele><time>2026-03-29T15:17:31.872Z</time></trkpt><trkpt lat="37.6880813" lon="12.6909929"><ele>38.0</ele><time>2026-03-29T15:17:32.871Z</time></trkpt><trkpt lat="37.6880819" lon="12.6908219"><ele>38.0</ele><time>2026-03-29T15:17:33.872Z</time></trkpt><trkpt lat="37.6880875" lon="12.6906596"><ele>38.33333333333333</ele><time>2026-03-29T15:17:34.871Z</time></trkpt><trkpt lat="37.6880895" lon="12.6904858"><ele>38.666666666666664</ele><time>2026-03-29T15:17:35.872Z</time></trkpt><trkpt lat="37.6880916" lon="12.690267"><ele>39.0</ele><time>2026-03-29T15:17:36.872Z</time></trkpt><trkpt lat="37.6880894" lon="12.6900432"><ele>38.0</ele><time>2026-03-29T15:17:37.872Z</time></trkpt><trkpt lat="37.6880846" lon="12.689828"><ele>37.0</ele><time>2026-03-29T15:17:38.873Z</time></trkpt><trkpt lat="37.6880834" lon="12.6896403"><ele>36.0</ele><time>2026-03-29T15:17:39.872Z</time></trkpt><trkpt lat="37.6880779" lon="12.6894597"><ele>35.0</ele><time>2026-03-29T15:17:40.871Z</time></trkpt><trkpt lat="37.6880782" lon="12.6892941"><ele>34.0</ele><time>2026-03-29T15:17:41.873Z</time></trkpt><trkpt lat="37.6880798" lon="12.6891351"><ele>33.0</ele><time>2026-03-29T15:17:42.872Z</time></trkpt><trkpt lat="37.6880756" lon="12.6889949"><ele>32.0</ele><time>2026-03-29T15:17:43.871Z</time></trkpt><trkpt lat="37.6880762" lon="12.6888655"><ele>31.999999999999996</ele><time>2026-03-29T15:17:44.872Z</time></trkpt><trkpt lat="37.6880734" lon="12.6887479"><ele>32.0</ele><time>2026-03-29T15:17:45.871Z</time></trkpt><trkpt lat="37.6880707" lon="12.6886488"><ele>32.0</ele><time>2026-03-29T15:17:46.873Z</time></trkpt><trkpt lat="37.6880668" lon="12.6885479"><ele>32.0</ele><time>2026-03-29T15:17:48.873Z</time></trkpt><trkpt lat="37.6880245" lon="12.6884867"><ele>31.999999999999996</ele><time>2026-03-29T15:18:24.872Z</time></trkpt><trkpt lat="37.6880546" lon="12.6883726"><ele>32.0</ele><time>2026-03-29T15:19:39.871Z</time></trkpt><trkpt lat="37.6880562" lon="12.6882756"><ele>31.6</ele><time>2026-03-29T15:19:40.873Z</time></trkpt><trkpt lat="37.6880581" lon="12.6881674"><ele>31.200000000000003</ele><time>2026-03-29T15:19:41.871Z</time></trkpt><trkpt lat="37.6880593" lon="12.6880163"><ele>30.8</ele><time>2026-03-29T15:19:42.872Z</time></trkpt><trkpt lat="37.6880585" lon="12.6878759"><ele>30.4</ele><time>2026-03-29T15:19:43.872Z</time></trkpt><trkpt lat="37.6880531" lon="12.6877421"><ele>30.0</ele><time>2026-03-29T15:19:44.873Z</time></trkpt><trkpt lat="37.6880537" lon="12.687604"><ele>29.8</ele><time>2026-03-29T15:19:45.871Z</time></trkpt><trkpt lat="37.688048" lon="12.6874705"><ele>29.6</ele><time>2026-03-29T15:19:46.873Z</time></trkpt><trkpt lat="37.6880461" lon="12.687342"><ele>29.4</ele><time>2026-03-29T15:19:47.871Z</time></trkpt><trkpt lat="37.6880468" lon="12.6872121"><ele>29.2</ele><time>2026-03-29T15:19:48.871Z</time></trkpt><trkpt lat="37.6880463" lon="12.6870712"><ele>29.0</ele><time>2026-03-29T15:19:49.872Z</time></trkpt><trkpt lat="37.6880474" lon="12.6869328"><ele>28.999999999999996</ele><time>2026-03-29T15:19:50.872Z</time></trkpt><trkpt lat="37.6880478" lon="12.6868128"><ele>29.0</ele><time>2026-03-29T15:19:51.873Z</time></trkpt><trkpt lat="37.6880501" lon="12.6867149"><ele>29.0</ele><time>2026-03-29T15:19:52.871Z</time></trkpt><trkpt lat="37.6880524" lon="12.6866208"><ele>29.0</ele><time>2026-03-29T15:19:53.872Z</time></trkpt><trkpt lat="37.6880515" lon="12.6865027"><ele>28.999999999999996</ele><time>2026-03-29T15:19:54.872Z</time></trkpt><trkpt lat="37.688049" lon="12.6863907"><ele>29.0</ele><time>2026-03-29T15:19:55.872Z</time></trkpt><trkpt lat="37.6880449" lon="12.6862433"><ele>29.0</ele><time>2026-03-29T15:19:56.872Z</time></trkpt><trkpt lat="37.6880383" lon="12.6861055"><ele>29.0</ele><time>2026-03-29T15:19:57.872Z</time></trkpt><trkpt lat="37.6880372" lon="12.6859654"><ele>29.0</ele><time>2026-03-29T15:19:58.872Z</time></trkpt><trkpt lat="37.688036" lon="12.6857976"><ele>29.0</ele><time>2026-03-29T15:19:59.873Z</time></trkpt><trkpt lat="37.6880331" lon="12.6856238"><ele>28.75</ele><time>2026-03-29T15:20:00.873Z</time></trkpt><trkpt lat="37.688034" lon="12.6854156"><ele>28.5</ele><time>2026-03-29T15:20:01.87Z</time></trkpt><trkpt lat="37.6880311" lon="12.6852248"><ele>28.25</ele><time>2026-03-29T15:20:02.87Z</time></trkpt><trkpt lat="37.688025" lon="12.6850578"><ele>28.0</ele><time>2026-03-29T15:20:03.873Z</time></trkpt><trkpt lat="37.6880199" lon="12.6848981"><ele>29.0</ele><time>2026-03-29T15:20:04.872Z</time></trkpt><trkpt lat="37.6880166" lon="12.684745"><ele>30.0</ele><time>2026-03-29T15:20:05.872Z</time></trkpt><trkpt lat="37.6880188" lon="12.6845979"><ele>31.0</ele><time>2026-03-29T15:20:06.872Z</time></trkpt><trkpt lat="37.6880201" lon="12.6844383"><ele>32.0</ele><time>2026-03-29T15:20:07.872Z</time></trkpt><trkpt lat="37.6880179" lon="12.6842847"><ele>32.6</ele><time>2026-03-29T15:20:08.872Z</time></trkpt><trkpt lat="37.6880152" lon="12.6841531"><ele>33.2</ele><time>2026-03-29T15:20:09.873Z</time></trkpt><trkpt lat="37.6880098" lon="12.6840278"><ele>33.8</ele><time>2026-03-29T15:20:10.873Z</time></trkpt><trkpt lat="37.6880091" lon="12.6839038"><ele>34.4</ele><time>2026-03-29T15:20:11.871Z</time></trkpt><trkpt lat="37.688016" lon="12.6837843"><ele>35.0</ele><time>2026-03-29T15:20:12.873Z</time></trkpt><trkpt lat="37.6880116" lon="12.6836627"><ele>34.4</ele><time>2026-03-29T15:20:13.872Z</time></trkpt><trkpt lat="37.688009" lon="12.6835463"><ele>33.8</ele><time>2026-03-29T15:20:14.873Z</time></trkpt><trkpt lat="37.6880041" lon="12.6834205"><ele>33.2</ele><time>2026-03-29T15:20:15.872Z</time></trkpt><trkpt lat="37.6880035" lon="12.6832929"><ele>32.6</ele><time>2026-03-29T15:20:16.873Z</time></trkpt><trkpt lat="37.6880044" lon="12.683155"><ele>32.0</ele><time>2026-03-29T15:20:17.872Z</time></trkpt><trkpt lat="37.6880079" lon="12.6830244"><ele>32.0</ele><time>2026-03-29T15:20:18.872Z</time></trkpt><trkpt lat="37.6880115" lon="12.6829024"><ele>32.0</ele><time>2026-03-29T15:20:19.873Z</time></trkpt><trkpt lat="37.6880123" lon="12.682778"><ele>32.0</ele><time>2026-03-29T15:20:20.872Z</time></trkpt><trkpt lat="37.6880104" lon="12.6826645"><ele>32.0</ele><time>2026-03-29T15:20:21.872Z</time></trkpt><trkpt lat="37.6880096" lon="12.6825459"><ele>32.0</ele><time>2026-03-29T15:20:22.872Z</time></trkpt><trkpt lat="37.6880065" lon="12.6824126"><ele>31.8</ele><time>2026-03-29T15:20:23.872Z</time></trkpt><trkpt lat="37.6880042" lon="12.6822792"><ele>31.6</ele><time>2026-03-29T15:20:24.872Z</time></trkpt><trkpt lat="37.6880063" lon="12.6821352"><ele>31.400000000000002</ele><time>2026-03-29T15:20:25.872Z</time></trkpt><trkpt lat="37.6880065" lon="12.6819844"><ele>31.200000000000003</ele><time>2026-03-29T15:20:26.873Z</time></trkpt><trkpt lat="37.688007" lon="12.6818504"><ele>31.0</ele><time>2026-03-29T15:20:27.872Z</time></trkpt><trkpt lat="37.6880094" lon="12.6817286"><ele>30.4</ele><time>2026-03-29T15:20:28.873Z</time></trkpt><trkpt lat="37.6880062" lon="12.6816146"><ele>29.8</ele><time>2026-03-29T15:20:29.873Z</time></trkpt><trkpt lat="37.6880043" lon="12.6814879"><ele>29.199999999999996</ele><time>2026-03-29T15:20:30.871Z</time></trkpt><trkpt lat="37.6880006" lon="12.6813546"><ele>28.599999999999998</ele><time>2026-03-29T15:20:31.873Z</time></trkpt><trkpt lat="37.6879996" lon="12.6811967"><ele>28.0</ele><time>2026-03-29T15:20:32.873Z</time></trkpt><trkpt lat="37.6879977" lon="12.6810401"><ele>27.599999999999998</ele><time>2026-03-29T15:20:33.872Z</time></trkpt><trkpt lat="37.6879925" lon="12.6808896"><ele>27.199999999999996</ele><time>2026-03-29T15:20:34.872Z</time></trkpt><trkpt lat="37.6879871" lon="12.6807426"><ele>26.8</ele><time>2026-03-29T15:20:35.872Z</time></trkpt><trkpt lat="37.6879883" lon="12.680615"><ele>26.4</ele><time>2026-03-29T15:20:36.872Z</time></trkpt><trkpt lat="37.6879845" lon="12.6804959"><ele>26.0</ele><time>2026-03-29T15:20:37.872Z</time></trkpt><trkpt lat="37.6879881" lon="12.6803807"><ele>26.200000000000003</ele><time>2026-03-29T15:20:38.873Z</time></trkpt><trkpt lat="37.6879871" lon="12.6802611"><ele>26.400000000000002</ele><time>2026-03-29T15:20:39.872Z</time></trkpt><trkpt lat="37.6879813" lon="12.680138"><ele>26.6</ele><time>2026-03-29T15:20:40.872Z</time></trkpt><trkpt lat="37.687979" lon="12.6800074"><ele>26.8</ele><time>2026-03-29T15:20:41.873Z</time></trkpt><trkpt lat="37.6879783" lon="12.6798783"><ele>27.0</ele><time>2026-03-29T15:20:42.873Z</time></trkpt><trkpt lat="37.6879801" lon="12.6797483"><ele>27.0</ele><time>2026-03-29T15:20:43.872Z</time></trkpt><trkpt lat="37.687979" lon="12.679622"><ele>27.0</ele><time>2026-03-29T15:20:44.871Z</time></trkpt><trkpt lat="37.6879787" lon="12.6794961"><ele>27.0</ele><time>2026-03-29T15:20:45.872Z</time></trkpt><trkpt lat="37.6879768" lon="12.6793734"><ele>27.0</ele><time>2026-03-29T15:20:46.872Z</time></trkpt><trkpt lat="37.6879724" lon="12.6792659"><ele>27.0</ele><time>2026-03-29T15:20:47.873Z</time></trkpt><trkpt lat="37.6879735" lon="12.6791821"><ele>27.0</ele><time>2026-03-29T15:20:48.873Z</time></trkpt><trkpt lat="37.6879694" lon="12.6790458"><ele>27.0</ele><time>2026-03-29T15:20:50.873Z</time></trkpt><trkpt lat="37.6879788" lon="12.6789087"><ele>27.0</ele><time>2026-03-29T15:20:52.872Z</time></trkpt><trkpt lat="37.687974" lon="12.678812"><ele>27.0</ele><time>2026-03-29T15:20:53.873Z</time></trkpt><trkpt lat="37.6879716" lon="12.6787036"><ele>27.0</ele><time>2026-03-29T15:20:54.872Z</time></trkpt><trkpt lat="37.6879708" lon="12.678595"><ele>27.0</ele><time>2026-03-29T15:20:55.872Z</time></trkpt><trkpt lat="37.6879663" lon="12.6784825"><ele>27.0</ele><time>2026-03-29T15:20:56.872Z</time></trkpt><trkpt lat="37.6879633" lon="12.6783699"><ele>27.200000000000003</ele><time>2026-03-29T15:20:57.872Z</time></trkpt><trkpt lat="37.6879602" lon="12.6782463"><ele>27.400000000000002</ele><time>2026-03-29T15:20:58.871Z</time></trkpt><trkpt lat="37.6879562" lon="12.6781185"><ele>27.599999999999998</ele><time>2026-03-29T15:20:59.872Z</time></trkpt><trkpt lat="37.687953" lon="12.6779872"><ele>27.799999999999997</ele><time>2026-03-29T15:21:00.871Z</time></trkpt><trkpt lat="37.6879503" lon="12.6778505"><ele>28.0</ele><time>2026-03-29T15:21:01.871Z</time></trkpt><trkpt lat="37.6879463" lon="12.6777084"><ele>28.599999999999998</ele><time>2026-03-29T15:21:02.873Z</time></trkpt><trkpt lat="37.6879409" lon="12.6775671"><ele>29.199999999999996</ele><time>2026-03-29T15:21:03.872Z</time></trkpt><trkpt lat="37.6879412" lon="12.6774256"><ele>29.8</ele><time>2026-03-29T15:21:04.872Z</time></trkpt><trkpt lat="37.6879384" lon="12.6772877"><ele>30.4</ele><time>2026-03-29T15:21:05.873Z</time></trkpt><trkpt lat="37.687934" lon="12.6771452"><ele>31.0</ele><time>2026-03-29T15:21:06.871Z</time></trkpt><trkpt lat="37.6879339" lon="12.6769781"><ele>32.4</ele><time>2026-03-29T15:21:07.872Z</time></trkpt><trkpt lat="37.6879384" lon="12.6768322"><ele>33.8</ele><time>2026-03-29T15:21:08.871Z</time></trkpt><trkpt lat="37.6879414" lon="12.6766947"><ele>35.199999999999996</ele><time>2026-03-29T15:21:09.872Z</time></trkpt><trkpt lat="37.6879442" lon="12.6765661"><ele>36.6</ele><time>2026-03-29T15:21:10.872Z</time></trkpt><trkpt lat="37.6879425" lon="12.6764361"><ele>38.0</ele><time>2026-03-29T15:21:11.871Z</time></trkpt><trkpt lat="37.687941" lon="12.6763109"><ele>38.0</ele><time>2026-03-29T15:21:12.873Z</time></trkpt><trkpt lat="37.6879384" lon="12.6761903"><ele>38.0</ele><time>2026-03-29T15:21:13.871Z</time></trkpt><trkpt lat="37.6879359" lon="12.6760704"><ele>38.0</ele><time>2026-03-29T15:21:14.873Z</time></trkpt><trkpt lat="37.6879344" lon="12.6759597"><ele>38.0</ele><time>2026-03-29T15:21:15.872Z</time></trkpt><trkpt lat="37.687932" lon="12.6758377"><ele>38.0</ele><time>2026-03-29T15:21:16.872Z</time></trkpt><trkpt lat="37.6879304" lon="12.6756752"><ele>39.0</ele><time>2026-03-29T15:21:17.873Z</time></trkpt><trkpt lat="37.6879301" lon="12.6755296"><ele>40.0</ele><time>2026-03-29T15:21:18.873Z</time></trkpt><trkpt lat="37.6879292" lon="12.6753942"><ele>41.0</ele><time>2026-03-29T15:21:19.872Z</time></trkpt><trkpt lat="37.6879284" lon="12.675251"><ele>42.0</ele><time>2026-03-29T15:21:20.872Z</time></trkpt><trkpt lat="37.6879309" lon="12.6751127"><ele>43.0</ele><time>2026-03-29T15:21:21.872Z</time></trkpt><trkpt lat="37.6879286" lon="12.6749755"><ele>43.0</ele><time>2026-03-29T15:21:22.872Z</time></trkpt><trkpt lat="37.6879237" lon="12.6748313"><ele>43.0</ele><time>2026-03-29T15:21:23.87Z</time></trkpt><trkpt lat="37.6879203" lon="12.6746817"><ele>43.0</ele><time>2026-03-29T15:21:24.871Z</time></trkpt><trkpt lat="37.6879195" lon="12.6745367"><ele>43.0</ele><time>2026-03-29T15:21:25.872Z</time></trkpt><trkpt lat="37.6879144" lon="12.6743868"><ele>41.5</ele><time>2026-03-29T15:21:26.871Z</time></trkpt><trkpt lat="37.68791" lon="12.6742375"><ele>40.0</ele><time>2026-03-29T15:21:27.873Z</time></trkpt><trkpt lat="37.687905" lon="12.6740973"><ele>38.5</ele><time>2026-03-29T15:21:28.872Z</time></trkpt><trkpt lat="37.6879026" lon="12.6739517"><ele>37.0</ele><time>2026-03-29T15:21:29.872Z</time></trkpt><trkpt lat="37.6879012" lon="12.6738076"><ele>37.0</ele><time>2026-03-29T15:21:30.872Z</time></trkpt><trkpt lat="37.6879007" lon="12.6736638"><ele>37.0</ele><time>2026-03-29T15:21:31.872Z</time></trkpt><trkpt lat="37.6879022" lon="12.6735084"><ele>37.0</ele><time>2026-03-29T15:21:32.872Z</time></trkpt><trkpt lat="37.6879005" lon="12.6733177"><ele>37.0</ele><time>2026-03-29T15:21:33.871Z</time></trkpt><trkpt lat="37.6879005" lon="12.6730813"><ele>36.333333333333336</ele><time>2026-03-29T15:21:34.87Z</time></trkpt><trkpt lat="37.6878966" lon="12.6728708"><ele>35.666666666666664</ele><time>2026-03-29T15:21:35.872Z</time></trkpt><trkpt lat="37.6879016" lon="12.6726812"><ele>35.0</ele><time>2026-03-29T15:21:36.872Z</time></trkpt><trkpt lat="37.6879027" lon="12.6725061"><ele>35.25</ele><time>2026-03-29T15:21:37.872Z</time></trkpt><trkpt lat="37.6878941" lon="12.672328"><ele>35.5</ele><time>2026-03-29T15:21:38.872Z</time></trkpt><trkpt lat="37.6878907" lon="12.6721472"><ele>35.75</ele><time>2026-03-29T15:21:39.871Z</time></trkpt><trkpt lat="37.687887" lon="12.6719694"><ele>36.0</ele><time>2026-03-29T15:21:40.872Z</time></trkpt><trkpt lat="37.6878895" lon="12.671793"><ele>36.0</ele><time>2026-03-29T15:21:41.872Z</time></trkpt><trkpt lat="37.6878904" lon="12.6716227"><ele>36.0</ele><time>2026-03-29T15:21:42.871Z</time></trkpt><trkpt lat="37.6878883" lon="12.6714596"><ele>36.0</ele><time>2026-03-29T15:21:43.871Z</time></trkpt><trkpt lat="37.687888" lon="12.6712995"><ele>36.0</ele><time>2026-03-29T15:21:44.871Z</time></trkpt><trkpt lat="37.6878861" lon="12.6711447"><ele>37.0</ele><time>2026-03-29T15:21:45.872Z</time></trkpt><trkpt lat="37.6878827" lon="12.6709923"><ele>38.0</ele><time>2026-03-29T15:21:46.871Z</time></trkpt><trkpt lat="37.6878825" lon="12.6708458"><ele>39.0</ele><time>2026-03-29T15:21:47.872Z</time></trkpt><trkpt lat="37.6878815" lon="12.6707001"><ele>40.0</ele><time>2026-03-29T15:21:48.872Z</time></trkpt><trkpt lat="37.6878741" lon="12.6705549"><ele>40.0</ele><time>2026-03-29T15:21:49.872Z</time></trkpt><trkpt lat="37.6878665" lon="12.6704185"><ele>40.0</ele><time>2026-03-29T15:21:50.873Z</time></trkpt><trkpt lat="37.6878573" lon="12.6702818"><ele>40.0</ele><time>2026-03-29T15:21:51.872Z</time></trkpt><trkpt lat="37.6878354" lon="12.6701372"><ele>40.0</ele><time>2026-03-29T15:21:52.872Z</time></trkpt><trkpt lat="37.6878121" lon="12.6700009"><ele>40.0</ele><time>2026-03-29T15:21:53.872Z</time></trkpt><trkpt lat="37.6877866" lon="12.6698722"><ele>39.4</ele><time>2026-03-29T15:21:54.872Z</time></trkpt><trkpt lat="37.6877569" lon="12.6697537"><ele>38.8</ele><time>2026-03-29T15:21:55.872Z</time></trkpt><trkpt lat="37.6877273" lon="12.6696369"><ele>38.2</ele><time>2026-03-29T15:21:56.873Z</time></trkpt><trkpt lat="37.6876984" lon="12.6695107"><ele>37.6</ele><time>2026-03-29T15:21:57.872Z</time></trkpt><trkpt lat="37.6876603" lon="12.6693777"><ele>37.0</ele><time>2026-03-29T15:21:58.873Z</time></trkpt><trkpt lat="37.6875989" lon="12.6692137"><ele>36.333333333333336</ele><time>2026-03-29T15:21:59.872Z</time></trkpt><trkpt lat="37.6875106" lon="12.6690049"><ele>35.666666666666664</ele><time>2026-03-29T15:22:00.872Z</time></trkpt><trkpt lat="37.687411" lon="12.66876"><ele>35.0</ele><time>2026-03-29T15:22:01.872Z</time></trkpt><trkpt lat="37.6873166" lon="12.6685259"><ele>34.0</ele><time>2026-03-29T15:22:02.872Z</time></trkpt><trkpt lat="37.6872303" lon="12.6683151"><ele>33.0</ele><time>2026-03-29T15:22:03.872Z</time></trkpt><trkpt lat="37.6871487" lon="12.6681188"><ele>32.0</ele><time>2026-03-29T15:22:04.873Z</time></trkpt><trkpt lat="37.6870671" lon="12.6679222"><ele>31.666666666666664</ele><time>2026-03-29T15:22:05.872Z</time></trkpt><trkpt lat="37.6869894" lon="12.6677351"><ele>31.333333333333336</ele><time>2026-03-29T15:22:06.873Z</time></trkpt><trkpt lat="37.6869111" lon="12.6675512"><ele>31.0</ele><time>2026-03-29T15:22:07.872Z</time></trkpt><trkpt lat="37.6868385" lon="12.6673683"><ele>31.0</ele><time>2026-03-29T15:22:08.871Z</time></trkpt><trkpt lat="37.6867655" lon="12.6671938"><ele>31.0</ele><time>2026-03-29T15:22:09.873Z</time></trkpt><trkpt lat="37.6866954" lon="12.6670222"><ele>31.0</ele><time>2026-03-29T15:22:10.872Z</time></trkpt><trkpt lat="37.6866226" lon="12.6668491"><ele>30.5</ele><time>2026-03-29T15:22:11.872Z</time></trkpt><trkpt lat="37.686557" lon="12.6666815"><ele>30.0</ele><time>2026-03-29T15:22:12.873Z</time></trkpt><trkpt lat="37.6864948" lon="12.6665183"><ele>29.5</ele><time>2026-03-29T15:22:13.872Z</time></trkpt><trkpt lat="37.6864335" lon="12.66635"><ele>29.0</ele><time>2026-03-29T15:22:14.873Z</time></trkpt><trkpt lat="37.6863703" lon="12.6661845"><ele>28.75</ele><time>2026-03-29T15:22:15.873Z</time></trkpt><trkpt lat="37.6863042" lon="12.6660225"><ele>28.5</ele><time>2026-03-29T15:22:16.871Z</time></trkpt><trkpt lat="37.6862386" lon="12.6658595"><ele>28.25</ele><time>2026-03-29T15:22:17.872Z</time></trkpt><trkpt lat="37.6861786" lon="12.6656981"><ele>28.0</ele><time>2026-03-29T15:22:18.873Z</time></trkpt><trkpt lat="37.686119" lon="12.6655417"><ele>28.0</ele><time>2026-03-29T15:22:19.871Z</time></trkpt><trkpt lat="37.6860585" lon="12.6653795"><ele>28.0</ele><time>2026-03-29T15:22:20.873Z</time></trkpt><trkpt lat="37.6859968" lon="12.6652177"><ele>28.0</ele><time>2026-03-29T15:22:21.872Z</time></trkpt><trkpt lat="37.6859385" lon="12.6650493"><ele>28.0</ele><time>2026-03-29T15:22:22.872Z</time></trkpt><trkpt lat="37.6858784" lon="12.6648858"><ele>27.666666666666668</ele><time>2026-03-29T15:22:23.872Z</time></trkpt><trkpt lat="37.685813" lon="12.6647201"><ele>27.333333333333336</ele><time>2026-03-29T15:22:24.872Z</time></trkpt><trkpt lat="37.6857364" lon="12.6645562"><ele>27.0</ele><time>2026-03-29T15:22:25.872Z</time></trkpt><trkpt lat="37.6856421" lon="12.6644011"><ele>27.0</ele><time>2026-03-29T15:22:26.872Z</time></trkpt><trkpt lat="37.6855236" lon="12.6642617"><ele>27.0</ele><time>2026-03-29T15:22:27.873Z</time></trkpt><trkpt lat="37.6853934" lon="12.6641416"><ele>27.0</ele><time>2026-03-29T15:22:28.872Z</time></trkpt><trkpt lat="37.6852694" lon="12.6640325"><ele>26.75</ele><time>2026-03-29T15:22:29.871Z</time></trkpt><trkpt lat="37.6851485" lon="12.6639201"><ele>26.5</ele><time>2026-03-29T15:22:30.872Z</time></trkpt><trkpt lat="37.6850275" lon="12.6638126"><ele>26.25</ele><time>2026-03-29T15:22:31.873Z</time></trkpt><trkpt lat="37.6849099" lon="12.6637054"><ele>26.0</ele><time>2026-03-29T15:22:32.873Z</time></trkpt><trkpt lat="37.6847871" lon="12.6636036"><ele>26.0</ele><time>2026-03-29T15:22:33.872Z</time></trkpt><trkpt lat="37.6846667" lon="12.6634988"><ele>26.0</ele><time>2026-03-29T15:22:34.872Z</time></trkpt><trkpt lat="37.6845417" lon="12.6633929"><ele>26.0</ele><time>2026-03-29T15:22:35.872Z</time></trkpt><trkpt lat="37.6844157" lon="12.6632896"><ele>26.0</ele><time>2026-03-29T15:22:36.871Z</time></trkpt><trkpt lat="37.6842941" lon="12.6631833"><ele>26.0</ele><time>2026-03-29T15:22:37.872Z</time></trkpt><trkpt lat="37.6841745" lon="12.663074"><ele>26.0</ele><time>2026-03-29T15:22:38.873Z</time></trkpt><trkpt lat="37.6840567" lon="12.6629698"><ele>26.0</ele><time>2026-03-29T15:22:39.871Z</time></trkpt><trkpt lat="37.6839374" lon="12.6628657"><ele>26.0</ele><time>2026-03-29T15:22:40.872Z</time></trkpt><trkpt lat="37.6838166" lon="12.6627614"><ele>26.0</ele><time>2026-03-29T15:22:41.873Z</time></trkpt><trkpt lat="37.6837097" lon="12.6626639"><ele>26.0</ele><time>2026-03-29T15:22:42.873Z</time></trkpt><trkpt lat="37.6835979" lon="12.6625587"><ele>26.0</ele><time>2026-03-29T15:22:43.873Z</time></trkpt><trkpt lat="37.6834861" lon="12.6624579"><ele>26.0</ele><time>2026-03-29T15:22:44.873Z</time></trkpt><trkpt lat="37.6833761" lon="12.6623586"><ele>25.5</ele><time>2026-03-29T15:22:45.872Z</time></trkpt><trkpt lat="37.6832656" lon="12.6622624"><ele>25.0</ele><time>2026-03-29T15:22:46.872Z</time></trkpt><trkpt lat="37.6831564" lon="12.6621619"><ele>24.5</ele><time>2026-03-29T15:22:47.872Z</time></trkpt><trkpt lat="37.6830437" lon="12.6620706"><ele>24.0</ele><time>2026-03-29T15:22:48.871Z</time></trkpt><trkpt lat="37.682938" lon="12.6619898"><ele>24.25</ele><time>2026-03-29T15:22:49.872Z</time></trkpt><trkpt lat="37.6828456" lon="12.6619058"><ele>24.5</ele><time>2026-03-29T15:22:50.871Z</time></trkpt><trkpt lat="37.6827628" lon="12.6618119"><ele>24.75</ele><time>2026-03-29T15:22:51.872Z</time></trkpt><trkpt lat="37.6826872" lon="12.661693"><ele>25.0</ele><time>2026-03-29T15:22:52.87Z</time></trkpt><trkpt lat="37.6826282" lon="12.6615517"><ele>24.0</ele><time>2026-03-29T15:22:53.872Z</time></trkpt><trkpt lat="37.682582" lon="12.6614054"><ele>23.0</ele><time>2026-03-29T15:22:54.872Z</time></trkpt><trkpt lat="37.6825583" lon="12.6612335"><ele>22.0</ele><time>2026-03-29T15:22:55.872Z</time></trkpt><trkpt lat="37.6825442" lon="12.6610548"><ele>21.0</ele><time>2026-03-29T15:22:56.871Z</time></trkpt><trkpt lat="37.6825366" lon="12.6608775"><ele>21.0</ele><time>2026-03-29T15:22:57.872Z</time></trkpt><trkpt lat="37.6825313" lon="12.6606992"><ele>21.0</ele><time>2026-03-29T15:22:58.872Z</time></trkpt><trkpt lat="37.6825287" lon="12.6605238"><ele>21.0</ele><time>2026-03-29T15:22:59.873Z</time></trkpt><trkpt lat="37.6825263" lon="12.6603445"><ele>21.0</ele><time>2026-03-29T15:23:00.871Z</time></trkpt><trkpt lat="37.6825215" lon="12.6601645"><ele>21.0</ele><time>2026-03-29T15:23:01.873Z</time></trkpt><trkpt lat="37.6825149" lon="12.659984"><ele>21.0</ele><time>2026-03-29T15:23:02.872Z</time></trkpt><trkpt lat="37.6825117" lon="12.6598097"><ele>21.0</ele><time>2026-03-29T15:23:03.871Z</time></trkpt><trkpt lat="37.6825091" lon="12.6596286"><ele>21.0</ele><time>2026-03-29T15:23:04.872Z</time></trkpt><trkpt lat="37.6825066" lon="12.6594402"><ele>20.666666666666668</ele><time>2026-03-29T15:23:05.873Z</time></trkpt><trkpt lat="37.6825037" lon="12.6592503"><ele>20.333333333333336</ele><time>2026-03-29T15:23:06.873Z</time></trkpt><trkpt lat="37.6825026" lon="12.6590608"><ele>20.0</ele><time>2026-03-29T15:23:07.872Z</time></trkpt><trkpt lat="37.6825004" lon="12.6588653"><ele>20.0</ele><time>2026-03-29T15:23:08.873Z</time></trkpt><trkpt lat="37.6824987" lon="12.658671"><ele>20.0</ele><time>2026-03-29T15:23:09.873Z</time></trkpt><trkpt lat="37.6824928" lon="12.6584747"><ele>20.0</ele><time>2026-03-29T15:23:10.871Z</time></trkpt><trkpt lat="37.6824867" lon="12.6582781"><ele>20.333333333333336</ele><time>2026-03-29T15:23:11.872Z</time></trkpt><trkpt lat="37.6824861" lon="12.6580843"><ele>20.666666666666668</ele><time>2026-03-29T15:23:12.872Z</time></trkpt><trkpt lat="37.6824787" lon="12.6578857"><ele>21.0</ele><time>2026-03-29T15:23:13.873Z</time></trkpt><trkpt lat="37.6824724" lon="12.6576864"><ele>21.666666666666668</ele><time>2026-03-29T15:23:14.873Z</time></trkpt><trkpt lat="37.6824619" lon="12.6574901"><ele>22.333333333333336</ele><time>2026-03-29T15:23:15.873Z</time></trkpt><trkpt lat="37.6824536" lon="12.6572935"><ele>23.0</ele><time>2026-03-29T15:23:16.872Z</time></trkpt><trkpt lat="37.6824445" lon="12.6570964"><ele>23.333333333333336</ele><time>2026-03-29T15:23:17.871Z</time></trkpt><trkpt lat="37.6824294" lon="12.6569001"><ele>23.666666666666668</ele><time>2026-03-29T15:23:18.872Z</time></trkpt><trkpt lat="37.6824121" lon="12.6566973"><ele>24.0</ele><time>2026-03-29T15:23:19.873Z</time></trkpt><trkpt lat="37.6823983" lon="12.6565146"><ele>24.0</ele><time>2026-03-29T15:23:20.873Z</time></trkpt><trkpt lat="37.6823855" lon="12.656342"><ele>24.0</ele><time>2026-03-29T15:23:21.872Z</time></trkpt><trkpt lat="37.6823701" lon="12.6561941"><ele>24.0</ele><time>2026-03-29T15:23:22.871Z</time></trkpt><trkpt lat="37.6823661" lon="12.6560421"><ele>24.0</ele><time>2026-03-29T15:23:23.872Z</time></trkpt><trkpt lat="37.6823638" lon="12.6558851"><ele>23.666666666666668</ele><time>2026-03-29T15:23:24.872Z</time></trkpt><trkpt lat="37.6823364" lon="12.6556908"><ele>23.333333333333336</ele><time>2026-03-29T15:23:25.872Z</time></trkpt><trkpt lat="37.6822948" lon="12.6554706"><ele>23.0</ele><time>2026-03-29T15:23:26.872Z</time></trkpt><trkpt lat="37.6822345" lon="12.6552078"><ele>22.333333333333336</ele><time>2026-03-29T15:23:27.872Z</time></trkpt><trkpt lat="37.6821833" lon="12.6549672"><ele>21.666666666666668</ele><time>2026-03-29T15:23:28.871Z</time></trkpt><trkpt lat="37.6821353" lon="12.6547464"><ele>21.0</ele><time>2026-03-29T15:23:29.873Z</time></trkpt><trkpt lat="37.68209" lon="12.6545485"><ele>20.666666666666668</ele><time>2026-03-29T15:23:30.873Z</time></trkpt><trkpt lat="37.6820447" lon="12.6543577"><ele>20.333333333333336</ele><time>2026-03-29T15:23:31.872Z</time></trkpt><trkpt lat="37.6820022" lon="12.6541699"><ele>20.0</ele><time>2026-03-29T15:23:32.873Z</time></trkpt><trkpt lat="37.6819632" lon="12.6539817"><ele>20.0</ele><time>2026-03-29T15:23:33.873Z</time></trkpt><trkpt lat="37.6819244" lon="12.6537946"><ele>20.0</ele><time>2026-03-29T15:23:34.871Z</time></trkpt><trkpt lat="37.6818809" lon="12.6536058"><ele>20.0</ele><time>2026-03-29T15:23:35.872Z</time></trkpt><trkpt lat="37.6818414" lon="12.6534326"><ele>21.0</ele><time>2026-03-29T15:23:36.872Z</time></trkpt><trkpt lat="37.681801" lon="12.6532608"><ele>22.0</ele><time>2026-03-29T15:23:37.872Z</time></trkpt><trkpt lat="37.6817651" lon="12.6531057"><ele>23.0</ele><time>2026-03-29T15:23:38.872Z</time></trkpt><trkpt lat="37.6817353" lon="12.6529627"><ele>24.0</ele><time>2026-03-29T15:23:39.872Z</time></trkpt><trkpt lat="37.6817039" lon="12.6528312"><ele>24.0</ele><time>2026-03-29T15:23:40.871Z</time></trkpt><trkpt lat="37.6816723" lon="12.652705"><ele>24.0</ele><time>2026-03-29T15:23:41.873Z</time></trkpt><trkpt lat="37.6816379" lon="12.652572"><ele>24.0</ele><time>2026-03-29T15:23:42.873Z</time></trkpt><trkpt lat="37.6816021" lon="12.6524286"><ele>24.0</ele><time>2026-03-29T15:23:43.872Z</time></trkpt><trkpt lat="37.6815671" lon="12.652276"><ele>24.0</ele><time>2026-03-29T15:23:44.872Z</time></trkpt><trkpt lat="37.6815333" lon="12.6521115"><ele>24.0</ele><time>2026-03-29T15:23:45.872Z</time></trkpt><trkpt lat="37.6814972" lon="12.6519334"><ele>24.0</ele><time>2026-03-29T15:23:46.872Z</time></trkpt><trkpt lat="37.6814503" lon="12.6517544"><ele>24.0</ele><time>2026-03-29T15:23:47.872Z</time></trkpt><trkpt lat="37.681394" lon="12.6515777"><ele>24.0</ele><time>2026-03-29T15:23:48.873Z</time></trkpt><trkpt lat="37.6813248" lon="12.651407"><ele>24.0</ele><time>2026-03-29T15:23:49.87Z</time></trkpt><trkpt lat="37.6812363" lon="12.6512458"><ele>24.0</ele><time>2026-03-29T15:23:50.873Z</time></trkpt><trkpt lat="37.6811325" lon="12.6511019"><ele>23.333333333333332</ele><time>2026-03-29T15:23:51.871Z</time></trkpt><trkpt lat="37.6810219" lon="12.6509672"><ele>22.666666666666664</ele><time>2026-03-29T15:23:52.873Z</time></trkpt><trkpt lat="37.6809095" lon="12.6508338"><ele>22.0</ele><time>2026-03-29T15:23:53.873Z</time></trkpt><trkpt lat="37.6807904" lon="12.6506942"><ele>22.0</ele><time>2026-03-29T15:23:54.873Z</time></trkpt><trkpt lat="37.6806552" lon="12.6505417"><ele>22.0</ele><time>2026-03-29T15:23:55.872Z</time></trkpt><trkpt lat="37.6805316" lon="12.6503938"><ele>22.0</ele><time>2026-03-29T15:23:56.872Z</time></trkpt><trkpt lat="37.6804078" lon="12.6502485"><ele>22.0</ele><time>2026-03-29T15:23:57.872Z</time></trkpt><trkpt lat="37.6802523" lon="12.6500683"><ele>22.0</ele><time>2026-03-29T15:23:58.872Z</time></trkpt><trkpt lat="37.6801131" lon="12.6499073"><ele>22.0</ele><time>2026-03-29T15:23:59.873Z</time></trkpt><trkpt lat="37.6799874" lon="12.649748"><ele>22.0</ele><time>2026-03-29T15:24:00.872Z</time></trkpt><trkpt lat="37.6798768" lon="12.6495821"><ele>22.0</ele><time>2026-03-29T15:24:01.873Z</time></trkpt><trkpt lat="37.6797722" lon="12.6494089"><ele>22.0</ele><time>2026-03-29T15:24:02.871Z</time></trkpt><trkpt lat="37.6796792" lon="12.649228"><ele>22.0</ele><time>2026-03-29T15:24:03.873Z</time></trkpt><trkpt lat="37.6795948" lon="12.6490455"><ele>22.0</ele><time>2026-03-29T15:24:04.871Z</time></trkpt><trkpt lat="37.6795174" lon="12.6488762"><ele>22.0</ele><time>2026-03-29T15:24:05.872Z</time></trkpt><trkpt lat="37.6794388" lon="12.6487158"><ele>22.25</ele><time>2026-03-29T15:24:06.873Z</time></trkpt><trkpt lat="37.6793689" lon="12.6485557"><ele>22.5</ele><time>2026-03-29T15:24:07.872Z</time></trkpt><trkpt lat="37.6793012" lon="12.6484002"><ele>22.75</ele><time>2026-03-29T15:24:08.873Z</time></trkpt><trkpt lat="37.6792267" lon="12.648249"><ele>23.0</ele><time>2026-03-29T15:24:09.872Z</time></trkpt><trkpt lat="37.6791547" lon="12.6480946"><ele>23.0</ele><time>2026-03-29T15:24:10.873Z</time></trkpt><trkpt lat="37.6790799" lon="12.6479429"><ele>23.0</ele><time>2026-03-29T15:24:11.873Z</time></trkpt><trkpt lat="37.6790087" lon="12.6477902"><ele>23.0</ele><time>2026-03-29T15:24:12.872Z</time></trkpt><trkpt lat="37.678934" lon="12.6476392"><ele>23.0</ele><time>2026-03-29T15:24:13.872Z</time></trkpt><trkpt lat="37.6788639" lon="12.6474869"><ele>22.75</ele><time>2026-03-29T15:24:14.872Z</time></trkpt><trkpt lat="37.6787969" lon="12.6473343"><ele>22.5</ele><time>2026-03-29T15:24:15.872Z</time></trkpt><trkpt lat="37.6787299" lon="12.6471803"><ele>22.25</ele><time>2026-03-29T15:24:16.872Z</time></trkpt><trkpt lat="37.6786642" lon="12.6470277"><ele>22.0</ele><time>2026-03-29T15:24:17.873Z</time></trkpt><trkpt lat="37.6785764" lon="12.6468422"><ele>22.666666666666664</ele><time>2026-03-29T15:24:18.873Z</time></trkpt><trkpt lat="37.6784814" lon="12.6466149"><ele>23.333333333333332</ele><time>2026-03-29T15:24:19.872Z</time></trkpt><trkpt lat="37.6783844" lon="12.6463821"><ele>24.0</ele><time>2026-03-29T15:24:20.873Z</time></trkpt><trkpt lat="37.6783015" lon="12.6461768"><ele>26.0</ele><time>2026-03-29T15:24:21.873Z</time></trkpt><trkpt lat="37.6782259" lon="12.6459836"><ele>28.0</ele><time>2026-03-29T15:24:22.872Z</time></trkpt><trkpt lat="37.6781526" lon="12.6458064"><ele>30.0</ele><time>2026-03-29T15:24:23.871Z</time></trkpt><trkpt lat="37.6780828" lon="12.6456337"><ele>30.0</ele><time>2026-03-29T15:24:24.872Z</time></trkpt><trkpt lat="37.6780152" lon="12.6454692"><ele>30.0</ele><time>2026-03-29T15:24:25.871Z</time></trkpt><trkpt lat="37.6779461" lon="12.6453024"><ele>30.0</ele><time>2026-03-29T15:24:26.872Z</time></trkpt><trkpt lat="37.6778832" lon="12.6451445"><ele>30.0</ele><time>2026-03-29T15:24:27.872Z</time></trkpt><trkpt lat="37.6778222" lon="12.644983"><ele>30.75</ele><time>2026-03-29T15:24:28.872Z</time></trkpt><trkpt lat="37.6777689" lon="12.6448193"><ele>31.5</ele><time>2026-03-29T15:24:29.871Z</time></trkpt><trkpt lat="37.6777191" lon="12.6446683"><ele>32.25</ele><time>2026-03-29T15:24:30.872Z</time></trkpt><trkpt lat="37.677675" lon="12.644533"><ele>33.0</ele><time>2026-03-29T15:24:31.871Z</time></trkpt><trkpt lat="37.6776322" lon="12.6444076"><ele>33.5</ele><time>2026-03-29T15:24:32.873Z</time></trkpt><trkpt lat="37.6776038" lon="12.6443068"><ele>34.0</ele><time>2026-03-29T15:24:33.872Z</time></trkpt><trkpt lat="37.6775765" lon="12.6442158"><ele>34.5</ele><time>2026-03-29T15:24:34.872Z</time></trkpt><trkpt lat="37.6775538" lon="12.6441222"><ele>35.0</ele><time>2026-03-29T15:24:35.872Z</time></trkpt><trkpt lat="37.6775184" lon="12.6440328"><ele>35.5</ele><time>2026-03-29T15:24:36.871Z</time></trkpt><trkpt lat="37.6774783" lon="12.6439301"><ele>36.0</ele><time>2026-03-29T15:24:37.873Z</time></trkpt><trkpt lat="37.6774405" lon="12.6438198"><ele>36.0</ele><time>2026-03-29T15:24:38.872Z</time></trkpt><trkpt lat="37.6773969" lon="12.6437028"><ele>36.0</ele><time>2026-03-29T15:24:39.871Z</time></trkpt><trkpt lat="37.6773527" lon="12.6435593"><ele>36.0</ele><time>2026-03-29T15:24:40.873Z</time></trkpt><trkpt lat="37.6773017" lon="12.6433928"><ele>36.0</ele><time>2026-03-29T15:24:41.872Z</time></trkpt><trkpt lat="37.6772423" lon="12.6432171"><ele>37.25</ele><time>2026-03-29T15:24:42.872Z</time></trkpt><trkpt lat="37.6771833" lon="12.6430485"><ele>38.5</ele><time>2026-03-29T15:24:43.872Z</time></trkpt><trkpt lat="37.677133" lon="12.6428828"><ele>39.75</ele><time>2026-03-29T15:24:44.872Z</time></trkpt><trkpt lat="37.6770822" lon="12.642721"><ele>41.0</ele><time>2026-03-29T15:24:45.873Z</time></trkpt><trkpt lat="37.6770272" lon="12.6425661"><ele>42.25</ele><time>2026-03-29T15:24:46.871Z</time></trkpt><trkpt lat="37.6769833" lon="12.6424111"><ele>43.5</ele><time>2026-03-29T15:24:47.873Z</time></trkpt><trkpt lat="37.6769292" lon="12.6422572"><ele>44.75</ele><time>2026-03-29T15:24:48.871Z</time></trkpt><trkpt lat="37.6768792" lon="12.6420993"><ele>46.0</ele><time>2026-03-29T15:24:49.872Z</time></trkpt><trkpt lat="37.6768289" lon="12.6419454"><ele>48.5</ele><time>2026-03-29T15:24:50.872Z</time></trkpt><trkpt lat="37.6767753" lon="12.6417877"><ele>51.0</ele><time>2026-03-29T15:24:51.872Z</time></trkpt><trkpt lat="37.6767285" lon="12.6416302"><ele>53.5</ele><time>2026-03-29T15:24:52.873Z</time></trkpt><trkpt lat="37.6766783" lon="12.6414707"><ele>56.0</ele><time>2026-03-29T15:24:53.872Z</time></trkpt><trkpt lat="37.6766248" lon="12.6413334"><ele>56.0</ele><time>2026-03-29T15:24:54.871Z</time></trkpt><trkpt lat="37.6765422" lon="12.6411936"><ele>56.0</ele><time>2026-03-29T15:24:55.872Z</time></trkpt><trkpt lat="37.6764247" lon="12.6410432"><ele>56.0</ele><time>2026-03-29T15:24:56.872Z</time></trkpt><trkpt lat="37.6762696" lon="12.6408665"><ele>57.66666666666667</ele><time>2026-03-29T15:24:57.872Z</time></trkpt><trkpt lat="37.6761339" lon="12.6407059"><ele>59.33333333333333</ele><time>2026-03-29T15:24:58.871Z</time></trkpt><trkpt lat="37.6760026" lon="12.6405599"><ele>61.0</ele><time>2026-03-29T15:24:59.873Z</time></trkpt><trkpt lat="37.6758713" lon="12.6404301"><ele>61.0</ele><time>2026-03-29T15:25:00.872Z</time></trkpt><trkpt lat="37.675737" lon="12.6403153"><ele>61.0</ele><time>2026-03-29T15:25:01.873Z</time></trkpt><trkpt lat="37.6755914" lon="12.6402054"><ele>61.0</ele><time>2026-03-29T15:25:02.871Z</time></trkpt><trkpt lat="37.675436" lon="12.6400901"><ele>60.33333333333333</ele><time>2026-03-29T15:25:03.872Z</time></trkpt><trkpt lat="37.6752505" lon="12.6399459"><ele>59.66666666666667</ele><time>2026-03-29T15:25:04.872Z</time></trkpt><trkpt lat="37.6750693" lon="12.6397957"><ele>59.0</ele><time>2026-03-29T15:25:05.873Z</time></trkpt><trkpt lat="37.6749031" lon="12.6396556"><ele>59.0</ele><time>2026-03-29T15:25:06.873Z</time></trkpt><trkpt lat="37.6747481" lon="12.6395251"><ele>59.0</ele><time>2026-03-29T15:25:07.872Z</time></trkpt><trkpt lat="37.6746087" lon="12.6393907"><ele>59.0</ele><time>2026-03-29T15:25:08.872Z</time></trkpt><trkpt lat="37.6744786" lon="12.6392589"><ele>59.66666666666667</ele><time>2026-03-29T15:25:09.873Z</time></trkpt><trkpt lat="37.6743489" lon="12.6391386"><ele>60.33333333333333</ele><time>2026-03-29T15:25:10.871Z</time></trkpt><trkpt lat="37.674225" lon="12.63902"><ele>61.0</ele><time>2026-03-29T15:25:11.872Z</time></trkpt><trkpt lat="37.6741026" lon="12.638899"><ele>61.0</ele><time>2026-03-29T15:25:12.87Z</time></trkpt><trkpt lat="37.6739775" lon="12.6387795"><ele>61.0</ele><time>2026-03-29T15:25:13.871Z</time></trkpt><trkpt lat="37.67385" lon="12.6386594"><ele>61.0</ele><time>2026-03-29T15:25:14.873Z</time></trkpt><trkpt lat="37.6737247" lon="12.6385377"><ele>60.666666666666664</ele><time>2026-03-29T15:25:15.872Z</time></trkpt><trkpt lat="37.6735955" lon="12.6384172"><ele>60.33333333333333</ele><time>2026-03-29T15:25:16.872Z</time></trkpt><trkpt lat="37.6734662" lon="12.6382997"><ele>60.0</ele><time>2026-03-29T15:25:17.871Z</time></trkpt><trkpt lat="37.6733292" lon="12.6381819"><ele>60.0</ele><time>2026-03-29T15:25:18.871Z</time></trkpt><trkpt lat="37.6731941" lon="12.6380648"><ele>60.0</ele><time>2026-03-29T15:25:19.872Z</time></trkpt><trkpt lat="37.6730609" lon="12.6379475"><ele>60.0</ele><time>2026-03-29T15:25:20.872Z</time></trkpt><trkpt lat="37.6729211" lon="12.6378281"><ele>60.0</ele><time>2026-03-29T15:25:21.873Z</time></trkpt><trkpt lat="37.6727987" lon="12.6377248"><ele>60.0</ele><time>2026-03-29T15:25:22.872Z</time></trkpt><trkpt lat="37.6726733" lon="12.6376163"><ele>60.0</ele><time>2026-03-29T15:25:23.873Z</time></trkpt><trkpt lat="37.672548" lon="12.6375005"><ele>60.0</ele><time>2026-03-29T15:25:24.871Z</time></trkpt><trkpt lat="37.6724224" lon="12.6373817"><ele>60.0</ele><time>2026-03-29T15:25:25.873Z</time></trkpt><trkpt lat="37.6722965" lon="12.6372612"><ele>60.0</ele><time>2026-03-29T15:25:26.873Z</time></trkpt><trkpt lat="37.6721698" lon="12.6371432"><ele>60.0</ele><time>2026-03-29T15:25:27.872Z</time></trkpt><trkpt lat="37.6720394" lon="12.6370274"><ele>60.0</ele><time>2026-03-29T15:25:28.872Z</time></trkpt><trkpt lat="37.6719125" lon="12.6369065"><ele>60.0</ele><time>2026-03-29T15:25:29.873Z</time></trkpt><trkpt lat="37.6717863" lon="12.6367868"><ele>59.66666666666667</ele><time>2026-03-29T15:25:30.872Z</time></trkpt><trkpt lat="37.6716641" lon="12.6366651"><ele>59.333333333333336</ele><time>2026-03-29T15:25:31.873Z</time></trkpt><trkpt lat="37.6715404" lon="12.636545"><ele>59.0</ele><time>2026-03-29T15:25:32.872Z</time></trkpt><trkpt lat="37.6714139" lon="12.636423"><ele>59.0</ele><time>2026-03-29T15:25:33.873Z</time></trkpt><trkpt lat="37.6712907" lon="12.6363035"><ele>59.0</ele><time>2026-03-29T15:25:34.871Z</time></trkpt><trkpt lat="37.6711664" lon="12.6361818"><ele>59.0</ele><time>2026-03-29T15:25:35.872Z</time></trkpt><trkpt lat="37.6710453" lon="12.6360582"><ele>58.5</ele><time>2026-03-29T15:25:36.872Z</time></trkpt><trkpt lat="37.6709272" lon="12.6359399"><ele>58.0</ele><time>2026-03-29T15:25:37.872Z</time></trkpt><trkpt lat="37.6708184" lon="12.6358353"><ele>57.5</ele><time>2026-03-29T15:25:38.873Z</time></trkpt><trkpt lat="37.6707133" lon="12.6357364"><ele>57.0</ele><time>2026-03-29T15:25:39.871Z</time></trkpt><trkpt lat="37.6706064" lon="12.6356385"><ele>57.0</ele><time>2026-03-29T15:25:40.872Z</time></trkpt><trkpt lat="37.6705116" lon="12.6355487"><ele>57.0</ele><time>2026-03-29T15:25:41.872Z</time></trkpt><trkpt lat="37.6704325" lon="12.6354689"><ele>57.0</ele><time>2026-03-29T15:25:42.872Z</time></trkpt><trkpt lat="37.6703609" lon="12.6353945"><ele>57.0</ele><time>2026-03-29T15:25:43.873Z</time></trkpt><trkpt lat="37.6702974" lon="12.6353298"><ele>57.0</ele><time>2026-03-29T15:25:44.872Z</time></trkpt><trkpt lat="37.6702448" lon="12.6352665"><ele>57.0</ele><time>2026-03-29T15:25:45.872Z</time></trkpt><trkpt lat="37.6701916" lon="12.6352001"><ele>57.0</ele><time>2026-03-29T15:25:46.873Z</time></trkpt><trkpt lat="37.6701003" lon="12.635102"><ele>57.0</ele><time>2026-03-29T15:25:47.872Z</time></trkpt><trkpt lat="37.6700047" lon="12.6350016"><ele>57.0</ele><time>2026-03-29T15:25:48.873Z</time></trkpt><trkpt lat="37.66991" lon="12.6349051"><ele>57.0</ele><time>2026-03-29T15:25:49.872Z</time></trkpt><trkpt lat="37.6698161" lon="12.6348067"><ele>57.0</ele><time>2026-03-29T15:25:50.872Z</time></trkpt><trkpt lat="37.6697148" lon="12.6347036"><ele>57.0</ele><time>2026-03-29T15:25:51.872Z</time></trkpt><trkpt lat="37.6696089" lon="12.6345906"><ele>57.0</ele><time>2026-03-29T15:25:52.873Z</time></trkpt><trkpt lat="37.6695125" lon="12.6344694"><ele>57.0</ele><time>2026-03-29T15:25:53.873Z</time></trkpt><trkpt lat="37.6694369" lon="12.6343465"><ele>57.2</ele><time>2026-03-29T15:25:54.871Z</time></trkpt><trkpt lat="37.6693733" lon="12.6342136"><ele>57.400000000000006</ele><time>2026-03-29T15:25:55.872Z</time></trkpt><trkpt lat="37.669324" lon="12.6340897"><ele>57.599999999999994</ele><time>2026-03-29T15:25:56.871Z</time></trkpt><trkpt lat="37.6692853" lon="12.6339666"><ele>57.8</ele><time>2026-03-29T15:25:57.872Z</time></trkpt><trkpt lat="37.669256" lon="12.6338385"><ele>58.0</ele><time>2026-03-29T15:25:58.872Z</time></trkpt><trkpt lat="37.6692207" lon="12.6337152"><ele>57.8</ele><time>2026-03-29T15:25:59.871Z</time></trkpt><trkpt lat="37.6691898" lon="12.6335995"><ele>57.599999999999994</ele><time>2026-03-29T15:26:00.873Z</time></trkpt><trkpt lat="37.6691618" lon="12.6334883"><ele>57.400000000000006</ele><time>2026-03-29T15:26:01.873Z</time></trkpt><trkpt lat="37.6691304" lon="12.6333758"><ele>57.2</ele><time>2026-03-29T15:26:02.871Z</time></trkpt><trkpt lat="37.6690971" lon="12.6332636"><ele>57.0</ele><time>2026-03-29T15:26:03.872Z</time></trkpt><trkpt lat="37.6690686" lon="12.6331598"><ele>57.0</ele><time>2026-03-29T15:26:04.87Z</time></trkpt><trkpt lat="37.6690384" lon="12.6330576"><ele>57.0</ele><time>2026-03-29T15:26:05.872Z</time></trkpt><trkpt lat="37.6690136" lon="12.6329615"><ele>57.0</ele><time>2026-03-29T15:26:06.872Z</time></trkpt><trkpt lat="37.6689893" lon="12.6328704"><ele>57.0</ele><time>2026-03-29T15:26:07.872Z</time></trkpt><trkpt lat="37.6689681" lon="12.6327832"><ele>57.0</ele><time>2026-03-29T15:26:08.871Z</time></trkpt><trkpt lat="37.6689419" lon="12.632692"><ele>57.0</ele><time>2026-03-29T15:26:09.873Z</time></trkpt><trkpt lat="37.6689086" lon="12.632591"><ele>57.0</ele><time>2026-03-29T15:26:10.872Z</time></trkpt><trkpt lat="37.6688749" lon="12.6324773"><ele>57.0</ele><time>2026-03-29T15:26:11.871Z</time></trkpt><trkpt lat="37.6688315" lon="12.6323282"><ele>57.0</ele><time>2026-03-29T15:26:12.871Z</time></trkpt><trkpt lat="37.668787" lon="12.6321585"><ele>57.0</ele><time>2026-03-29T15:26:13.872Z</time></trkpt><trkpt lat="37.6687395" lon="12.6319762"><ele>57.0</ele><time>2026-03-29T15:26:14.871Z</time></trkpt><trkpt lat="37.6686924" lon="12.6317916"><ele>57.0</ele><time>2026-03-29T15:26:15.873Z</time></trkpt><trkpt lat="37.6686375" lon="12.6316158"><ele>57.0</ele><time>2026-03-29T15:26:16.872Z</time></trkpt><trkpt lat="37.6685882" lon="12.6314445"><ele>57.0</ele><time>2026-03-29T15:26:17.872Z</time></trkpt><trkpt lat="37.6685339" lon="12.6312713"><ele>55.66666666666667</ele><time>2026-03-29T15:26:18.872Z</time></trkpt><trkpt lat="37.6684767" lon="12.6310976"><ele>54.333333333333336</ele><time>2026-03-29T15:26:19.871Z</time></trkpt><trkpt lat="37.6684164" lon="12.6309253"><ele>53.0</ele><time>2026-03-29T15:26:20.873Z</time></trkpt><trkpt lat="37.6683496" lon="12.6307521"><ele>53.0</ele><time>2026-03-29T15:26:21.872Z</time></trkpt><trkpt lat="37.6682877" lon="12.6305785"><ele>53.0</ele><time>2026-03-29T15:26:22.872Z</time></trkpt><trkpt lat="37.6682247" lon="12.6304034"><ele>53.0</ele><time>2026-03-29T15:26:23.872Z</time></trkpt><trkpt lat="37.6681588" lon="12.6302214"><ele>53.66666666666667</ele><time>2026-03-29T15:26:24.871Z</time></trkpt><trkpt lat="37.6680953" lon="12.6300329"><ele>54.33333333333333</ele><time>2026-03-29T15:26:25.872Z</time></trkpt><trkpt lat="37.6680304" lon="12.6298513"><ele>55.0</ele><time>2026-03-29T15:26:26.871Z</time></trkpt><trkpt lat="37.6679586" lon="12.6296636"><ele>55.33333333333333</ele><time>2026-03-29T15:26:27.872Z</time></trkpt><trkpt lat="37.6678951" lon="12.6294722"><ele>55.66666666666667</ele><time>2026-03-29T15:26:28.871Z</time></trkpt><trkpt lat="37.6678318" lon="12.6292904"><ele>56.0</ele><time>2026-03-29T15:26:29.872Z</time></trkpt><trkpt lat="37.6677716" lon="12.6291151"><ele>56.0</ele><time>2026-03-29T15:26:30.873Z</time></trkpt><trkpt lat="37.6677201" lon="12.6289505"><ele>56.0</ele><time>2026-03-29T15:26:31.873Z</time></trkpt><trkpt lat="37.6676685" lon="12.6287979"><ele>56.0</ele><time>2026-03-29T15:26:32.873Z</time></trkpt><trkpt lat="37.6676184" lon="12.6286564"><ele>56.0</ele><time>2026-03-29T15:26:33.871Z</time></trkpt><trkpt lat="37.6675719" lon="12.6285147"><ele>56.0</ele><time>2026-03-29T15:26:34.872Z</time></trkpt><trkpt lat="37.6675244" lon="12.6283653"><ele>56.0</ele><time>2026-03-29T15:26:35.872Z</time></trkpt><trkpt lat="37.6674782" lon="12.6282132"><ele>56.0</ele><time>2026-03-29T15:26:36.871Z</time></trkpt><trkpt lat="37.6674293" lon="12.6280659"><ele>56.0</ele><time>2026-03-29T15:26:37.87Z</time></trkpt><trkpt lat="37.6673789" lon="12.6279144"><ele>55.75</ele><time>2026-03-29T15:26:38.872Z</time></trkpt><trkpt lat="37.6673314" lon="12.6277559"><ele>55.5</ele><time>2026-03-29T15:26:39.872Z</time></trkpt><trkpt lat="37.6672864" lon="12.6275957"><ele>55.25</ele><time>2026-03-29T15:26:40.873Z</time></trkpt><trkpt lat="37.6672337" lon="12.6274257"><ele>55.0</ele><time>2026-03-29T15:26:41.871Z</time></trkpt><trkpt lat="37.6671832" lon="12.6272562"><ele>55.0</ele><time>2026-03-29T15:26:42.871Z</time></trkpt><trkpt lat="37.6671341" lon="12.6270903"><ele>55.0</ele><time>2026-03-29T15:26:43.872Z</time></trkpt><trkpt lat="37.6670817" lon="12.6269248"><ele>55.0</ele><time>2026-03-29T15:26:44.872Z</time></trkpt><trkpt lat="37.6670264" lon="12.6267575"><ele>55.0</ele><time>2026-03-29T15:26:45.872Z</time></trkpt><trkpt lat="37.6669768" lon="12.6265823"><ele>54.33333333333333</ele><time>2026-03-29T15:26:46.873Z</time></trkpt><trkpt lat="37.6669272" lon="12.6264047"><ele>53.66666666666667</ele><time>2026-03-29T15:26:47.871Z</time></trkpt><trkpt lat="37.666863" lon="12.6262135"><ele>53.0</ele><time>2026-03-29T15:26:48.872Z</time></trkpt><trkpt lat="37.6667879" lon="12.6259888"><ele>53.0</ele><time>2026-03-29T15:26:49.873Z</time></trkpt><trkpt lat="37.6667215" lon="12.6257842"><ele>53.0</ele><time>2026-03-29T15:26:50.872Z</time></trkpt><trkpt lat="37.6666678" lon="12.6256102"><ele>53.0</ele><time>2026-03-29T15:26:51.872Z</time></trkpt><trkpt lat="37.6666189" lon="12.625448"><ele>53.0</ele><time>2026-03-29T15:26:52.872Z</time></trkpt><trkpt lat="37.6665715" lon="12.6253018"><ele>53.0</ele><time>2026-03-29T15:26:53.872Z</time></trkpt><trkpt lat="37.6665286" lon="12.6251657"><ele>53.0</ele><time>2026-03-29T15:26:54.872Z</time></trkpt><trkpt lat="37.6664866" lon="12.6250461"><ele>53.0</ele><time>2026-03-29T15:26:55.871Z</time></trkpt><trkpt lat="37.6664457" lon="12.6249367"><ele>53.0</ele><time>2026-03-29T15:26:56.873Z</time></trkpt><trkpt lat="37.6664101" lon="12.6248394"><ele>53.00000000000001</ele><time>2026-03-29T15:26:57.873Z</time></trkpt><trkpt lat="37.6663779" lon="12.6247453"><ele>53.0</ele><time>2026-03-29T15:26:58.873Z</time></trkpt><trkpt lat="37.6663486" lon="12.6246501"><ele>53.0</ele><time>2026-03-29T15:26:59.872Z</time></trkpt><trkpt lat="37.6663191" lon="12.6245623"><ele>53.0</ele><time>2026-03-29T15:27:00.871Z</time></trkpt><trkpt lat="37.6662902" lon="12.6244784"><ele>53.00000000000001</ele><time>2026-03-29T15:27:01.872Z</time></trkpt><trkpt lat="37.6662675" lon="12.6243991"><ele>53.0</ele><time>2026-03-29T15:27:02.872Z</time></trkpt><trkpt lat="37.6662237" lon="12.6242545"><ele>53.0</ele><time>2026-03-29T15:27:04.872Z</time></trkpt><trkpt lat="37.6661838" lon="12.6241345"><ele>53.0</ele><time>2026-03-29T15:27:06.872Z</time></trkpt><trkpt lat="37.6661459" lon="12.6240303"><ele>53.0</ele><time>2026-03-29T15:27:08.872Z</time></trkpt><trkpt lat="37.6661073" lon="12.6239053"><ele>53.0</ele><time>2026-03-29T15:27:10.871Z</time></trkpt><trkpt lat="37.6660586" lon="12.6237692"><ele>53.0</ele><time>2026-03-29T15:27:12.872Z</time></trkpt><trkpt lat="37.6660304" lon="12.6236903"><ele>53.16666666666667</ele><time>2026-03-29T15:27:13.872Z</time></trkpt><trkpt lat="37.6660063" lon="12.6236151"><ele>53.333333333333336</ele><time>2026-03-29T15:27:14.872Z</time></trkpt><trkpt lat="37.6659665" lon="12.6234914"><ele>53.5</ele><time>2026-03-29T15:27:16.873Z</time></trkpt><trkpt lat="37.6659261" lon="12.623382"><ele>53.66666666666667</ele><time>2026-03-29T15:27:18.873Z</time></trkpt><trkpt lat="37.665886" lon="12.6232815"><ele>53.833333333333336</ele><time>2026-03-29T15:27:20.872Z</time></trkpt><trkpt lat="37.6658548" lon="12.6231813"><ele>54.0</ele><time>2026-03-29T15:27:22.873Z</time></trkpt><trkpt lat="37.6658186" lon="12.6230753"><ele>54.0</ele><time>2026-03-29T15:27:24.871Z</time></trkpt><trkpt lat="37.6657844" lon="12.6229948"><ele>54.0</ele><time>2026-03-29T15:27:26.873Z</time></trkpt><trkpt lat="37.6657436" lon="12.6228991"><ele>54.0</ele><time>2026-03-29T15:27:29.873Z</time></trkpt><trkpt lat="37.6657121" lon="12.6228076"><ele>54.0</ele><time>2026-03-29T15:27:32.872Z</time></trkpt><trkpt lat="37.665678" lon="12.6227333"><ele>54.0</ele><time>2026-03-29T15:27:34.873Z</time></trkpt><trkpt lat="37.665633" lon="12.6226576"><ele>54.0</ele><time>2026-03-29T15:27:36.872Z</time></trkpt><trkpt lat="37.6655939" lon="12.622594"><ele>54.0</ele><time>2026-03-29T15:27:38.873Z</time></trkpt><trkpt lat="37.6655447" lon="12.6225097"><ele>54.0</ele><time>2026-03-29T15:27:41.872Z</time></trkpt><trkpt lat="37.6654968" lon="12.6224068"><ele>54.0</ele><time>2026-03-29T15:27:44.872Z</time></trkpt><trkpt lat="37.6654571" lon="12.6223339"><ele>54.0</ele><time>2026-03-29T15:27:46.872Z</time></trkpt><trkpt lat="37.6654062" lon="12.6222479"><ele>54.0</ele><time>2026-03-29T15:27:49.871Z</time></trkpt><trkpt lat="37.6653501" lon="12.62218"><ele>54.0</ele><time>2026-03-29T15:27:51.872Z</time></trkpt><trkpt lat="37.665297" lon="12.6221232"><ele>54.0</ele><time>2026-03-29T15:27:53.871Z</time></trkpt><trkpt lat="37.6652019" lon="12.6220286"><ele>53.800000000000004</ele><time>2026-03-29T15:27:56.871Z</time></trkpt><trkpt lat="37.6651471" lon="12.621976"><ele>53.60000000000001</ele><time>2026-03-29T15:27:57.871Z</time></trkpt><trkpt lat="37.6650775" lon="12.6218911"><ele>53.4</ele><time>2026-03-29T15:27:58.872Z</time></trkpt><trkpt lat="37.6649883" lon="12.6217973"><ele>53.2</ele><time>2026-03-29T15:27:59.871Z</time></trkpt><trkpt lat="37.6648666" lon="12.6216582"><ele>53.0</ele><time>2026-03-29T15:28:00.873Z</time></trkpt><trkpt lat="37.6647667" lon="12.6215571"><ele>53.00000000000001</ele><time>2026-03-29T15:28:01.871Z</time></trkpt><trkpt lat="37.6646922" lon="12.6214695"><ele>53.0</ele><time>2026-03-29T15:28:02.872Z</time></trkpt><trkpt lat="37.6646392" lon="12.6214121"><ele>53.0</ele><time>2026-03-29T15:28:03.871Z</time></trkpt><trkpt lat="37.6645733" lon="12.6213382"><ele>53.0</ele><time>2026-03-29T15:28:05.871Z</time></trkpt><trkpt lat="37.6644988" lon="12.6213087"><ele>53.00000000000001</ele><time>2026-03-29T15:28:09.872Z</time></trkpt><trkpt lat="37.6644391" lon="12.6214077"><ele>53.0</ele><time>2026-03-29T15:28:11.871Z</time></trkpt><trkpt lat="37.6644132" lon="12.6215216"><ele>52.8</ele><time>2026-03-29T15:28:12.873Z</time></trkpt><trkpt lat="37.6643913" lon="12.6216325"><ele>52.599999999999994</ele><time>2026-03-29T15:28:13.871Z</time></trkpt><trkpt lat="37.6643591" lon="12.6217491"><ele>52.400000000000006</ele><time>2026-03-29T15:28:14.872Z</time></trkpt><trkpt lat="37.6643248" lon="12.6218693"><ele>52.2</ele><time>2026-03-29T15:28:15.873Z</time></trkpt><trkpt lat="37.6642908" lon="12.6220039"><ele>52.0</ele><time>2026-03-29T15:28:16.873Z</time></trkpt><trkpt lat="37.6642616" lon="12.6221458"><ele>52.0</ele><time>2026-03-29T15:28:17.871Z</time></trkpt><trkpt lat="37.664228" lon="12.6222841"><ele>52.0</ele><time>2026-03-29T15:28:18.872Z</time></trkpt><trkpt lat="37.6641927" lon="12.6224298"><ele>52.0</ele><time>2026-03-29T15:28:19.872Z</time></trkpt><trkpt lat="37.6641561" lon="12.6225779"><ele>52.0</ele><time>2026-03-29T15:28:20.872Z</time></trkpt><trkpt lat="37.6641172" lon="12.6227143"><ele>52.25</ele><time>2026-03-29T15:28:21.872Z</time></trkpt><trkpt lat="37.6640806" lon="12.6228433"><ele>52.5</ele><time>2026-03-29T15:28:22.872Z</time></trkpt><trkpt lat="37.6640406" lon="12.6229818"><ele>52.75</ele><time>2026-03-29T15:28:23.872Z</time></trkpt><trkpt lat="37.6639973" lon="12.6231231"><ele>53.0</ele><time>2026-03-29T15:28:24.872Z</time></trkpt><trkpt lat="37.6639444" lon="12.6232649"><ele>53.0</ele><time>2026-03-29T15:28:25.871Z</time></trkpt><trkpt lat="37.6638875" lon="12.6234054"><ele>53.0</ele><time>2026-03-29T15:28:26.871Z</time></trkpt><trkpt lat="37.6638258" lon="12.6235437"><ele>53.0</ele><time>2026-03-29T15:28:27.872Z</time></trkpt><trkpt lat="37.6637609" lon="12.6236882"><ele>53.0</ele><time>2026-03-29T15:28:28.872Z</time></trkpt><trkpt lat="37.6636983" lon="12.6238369"><ele>53.0</ele><time>2026-03-29T15:28:29.873Z</time></trkpt><trkpt lat="37.6636338" lon="12.623981"><ele>53.0</ele><time>2026-03-29T15:28:30.872Z</time></trkpt><trkpt lat="37.6635701" lon="12.6241234"><ele>53.0</ele><time>2026-03-29T15:28:31.872Z</time></trkpt><trkpt lat="37.6635052" lon="12.6242702"><ele>53.0</ele><time>2026-03-29T15:28:32.872Z</time></trkpt><trkpt lat="37.6634404" lon="12.6244199"><ele>52.75</ele><time>2026-03-29T15:28:33.872Z</time></trkpt><trkpt lat="37.6633772" lon="12.6245677"><ele>52.5</ele><time>2026-03-29T15:28:34.872Z</time></trkpt><trkpt lat="37.6633122" lon="12.6247023"><ele>52.25</ele><time>2026-03-29T15:28:35.872Z</time></trkpt><trkpt lat="37.6632446" lon="12.6248269"><ele>52.0</ele><time>2026-03-29T15:28:36.872Z</time></trkpt><trkpt lat="37.6631713" lon="12.6249444"><ele>52.0</ele><time>2026-03-29T15:28:37.872Z</time></trkpt><trkpt lat="37.6630875" lon="12.6250602"><ele>52.0</ele><time>2026-03-29T15:28:38.872Z</time></trkpt><trkpt lat="37.6629909" lon="12.6251709"><ele>52.0</ele><time>2026-03-29T15:28:39.873Z</time></trkpt><trkpt lat="37.6628814" lon="12.6252726"><ele>52.0</ele><time>2026-03-29T15:28:40.873Z</time></trkpt><trkpt lat="37.6627644" lon="12.6253768"><ele>52.0</ele><time>2026-03-29T15:28:41.871Z</time></trkpt><trkpt lat="37.6626247" lon="12.625495"><ele>52.0</ele><time>2026-03-29T15:28:42.872Z</time></trkpt><trkpt lat="37.6624478" lon="12.6256553"><ele>52.0</ele><time>2026-03-29T15:28:43.872Z</time></trkpt><trkpt lat="37.6622486" lon="12.6258402"><ele>52.0</ele><time>2026-03-29T15:28:44.873Z</time></trkpt><trkpt lat="37.6620288" lon="12.6260446"><ele>52.0</ele><time>2026-03-29T15:28:45.871Z</time></trkpt><trkpt lat="37.661788" lon="12.6262638"><ele>52.0</ele><time>2026-03-29T15:28:46.872Z</time></trkpt><trkpt lat="37.6615332" lon="12.6264995"><ele>52.0</ele><time>2026-03-29T15:28:47.873Z</time></trkpt><trkpt lat="37.6612721" lon="12.6267475"><ele>53.0</ele><time>2026-03-29T15:28:48.872Z</time></trkpt><trkpt lat="37.6610023" lon="12.6270069"><ele>54.0</ele><time>2026-03-29T15:28:49.871Z</time></trkpt><trkpt lat="37.6607608" lon="12.6272356"><ele>54.0</ele><time>2026-03-29T15:28:50.871Z</time></trkpt><trkpt lat="37.6605422" lon="12.6274383"><ele>54.0</ele><time>2026-03-29T15:28:51.872Z</time></trkpt><trkpt lat="37.6603498" lon="12.6276153"><ele>54.0</ele><time>2026-03-29T15:28:52.872Z</time></trkpt><trkpt lat="37.6601815" lon="12.6277643"><ele>54.0</ele><time>2026-03-29T15:28:53.872Z</time></trkpt><trkpt lat="37.6600355" lon="12.6278906"><ele>54.0</ele><time>2026-03-29T15:28:54.872Z</time></trkpt><trkpt lat="37.6599132" lon="12.6280028"><ele>54.0</ele><time>2026-03-29T15:28:55.872Z</time></trkpt><trkpt lat="37.6598117" lon="12.6280938"><ele>54.00000000000001</ele><time>2026-03-29T15:28:56.872Z</time></trkpt><trkpt lat="37.6597281" lon="12.628168"><ele>54.00000000000001</ele><time>2026-03-29T15:28:57.873Z</time></trkpt><trkpt lat="37.6596717" lon="12.6282172"><ele>54.0</ele><time>2026-03-29T15:28:58.872Z</time></trkpt><trkpt lat="37.6595888" lon="12.6282718"><ele>54.0</ele><time>2026-03-29T15:29:00.872Z</time></trkpt><trkpt lat="37.6595259" lon="12.6282409"><ele>54.0</ele><time>2026-03-29T15:29:04.872Z</time></trkpt><trkpt lat="37.6594768" lon="12.6281582"><ele>54.00000000000001</ele><time>2026-03-29T15:29:06.872Z</time></trkpt><trkpt lat="37.6594213" lon="12.6280409"><ele>54.00000000000001</ele><time>2026-03-29T15:29:08.872Z</time></trkpt><trkpt lat="37.6593701" lon="12.6279256"><ele>54.0</ele><time>2026-03-29T15:29:10.872Z</time></trkpt><trkpt lat="37.6593224" lon="12.6278274"><ele>54.0</ele><time>2026-03-29T15:29:12.873Z</time></trkpt><trkpt lat="37.6592673" lon="12.6277111"><ele>54.0</ele><time>2026-03-29T15:29:14.873Z</time></trkpt><trkpt lat="37.6592026" lon="12.6275773"><ele>54.00000000000001</ele><time>2026-03-29T15:29:16.873Z</time></trkpt><trkpt lat="37.6591661" lon="12.6275001"><ele>54.00000000000001</ele><time>2026-03-29T15:29:17.873Z</time></trkpt><trkpt lat="37.6591165" lon="12.6274071"><ele>54.0</ele><time>2026-03-29T15:29:18.872Z</time></trkpt><trkpt lat="37.659063" lon="12.6273072"><ele>54.0</ele><time>2026-03-29T15:29:19.873Z</time></trkpt><trkpt lat="37.6590106" lon="12.6271901"><ele>54.0</ele><time>2026-03-29T15:29:20.871Z</time></trkpt><trkpt lat="37.658956" lon="12.6270717"><ele>54.00000000000001</ele><time>2026-03-29T15:29:21.872Z</time></trkpt><trkpt lat="37.6588997" lon="12.6269491"><ele>54.00000000000001</ele><time>2026-03-29T15:29:22.873Z</time></trkpt><trkpt lat="37.6588466" lon="12.6268369"><ele>54.0</ele><time>2026-03-29T15:29:23.872Z</time></trkpt><trkpt lat="37.6588014" lon="12.6267397"><ele>54.0</ele><time>2026-03-29T15:29:24.872Z</time></trkpt><trkpt lat="37.658765" lon="12.626654"><ele>53.800000000000004</ele><time>2026-03-29T15:29:25.873Z</time></trkpt><trkpt lat="37.6587072" lon="12.6265211"><ele>53.60000000000001</ele><time>2026-03-29T15:29:27.872Z</time></trkpt><trkpt lat="37.6586523" lon="12.626395"><ele>53.4</ele><time>2026-03-29T15:29:29.873Z</time></trkpt><trkpt lat="37.658599" lon="12.626287"><ele>53.2</ele><time>2026-03-29T15:29:31.872Z</time></trkpt><trkpt lat="37.6585546" lon="12.6261867"><ele>53.0</ele><time>2026-03-29T15:29:33.872Z</time></trkpt><trkpt lat="37.6585101" lon="12.6260735"><ele>52.833333333333336</ele><time>2026-03-29T15:29:35.871Z</time></trkpt><trkpt lat="37.6584776" lon="12.6259916"><ele>52.66666666666667</ele><time>2026-03-29T15:29:36.873Z</time></trkpt><trkpt lat="37.6584321" lon="12.6259063"><ele>52.5</ele><time>2026-03-29T15:29:37.872Z</time></trkpt><trkpt lat="37.6583888" lon="12.6258159"><ele>52.33333333333333</ele><time>2026-03-29T15:29:38.871Z</time></trkpt><trkpt lat="37.6583395" lon="12.6257103"><ele>52.166666666666664</ele><time>2026-03-29T15:29:39.873Z</time></trkpt><trkpt lat="37.6582865" lon="12.625593"><ele>52.0</ele><time>2026-03-29T15:29:40.871Z</time></trkpt><trkpt lat="37.6582303" lon="12.625469"><ele>52.0</ele><time>2026-03-29T15:29:41.871Z</time></trkpt><trkpt lat="37.6581664" lon="12.6253398"><ele>52.0</ele><time>2026-03-29T15:29:42.873Z</time></trkpt><trkpt lat="37.6581162" lon="12.6252252"><ele>52.0</ele><time>2026-03-29T15:29:43.872Z</time></trkpt><trkpt lat="37.65807" lon="12.6251183"><ele>52.0</ele><time>2026-03-29T15:29:44.873Z</time></trkpt><trkpt lat="37.6580317" lon="12.6250214"><ele>52.0</ele><time>2026-03-29T15:29:45.871Z</time></trkpt><trkpt lat="37.6580046" lon="12.6249331"><ele>52.0</ele><time>2026-03-29T15:29:46.873Z</time></trkpt><trkpt lat="37.657988" lon="12.6248009"><ele>52.0</ele><time>2026-03-29T15:29:48.873Z</time></trkpt><trkpt lat="37.6579306" lon="12.6247266"><ele>52.0</ele><time>2026-03-29T15:29:50.872Z</time></trkpt><trkpt lat="37.6577832" lon="12.6247579"><ele>52.0</ele><time>2026-03-29T15:29:52.873Z</time></trkpt><trkpt lat="37.6576901" lon="12.6247678"><ele>52.0</ele><time>2026-03-29T15:29:53.873Z</time></trkpt><trkpt lat="37.6575932" lon="12.6247781"><ele>52.5</ele><time>2026-03-29T15:29:54.873Z</time></trkpt><trkpt lat="37.6574808" lon="12.6247791"><ele>53.0</ele><time>2026-03-29T15:29:55.872Z</time></trkpt><trkpt lat="37.6573714" lon="12.6247781"><ele>53.5</ele><time>2026-03-29T15:29:56.873Z</time></trkpt><trkpt lat="37.6572606" lon="12.624772"><ele>54.0</ele><time>2026-03-29T15:29:57.873Z</time></trkpt><trkpt lat="37.6571431" lon="12.6247722"><ele>54.0</ele><time>2026-03-29T15:29:58.872Z</time></trkpt><trkpt lat="37.6570238" lon="12.6247757"><ele>54.0</ele><time>2026-03-29T15:29:59.872Z</time></trkpt><trkpt lat="37.6568977" lon="12.6247989"><ele>54.0</ele><time>2026-03-29T15:30:00.872Z</time></trkpt><trkpt lat="37.6567731" lon="12.6248378"><ele>54.0</ele><time>2026-03-29T15:30:01.871Z</time></trkpt><trkpt lat="37.6566489" lon="12.6248841"><ele>53.75</ele><time>2026-03-29T15:30:02.871Z</time></trkpt><trkpt lat="37.6565209" lon="12.6249336"><ele>53.5</ele><time>2026-03-29T15:30:03.872Z</time></trkpt><trkpt lat="37.656392" lon="12.6249852"><ele>53.25</ele><time>2026-03-29T15:30:04.872Z</time></trkpt><trkpt lat="37.6562622" lon="12.6250485"><ele>53.0</ele><time>2026-03-29T15:30:05.871Z</time></trkpt><trkpt lat="37.656124" lon="12.625112"><ele>53.333333333333336</ele><time>2026-03-29T15:30:06.872Z</time></trkpt><trkpt lat="37.6559849" lon="12.6251782"><ele>53.66666666666667</ele><time>2026-03-29T15:30:07.873Z</time></trkpt><trkpt lat="37.6558448" lon="12.6252526"><ele>54.0</ele><time>2026-03-29T15:30:08.872Z</time></trkpt><trkpt lat="37.6557049" lon="12.6253194"><ele>54.0</ele><time>2026-03-29T15:30:09.871Z</time></trkpt><trkpt lat="37.6555806" lon="12.6253781"><ele>54.00000000000001</ele><time>2026-03-29T15:30:10.873Z</time></trkpt><trkpt lat="37.6554734" lon="12.6254256"><ele>54.00000000000001</ele><time>2026-03-29T15:30:11.873Z</time></trkpt><trkpt lat="37.6553752" lon="12.6254608"><ele>54.0</ele><time>2026-03-29T15:30:12.871Z</time></trkpt><trkpt lat="37.6552998" lon="12.6254742"><ele>54.0</ele><time>2026-03-29T15:30:13.872Z</time></trkpt><trkpt lat="37.6552366" lon="12.6254578"><ele>53.666666666666664</ele><time>2026-03-29T15:30:14.871Z</time></trkpt><trkpt lat="37.6551779" lon="12.6254185"><ele>53.33333333333333</ele><time>2026-03-29T15:30:15.873Z</time></trkpt><trkpt lat="37.6551277" lon="12.6253425"><ele>53.0</ele><time>2026-03-29T15:30:16.871Z</time></trkpt><trkpt lat="37.6550912" lon="12.6252475"><ele>52.666666666666664</ele><time>2026-03-29T15:30:17.872Z</time></trkpt><trkpt lat="37.6550544" lon="12.6251276"><ele>52.33333333333333</ele><time>2026-03-29T15:30:18.873Z</time></trkpt><trkpt lat="37.6550114" lon="12.6250012"><ele>52.0</ele><time>2026-03-29T15:30:19.872Z</time></trkpt><trkpt lat="37.6549649" lon="12.6248796"><ele>52.0</ele><time>2026-03-29T15:30:20.872Z</time></trkpt><trkpt lat="37.6549232" lon="12.6247443"><ele>52.0</ele><time>2026-03-29T15:30:21.872Z</time></trkpt><trkpt lat="37.6548873" lon="12.6246027"><ele>52.0</ele><time>2026-03-29T15:30:22.873Z</time></trkpt><trkpt lat="37.6548544" lon="12.624465"><ele>52.0</ele><time>2026-03-29T15:30:23.872Z</time></trkpt><trkpt lat="37.654826" lon="12.6243281"><ele>52.0</ele><time>2026-03-29T15:30:24.873Z</time></trkpt><trkpt lat="37.6548034" lon="12.6241858"><ele>52.0</ele><time>2026-03-29T15:30:25.871Z</time></trkpt><trkpt lat="37.6547816" lon="12.6240335"><ele>52.0</ele><time>2026-03-29T15:30:26.871Z</time></trkpt><trkpt lat="37.6547629" lon="12.6238809"><ele>52.0</ele><time>2026-03-29T15:30:27.871Z</time></trkpt><trkpt lat="37.6547449" lon="12.6237329"><ele>51.75</ele><time>2026-03-29T15:30:28.872Z</time></trkpt><trkpt lat="37.654728" lon="12.6235848"><ele>51.5</ele><time>2026-03-29T15:30:29.873Z</time></trkpt><trkpt lat="37.6547091" lon="12.6234297"><ele>51.25</ele><time>2026-03-29T15:30:30.873Z</time></trkpt><trkpt lat="37.6546895" lon="12.6232736"><ele>51.0</ele><time>2026-03-29T15:30:31.873Z</time></trkpt><trkpt lat="37.6546679" lon="12.6231224"><ele>51.0</ele><time>2026-03-29T15:30:32.873Z</time></trkpt><trkpt lat="37.6546507" lon="12.6229805"><ele>51.0</ele><time>2026-03-29T15:30:33.872Z</time></trkpt><trkpt lat="37.6546295" lon="12.6228407"><ele>51.0</ele><time>2026-03-29T15:30:34.873Z</time></trkpt><trkpt lat="37.6546108" lon="12.6227215"><ele>51.0</ele><time>2026-03-29T15:30:35.873Z</time></trkpt><trkpt lat="37.654592" lon="12.6226093"><ele>51.0</ele><time>2026-03-29T15:30:36.872Z</time></trkpt><trkpt lat="37.6545733" lon="12.6224956"><ele>50.4</ele><time>2026-03-29T15:30:37.872Z</time></trkpt><trkpt lat="37.6545546" lon="12.6223892"><ele>49.8</ele><time>2026-03-29T15:30:38.872Z</time></trkpt><trkpt lat="37.6545423" lon="12.6222824"><ele>49.199999999999996</ele><time>2026-03-29T15:30:39.873Z</time></trkpt><trkpt lat="37.654536" lon="12.6221605"><ele>48.599999999999994</ele><time>2026-03-29T15:30:40.872Z</time></trkpt><trkpt lat="37.6545282" lon="12.6220308"><ele>48.0</ele><time>2026-03-29T15:30:41.872Z</time></trkpt><trkpt lat="37.6545142" lon="12.6218976"><ele>48.0</ele><time>2026-03-29T15:30:42.873Z</time></trkpt><trkpt lat="37.6544989" lon="12.6217557"><ele>48.0</ele><time>2026-03-29T15:30:43.873Z</time></trkpt><trkpt lat="37.6544827" lon="12.6216233"><ele>48.0</ele><time>2026-03-29T15:30:44.872Z</time></trkpt><trkpt lat="37.6544645" lon="12.6214971"><ele>48.0</ele><time>2026-03-29T15:30:45.873Z</time></trkpt><trkpt lat="37.6544459" lon="12.6213846"><ele>48.0</ele><time>2026-03-29T15:30:46.872Z</time></trkpt><trkpt lat="37.6544347" lon="12.6212707"><ele>48.0</ele><time>2026-03-29T15:30:47.872Z</time></trkpt><trkpt lat="37.6544194" lon="12.6211504"><ele>48.0</ele><time>2026-03-29T15:30:48.873Z</time></trkpt><trkpt lat="37.6544057" lon="12.621047"><ele>48.0</ele><time>2026-03-29T15:30:49.872Z</time></trkpt><trkpt lat="37.6543926" lon="12.6209442"><ele>48.0</ele><time>2026-03-29T15:30:50.873Z</time></trkpt><trkpt lat="37.6543888" lon="12.6208556"><ele>48.0</ele><time>2026-03-29T15:30:51.872Z</time></trkpt><trkpt lat="37.6543806" lon="12.6207722"><ele>48.0</ele><time>2026-03-29T15:30:52.872Z</time></trkpt><trkpt lat="37.6543415" lon="12.6206598"><ele>47.75</ele><time>2026-03-29T15:30:54.871Z</time></trkpt><trkpt lat="37.6542296" lon="12.6206256"><ele>47.5</ele><time>2026-03-29T15:30:56.873Z</time></trkpt><trkpt lat="37.6541457" lon="12.6206441"><ele>47.25</ele><time>2026-03-29T15:30:57.872Z</time></trkpt><trkpt lat="37.6540433" lon="12.6206656"><ele>47.0</ele><time>2026-03-29T15:30:58.873Z</time></trkpt><trkpt lat="37.6538437" lon="12.6207049"><ele>47.0</ele><time>2026-03-29T15:31:00.871Z</time></trkpt><trkpt lat="37.6537344" lon="12.6207239"><ele>47.0</ele><time>2026-03-29T15:31:01.872Z</time></trkpt><trkpt lat="37.6536238" lon="12.6207471"><ele>47.0</ele><time>2026-03-29T15:31:02.873Z</time></trkpt><trkpt lat="37.6535057" lon="12.6207719"><ele>47.0</ele><time>2026-03-29T15:31:03.872Z</time></trkpt><trkpt lat="37.6533894" lon="12.6207919"><ele>46.6</ele><time>2026-03-29T15:31:04.873Z</time></trkpt><trkpt lat="37.6532696" lon="12.6208132"><ele>46.2</ele><time>2026-03-29T15:31:05.872Z</time></trkpt><trkpt lat="37.6531683" lon="12.620832"><ele>45.8</ele><time>2026-03-29T15:31:06.873Z</time></trkpt><trkpt lat="37.6530746" lon="12.6208516"><ele>45.4</ele><time>2026-03-29T15:31:07.872Z</time></trkpt><trkpt lat="37.6529997" lon="12.6208649"><ele>45.0</ele><time>2026-03-29T15:31:08.871Z</time></trkpt><trkpt lat="37.6529313" lon="12.6208736"><ele>45.0</ele><time>2026-03-29T15:31:09.872Z</time></trkpt><trkpt lat="37.652861" lon="12.6208687"><ele>45.0</ele><time>2026-03-29T15:31:10.873Z</time></trkpt><trkpt lat="37.65279" lon="12.6208209"><ele>45.0</ele><time>2026-03-29T15:31:11.873Z</time></trkpt><trkpt lat="37.6527321" lon="12.6207459"><ele>45.0</ele><time>2026-03-29T15:31:12.872Z</time></trkpt><trkpt lat="37.6526778" lon="12.6206381"><ele>45.0</ele><time>2026-03-29T15:31:13.872Z</time></trkpt><trkpt lat="37.6526347" lon="12.620505"><ele>45.0</ele><time>2026-03-29T15:31:14.871Z</time></trkpt><trkpt lat="37.6525832" lon="12.6203558"><ele>44.666666666666664</ele><time>2026-03-29T15:31:15.872Z</time></trkpt><trkpt lat="37.6525132" lon="12.6201658"><ele>44.33333333333333</ele><time>2026-03-29T15:31:16.872Z</time></trkpt><trkpt lat="37.652427" lon="12.6199449"><ele>44.0</ele><time>2026-03-29T15:31:17.873Z</time></trkpt><trkpt lat="37.652343" lon="12.6197248"><ele>44.0</ele><time>2026-03-29T15:31:18.873Z</time></trkpt><trkpt lat="37.6522574" lon="12.6195229"><ele>44.0</ele><time>2026-03-29T15:31:19.873Z</time></trkpt><trkpt lat="37.6521625" lon="12.6193381"><ele>44.0</ele><time>2026-03-29T15:31:20.872Z</time></trkpt><trkpt lat="37.6520588" lon="12.6191665"><ele>42.666666666666664</ele><time>2026-03-29T15:31:21.871Z</time></trkpt><trkpt lat="37.6519476" lon="12.6189965"><ele>41.333333333333336</ele><time>2026-03-29T15:31:22.872Z</time></trkpt><trkpt lat="37.6518325" lon="12.6188402"><ele>40.0</ele><time>2026-03-29T15:31:23.871Z</time></trkpt><trkpt lat="37.651717" lon="12.6186829"><ele>39.66666666666667</ele><time>2026-03-29T15:31:24.871Z</time></trkpt><trkpt lat="37.6516025" lon="12.618527"><ele>39.333333333333336</ele><time>2026-03-29T15:31:25.872Z</time></trkpt><trkpt lat="37.6514584" lon="12.618345"><ele>39.0</ele><time>2026-03-29T15:31:26.872Z</time></trkpt><trkpt lat="37.6513436" lon="12.6181919"><ele>39.0</ele><time>2026-03-29T15:31:27.872Z</time></trkpt><trkpt lat="37.6512337" lon="12.618048"><ele>39.0</ele><time>2026-03-29T15:31:28.873Z</time></trkpt><trkpt lat="37.6511337" lon="12.6179423"><ele>39.0</ele><time>2026-03-29T15:31:29.873Z</time></trkpt><trkpt lat="37.6510193" lon="12.6178555"><ele>39.0</ele><time>2026-03-29T15:31:30.872Z</time></trkpt><trkpt lat="37.6508975" lon="12.6178018"><ele>38.2</ele><time>2026-03-29T15:31:31.871Z</time></trkpt><trkpt lat="37.6507674" lon="12.6177767"><ele>37.4</ele><time>2026-03-29T15:31:32.873Z</time></trkpt><trkpt lat="37.6506395" lon="12.6177677"><ele>36.6</ele><time>2026-03-29T15:31:33.872Z</time></trkpt><trkpt lat="37.6505467" lon="12.61777"><ele>35.8</ele><time>2026-03-29T15:31:34.872Z</time></trkpt><trkpt lat="37.6504652" lon="12.6177609"><ele>35.0</ele><time>2026-03-29T15:31:35.871Z</time></trkpt><trkpt lat="37.650401" lon="12.6177274"><ele>35.0</ele><time>2026-03-29T15:31:36.872Z</time></trkpt><trkpt lat="37.6503568" lon="12.6176605"><ele>35.0</ele><time>2026-03-29T15:31:37.872Z</time></trkpt><trkpt lat="37.650329" lon="12.6175557"><ele>35.0</ele><time>2026-03-29T15:31:38.872Z</time></trkpt><trkpt lat="37.6503163" lon="12.6174205"><ele>35.0</ele><time>2026-03-29T15:31:39.873Z</time></trkpt><trkpt lat="37.6503001" lon="12.6172199"><ele>35.0</ele><time>2026-03-29T15:31:40.872Z</time></trkpt><trkpt lat="37.6502832" lon="12.6169585"><ele>33.666666666666664</ele><time>2026-03-29T15:31:41.873Z</time></trkpt><trkpt lat="37.6502739" lon="12.6166958"><ele>32.333333333333336</ele><time>2026-03-29T15:31:42.872Z</time></trkpt><trkpt lat="37.6502658" lon="12.6164503"><ele>31.0</ele><time>2026-03-29T15:31:43.871Z</time></trkpt><trkpt lat="37.6502568" lon="12.6162222"><ele>30.333333333333336</ele><time>2026-03-29T15:31:44.872Z</time></trkpt><trkpt lat="37.6502496" lon="12.6160124"><ele>29.666666666666664</ele><time>2026-03-29T15:31:45.872Z</time></trkpt><trkpt lat="37.6502389" lon="12.6158076"><ele>29.0</ele><time>2026-03-29T15:31:46.871Z</time></trkpt><trkpt lat="37.6502266" lon="12.6156123"><ele>29.0</ele><time>2026-03-29T15:31:47.873Z</time></trkpt><trkpt lat="37.6502125" lon="12.6154183"><ele>29.0</ele><time>2026-03-29T15:31:48.871Z</time></trkpt><trkpt lat="37.6501923" lon="12.6152544"><ele>29.0</ele><time>2026-03-29T15:31:49.872Z</time></trkpt><trkpt lat="37.6501664" lon="12.6150954"><ele>29.0</ele><time>2026-03-29T15:31:50.871Z</time></trkpt><trkpt lat="37.6501286" lon="12.614939"><ele>28.333333333333332</ele><time>2026-03-29T15:31:51.871Z</time></trkpt><trkpt lat="37.6500419" lon="12.6147788"><ele>27.666666666666664</ele><time>2026-03-29T15:31:52.873Z</time></trkpt><trkpt lat="37.6499342" lon="12.6146145"><ele>27.0</ele><time>2026-03-29T15:31:53.872Z</time></trkpt><trkpt lat="37.6498198" lon="12.6144528"><ele>27.0</ele><time>2026-03-29T15:31:54.872Z</time></trkpt><trkpt lat="37.6497305" lon="12.6143276"><ele>27.000000000000004</ele><time>2026-03-29T15:31:55.872Z</time></trkpt><trkpt lat="37.6496535" lon="12.6142181"><ele>27.000000000000004</ele><time>2026-03-29T15:31:56.872Z</time></trkpt><trkpt lat="37.6495904" lon="12.6141199"><ele>27.0</ele><time>2026-03-29T15:31:57.87Z</time></trkpt><trkpt lat="37.6495445" lon="12.614023"><ele>27.0</ele><time>2026-03-29T15:31:58.871Z</time></trkpt><trkpt lat="37.6495142" lon="12.6139162"><ele>27.0</ele><time>2026-03-29T15:31:59.872Z</time></trkpt><trkpt lat="37.6494956" lon="12.6138066"><ele>27.000000000000004</ele><time>2026-03-29T15:32:00.873Z</time></trkpt><trkpt lat="37.6494983" lon="12.6136869"><ele>27.000000000000004</ele><time>2026-03-29T15:32:01.871Z</time></trkpt><trkpt lat="37.6495147" lon="12.6135646"><ele>27.0</ele><time>2026-03-29T15:32:02.873Z</time></trkpt><trkpt lat="37.6495356" lon="12.6134356"><ele>27.0</ele><time>2026-03-29T15:32:03.872Z</time></trkpt><trkpt lat="37.6495597" lon="12.6133028"><ele>26.400000000000002</ele><time>2026-03-29T15:32:04.873Z</time></trkpt><trkpt lat="37.64958" lon="12.613178"><ele>25.800000000000004</ele><time>2026-03-29T15:32:05.872Z</time></trkpt><trkpt lat="37.6495985" lon="12.6130677"><ele>25.2</ele><time>2026-03-29T15:32:06.873Z</time></trkpt><trkpt lat="37.6496135" lon="12.6129659"><ele>24.6</ele><time>2026-03-29T15:32:07.871Z</time></trkpt><trkpt lat="37.6496286" lon="12.6128737"><ele>24.0</ele><time>2026-03-29T15:32:08.873Z</time></trkpt><trkpt lat="37.6496546" lon="12.6127353"><ele>23.166666666666668</ele><time>2026-03-29T15:32:10.873Z</time></trkpt><trkpt lat="37.6496752" lon="12.6126322"><ele>22.333333333333332</ele><time>2026-03-29T15:32:13.873Z</time></trkpt><trkpt lat="37.6496843" lon="12.6125497"><ele>21.5</ele><time>2026-03-29T15:32:31.871Z</time></trkpt><trkpt lat="37.6496954" lon="12.6124671"><ele>20.666666666666664</ele><time>2026-03-29T15:32:32.872Z</time></trkpt><trkpt lat="37.6497005" lon="12.6123672"><ele>19.833333333333332</ele><time>2026-03-29T15:32:33.873Z</time></trkpt><trkpt lat="37.6497089" lon="12.6122554"><ele>19.0</ele><time>2026-03-29T15:32:34.871Z</time></trkpt><trkpt lat="37.649717" lon="12.6121362"><ele>19.0</ele><time>2026-03-29T15:32:35.872Z</time></trkpt><trkpt lat="37.649727" lon="12.6120194"><ele>19.0</ele><time>2026-03-29T15:32:36.871Z</time></trkpt><trkpt lat="37.6497376" lon="12.6118995"><ele>19.0</ele><time>2026-03-29T15:32:37.872Z</time></trkpt><trkpt lat="37.6497491" lon="12.6117779"><ele>19.0</ele><time>2026-03-29T15:32:38.872Z</time></trkpt><trkpt lat="37.6497613" lon="12.61166"><ele>19.0</ele><time>2026-03-29T15:32:39.872Z</time></trkpt><trkpt lat="37.6497645" lon="12.6115469"><ele>18.4</ele><time>2026-03-29T15:32:40.873Z</time></trkpt><trkpt lat="37.6497681" lon="12.6114348"><ele>17.799999999999997</ele><time>2026-03-29T15:32:41.872Z</time></trkpt><trkpt lat="37.6497729" lon="12.6113266"><ele>17.200000000000003</ele><time>2026-03-29T15:32:42.872Z</time></trkpt><trkpt lat="37.6497803" lon="12.6112314"><ele>16.6</ele><time>2026-03-29T15:32:43.872Z</time></trkpt><trkpt lat="37.6497812" lon="12.6110919"><ele>16.0</ele><time>2026-03-29T15:32:45.873Z</time></trkpt><trkpt lat="37.6497826" lon="12.6109605"><ele>15.600000000000001</ele><time>2026-03-29T15:32:47.872Z</time></trkpt><trkpt lat="37.6497981" lon="12.6108122"><ele>15.200000000000001</ele><time>2026-03-29T15:32:49.873Z</time></trkpt><trkpt lat="37.6497798" lon="12.6106914"><ele>14.799999999999999</ele><time>2026-03-29T15:32:50.871Z</time></trkpt><trkpt lat="37.6497833" lon="12.6105936"><ele>14.399999999999999</ele><time>2026-03-29T15:32:51.872Z</time></trkpt><trkpt lat="37.6497821" lon="12.6104297"><ele>14.0</ele><time>2026-03-29T15:32:53.872Z</time></trkpt><trkpt lat="37.6497856" lon="12.6103277"><ele>14.0</ele><time>2026-03-29T15:32:54.871Z</time></trkpt><trkpt lat="37.6497861" lon="12.6102265"><ele>13.999999999999998</ele><time>2026-03-29T15:32:55.872Z</time></trkpt><trkpt lat="37.6497841" lon="12.6101139"><ele>13.999999999999998</ele><time>2026-03-29T15:32:56.871Z</time></trkpt><trkpt lat="37.6497849" lon="12.6099975"><ele>14.0</ele><time>2026-03-29T15:32:57.872Z</time></trkpt><trkpt lat="37.6497897" lon="12.6098736"><ele>14.0</ele><time>2026-03-29T15:32:58.873Z</time></trkpt><trkpt lat="37.649793" lon="12.6097492"><ele>14.0</ele><time>2026-03-29T15:32:59.873Z</time></trkpt><trkpt lat="37.6497975" lon="12.6096279"><ele>13.999999999999998</ele><time>2026-03-29T15:33:00.872Z</time></trkpt><trkpt lat="37.6497989" lon="12.609506"><ele>13.999999999999998</ele><time>2026-03-29T15:33:01.872Z</time></trkpt><trkpt lat="37.6498092" lon="12.6093826"><ele>14.0</ele><time>2026-03-29T15:33:02.873Z</time></trkpt><trkpt lat="37.6498147" lon="12.6092561"><ele>14.0</ele><time>2026-03-29T15:33:03.873Z</time></trkpt><trkpt lat="37.6498252" lon="12.6091475"><ele>14.0</ele><time>2026-03-29T15:33:04.872Z</time></trkpt><trkpt lat="37.6498362" lon="12.60903"><ele>13.999999999999998</ele><time>2026-03-29T15:33:05.872Z</time></trkpt><trkpt lat="37.6498519" lon="12.6089115"><ele>13.999999999999998</ele><time>2026-03-29T15:33:06.871Z</time></trkpt><trkpt lat="37.6498643" lon="12.6087879"><ele>14.0</ele><time>2026-03-29T15:33:07.872Z</time></trkpt><trkpt lat="37.6498771" lon="12.608653"><ele>14.0</ele><time>2026-03-29T15:33:08.872Z</time></trkpt><trkpt lat="37.649885" lon="12.6085209"><ele>14.0</ele><time>2026-03-29T15:33:09.873Z</time></trkpt><trkpt lat="37.6499163" lon="12.6084011"><ele>13.999999999999998</ele><time>2026-03-29T15:33:10.871Z</time></trkpt><trkpt lat="37.6499351" lon="12.6082559"><ele>13.999999999999998</ele><time>2026-03-29T15:33:11.873Z</time></trkpt><trkpt lat="37.6499441" lon="12.6081262"><ele>14.0</ele><time>2026-03-29T15:33:12.872Z</time></trkpt><trkpt lat="37.6499598" lon="12.6079922"><ele>14.0</ele><time>2026-03-29T15:33:13.872Z</time></trkpt><trkpt lat="37.6499796" lon="12.6078525"><ele>14.25</ele><time>2026-03-29T15:33:14.873Z</time></trkpt><trkpt lat="37.6499908" lon="12.6077099"><ele>14.5</ele><time>2026-03-29T15:33:15.872Z</time></trkpt><trkpt lat="37.6500067" lon="12.6075652"><ele>14.75</ele><time>2026-03-29T15:33:16.873Z</time></trkpt><trkpt lat="37.6500242" lon="12.6074168"><ele>15.0</ele><time>2026-03-29T15:33:17.871Z</time></trkpt><trkpt lat="37.6500498" lon="12.6072752"><ele>15.0</ele><time>2026-03-29T15:33:18.872Z</time></trkpt><trkpt lat="37.6500732" lon="12.6071295"><ele>15.0</ele><time>2026-03-29T15:33:19.873Z</time></trkpt><trkpt lat="37.6501044" lon="12.6069992"><ele>15.0</ele><time>2026-03-29T15:33:20.872Z</time></trkpt><trkpt lat="37.6501276" lon="12.6068765"><ele>15.0</ele><time>2026-03-29T15:33:21.873Z</time></trkpt><trkpt lat="37.6501579" lon="12.6067654"><ele>15.0</ele><time>2026-03-29T15:33:22.872Z</time></trkpt><trkpt lat="37.6501792" lon="12.6066585"><ele>14.8</ele><time>2026-03-29T15:33:23.872Z</time></trkpt><trkpt lat="37.6502052" lon="12.6065369"><ele>14.6</ele><time>2026-03-29T15:33:24.871Z</time></trkpt><trkpt lat="37.6502313" lon="12.6064271"><ele>14.399999999999999</ele><time>2026-03-29T15:33:25.873Z</time></trkpt><trkpt lat="37.6502575" lon="12.6063161"><ele>14.2</ele><time>2026-03-29T15:33:26.872Z</time></trkpt><trkpt lat="37.6502867" lon="12.6062071"><ele>14.0</ele><time>2026-03-29T15:33:27.872Z</time></trkpt><trkpt lat="37.6503073" lon="12.6061038"><ele>14.333333333333334</ele><time>2026-03-29T15:33:28.872Z</time></trkpt><trkpt lat="37.6503248" lon="12.6060133"><ele>14.666666666666668</ele><time>2026-03-29T15:33:29.873Z</time></trkpt><trkpt lat="37.6503382" lon="12.6059162"><ele>15.0</ele><time>2026-03-29T15:33:30.872Z</time></trkpt><trkpt lat="37.6503563" lon="12.6058246"><ele>15.333333333333332</ele><time>2026-03-29T15:33:31.873Z</time></trkpt><trkpt lat="37.6503719" lon="12.6057237"><ele>15.666666666666666</ele><time>2026-03-29T15:33:32.871Z</time></trkpt><trkpt lat="37.6503962" lon="12.6056228"><ele>16.0</ele><time>2026-03-29T15:33:33.872Z</time></trkpt><trkpt lat="37.6504164" lon="12.6055047"><ele>16.0</ele><time>2026-03-29T15:33:34.872Z</time></trkpt><trkpt lat="37.6504359" lon="12.6053936"><ele>16.0</ele><time>2026-03-29T15:33:35.872Z</time></trkpt><trkpt lat="37.6504579" lon="12.6052785"><ele>16.0</ele><time>2026-03-29T15:33:36.872Z</time></trkpt><trkpt lat="37.6504783" lon="12.6051615"><ele>16.0</ele><time>2026-03-29T15:33:37.873Z</time></trkpt><trkpt lat="37.6504947" lon="12.605046"><ele>16.0</ele><time>2026-03-29T15:33:38.871Z</time></trkpt><trkpt lat="37.650517" lon="12.6049269"><ele>15.833333333333332</ele><time>2026-03-29T15:33:39.872Z</time></trkpt><trkpt lat="37.6505462" lon="12.604816"><ele>15.666666666666666</ele><time>2026-03-29T15:33:40.873Z</time></trkpt><trkpt lat="37.6505701" lon="12.604707"><ele>15.5</ele><time>2026-03-29T15:33:41.871Z</time></trkpt><trkpt lat="37.6505934" lon="12.6045968"><ele>15.333333333333332</ele><time>2026-03-29T15:33:42.872Z</time></trkpt><trkpt lat="37.6506208" lon="12.6044907"><ele>15.166666666666666</ele><time>2026-03-29T15:33:43.873Z</time></trkpt><trkpt lat="37.6506373" lon="12.6043833"><ele>15.0</ele><time>2026-03-29T15:33:44.873Z</time></trkpt><trkpt lat="37.6506645" lon="12.6042753"><ele>15.0</ele><time>2026-03-29T15:33:45.873Z</time></trkpt><trkpt lat="37.6506816" lon="12.604165"><ele>15.0</ele><time>2026-03-29T15:33:46.873Z</time></trkpt><trkpt lat="37.650706" lon="12.6040436"><ele>15.0</ele><time>2026-03-29T15:33:47.872Z</time></trkpt><trkpt lat="37.6507246" lon="12.6039277"><ele>15.0</ele><time>2026-03-29T15:33:48.873Z</time></trkpt><trkpt lat="37.6507479" lon="12.6038049"><ele>15.0</ele><time>2026-03-29T15:33:49.873Z</time></trkpt><trkpt lat="37.6507641" lon="12.6037079"><ele>15.0</ele><time>2026-03-29T15:33:50.872Z</time></trkpt><trkpt lat="37.6507836" lon="12.6036312"><ele>15.0</ele><time>2026-03-29T15:33:51.871Z</time></trkpt><trkpt lat="37.6507981" lon="12.6035408"><ele>15.0</ele><time>2026-03-29T15:33:52.873Z</time></trkpt><trkpt lat="37.6508112" lon="12.6034574"><ele>15.0</ele><time>2026-03-29T15:33:53.872Z</time></trkpt><trkpt lat="37.6508193" lon="12.603354"><ele>15.0</ele><time>2026-03-29T15:33:54.872Z</time></trkpt><trkpt lat="37.6508221" lon="12.6032346"><ele>15.0</ele><time>2026-03-29T15:33:55.872Z</time></trkpt><trkpt lat="37.6508374" lon="12.6031095"><ele>15.0</ele><time>2026-03-29T15:33:56.873Z</time></trkpt><trkpt lat="37.650852" lon="12.6029995"><ele>15.0</ele><time>2026-03-29T15:33:57.873Z</time></trkpt><trkpt lat="37.6508634" lon="12.6028879"><ele>15.0</ele><time>2026-03-29T15:33:58.871Z</time></trkpt><trkpt lat="37.6508515" lon="12.6027779"><ele>15.0</ele><time>2026-03-29T15:34:00.872Z</time></trkpt><trkpt lat="37.650895" lon="12.6026365"><ele>15.0</ele><time>2026-03-29T15:34:01.872Z</time></trkpt><trkpt lat="37.6509052" lon="12.6025312"><ele>14.833333333333334</ele><time>2026-03-29T15:34:02.872Z</time></trkpt><trkpt lat="37.6509221" lon="12.6024081"><ele>14.666666666666668</ele><time>2026-03-29T15:34:03.872Z</time></trkpt><trkpt lat="37.6509449" lon="12.6022916"><ele>14.5</ele><time>2026-03-29T15:34:04.873Z</time></trkpt><trkpt lat="37.6509667" lon="12.6021975"><ele>14.333333333333334</ele><time>2026-03-29T15:34:05.873Z</time></trkpt><trkpt lat="37.6509849" lon="12.6020958"><ele>14.166666666666668</ele><time>2026-03-29T15:34:06.872Z</time></trkpt><trkpt lat="37.6510019" lon="12.6019797"><ele>14.0</ele><time>2026-03-29T15:34:07.872Z</time></trkpt><trkpt lat="37.6510128" lon="12.6018628"><ele>14.0</ele><time>2026-03-29T15:34:08.872Z</time></trkpt><trkpt lat="37.6510212" lon="12.6017772"><ele>14.0</ele><time>2026-03-29T15:34:09.872Z</time></trkpt><trkpt lat="37.6510261" lon="12.6016885"><ele>14.0</ele><time>2026-03-29T15:34:10.871Z</time></trkpt><trkpt lat="37.6510332" lon="12.6016014"><ele>14.0</ele><time>2026-03-29T15:34:11.872Z</time></trkpt><trkpt lat="37.6510433" lon="12.6015072"><ele>14.0</ele><time>2026-03-29T15:34:12.872Z</time></trkpt><trkpt lat="37.651054" lon="12.601419"><ele>14.0</ele><time>2026-03-29T15:34:13.873Z</time></trkpt><trkpt lat="37.651064" lon="12.601324"><ele>14.0</ele><time>2026-03-29T15:34:14.871Z</time></trkpt><trkpt lat="37.6510722" lon="12.601228"><ele>14.000000000000002</ele><time>2026-03-29T15:34:15.872Z</time></trkpt><trkpt lat="37.6510881" lon="12.601079"><ele>14.0</ele><time>2026-03-29T15:34:17.872Z</time></trkpt><trkpt lat="37.6510887" lon="12.6009919"><ele>14.0</ele><time>2026-03-29T15:34:18.873Z</time></trkpt><trkpt lat="37.6510989" lon="12.6009132"><ele>14.0</ele><time>2026-03-29T15:34:19.872Z</time></trkpt><trkpt lat="37.651107" lon="12.6008245"><ele>14.000000000000002</ele><time>2026-03-29T15:34:21.872Z</time></trkpt><trkpt lat="37.6511345" lon="12.600696"><ele>14.0</ele><time>2026-03-29T15:34:24.872Z</time></trkpt><trkpt lat="37.6511452" lon="12.6006045"><ele>14.000000000000002</ele><time>2026-03-29T15:34:26.872Z</time></trkpt><trkpt lat="37.6511358" lon="12.60052"><ele>14.0</ele><time>2026-03-29T15:34:28.871Z</time></trkpt><trkpt lat="37.6510267" lon="12.6004684"><ele>14.0</ele><time>2026-03-29T15:34:31.872Z</time></trkpt><trkpt lat="37.6509626" lon="12.6004544"><ele>14.0</ele><time>2026-03-29T15:34:32.872Z</time></trkpt><trkpt lat="37.6508781" lon="12.6004065"><ele>14.000000000000002</ele><time>2026-03-29T15:34:33.873Z</time></trkpt><trkpt lat="37.6507941" lon="12.6003543"><ele>14.0</ele><time>2026-03-29T15:34:34.871Z</time></trkpt><trkpt lat="37.6507124" lon="12.6002909"><ele>14.5</ele><time>2026-03-29T15:34:35.873Z</time></trkpt><trkpt lat="37.6506116" lon="12.6002157"><ele>15.0</ele><time>2026-03-29T15:34:36.872Z</time></trkpt><trkpt lat="37.6504697" lon="12.6001226"><ele>15.5</ele><time>2026-03-29T15:34:37.871Z</time></trkpt><trkpt lat="37.650331" lon="12.6000081"><ele>16.0</ele><time>2026-03-29T15:34:38.872Z</time></trkpt><trkpt lat="37.650217" lon="12.5999198"><ele>16.0</ele><time>2026-03-29T15:34:39.873Z</time></trkpt><trkpt lat="37.6500901" lon="12.599834"><ele>16.0</ele><time>2026-03-29T15:34:40.871Z</time></trkpt><trkpt lat="37.6499955" lon="12.5997717"><ele>16.0</ele><time>2026-03-29T15:34:41.872Z</time></trkpt><trkpt lat="37.6499254" lon="12.5997272"><ele>16.0</ele><time>2026-03-29T15:34:42.871Z</time></trkpt><trkpt lat="37.6498358" lon="12.5996862"><ele>16.0</ele><time>2026-03-29T15:34:44.872Z</time></trkpt><trkpt lat="37.6497709" lon="12.5996795"><ele>15.999999999999998</ele><time>2026-03-29T15:34:49.872Z</time></trkpt><trkpt lat="37.6496834" lon="12.5996708"><ele>16.0</ele><time>2026-03-29T15:34:51.873Z</time></trkpt><trkpt lat="37.6496078" lon="12.5996479"><ele>16.0</ele><time>2026-03-29T15:34:53.873Z</time></trkpt><trkpt lat="37.6495501" lon="12.5996129"><ele>16.0</ele><time>2026-03-29T15:36:15.873Z</time></trkpt><trkpt lat="37.6494808" lon="12.5996117"><ele>15.999999999999998</ele><time>2026-03-29T15:36:19.872Z</time></trkpt><trkpt lat="37.6494205" lon="12.5996546"><ele>16.0</ele><time>2026-03-29T15:36:24.872Z</time></trkpt><trkpt lat="37.6495534" lon="12.5998138"><ele>16.0</ele><time>2026-03-29T15:36:37.871Z</time></trkpt><trkpt lat="37.6495494" lon="12.5999038"><ele>16.0</ele><time>2026-03-29T15:36:40.873Z</time></trkpt><trkpt lat="37.6495563" lon="12.5999835"><ele>16.0</ele><time>2026-03-29T15:36:43.872Z</time></trkpt><trkpt lat="37.6495219" lon="12.5999103"><ele>16.0</ele><time>2026-03-29T15:36:46.873Z</time></trkpt></trkseg></trk></gpx>